# Wetter Temperatur Luftdruck Luftfeuchtigkeit Sichtweite Windgeschwindigkeit Windrichtung Zeit
1 Rain 1 1004 89 1070 0.45 153 13:44 01.02.2023
2 Rain 1 1004 89 446 0.45 110 13:19 01.02.2023
3 Clouds 2 1004 84 3030 0.45 249 12:26 01.02.2023
4 Clouds 2 975 81 10000 4.71 200 10:46 01.02.2023
5 Clouds 1 1006 89 10000 0.45 301 08:26 01.02.2023
6 Clouds 2 1008 90 9550 2.97 278 22:41 31.01.2023
7 Rain 1 1008 90 10000 0.45 232 20:53 31.01.2023
8 Clouds 1 978 93 10000 3.23 283 19:24 31.01.2023
9 Clouds 1 977 98 189 3.14 279 17:31 31.01.2023
10 Rain 2 1007 89 7746 2.34 254 15:36 31.01.2023
11 Clouds 2 1006 89 10000 2.69 266 15:18 31.01.2023
12 Clouds 2 1006 89 10000 0.45 246 13:19 31.01.2023
13 Clouds 2 1006 88 10000 2.8 245 11:28 31.01.2023
14 Clouds 2 1006 89 10000 0.45 336 10:18 31.01.2023
15 Clouds 2 1006 89 10000 2.03 236 09:44 31.01.2023
16 Clouds 1 1006 90 10000 2.03 259 08:36 31.01.2023
17 Clouds 0 1004 90 10000 0.45 71 06:25 31.01.2023
18 Snow -1 1004 91 1646 4.06 237 01:54 31.01.2023
19 Snow -1 1004 91 309 0.45 242 23:26 30.01.2023
20 Snow -3 974 93 309 4.3 231 22:49 30.01.2023
21 Snow -1 1004 90 1063 0.45 107 21:38 30.01.2023
22 Clouds 0 1004 88 9748 0.89 260 20:43 30.01.2023
23 Clouds 0 1005 84 10000 0.89 247 18:26 30.01.2023
24 Clouds -1 975 67 10000 5.12 213 17:23 30.01.2023
25 Clouds -1 976 67 10000 5.09 217 14:35 30.01.2023
26 Clouds 0 1007 82 10000 0.89 186 13:39 30.01.2023
27 Clouds 0 1009 84 10000 0.45 229 11:30 30.01.2023
28 Clouds 0 1010 83 10000 0.45 245 10:19 30.01.2023
29 Clouds 0 1011 84 10000 0.45 130 09:52 30.01.2023
30 Clouds -1 1012 85 10000 3.7 226 08:19 30.01.2023
31 Clouds -1 1014 79 10000 3.4 246 04:30 30.01.2023
32 Clouds -1 1017 75 10000 0.45 91 23:35 29.01.2023
33 Clouds -1 1017 77 10000 0.45 232 22:56 29.01.2023
34 Clouds -1 1017 77 10000 2.44 255 22:21 29.01.2023
35 Clouds -1 1017 79 10000 0.45 250 20:52 29.01.2023
36 Clouds -1 1017 80 10000 0.45 136 20:18 29.01.2023
37 Clouds -1 1017 81 10000 1.94 277 19:32 29.01.2023
38 Clouds 0 1018 84 10000 0.45 125 17:52 29.01.2023
39 Clouds 0 1018 86 10000 0.45 273 16:22 29.01.2023
40 Clouds 0 1017 86 10000 2.88 304 15:50 29.01.2023
41 Clouds -1 987 63 10000 3.09 317 13:39 29.01.2023
42 Clouds 0 1018 87 10000 0.45 23 12:53 29.01.2023
43 Clouds 0 1018 87 10000 0.89 39 12:24 29.01.2023
44 Clouds 0 1019 88 10000 3.05 325 11:58 29.01.2023
45 Clouds 0 1019 88 10000 0.45 46 11:33 29.01.2023
46 Clouds -2 989 79 10000 2.57 335 10:20 29.01.2023
47 Clouds -4 989 88 5975 2.16 350 07:57 29.01.2023
48 Clouds -4 989 86 10000 2.77 346 03:43 29.01.2023
49 Clouds -3 989 78 10000 2.7 358 23:49 28.01.2023
50 Clouds -1 989 70 10000 2.47 15 20:50 28.01.2023
51 Clouds -1 1019 83 10000 2.52 21 19:54 28.01.2023
52 Clouds -1 1019 82 10000 0.45 345 18:49 28.01.2023
53 Clouds -2 1019 84 10000 3.04 25 17:24 28.01.2023
54 Clouds -2 1019 84 10000 0.45 26 16:28 28.01.2023
55 Clouds -1 1019 83 10000 0.45 44 15:59 28.01.2023
56 Clear -1 1019 83 10000 3.6 27 15:22 28.01.2023
57 Clouds -1 1019 83 10000 0.89 346 13:47 28.01.2023
58 Clear -3 1020 89 10000 0.45 104 11:55 28.01.2023
59 Clear -4 1020 91 10000 0.45 328 10:34 28.01.2023
60 Clear -4 1021 91 10000 0.45 313 09:21 28.01.2023
61 Clouds -3 990 80 10000 2.84 36 01:51 28.01.2023
62 Clouds -3 1021 91 10000 0.89 23 00:27 28.01.2023
63 Clouds -2 1022 90 10000 2.82 49 21:56 27.01.2023
64 Clouds -3 1021 91 10000 0.45 40 18:57 27.01.2023
65 Clouds -3 1022 91 10000 0.45 323 17:58 27.01.2023
66 Clouds -2 991 79 10000 2.09 78 17:20 27.01.2023
67 Clouds -2 1022 90 10000 2.09 78 16:41 27.01.2023
68 Clouds -2 1021 90 10000 0.45 81 15:25 27.01.2023
69 Clouds -1 1021 89 10000 0.89 71 14:26 27.01.2023
70 Clouds -1 1021 88 10000 2.21 92 13:33 27.01.2023
71 Clouds -2 1022 90 10000 2.44 136 09:30 27.01.2023
72 Clouds -3 1022 91 10000 0.45 248 06:30 27.01.2023
73 Clouds -1 1023 90 10000 0.45 76 00:27 27.01.2023
74 Clouds -1 1024 89 10000 0.45 137 21:57 26.01.2023
75 Clouds -1 1024 89 10000 0.45 116 20:55 26.01.2023
76 Clouds -1 1025 89 10000 2.37 152 19:59 26.01.2023
77 Clouds -2 994 73 10000 1.98 157 17:57 26.01.2023
78 Clouds -2 994 72 10000 2.07 152 16:42 26.01.2023
79 Clouds -1 994 70 10000 2.07 150 16:20 26.01.2023
80 Clouds -1 994 70 10000 2.07 150 15:42 26.01.2023
81 Clouds -1 994 66 10000 1.81 156 15:24 26.01.2023
82 Clouds 0 1025 82 10000 0.45 92 13:50 26.01.2023
83 Clear 0 1026 85 10000 0.45 273 12:31 26.01.2023
84 Clear -1 1027 91 10000 0.45 238 10:35 26.01.2023
85 Clear -2 1027 91 10000 0.45 136 09:44 26.01.2023
86 Clear -2 1027 92 10000 1.3 210 09:19 26.01.2023
87 Clear -3 1027 90 10000 1.17 207 06:39 26.01.2023
88 Clear -3 1030 90 10000 0.89 246 23:41 25.01.2023
89 Clouds -3 999 71 10000 0.64 184 22:51 25.01.2023
90 Clouds -4 1000 71 10000 0.56 176 21:41 25.01.2023
91 Clouds -2 1000 71 10000 0.48 169 21:18 25.01.2023
92 Clear -3 1031 89 10000 0.63 81 18:30 25.01.2023
93 Clear -3 1031 88 10000 0.57 37 16:22 25.01.2023
94 Clear -3 1031 88 10000 0.57 37 15:34 25.01.2023
95 Clear -2 1032 88 10000 0.45 261 12:37 25.01.2023
96 Clear -3 1034 88 10000 1.21 33 09:54 25.01.2023
97 Clear -3 1034 89 10000 0.45 343 09:29 25.01.2023
98 Clear -3 1034 89 10000 0.45 357 06:52 25.01.2023
99 Clear -2 1035 91 10000 1.44 19 00:33 25.01.2023
100 Clear -2 1036 91 10000 1.53 24 22:45 24.01.2023
101 Clear -2 1036 91 10000 0.45 37 21:29 24.01.2023
102 Clear -2 1036 91 10000 0.45 26 19:40 24.01.2023
103 Clear -2 1022 91 10000 1.68 50 18:31 24.01.2023
104 Clear -1 1005 77 10000 1.86 43 17:19 24.01.2023
105 Clear -2 1022 91 10000 0.45 318 16:52 24.01.2023
106 Clear -2 1036 91 10000 0.45 354 14:49 24.01.2023
107 Clear 0 1005 64 10000 2.68 48 12:47 24.01.2023
108 Clouds -2 1037 91 10000 0.45 319 11:20 24.01.2023
109 Clouds -3 1037 91 10000 0.45 42 08:21 24.01.2023
110 Clouds -3 1037 91 10000 0.89 357 07:50 24.01.2023
111 Clouds -2 1023 91 10000 0.45 52 05:22 24.01.2023
112 Clouds 0 1037 88 10000 0.45 39 00:46 24.01.2023
113 Clouds 0 1037 88 10000 0.45 329 23:43 23.01.2023
114 Clouds 0 1037 90 10000 0.45 329 21:50 23.01.2023
115 Clouds 0 1037 90 10000 0.45 332 19:45 23.01.2023
116 Clouds 0 1037 91 10000 0.45 20 17:59 23.01.2023
117 Clear 1 1006 68 10000 3.32 57 15:35 23.01.2023
118 Clear 1 1006 60 10000 3.76 52 14:21 23.01.2023
119 Clouds 0 1036 90 10000 0.45 1 13:23 23.01.2023
120 Clouds 0 1036 90 10000 0.45 341 12:48 23.01.2023
121 Clouds 0 1037 90 10000 0.89 337 11:43 23.01.2023
122 Clouds 0 1036 90 10000 0.89 354 08:27 23.01.2023
123 Clouds -1 1036 79 10000 2.35 58 05:40 23.01.2023
124 Clouds -1 1035 91 10000 0.45 347 23:22 22.01.2023
125 Clear 0 1034 91 10000 2.23 103 21:33 22.01.2023
126 Clear 0 1035 91 10000 0.45 288 20:50 22.01.2023
127 Clear 0 1034 90 10000 0.45 8 19:53 22.01.2023
128 Clear 0 1034 90 10000 0.45 98 19:19 22.01.2023
129 Clear 0 1033 90 10000 0.45 18 17:57 22.01.2023
130 Clear 0 1033 90 10000 0.45 18 17:57 22.01.2023
131 Clear 0 1033 90 10000 0.45 7 17:26 22.01.2023
132 Clear 1 1033 89 10000 0.45 117 16:24 22.01.2023
133 Clear 1 1032 89 10000 0.45 170 14:55 22.01.2023
134 Clouds 2 1032 89 10000 0.45 312 13:48 22.01.2023
135 Clouds 2 1031 88 10000 0.45 172 12:49 22.01.2023
136 Clouds 2 1031 89 10000 0.89 133 11:38 22.01.2023
137 Clouds 2 1031 89 10000 0.45 96 09:36 22.01.2023
138 Clouds 2 1031 89 10000 0.45 114 08:34 22.01.2023
139 Clouds 2 1028 90 10000 2.45 127 02:50 22.01.2023
140 Clouds 2 1026 89 10000 0.45 143 23:36 21.01.2023
141 Clouds 2 1025 89 10000 0.45 157 22:41 21.01.2023
142 Clouds 2 1024 90 10000 0.45 155 20:27 21.01.2023
143 Clouds 1 1022 90 10000 0.89 110 17:59 21.01.2023
144 Clouds 1 1020 91 10000 0.45 133 14:42 21.01.2023
145 Clouds 1 1019 90 10000 0.45 331 12:58 21.01.2023
146 Clouds 1 1019 90 10000 0.89 132 12:36 21.01.2023
147 Clouds 1 1018 90 10000 0.45 108 11:27 21.01.2023
148 Clouds 1 1018 90 10000 0.45 298 09:56 21.01.2023
149 Clouds 2 1016 74 10000 5.24 116 04:41 21.01.2023
150 Clouds 4 1015 89 10000 0.89 131 22:31 20.01.2023
151 Clouds 4 1015 89 10000 0.45 123 21:57 20.01.2023
152 Clouds 5 1015 88 10000 0.45 343 21:33 20.01.2023
153 Clouds 6 1014 87 10000 0.89 116 19:55 20.01.2023
154 Clouds 9 1013 86 10000 0.45 64 17:20 20.01.2023
155 Clouds 11 1013 84 10000 0.89 65 14:47 20.01.2023
156 Clouds 11 1013 85 10000 0.89 154 13:51 20.01.2023
157 Clouds 9 1012 88 10000 0.45 194 10:48 20.01.2023
158 Clouds 7 1012 87 10000 0.89 218 08:58 20.01.2023
159 Clouds 6 1011 88 10000 0.45 260 06:40 20.01.2023
160 Clouds 9 1009 86 10000 0.89 130 02:32 20.01.2023
161 Clouds 7 1008 87 10000 5.81 171 22:37 19.01.2023
162 Clouds 8 1007 87 10000 0.45 187 21:37 19.01.2023
163 Clouds 9 1007 87 10000 0.45 136 19:29 19.01.2023
164 Clouds 9 1007 89 10000 0.45 132 18:55 19.01.2023
165 Clouds 8 977 90 10000 6.39 165 14:25 19.01.2023
166 Clouds 5 1008 90 10000 0.89 157 10:22 19.01.2023
167 Clouds 5 1008 90 10000 4.34 125 08:57 19.01.2023
168 Clouds 8 1005 88 10000 4.34 196 22:41 18.01.2023
169 Clouds 10 1003 88 10000 0.89 158 20:21 18.01.2023
170 Clouds 10 1002 88 10000 0.45 314 19:45 18.01.2023
171 Clouds 10 1002 88 10000 0.89 227 19:27 18.01.2023
172 Clouds 11 1001 88 10000 1.34 127 16:46 18.01.2023
173 Clouds 10 1000 88 10000 0.89 75 14:20 18.01.2023
174 Clouds 9 970 90 10000 7.69 159 12:25 18.01.2023
175 Clouds 8 1001 88 10000 0.45 125 09:37 18.01.2023
176 Clouds 7 1002 88 10000 0.89 206 06:44 18.01.2023
177 Clouds 6 1004 88 10000 0.89 128 01:24 18.01.2023
178 Clouds 7 1003 89 10000 0.89 120 21:53 17.01.2023
179 Clouds 7 1002 89 10000 0.89 130 19:43 17.01.2023
180 Clouds 6 1002 88 10000 0.45 119 18:51 17.01.2023
181 Clouds 6 1001 88 10000 1.34 189 17:40 17.01.2023
182 Rain 6 1001 89 10000 0.89 132 15:27 17.01.2023
183 Rain 6 1001 89 10000 0.89 85 14:45 17.01.2023
184 Clouds 5 1001 89 10000 0.45 76 13:33 17.01.2023
185 Rain 5 1002 89 10000 0.45 335 11:47 17.01.2023
186 Clouds 5 1004 89 10000 0.89 196 09:36 17.01.2023
187 Clouds 5 1004 89 10000 0.89 178 08:45 17.01.2023
188 Clouds 4 1004 89 10000 0.89 229 07:28 17.01.2023
189 Rain 4 1006 90 10000 0.89 223 01:32 17.01.2023
190 Rain 4 1006 90 10000 0.89 223 01:32 17.01.2023
191 Rain 3 1006 90 10000 0.89 141 00:48 17.01.2023
192 Rain 3 1007 91 10000 0.89 149 22:38 16.01.2023
193 Rain 3 1008 92 10000 1.79 162 21:39 16.01.2023
194 Rain 2 1008 92 10000 0.45 244 19:50 16.01.2023
195 Rain 2 1009 92 10000 0.45 226 18:57 16.01.2023
196 Clouds 2 979 95 10000 5.64 159 18:29 16.01.2023
197 Clouds 1 979 95 10000 5.64 159 17:59 16.01.2023
198 Clouds 1 979 96 10000 4.87 156 17:20 16.01.2023
199 Clouds 2 1010 91 10000 0.45 236 13:47 16.01.2023
200 Clouds 2 1010 91 10000 0.45 236 13:29 16.01.2023
201 Clouds 1 1012 91 10000 3.89 164 10:22 16.01.2023
202 Clouds 1 1012 91 10000 0.45 246 08:20 16.01.2023
203 Clouds -2 1016 92 10000 0.45 204 22:43 15.01.2023
204 Clouds -1 1016 92 10000 0.45 174 21:23 15.01.2023
205 Clouds -1 1016 92 10000 0.45 74 20:26 15.01.2023
206 Clouds -2 987 94 10000 4.42 159 18:57 15.01.2023
207 Clouds -2 987 94 10000 4.11 163 17:23 15.01.2023
208 Clouds 0 1020 91 10000 0.45 32 13:44 15.01.2023
209 Clouds 0 1020 91 10000 0.45 47 12:19 15.01.2023
210 Clouds 0 1020 91 10000 0.45 150 11:28 15.01.2023
211 Clouds -1 1021 91 10000 0.45 96 10:21 15.01.2023
212 Clouds -1 1022 92 10000 0.45 100 07:38 15.01.2023
213 Clouds -1 1023 92 10000 2.09 171 23:33 14.01.2023
214 Clouds -1 1023 92 10000 2.07 172 22:43 14.01.2023
215 Clouds -1 1023 92 10000 2.19 176 21:36 14.01.2023
216 Clouds -1 1023 92 10000 0.45 203 21:18 14.01.2023
217 Clouds -1 1023 92 10000 2.29 177 20:42 14.01.2023
218 Clouds -1 1023 92 10000 2.29 177 20:21 14.01.2023
219 Clouds -2 1023 92 10000 2.25 178 17:49 14.01.2023
220 Clouds -2 1023 92 10000 0.45 136 15:31 14.01.2023
221 Clouds -2 1023 92 10000 0.45 135 14:56 14.01.2023
222 Clouds -2 1023 92 10000 0.45 235 13:44 14.01.2023
223 Clouds -2 1023 92 10000 0.45 44 12:26 14.01.2023
224 Clouds -3 1023 92 10000 0.45 203 10:48 14.01.2023
225 Clouds -3 1023 92 10000 2.71 184 08:20 14.01.2023
226 Clouds -3 1022 91 10000 0.45 151 00:50 14.01.2023
227 Clouds -3 1022 91 10000 0.45 73 22:59 13.01.2023
228 Clouds -3 1023 91 10000 0.89 216 22:41 13.01.2023
229 Clouds -3 1022 91 10000 0.89 77 21:56 13.01.2023
230 Clouds -3 1022 91 10000 0.89 208 20:25 13.01.2023
231 Clouds -3 1022 92 10000 0.45 103 19:25 13.01.2023
232 Clouds -2 992 77 10000 2.72 158 16:58 13.01.2023
233 Clouds -2 992 79 10000 2.17 153 14:52 13.01.2023
234 Clouds -3 1023 90 10000 0.45 67 12:22 13.01.2023
235 Clouds -3 1023 91 10000 0.89 142 10:37 13.01.2023
236 Clouds -3 1024 91 10000 0.45 143 10:18 13.01.2023
237 Clouds -3 1024 91 10000 0.45 151 09:39 13.01.2023
238 Clouds -3 1024 91 10000 3.14 159 08:49 13.01.2023
239 Clouds -3 1024 91 10000 3.14 159 08:49 13.01.2023
240 Clouds -4 1024 92 10000 0.45 241 06:56 13.01.2023
241 Clouds -4 1023 92 10000 2.75 157 05:45 13.01.2023
242 Clouds -5 1024 92 10000 0.89 183 00:48 13.01.2023
243 Clouds -5 1025 92 10000 0.45 96 22:46 12.01.2023
244 Clouds -5 1025 92 10000 2.06 162 22:46 12.01.2023
245 Clouds -5 1025 91 10000 0.89 128 21:19 12.01.2023
246 Clouds -4 993 78 10000 3.14 161 20:46 12.01.2023
247 Clouds -4 1025 92 10000 0.45 257 18:26 12.01.2023
248 Clouds -4 1025 92 10000 0.45 96 16:59 12.01.2023
249 Clouds -4 1025 92 10000 0.45 135 14:54 12.01.2023
250 Clouds -4 1025 92 10000 0.89 192 14:26 12.01.2023
251 Clouds -4 1025 92 10000 0.45 175 13:38 12.01.2023
252 Clouds -4 1026 92 10000 0.45 176 11:44 12.01.2023
253 Clouds -4 1026 92 10000 0.45 102 10:24 12.01.2023
254 Clouds -6 1027 92 10000 0.45 176 06:45 12.01.2023
255 Clouds -8 1027 88 10000 0.45 139 00:31 12.01.2023
256 Clouds -8 1028 88 10000 0.45 229 23:48 11.01.2023
257 Clouds -8 1028 88 10000 0.45 229 23:48 11.01.2023
258 Clouds -8 1028 88 10000 0.89 241 23:30 11.01.2023
259 Clouds -8 1028 88 10000 0.89 241 23:30 11.01.2023
260 Clouds -8 1028 88 10000 0.45 211 22:50 11.01.2023
261 Clouds -8 1028 87 10000 0.45 233 21:20 11.01.2023
262 Clouds -7 997 58 10000 5.09 142 18:50 11.01.2023
263 Clouds -7 998 55 10000 4.53 139 17:30 11.01.2023
264 Clouds -7 998 53 10000 4.33 143 15:38 11.01.2023
265 Clouds -2 997 49 10000 4.92 133 13:54 11.01.2023
266 Clouds -3 997 47 10000 5.22 145 12:25 11.01.2023
267 Clouds -7 998 49 10000 5.58 145 10:53 11.01.2023
268 Clouds -8 1030 81 10000 0.89 114 08:31 11.01.2023
269 Clouds -8 1030 82 10000 0.89 154 07:27 11.01.2023
270 Clouds -8 1029 82 10000 0.45 176 04:37 11.01.2023
271 Clouds -6 1027 89 10000 0.45 128 22:46 10.01.2023
272 Clouds -6 1027 90 10000 0.89 330 22:18 10.01.2023
273 Snow -5 1027 88 10000 1.34 69 20:56 10.01.2023
274 Snow -4 1027 83 1803 1.79 164 19:51 10.01.2023
275 Snow -3 1026 63 1415 1.34 143 18:48 10.01.2023
276 Snow -3 1026 63 1415 1.34 143 18:48 10.01.2023
277 Clouds -3 1026 61 10000 0.89 129 17:59 10.01.2023
278 Clouds -3 994 60 10000 7.35 129 16:54 10.01.2023
279 Clouds -4 994 62 10000 7.28 126 15:33 10.01.2023
280 Clouds -3 1025 72 10000 1.34 95 14:35 10.01.2023
281 Clouds -4 1024 75 10000 1.34 122 12:31 10.01.2023
282 Clouds -5 1025 80 10000 1.34 116 09:43 10.01.2023
283 Clouds -6 1024 83 10000 0.89 121 08:37 10.01.2023
284 Clouds -5 1024 84 10000 0.89 111 07:55 10.01.2023
285 Clouds -2 1022 77 10000 1.34 153 04:59 10.01.2023
286 Clouds -1 1022 71 10000 0.89 112 00:19 10.01.2023
287 Clouds 0 1021 77 10000 0.89 183 21:57 09.01.2023
288 Clouds -2 990 53 10000 7.56 146 20:46 09.01.2023
289 Clouds -2 990 55 10000 7.71 146 19:50 09.01.2023
290 Clouds -1 1021 90 10000 0.89 114 18:21 09.01.2023
291 Clouds -1 1021 91 10000 0.89 69 17:49 09.01.2023
292 Clouds -2 990 81 10000 6.95 154 16:33 09.01.2023
293 Clouds -3 990 81 10000 6.95 154 15:31 09.01.2023
294 Clouds -3 990 86 10000 6.92 153 14:53 09.01.2023
295 Clouds -3 990 85 9157 7.09 152 14:21 09.01.2023
296 Clouds -3 1022 92 5011 0.89 123 12:49 09.01.2023
297 Clouds -3 1022 92 3151 0.89 145 11:45 09.01.2023
298 Snow -4 1022 92 482 1.34 122 11:19 09.01.2023
299 Clouds -6 1023 92 6146 0.89 74 06:53 09.01.2023
300 Clouds -5 1025 79 10000 1.34 132 02:55 09.01.2023
301 Clouds -6 1026 84 10000 0.89 180 00:50 09.01.2023
302 Clouds -6 1028 83 10000 0.45 167 21:50 08.01.2023
303 Clouds -7 1028 83 10000 0.45 65 21:21 08.01.2023
304 Clouds -7 1028 83 10000 0.45 280 20:33 08.01.2023
305 Clouds -6 1029 81 10000 0.45 223 17:59 08.01.2023
306 Clouds -6 1028 82 10000 0.45 99 17:21 08.01.2023
307 Clouds -6 1029 80 10000 0.45 217 15:49 08.01.2023
308 Clouds -6 1029 80 10000 0.45 217 15:49 08.01.2023
309 Clouds -6 1029 80 10000 0.45 83 15:30 08.01.2023
310 Clear -5 1029 83 10000 0.89 113 13:58 08.01.2023
311 Clear -5 1030 84 10000 0.89 124 13:29 08.01.2023
312 Clear -5 1030 84 10000 0.45 106 12:43 08.01.2023
313 Clouds -6 1031 85 10000 0.89 54 09:55 08.01.2023
314 Clouds -6 1031 86 10000 0.45 193 09:35 08.01.2023
315 Clouds -7 1030 88 10000 0.45 127 07:45 08.01.2023
316 Clouds -7 1030 86 10000 0.45 163 23:59 07.01.2023
317 Clouds -7 1030 85 10000 0.45 315 22:47 07.01.2023
318 Clouds -7 1030 85 10000 0.45 91 22:23 07.01.2023
319 Clouds -7 1030 85 10000 0.45 256 21:46 07.01.2023
320 Clouds -8 1030 86 10000 0.89 204 20:31 07.01.2023
321 Clouds -8 998 41 10000 3.61 114 19:29 07.01.2023
322 Clouds -8 998 41 10000 3.51 112 18:26 07.01.2023
323 Clouds -8 998 41 10000 3.51 112 17:44 07.01.2023
324 Clouds -5 1029 40 10000 3.28 108 17:20 07.01.2023
325 Clouds -5 1029 40 10000 3.04 108 16:29 07.01.2023
326 Clouds -7 998 39 10000 3.03 109 15:46 07.01.2023
327 Clouds -7 997 39 10000 2.87 107 15:22 07.01.2023
328 Clouds -7 1028 79 10000 0.45 316 14:26 07.01.2023
329 Clouds -7 1028 79 10000 0.45 124 13:43 07.01.2023
330 Clouds -7 1028 80 10000 0.45 324 13:22 07.01.2023
331 Clouds -7 1028 82 10000 2.84 111 12:21 07.01.2023
332 Clouds -8 1028 82 10000 0.45 325 10:41 07.01.2023
333 Clouds -8 1028 82 10000 0.89 334 10:18 07.01.2023
334 Clouds -9 1028 87 10000 0.89 312 08:21 07.01.2023
335 Clouds -9 1027 86 10000 0.45 87 07:43 07.01.2023
336 Clouds -8 1027 85 10000 2.99 88 06:49 07.01.2023
337 Clouds -8 1024 87 10000 0.45 11 23:54 06.01.2023
338 Clouds -6 1024 86 10000 0.45 327 22:22 06.01.2023
339 Clouds -6 1024 86 10000 0.89 21 21:58 06.01.2023
340 Clouds -5 1023 87 10000 0.45 63 20:38 06.01.2023
341 Clouds -5 1023 85 10000 0.45 344 19:56 06.01.2023
342 Clouds -5 992 52 10000 3.92 8 19:38 06.01.2023
343 Clouds -5 1022 84 10000 0.89 32 19:20 06.01.2023
344 Clouds -4 1022 83 10000 0.89 48 17:56 06.01.2023
345 Clouds -3 1021 83 10000 0.45 33 16:53 06.01.2023
346 Clouds -3 1020 84 10000 0.45 48 16:23 06.01.2023
347 Clouds -3 1020 87 10000 0.45 274 15:52 06.01.2023
348 Clouds -3 1019 87 10000 5.44 347 15:30 06.01.2023
349 Clouds -2 1018 88 10000 0.89 14 13:46 06.01.2023
350 Clouds -2 1016 90 10000 0.89 12 11:55 06.01.2023
351 Clouds -1 1015 91 10000 1.34 36 10:55 06.01.2023
352 Clouds 0 1013 91 10000 1.34 17 08:51 06.01.2023
353 Rain 1 1007 92 10000 0.45 32 05:23 06.01.2023
354 Clouds 7 1001 90 10000 0.89 286 23:38 05.01.2023
355 Clouds 7 1001 89 10000 0.89 247 22:44 05.01.2023
356 Clouds 7 1000 90 10000 0.45 240 20:57 05.01.2023
357 Rain 7 1000 90 10000 0.89 261 17:31 05.01.2023
358 Rain 6 1000 90 10000 0.45 129 16:50 05.01.2023
359 Rain 7 1000 90 10000 0.45 247 15:58 05.01.2023
360 Clouds 7 1000 91 10000 0.45 241 15:34 05.01.2023
361 Clouds 6 1000 90 10000 0.45 356 13:36 05.01.2023
362 Rain 6 1000 90 10000 0.45 224 12:41 05.01.2023
363 Rain 5 1002 90 10000 0.45 46 10:48 05.01.2023
364 Rain 4 1003 90 10000 0.45 184 09:43 05.01.2023
365 Rain 2 1005 92 10000 0.45 159 07:44 05.01.2023
366 Rain 2 1006 92 2157 0.89 240 06:42 05.01.2023
367 Clouds 0 1015 89 10000 0.45 117 00:32 05.01.2023
368 Clouds 1 1019 85 10000 0.45 199 22:26 04.01.2023
369 Clouds 1 1020 87 10000 0.45 222 21:30 04.01.2023
370 Clouds 0 1020 92 10000 0.45 240 19:58 04.01.2023
371 Clouds 0 1021 93 10000 2.46 239 19:37 04.01.2023
372 Clouds -1 1021 93 10000 2.55 250 19:18 04.01.2023
373 Clouds 2 1022 87 10000 2.92 278 16:58 04.01.2023
374 Clouds 2 1022 87 10000 3.49 296 16:30 04.01.2023
375 Clouds 3 1023 83 10000 0.45 287 14:49 04.01.2023
376 Clouds 4 1023 87 10000 0.45 68 11:56 04.01.2023
377 Clouds 4 1023 85 10000 0.45 62 11:22 04.01.2023
378 Clouds 4 1023 84 10000 0.89 118 10:44 04.01.2023
379 Clouds 4 1023 81 10000 0.45 68 10:24 04.01.2023
380 Clouds 4 1023 80 10000 0.45 274 09:24 04.01.2023
381 Clouds 2 1022 83 10000 0.45 264 05:38 04.01.2023
382 Clouds 4 1022 80 10000 0.89 282 01:20 04.01.2023
383 Clouds 5 1021 80 10000 0.89 262 23:37 03.01.2023
384 Clouds 5 1021 79 10000 0.89 239 22:55 03.01.2023
385 Clouds 6 1021 79 10000 5.63 296 21:36 03.01.2023
386 Clouds 7 1021 77 10000 0.45 233 19:57 03.01.2023
387 Clouds 9 1020 83 10000 0.45 123 18:21 03.01.2023
388 Clouds 9 1020 83 10000 5.05 291 16:39 03.01.2023
389 Clouds 11 1018 81 10000 1.34 268 14:21 03.01.2023
390 Clouds 11 1017 83 10000 0.45 262 13:32 03.01.2023
391 Clouds 11 1017 83 10000 0.45 262 13:32 03.01.2023
392 Clouds 11 1017 83 10000 0.89 251 12:58 03.01.2023
393 Clouds 11 1017 82 10000 0.89 190 12:31 03.01.2023
394 Clouds 11 1017 82 10000 1.34 262 11:41 03.01.2023
395 Clouds 7 1017 90 10000 0.45 259 07:55 03.01.2023
396 Clouds 7 1018 89 10000 0.45 259 04:23 03.01.2023
397 Clouds 7 1018 89 10000 0.45 261 03:45 03.01.2023
398 Clouds 7 1018 89 10000 0.89 253 03:20 03.01.2023
399 Clouds 7 1021 90 10000 0.45 208 22:44 02.01.2023
400 Clouds 7 1021 90 10000 2.88 212 22:24 02.01.2023
401 Clouds 7 1022 90 10000 2.79 209 20:40 02.01.2023
402 Clouds 8 1022 90 10000 2.83 204 19:54 02.01.2023
403 Clouds 8 1023 90 10000 2.42 204 18:26 02.01.2023
404 Clouds 10 994 87 10000 2 228 15:31 02.01.2023
405 Clouds 9 1025 80 10000 1.73 240 13:39 02.01.2023
406 Clouds 12 1024 79 10000 2.11 265 12:18 02.01.2023
407 Clouds 9 1025 78 10000 2.51 269 10:52 02.01.2023
408 Clouds 7 994 89 10000 2.84 258 07:39 02.01.2023
409 Clouds 8 992 81 10000 4.9 272 02:48 02.01.2023
410 Clouds 10 992 72 10000 5.93 256 22:41 01.01.2023
411 Clouds 11 992 76 10000 5.23 253 21:39 01.01.2023
412 Clouds 11 991 76 10000 5.11 251 20:48 01.01.2023
413 Clouds 11 991 74 10000 5.34 251 19:49 01.01.2023
414 Clouds 12 991 71 10000 5.34 256 18:24 01.01.2023
415 Clouds 12 991 70 10000 5.71 259 17:22 01.01.2023
416 Clouds 12 991 69 10000 5.88 257 16:33 01.01.2023
417 Clouds 13 990 67 10000 5.92 256 14:59 01.01.2023
418 Clouds 12 989 67 10000 6.08 257 13:41 01.01.2023
419 Clouds 13 989 68 10000 6.36 254 12:41 01.01.2023
420 Clouds 12 989 70 10000 6.13 246 11:39 01.01.2023
421 Clouds 11 989 73 10000 5.75 245 10:44 01.01.2023
422 Clouds 8 1020 83 10000 5.32 243 08:56 01.01.2023
423 Clouds 8 1020 83 10000 5.18 245 08:22 01.01.2023
424 Clouds 8 990 88 10000 5.2 245 07:23 01.01.2023
425 Clouds 8 989 87 10000 5.63 237 03:21 01.01.2023
426 Clouds 8 1020 83 10000 0.45 230 23:43 31.12.2022
427 Clouds 7 1020 84 10000 0.45 226 22:33 31.12.2022
428 Clouds 7 1021 84 10000 0.45 246 21:37 31.12.2022
429 Clouds 7 1021 85 10000 0.45 219 21:18 31.12.2022
430 Clouds 6 1021 87 10000 0.45 202 19:41 31.12.2022
431 Clouds 5 1021 88 10000 4.75 220 18:44 31.12.2022
432 Clouds 6 1021 88 10000 0.45 72 18:19 31.12.2022
433 Clouds 5 1021 89 10000 0.45 198 17:48 31.12.2022
434 Clouds 5 1021 89 10000 4.62 207 16:59 31.12.2022
435 Clouds 5 1022 89 10000 0.45 224 16:24 31.12.2022
436 Clouds 6 1022 86 10000 0.45 129 14:40 31.12.2022
437 Clouds 7 1022 85 10000 0.45 244 13:38 31.12.2022
438 Clouds 6 1023 88 10000 3.84 197 12:40 31.12.2022
439 Clouds 6 1023 88 10000 0.45 73 12:19 31.12.2022
440 Clouds 5 1023 88 10000 0.45 141 11:50 31.12.2022
441 Clouds 5 1024 89 10000 0.45 85 10:36 31.12.2022
442 Rain 4 1024 93 10000 3.11 204 09:54 31.12.2022
443 Rain 4 1024 93 10000 3.11 204 09:35 31.12.2022
444 Clear 1 1024 92 10000 2.37 212 07:48 31.12.2022
445 Clouds 4 1022 91 10000 0.89 272 00:35 31.12.2022
446 Clouds 4 1022 91 10000 0.89 272 00:35 31.12.2022
447 Clouds 4 1021 90 10000 0.45 203 23:45 30.12.2022
448 Clouds 5 1020 90 10000 0.45 248 22:49 30.12.2022
449 Clouds 5 1020 88 10000 0.89 247 21:44 30.12.2022
450 Clouds 5 1020 87 10000 0.45 280 21:26 30.12.2022
451 Clouds 5 1019 85 10000 3.94 260 18:59 30.12.2022
452 Clouds 5 1018 85 10000 0.45 211 17:45 30.12.2022
453 Clouds 5 1018 85 10000 0.45 218 17:26 30.12.2022
454 Clouds 5 1018 86 10000 3.41 246 15:56 30.12.2022
455 Clouds 7 1017 80 10000 3.28 230 14:35 30.12.2022
456 Clouds 6 1018 78 10000 3.7 228 10:24 30.12.2022
457 Clouds 4 1018 83 10000 0.45 340 07:59 30.12.2022
458 Clouds 2 1017 85 10000 3.59 233 02:41 30.12.2022
459 Clouds 2 1017 84 10000 3.83 228 00:53 30.12.2022
460 Clouds 3 1017 78 10000 0.45 130 22:46 29.12.2022
461 Clouds 4 1017 79 10000 0.89 202 21:29 29.12.2022
462 Clouds 4 1018 79 10000 0.45 217 20:54 29.12.2022
463 Clouds 2 1018 83 10000 0.89 145 19:55 29.12.2022
464 Clouds 2 1018 83 10000 0.45 247 17:57 29.12.2022
465 Clouds 2 1019 82 10000 0.89 132 17:29 29.12.2022
466 Clouds 3 1019 81 10000 0.45 243 16:55 29.12.2022
467 Clouds 4 1019 80 10000 3.85 208 15:58 29.12.2022
468 Clouds 4 1019 78 10000 3.87 214 14:37 29.12.2022
469 Clouds 4 1019 78 10000 0.45 240 13:20 29.12.2022
470 Clouds 4 1020 75 10000 0.45 205 11:19 29.12.2022
471 Clouds 1 1020 82 10000 0.45 217 07:39 29.12.2022
472 Clouds 2 1023 86 10000 0.45 223 23:34 28.12.2022
473 Clouds 1 1023 89 10000 0.45 219 22:33 28.12.2022
474 Clouds 2 1023 87 10000 0.45 254 21:20 28.12.2022
475 Clouds 1 1023 84 10000 0.45 241 20:22 28.12.2022
476 Clouds 1 1023 86 10000 3.07 240 18:57 28.12.2022
477 Clouds 2 1023 87 10000 3.73 258 16:43 28.12.2022
478 Clear 3 1023 77 10000 0.45 305 14:29 28.12.2022
479 Clouds 4 1022 73 10000 0.89 218 12:49 28.12.2022
480 Clouds 5 1022 73 10000 0.45 239 11:51 28.12.2022
481 Clouds 4 1022 81 10000 0.89 179 10:35 28.12.2022
482 Clouds 2 1021 88 10000 0.45 262 07:49 28.12.2022
483 Clouds 2 1020 90 10000 0.45 257 06:48 28.12.2022
484 Clouds 3 1019 89 10000 0.89 275 03:43 28.12.2022
485 Clouds 3 1017 86 10000 1.34 218 23:22 27.12.2022
486 Clouds 3 1016 88 10000 0.45 200 19:53 27.12.2022
487 Clouds 4 1015 88 10000 0.89 261 19:20 27.12.2022
488 Clouds 3 983 82 10000 8.52 297 17:20 27.12.2022
489 Clouds 6 1012 89 10000 0.89 266 16:35 27.12.2022
490 Rain 6 1012 91 10000 4.85 257 14:55 27.12.2022
491 Clouds 6 1012 91 5234 0.45 226 12:28 27.12.2022
492 Rain 5 1012 92 3609 0.45 238 10:37 27.12.2022
493 Clouds 5 1013 92 10000 0.45 252 09:45 27.12.2022
494 Clouds 4 1013 92 10000 0.89 232 09:22 27.12.2022
495 Snow 1 1014 92 10000 0.45 208 04:59 27.12.2022
496 Snow 0 1017 92 10000 0.89 85 00:43 27.12.2022
497 Clouds 0 1019 92 3909 0.89 177 21:53 26.12.2022
498 Snow 0 1020 92 1430 0.89 193 20:45 26.12.2022
499 Snow 0 1020 92 534 0.45 216 20:18 26.12.2022
500 Clouds -1 1022 92 10000 0.89 152 18:43 26.12.2022
501 Clouds 0 992 85 10000 3.13 144 17:26 26.12.2022
502 Clouds 0 993 83 10000 2.56 134 15:42 26.12.2022
503 Clouds 0 1024 90 10000 0.45 206 12:59 26.12.2022
504 Clouds 0 1025 91 10000 0.45 33 11:45 26.12.2022
505 Clouds 0 1026 92 10000 1.2 16 05:47 26.12.2022
506 Clouds 0 1025 92 10000 2.84 358 23:43 25.12.2022
507 Clouds 0 1025 91 10000 2.78 2 22:57 25.12.2022
508 Clouds 0 1025 91 10000 0.45 321 22:26 25.12.2022
509 Clouds 1 1024 91 10000 0.45 56 19:58 25.12.2022
510 Clouds 1 1023 91 10000 0.45 335 17:52 25.12.2022
511 Clouds 1 1023 91 10000 0.45 27 17:34 25.12.2022
512 Clouds 2 1023 91 10000 0.45 349 16:47 25.12.2022
513 Clouds 2 1021 91 31 0.45 62 14:29 25.12.2022
514 Clouds 2 1020 91 46 0.45 359 11:48 25.12.2022
515 Rain 2 1017 91 10000 0.45 331 06:18 25.12.2022
516 Rain 3 1014 91 10000 1.36 86 22:56 24.12.2022
517 Rain 3 1012 91 10000 0.87 112 19:54 24.12.2022
518 Clouds 3 1012 91 10000 0.68 95 17:40 24.12.2022
519 Clouds 4 1011 91 10000 0.22 182 15:45 24.12.2022
520 Clouds 4 1010 91 10000 0.55 226 14:31 24.12.2022
521 Rain 5 1010 90 10000 0.45 57 12:34 24.12.2022
522 Clouds 5 1009 87 10000 0.45 214 10:27 24.12.2022
523 Clouds 4 1009 88 10000 2.33 219 09:47 24.12.2022
524 Clouds 4 1010 89 10000 0.45 128 09:18 24.12.2022
525 Clouds 2 1009 91 10000 0.45 264 03:51 24.12.2022
526 Clouds 2 1010 90 10000 0.45 227 00:30 24.12.2022
527 Clouds 2 1010 91 10000 3.09 204 23:22 23.12.2022
528 Clouds 2 1010 90 10000 2.82 197 21:44 23.12.2022
529 Clouds 2 1010 90 10000 2.51 222 19:40 23.12.2022
530 Clouds 2 1010 90 10000 2.51 222 19:22 23.12.2022
531 Clouds 2 1010 89 10000 2.44 229 18:54 23.12.2022
532 Clouds 2 1010 89 10000 2.49 228 18:27 23.12.2022
533 Clouds 2 1010 89 10000 2.49 228 17:48 23.12.2022
534 Clouds 2 1011 90 10000 0.45 240 15:55 23.12.2022
535 Clouds 4 1010 85 10000 0.45 352 14:37 23.12.2022
536 Clouds 4 1010 84 10000 0.45 250 10:34 23.12.2022
537 Clouds 2 1011 88 10000 0.45 217 09:36 23.12.2022
538 Clouds 1 1011 91 10000 0.45 223 07:43 23.12.2022
539 Clouds 1 1010 91 10000 0.45 152 06:50 23.12.2022
540 Clouds 0 981 82 10000 2.41 200 02:45 23.12.2022
541 Clouds 2 1012 91 10000 0.45 258 23:20 22.12.2022
542 Clouds 2 1013 91 10000 1.97 190 21:56 22.12.2022
543 Clouds 3 1013 88 10000 2 193 19:48 22.12.2022
544 Clouds 3 1013 88 10000 0.45 6 19:21 22.12.2022
545 Clouds 3 1013 84 10000 0.45 224 17:59 22.12.2022
546 Clouds 3 1013 85 10000 0.45 122 16:54 22.12.2022
547 Clouds 3 1013 86 10000 0.45 237 15:48 22.12.2022
548 Clouds 3 1013 86 10000 2.24 213 15:29 22.12.2022
549 Clouds 3 1013 86 10000 2.28 211 14:28 22.12.2022
550 Rain 3 1013 86 10000 2.36 206 13:31 22.12.2022
551 Clouds 4 1013 82 10000 0.45 240 12:29 22.12.2022
552 Clouds 4 1014 79 10000 0.45 226 10:32 22.12.2022
553 Clouds 2 1014 83 10000 0.45 220 09:24 22.12.2022
554 Clouds 2 1014 87 10000 2.43 216 08:53 22.12.2022
555 Clouds 1 1014 89 10000 0.45 214 07:54 22.12.2022
556 Clouds 0 1014 89 10000 0.45 231 04:19 22.12.2022
557 Clouds 1 1015 85 10000 0.45 218 00:48 22.12.2022
558 Clouds 2 1016 83 10000 2.99 204 22:40 21.12.2022
559 Clouds 2 1016 82 10000 0.45 228 21:49 21.12.2022
560 Clouds 2 1016 81 10000 0.45 222 21:20 21.12.2022
561 Clouds 1 986 76 10000 3.02 206 20:40 21.12.2022
562 Clouds 2 987 75 10000 2.96 207 19:56 21.12.2022
563 Clouds 2 987 75 10000 2.96 207 19:37 21.12.2022
564 Clouds 2 987 74 10000 3.01 204 19:18 21.12.2022
565 Clouds 2 987 75 10000 2.96 192 18:38 21.12.2022
566 Clouds -1 1019 80 10000 2.17 199 16:19 21.12.2022
567 Clouds 0 1020 79 10000 2 203 14:20 21.12.2022
568 Clouds 1 1020 76 10000 2.11 217 11:58 21.12.2022
569 Clouds 4 989 76 10000 2.14 227 11:21 21.12.2022
570 Clouds 3 989 76 10000 2.1 222 10:29 21.12.2022
571 Clouds 2 1020 76 10000 2.22 242 08:48 21.12.2022
572 Clouds 1 1020 78 10000 2.54 229 06:30 21.12.2022
573 Clouds 1 1020 78 10000 2.45 236 06:30 21.12.2022
574 Clouds 1 1022 78 10000 0.45 133 00:26 21.12.2022
575 Clouds 1 1022 78 10000 0.45 222 21:47 20.12.2022
576 Clouds 1 1023 79 10000 0.45 194 20:58 20.12.2022
577 Clouds 1 1023 79 10000 0.45 237 19:55 20.12.2022
578 Snow 0 1024 82 10000 0.45 177 18:47 20.12.2022
579 Clouds 0 1024 85 492 0.45 230 18:22 20.12.2022
580 Snow 1 1026 66 492 0.45 209 17:48 20.12.2022
581 Clouds -1 994 68 3158 5.88 230 17:24 20.12.2022
582 Snow 1 1025 66 2485 0.89 214 15:55 20.12.2022
583 Clouds 1 1026 64 5514 0.89 226 14:55 20.12.2022
584 Clouds 1 1026 62 5890 0.89 245 14:35 20.12.2022
585 Clouds 1 1026 59 5078 0.45 244 13:26 20.12.2022
586 Clouds 1 1027 58 3424 0.89 184 12:32 20.12.2022
587 Clouds 1 1028 54 4111 0.89 228 11:42 20.12.2022
588 Clouds 0 1030 54 10000 0.89 198 09:52 20.12.2022
589 Clouds -4 1032 75 10000 0.45 13 06:24 20.12.2022
590 Clear -5 1038 88 10000 0.45 182 23:58 19.12.2022
591 Clear -6 1008 73 10000 2.95 205 22:21 19.12.2022
592 Clear -4 1040 91 10000 0.45 218 20:48 19.12.2022
593 Clear -5 1040 91 10000 0.45 253 19:40 19.12.2022
594 Clear -6 1040 93 10000 1.62 224 18:43 19.12.2022
595 Clear -5 1041 90 10000 1.75 255 17:38 19.12.2022
596 Clear -6 1042 86 10000 1.35 256 14:45 19.12.2022
597 Clouds -5 1042 77 10000 2.71 292 12:35 19.12.2022
598 Clear -2 1042 82 10000 0.45 98 11:36 19.12.2022
599 Clouds -5 1010 84 10000 2.69 308 07:48 19.12.2022
600 Clouds -6 1009 84 10000 2.9 315 06:32 19.12.2022
601 Clouds -8 1006 83 10000 4.73 321 22:59 18.12.2022
602 Clouds -7 1005 83 10000 5.04 323 21:47 18.12.2022
603 Clouds -7 1005 82 10000 5.35 321 21:24 18.12.2022
604 Clouds -7 1005 82 10000 5.35 321 20:52 18.12.2022
605 Clouds -7 1003 81 10000 5.66 320 19:43 18.12.2022
606 Clouds -7 1002 82 10000 5.92 318 18:39 18.12.2022
607 Clouds -6 1002 84 10000 6.26 316 17:52 18.12.2022
608 Clouds -5 1000 85 4122 6.42 313 15:41 18.12.2022
609 Clouds -5 999 84 5562 6.28 310 15:20 18.12.2022
610 Clouds -4 1028 86 10000 0.45 137 14:29 18.12.2022
611 Clouds -4 1028 86 10000 0.89 281 12:58 18.12.2022
612 Clouds -4 1027 85 10000 0.89 309 12:32 18.12.2022
613 Clouds -3 1027 84 10000 1.34 227 11:48 18.12.2022
614 Clouds -3 1025 86 10000 0.89 230 09:24 18.12.2022
615 Clouds -3 1025 87 10000 0.45 133 08:45 18.12.2022
616 Clouds -3 1022 88 8910 0.45 263 06:24 18.12.2022
617 Clouds -1 1020 91 10000 0.45 229 04:20 18.12.2022
618 Clouds -1 1018 91 10000 0.89 249 01:49 18.12.2022
619 Clouds 1 1014 91 10000 0.45 74 22:30 17.12.2022
620 Clouds 1 1013 91 317 0.89 228 20:35 17.12.2022
621 Rain 2 1009 93 125 0.45 271 17:20 17.12.2022
622 Rain 2 1009 93 111 1.05 20 15:18 17.12.2022
623 Clouds 4 980 100 31 0.81 70 12:33 17.12.2022
624 Clouds 3 981 100 34 0.6 123 11:18 17.12.2022
625 Clouds 3 981 100 34 0.6 124 10:39 17.12.2022
626 Clouds 3 983 100 43 1.36 112 08:36 17.12.2022
627 Clouds 2 983 100 41 1.51 153 06:47 17.12.2022
628 Clouds 2 1012 93 53 0.45 129 00:32 17.12.2022
629 Clouds 1 1013 93 93 3.27 156 22:34 16.12.2022
630 Clouds 1 982 98 283 5.04 147 20:26 16.12.2022
631 Clouds 1 983 98 608 5.42 144 17:49 16.12.2022
632 Clouds 1 984 98 441 5.95 125 15:19 16.12.2022
633 Clouds 1 985 98 441 5.95 125 14:36 16.12.2022
634 Clouds 1 1017 91 459 0.89 119 12:22 16.12.2022
635 Clouds 1 1017 91 459 0.45 49 11:35 16.12.2022
636 Clouds 0 1019 92 10000 4.38 108 09:40 16.12.2022
637 Clouds 0 1020 93 10000 2.72 92 08:27 16.12.2022
638 Clouds 0 1020 93 10000 2.72 92 08:27 16.12.2022
639 Clouds 0 1020 93 10000 2.72 92 08:27 16.12.2022
640 Clouds 0 1019 93 10000 0.45 121 07:54 16.12.2022
641 Clouds 0 987 98 10000 1.23 277 00:22 16.12.2022
642 Clouds 1 1016 93 10000 2.23 240 22:33 15.12.2022
643 Clouds 1 1015 93 10000 2.75 223 21:25 15.12.2022
644 Clouds 0 984 96 10000 3.22 211 19:42 15.12.2022
645 Clouds 0 984 96 10000 3.45 196 18:51 15.12.2022
646 Clouds -1 983 97 10000 4.17 189 17:27 15.12.2022
647 Clouds -1 983 98 343 4.41 184 15:46 15.12.2022
648 Clouds 0 982 98 85 4.76 182 14:55 15.12.2022
649 Clouds 0 1012 92 122 0.45 145 12:51 15.12.2022
650 Clouds 0 1012 92 199 0.45 159 12:22 15.12.2022
651 Clouds -2 1012 92 261 0.45 91 08:55 15.12.2022
652 Clouds -1 1012 92 220 0.89 140 08:18 15.12.2022
653 Clouds -3 1013 92 252 1.79 130 05:43 15.12.2022
654 Clouds -4 1018 92 10000 0.45 271 22:59 14.12.2022
655 Clouds -4 1019 92 10000 0.45 181 21:24 14.12.2022
656 Clouds -5 1019 92 10000 0.45 146 20:44 14.12.2022
657 Clouds -5 1019 90 10000 2.67 146 19:51 14.12.2022
658 Clouds -5 989 82 10000 2.05 174 16:58 14.12.2022
659 Clouds -4 988 82 10000 2.05 174 16:38 14.12.2022
660 Clouds -2 988 80 10000 1.66 207 14:50 14.12.2022
661 Clouds -4 1019 68 10000 2.88 254 13:19 14.12.2022
662 Clouds -1 1017 80 10000 1.34 238 10:46 14.12.2022
663 Clouds -2 1017 82 10000 0.89 240 10:22 14.12.2022
664 Clouds -4 1014 89 10000 0.89 244 06:37 14.12.2022
665 Clouds -3 1010 86 10000 0.89 93 21:57 13.12.2022
666 Clouds -2 1010 86 10000 0.89 227 21:37 13.12.2022
667 Clouds -1 1009 82 10000 1.34 251 20:47 13.12.2022
668 Clouds 0 1009 87 8922 0.45 243 19:21 13.12.2022
669 Clouds -1 1008 89 9744 0.89 244 16:36 13.12.2022
670 Clouds -1 1008 88 10000 0.89 41 14:59 13.12.2022
671 Clouds 0 1008 89 10000 0.45 9 13:33 13.12.2022
672 Clouds 0 1009 92 10000 2.03 263 10:49 13.12.2022
673 Clouds 0 1009 92 10000 0.45 85 10:26 13.12.2022
674 Clouds 0 1009 92 10000 2.08 223 08:18 13.12.2022
675 Clouds -1 1006 92 10000 0.45 216 22:37 12.12.2022
676 Clouds 0 1006 92 10000 0.45 358 21:58 12.12.2022
677 Clouds 0 1005 92 10000 0.45 250 19:46 12.12.2022
678 Clouds 0 1005 92 10000 2.25 240 17:53 12.12.2022
679 Clear -1 1004 92 10000 0.45 200 15:32 12.12.2022
680 Clear -2 973 83 10000 3.18 263 13:51 12.12.2022
681 Clouds 0 1000 93 822 0.45 96 09:21 12.12.2022
682 Clouds 0 1000 94 817 0.45 356 08:56 12.12.2022
683 Clouds -1 968 93 650 3.72 288 04:48 12.12.2022
684 Clouds 2 997 94 10000 0.45 267 01:50 12.12.2022
685 Clouds 4 995 94 10000 0.45 14 22:18 11.12.2022
686 Rain 9 993 93 10000 1.34 253 20:37 11.12.2022
687 Rain 11 992 94 10000 0.45 124 19:38 11.12.2022
688 Rain 11 992 94 10000 1.34 132 18:34 11.12.2022
689 Rain 11 992 94 10000 0.45 176 17:34 11.12.2022
690 Rain 10 992 94 7188 0.45 292 16:53 11.12.2022
691 Rain 10 992 94 8166 0.89 194 16:29 11.12.2022
692 Rain 10 992 94 8206 0.89 153 15:45 11.12.2022
693 Rain 9 993 94 10000 0.89 254 13:35 11.12.2022
694 Rain 8 994 96 10000 0.45 75 12:42 11.12.2022
695 Rain 6 997 94 96 0.45 134 10:26 11.12.2022
696 Clouds 3 974 100 64 2.07 93 01:36 11.12.2022
697 Clouds 3 975 100 59 0.41 68 00:28 11.12.2022
698 Clouds 3 975 100 59 0.28 200 22:35 10.12.2022
699 Clouds 3 975 100 60 1.44 211 21:59 10.12.2022
700 Clouds 3 975 100 65 1.41 213 20:59 10.12.2022
701 Clouds 3 974 100 69 1.76 231 20:19 10.12.2022
702 Clouds 3 1005 100 52 2.57 219 17:53 10.12.2022
703 Clouds 3 1004 100 44 2.62 207 16:46 10.12.2022
704 Clouds 3 1004 100 42 2.63 197 15:43 10.12.2022
705 Clouds 3 1004 100 44 2.6 188 15:24 10.12.2022
706 Clouds 2 974 100 62 2.97 180 13:44 10.12.2022
707 Clouds 2 974 99 130 4.46 177 12:23 10.12.2022
708 Clouds 2 974 99 313 5.13 165 10:55 10.12.2022
709 Rain 1 1006 94 7358 0.45 71 09:44 10.12.2022
710 Clouds 0 977 92 10000 5.3 144 07:22 10.12.2022
711 Clouds 0 977 92 10000 5.3 144 06:51 10.12.2022
712 Clouds 1 1011 93 10000 0.45 71 23:38 09.12.2022
713 Clouds 1 1012 93 3760 1.84 187 22:42 09.12.2022
714 Clouds 1 1012 93 145 1.73 186 21:29 09.12.2022
715 Clouds 1 1012 92 145 1.73 186 20:58 09.12.2022
716 Clouds 1 1012 92 153 1.61 195 19:46 09.12.2022
717 Clouds 1 983 100 201 1.39 172 17:56 09.12.2022
718 Clouds 1 983 100 221 1.59 163 16:53 09.12.2022
719 Clouds 1 983 100 266 1.67 146 16:18 09.12.2022
720 Clouds 1 983 100 442 1.67 132 15:27 09.12.2022
721 Clouds 1 983 99 1086 1.76 121 12:37 09.12.2022
722 Clouds 0 1014 92 10000 1.83 123 10:49 09.12.2022
723 Clouds 0 1014 92 10000 0.45 103 10:19 09.12.2022
724 Clouds -2 986 97 10000 2.16 115 05:37 09.12.2022
725 Clouds -2 986 98 10000 1.96 135 03:18 09.12.2022
726 Clouds -4 1019 97 10000 1.87 134 22:48 08.12.2022
727 Clouds -4 1019 98 10000 1.46 140 20:51 08.12.2022
728 Clouds 0 1017 93 7431 0.45 101 18:55 08.12.2022
729 Clouds 0 988 98 8800 1.64 173 16:23 08.12.2022
730 Clouds -1 988 97 10000 1.41 175 14:29 08.12.2022
731 Clouds 0 1018 92 10000 0.45 214 11:47 08.12.2022
732 Clouds 1 1018 92 10000 0.45 127 10:23 08.12.2022
733 Clouds 1 1018 92 10000 0.45 124 09:28 08.12.2022
734 Clouds -1 986 96 10000 1.83 192 06:49 08.12.2022
735 Clouds -1 984 99 136 2.22 182 22:36 07.12.2022
736 Clouds -1 984 99 136 2.22 182 22:18 07.12.2022
737 Clouds -1 984 99 136 2.22 182 21:45 07.12.2022
738 Clouds -1 984 98 432 2.73 164 19:48 07.12.2022
739 Clouds -1 1014 92 185 0.45 269 17:41 07.12.2022
740 Clouds -2 984 96 1859 3.71 148 14:41 07.12.2022
741 Clouds -2 984 95 220 4.68 152 12:39 07.12.2022
742 Clouds -2 985 95 172 5.03 151 10:46 07.12.2022
743 Clouds -2 986 95 152 5.42 148 09:56 07.12.2022
744 Clouds -3 986 95 147 5.7 145 08:51 07.12.2022
745 Snow -4 986 93 204 5.77 143 06:49 07.12.2022
746 Clouds -4 986 85 2735 5.53 141 05:23 07.12.2022
747 Clear -4 1021 89 10000 0.89 27 23:43 06.12.2022
748 Clear -4 1022 88 10000 0.45 7 21:24 06.12.2022
749 Clear -4 1024 88 10000 0.45 296 18:28 06.12.2022
750 Clear -4 993 68 10000 4.85 140 16:56 06.12.2022
751 Clear -5 994 68 10000 4.37 138 16:20 06.12.2022
752 Clear -5 994 68 10000 4.37 138 15:34 06.12.2022
753 Clear -4 1026 88 10000 0.45 133 14:32 06.12.2022
754 Clear -4 1026 87 10000 0.45 166 13:39 06.12.2022
755 Clear -4 1027 85 10000 0.89 115 12:40 06.12.2022
756 Clear -5 1028 87 10000 0.45 99 10:23 06.12.2022
757 Clouds -9 1029 91 10000 0.89 181 06:48 06.12.2022
758 Clouds -8 1031 92 10000 3.56 136 01:32 06.12.2022
759 Clouds -8 1001 73 10000 3.79 142 22:37 05.12.2022
760 Clouds -7 1001 73 10000 3.95 143 21:37 05.12.2022
761 Clouds -7 1002 74 10000 3.93 137 20:39 05.12.2022
762 Clouds -8 1002 74 10000 3.72 134 19:51 05.12.2022
763 Clouds -8 1002 73 10000 3.7 131 19:32 05.12.2022
764 Clouds -7 1002 70 10000 4.06 127 16:49 05.12.2022
765 Clouds -7 1003 70 10000 3.83 119 15:26 05.12.2022
766 Clouds -5 1003 64 10000 4.3 122 13:28 05.12.2022
767 Clouds -4 1004 64 10000 4.31 122 12:56 05.12.2022
768 Clouds -4 1004 63 10000 4.73 134 12:37 05.12.2022
769 Clouds -6 1036 88 10000 0.89 153 10:59 05.12.2022
770 Clouds -8 1037 87 10000 0.45 84 05:22 05.12.2022
771 Clouds -7 1038 80 10000 0.45 92 23:33 04.12.2022
772 Clouds -6 1038 79 10000 0.89 107 22:40 04.12.2022
773 Clouds -6 1038 80 10000 0.45 150 22:18 04.12.2022
774 Clouds -6 1038 79 10000 0.45 274 21:29 04.12.2022
775 Clouds -5 1038 76 10000 0.89 111 19:49 04.12.2022
776 Clouds -5 1038 75 10000 0.89 64 19:23 04.12.2022
777 Clouds -5 1038 76 10000 0.89 142 17:58 04.12.2022
778 Clouds -4 1038 77 10000 0.45 252 17:21 04.12.2022
779 Clouds -4 1038 80 10000 0.89 126 16:36 04.12.2022
780 Clouds -4 1038 82 10000 0.45 132 16:18 04.12.2022
781 Clouds -4 1038 81 10000 4.96 121 14:54 04.12.2022
782 Clouds -3 1038 78 10000 0.45 154 13:44 04.12.2022
783 Clouds -4 1038 79 10000 0.89 164 12:45 04.12.2022
784 Clouds 0 1007 42 10000 5.41 125 11:59 04.12.2022
785 Clouds -2 1039 45 10000 5.47 128 10:48 04.12.2022
786 Clouds -6 1039 92 10000 0.89 48 07:34 04.12.2022
787 Clouds -5 1007 75 10000 4.28 119 02:22 04.12.2022
788 Clouds -4 1007 78 10000 4.23 117 23:43 03.12.2022
789 Clouds -4 1007 78 10000 4.28 118 22:24 03.12.2022
790 Clouds -3 1007 78 10000 4.28 118 21:41 03.12.2022
791 Clouds -3 1006 77 10000 4.32 117 20:35 03.12.2022
792 Clouds -2 1005 74 10000 4.49 117 18:40 03.12.2022
793 Clouds -2 1035 91 10000 0.45 146 17:27 03.12.2022
794 Clouds -3 1035 93 10000 3.78 113 15:48 03.12.2022
795 Clouds -2 1034 83 10000 0.89 212 12:55 03.12.2022
796 Clouds -1 1034 86 10000 0.89 301 12:26 03.12.2022
797 Clouds -1 1003 69 10000 4.69 117 10:27 03.12.2022
798 Clouds -1 1033 87 10000 0.89 116 07:58 03.12.2022
799 Clouds -1 1031 81 10000 3.35 103 01:31 03.12.2022
800 Clouds -1 1031 78 10000 0.45 51 23:25 02.12.2022
801 Clouds -1 1030 77 10000 0.45 137 21:23 02.12.2022
802 Clouds -1 1030 77 10000 3.32 97 19:34 02.12.2022
803 Clouds -1 999 70 10000 2.64 82 16:19 02.12.2022
804 Clouds 0 1029 79 10000 0.45 86 14:46 02.12.2022
805 Clouds 0 1029 79 10000 0.45 86 14:27 02.12.2022
806 Clouds 0 1029 77 10000 0.89 76 13:36 02.12.2022
807 Clouds 0 1029 74 10000 0.45 174 11:44 02.12.2022
808 Clouds -1 1029 80 10000 0.45 277 09:46 02.12.2022
809 Clouds -2 1029 80 10000 0.45 277 09:46 02.12.2022
810 Clouds -1 1029 80 10000 0.45 277 09:46 02.12.2022
811 Clouds -1 1029 80 10000 0.45 277 09:46 02.12.2022
812 Clouds -1 1029 80 10000 0.45 277 09:46 02.12.2022
813 Clouds -3 1029 83 10000 2.8 92 07:25 02.12.2022
814 Clouds -3 1029 81 10000 0.45 88 05:21 02.12.2022
815 Clouds -2 1030 79 10000 0.45 12 21:59 01.12.2022
816 Clouds -2 1030 80 10000 2.71 92 21:38 01.12.2022
817 Clouds -1 1030 84 10000 0.45 9 20:30 01.12.2022
818 Clouds -1 1030 82 10000 0.45 16 18:56 01.12.2022
819 Clouds -1 1000 70 10000 2.3 80 16:22 01.12.2022
820 Clouds 0 1031 61 10000 2.72 97 13:22 01.12.2022
821 Clouds 1 1000 59 10000 3.53 106 10:42 01.12.2022
822 Clouds 0 1000 61 10000 3.56 104 09:54 01.12.2022
823 Clouds -1 1001 66 10000 3.41 99 09:36 01.12.2022
824 Clouds -4 1000 72 10000 2.69 89 05:34 01.12.2022
825 Clouds -2 1001 67 10000 2.92 88 22:40 30.11.2022
826 Clouds -1 1000 66 10000 2.93 84 21:19 30.11.2022
827 Clouds -1 1000 66 10000 2.93 84 20:48 30.11.2022
828 Clouds -1 1000 67 10000 2.84 81 20:23 30.11.2022
829 Clouds -1 1000 75 10000 2.81 79 18:35 30.11.2022
830 Clouds -2 1000 75 10000 2.72 76 17:36 30.11.2022
831 Clouds -2 1000 76 10000 2.53 76 16:20 30.11.2022
832 Clouds -1 1000 75 10000 2.49 76 14:41 30.11.2022
833 Clouds -1 1000 70 10000 2.89 81 14:23 30.11.2022
834 Clouds -1 999 74 10000 2.74 77 11:35 30.11.2022
835 Clouds -1 1000 80 10000 3.04 88 08:40 30.11.2022
836 Clouds -1 1000 86 10000 2.73 85 07:58 30.11.2022
837 Clouds -1 1000 77 10000 2.9 89 23:42 29.11.2022
838 Clouds -1 1000 76 10000 3.01 88 23:21 29.11.2022
839 Clouds -1 1000 79 10000 2.7 78 21:39 29.11.2022
840 Clouds -1 1000 85 8374 2.53 84 20:37 29.11.2022
841 Clouds -1 1000 81 10000 3.48 95 19:19 29.11.2022
842 Clouds 0 999 79 10000 3.52 92 17:36 29.11.2022
843 Clouds 0 999 82 10000 3.46 89 16:26 29.11.2022
844 Clouds 0 999 82 10000 3.4 93 14:50 29.11.2022
845 Clouds 0 999 82 10000 3.45 94 13:35 29.11.2022
846 Clouds 0 999 84 10000 3.73 98 11:57 29.11.2022
847 Clouds 0 999 85 10000 3.77 103 11:18 29.11.2022
848 Clouds 0 1000 87 10000 3.8 103 10:22 29.11.2022
849 Clouds 0 1000 90 10000 3.88 100 08:42 29.11.2022
850 Snow 1 999 99 24 3.18 100 01:30 29.11.2022
851 Clouds 1 999 99 38 3.07 100 23:35 28.11.2022
852 Clouds 1 999 99 39 3.07 100 22:53 28.11.2022
853 Clouds 1 999 99 59 2.83 93 21:54 28.11.2022
854 Clouds 1 999 100 70 2.17 71 21:36 28.11.2022
855 Clouds 1 999 99 114 1.72 48 19:41 28.11.2022
856 Clouds 1 999 96 1810 1.68 53 18:30 28.11.2022
857 Clouds 1 999 96 1810 1.68 53 17:51 28.11.2022
858 Clouds 1 999 96 5151 1.58 51 16:35 28.11.2022
859 Clouds 1 998 91 10000 1.69 68 14:28 28.11.2022
860 Clouds 1 998 91 10000 1.68 68 13:52 28.11.2022
861 Clouds 2 998 89 10000 1.75 77 12:42 28.11.2022
862 Clouds 1 999 88 10000 1.03 32 09:39 28.11.2022
863 Clouds 0 998 89 10000 1.44 325 07:27 28.11.2022
864 Clouds 0 997 90 10000 1.38 307 04:43 28.11.2022
865 Clouds 0 997 91 10000 1.75 316 03:58 28.11.2022
866 Clouds 0 997 92 10000 1.91 310 03:18 28.11.2022
867 Clouds -2 1029 94 4378 2.38 302 22:47 27.11.2022
868 Clouds -1 996 94 1923 2.44 302 21:41 27.11.2022
869 Clouds 0 996 95 8992 2.49 303 20:22 27.11.2022
870 Clouds 0 996 96 1489 2.88 304 17:49 27.11.2022
871 Clouds 0 996 98 321 2.76 318 15:20 27.11.2022
872 Clouds 0 996 98 128 3.13 315 12:32 27.11.2022
873 Snow 1 1026 96 185 0.45 177 10:48 27.11.2022
874 Clouds 1 1026 96 125 0.45 246 08:18 27.11.2022
875 Clouds 1 1025 96 6123 0.45 51 00:42 27.11.2022
876 Snow 1 1025 96 7642 0.45 182 22:22 26.11.2022
877 Clouds 1 1025 96 7645 0.45 120 20:51 26.11.2022
878 Rain 1 1024 96 78 0.45 261 19:23 26.11.2022
879 Rain 1 1024 96 51 0.45 80 17:29 26.11.2022
880 Clouds 0 993 99 23 3.27 312 15:39 26.11.2022
881 Clouds 1 992 96 328 3.65 310 13:31 26.11.2022
882 Clouds 1 992 99 25 3.16 307 11:24 26.11.2022
883 Clouds 1 991 99 24 2.87 307 09:45 26.11.2022
884 Clouds 0 991 99 25 2.81 313 08:49 26.11.2022
885 Clouds 1 988 97 1210 3.22 357 00:20 26.11.2022
886 Clouds 1 988 97 1138 3.8 350 21:41 25.11.2022
887 Clouds 1 988 97 1564 3.33 10 21:20 25.11.2022
888 Snow 1 987 97 3279 3.47 349 19:44 25.11.2022
889 Clouds 1 987 98 3410 3.25 2 16:43 25.11.2022
890 Clouds 1 986 98 3383 3.1 359 13:50 25.11.2022
891 Clouds 1 985 98 6109 1.9 360 09:20 25.11.2022
892 Clouds 1 985 98 5976 1.91 359 08:40 25.11.2022
893 Clouds 1 984 99 1235 1.66 13 06:53 25.11.2022
894 Clouds 1 982 100 96 1.45 21 02:31 25.11.2022
895 Clouds 2 982 100 45 1.2 359 23:47 24.11.2022
896 Clouds 2 981 100 45 0.88 13 22:42 24.11.2022
897 Clouds 2 981 100 46 0.73 15 21:55 24.11.2022
898 Clouds 0 1012 100 52 1.11 81 19:50 24.11.2022
899 Clouds 2 980 100 56 1.82 85 17:48 24.11.2022
900 Clouds 2 980 100 56 1.89 82 17:24 24.11.2022
901 Clouds 2 980 100 56 1.89 82 16:50 24.11.2022
902 Clouds 2 979 100 81 2.54 96 14:26 24.11.2022
903 Clouds 1 979 100 265 3.38 101 13:29 24.11.2022
904 Clouds 1 979 100 2291 3.96 101 11:46 24.11.2022
905 Clouds 1 979 100 2357 3.96 101 11:45 24.11.2022
906 Clouds 1 979 100 2357 3.96 101 11:45 24.11.2022
907 Clouds 0 979 96 10000 4.78 102 09:23 24.11.2022
908 Clouds 0 1009 94 10000 5.58 86 06:23 24.11.2022
909 Clouds 0 1012 94 7274 4.21 82 00:41 24.11.2022
910 Snow -1 1012 94 10000 3.59 87 23:32 23.11.2022
911 Clouds -1 1012 95 10000 2.96 84 21:48 23.11.2022
912 Clouds -1 1012 95 10000 2.65 83 20:52 23.11.2022
913 Clouds -1 1012 95 10000 2.35 87 19:40 23.11.2022
914 Clouds -1 1013 95 10000 2.1 84 18:56 23.11.2022
915 Clouds -1 983 97 10000 1.99 97 17:35 23.11.2022
916 Clouds 0 983 97 10000 1.16 83 14:28 23.11.2022
917 Clouds 0 982 97 10000 0.95 187 13:24 23.11.2022
918 Clouds -1 982 97 10000 0.95 187 12:41 23.11.2022
919 Clouds 0 982 95 10000 0.87 201 11:46 23.11.2022
920 Clouds -2 983 94 10000 0.34 255 10:48 23.11.2022
921 Clouds -1 983 92 10000 1.06 269 10:18 23.11.2022
922 Clouds -2 983 90 10000 1.79 254 09:28 23.11.2022
923 Clouds -1 1012 94 10000 1.81 254 08:58 23.11.2022
924 Clouds -1 1012 94 10000 1.24 263 08:36 23.11.2022
925 Clouds -1 1012 93 10000 1.92 297 05:19 23.11.2022
926 Clouds -1 1011 93 10000 3.39 274 01:42 23.11.2022
927 Clouds -5 1012 97 10000 3.21 250 22:37 22.11.2022
928 Clouds -1 1010 93 10000 2.97 255 21:49 22.11.2022
929 Clouds -1 1009 92 10000 2.99 262 21:23 22.11.2022
930 Clouds -1 1009 93 10000 2.99 262 20:43 22.11.2022
931 Clouds -2 979 96 10000 2.88 267 19:45 22.11.2022
932 Clouds -4 1011 96 10000 2.88 268 17:54 22.11.2022
933 Clouds -4 1011 96 10000 2.98 269 16:39 22.11.2022
934 Clouds 0 1008 92 10000 3.81 276 14:31 22.11.2022
935 Clouds 0 1007 92 10000 3.82 271 12:51 22.11.2022
936 Clouds -1 1006 92 10000 4.05 275 09:28 22.11.2022
937 Clouds -1 1006 92 10000 4.05 275 09:28 22.11.2022
938 Clouds -1 1006 92 10000 4.05 275 09:28 22.11.2022
939 Clouds -2 976 96 10000 3.93 273 07:59 22.11.2022
940 Clouds -2 975 96 10000 3.89 274 06:43 22.11.2022
941 Clouds -1 972 97 10000 3.84 305 00:23 22.11.2022
942 Clouds 0 972 99 723 3.88 311 22:52 21.11.2022
943 Clouds 0 972 99 723 3.88 311 22:52 21.11.2022
944 Snow 0 972 100 132 3.12 310 22:22 21.11.2022
945 Clouds 0 972 100 109 2.14 324 21:31 21.11.2022
946 Clouds 1 972 100 150 2.17 12 19:54 21.11.2022
947 Clouds 1 972 100 150 2.17 12 19:35 21.11.2022
948 Clouds 0 972 100 212 3.26 44 18:51 21.11.2022
949 Clouds 0 974 100 181 4.55 51 17:28 21.11.2022
950 Clouds 0 975 100 180 4.55 51 16:42 21.11.2022
951 Clouds 0 975 100 207 4.18 45 15:58 21.11.2022
952 Clouds 0 975 100 281 4.53 47 15:23 21.11.2022
953 Clouds 0 976 100 269 4.34 48 13:53 21.11.2022
954 Clouds 0 978 100 169 4.5 41 12:50 21.11.2022
955 Clouds 0 1011 95 260 0.45 332 09:34 21.11.2022
956 Clouds -1 1011 95 10000 0.45 66 07:52 21.11.2022
957 Clouds -1 1004 95 5236 0.45 357 23:47 20.11.2022
958 Clouds -1 1004 95 8673 0.45 115 21:37 20.11.2022
959 Clouds -2 1006 94 10000 0.45 59 20:47 20.11.2022
960 Clouds -2 1006 94 862 0.89 68 18:59 20.11.2022
961 Clouds -1 1007 94 184 0.89 44 17:18 20.11.2022
962 Clouds -1 1007 93 158 0.45 16 15:43 20.11.2022
963 Snow -1 1007 93 163 0.89 77 14:58 20.11.2022
964 Clouds 0 986 97 233 3.94 92 13:58 20.11.2022
965 Clouds 0 1017 91 246 0.45 60 13:25 20.11.2022
966 Clouds 1 988 100 173 3.91 90 11:41 20.11.2022
967 Clouds 0 988 100 173 3.49 93 10:57 20.11.2022
968 Snow 0 989 100 238 3.02 94 09:43 20.11.2022
969 Clouds 0 989 100 10000 2.86 105 08:52 20.11.2022
970 Clouds 0 989 100 10000 2.86 105 08:52 20.11.2022
971 Clouds -1 990 100 10000 2.62 104 07:58 20.11.2022
972 Clouds -2 990 100 10000 2.27 111 07:22 20.11.2022
973 Clouds -4 990 96 10000 0.73 274 01:26 20.11.2022
974 Clouds -7 1021 96 10000 0.73 274 00:45 20.11.2022
975 Clouds -7 1021 94 10000 1.11 269 00:27 20.11.2022
976 Clouds -7 1021 94 10000 1.11 269 23:57 19.11.2022
977 Clouds -3 989 100 10000 2.33 294 23:26 19.11.2022
978 Clouds -2 989 100 10000 2.33 294 22:43 19.11.2022
979 Clouds -2 989 100 10000 2.33 294 22:43 19.11.2022
980 Clouds -2 988 100 10000 3.28 285 21:47 19.11.2022
981 Clouds -2 988 100 10000 3.7 277 21:23 19.11.2022
982 Clouds -2 988 100 10000 3.7 277 20:40 19.11.2022
983 Clouds -1 987 100 10000 3.74 280 19:35 19.11.2022
984 Clouds 0 1005 90 10000 0.45 195 17:47 19.11.2022
985 Clouds 0 1005 90 10000 0.45 195 17:26 19.11.2022
986 Clouds 0 1005 90 10000 0.45 253 16:51 19.11.2022
987 Clouds 0 1001 91 10000 0.45 189 14:43 19.11.2022
988 Clouds 1 1008 92 10000 0.45 173 12:54 19.11.2022
989 Clouds 1 1006 92 10000 0.45 184 11:52 19.11.2022
990 Clouds 0 1005 93 197 0.45 35 09:45 19.11.2022
991 Clouds 0 1003 94 108 0.45 20 07:52 19.11.2022
992 Clouds 0 1003 94 130 0.89 351 04:44 19.11.2022
993 Clouds -1 1006 94 150 0.89 32 00:43 19.11.2022
994 Clouds -1 1007 94 129 0.45 42 23:30 18.11.2022
995 Clouds -1 1007 94 129 0.45 42 23:30 18.11.2022
996 Clouds -1 1007 94 146 4.54 95 22:22 18.11.2022
997 Clouds -2 1008 94 214 0.45 2 21:35 18.11.2022
998 Snow -1 1008 94 213 0.89 327 20:56 18.11.2022
999 Clouds -1 1008 93 1221 0.45 191 20:20 18.11.2022
1000 Clouds -1 1008 93 1221 0.89 346 19:35 18.11.2022
1001 Clouds -2 978 77 10000 3.75 117 17:45 18.11.2022
1002 Clouds -1 1008 87 10000 2.65 112 14:47 18.11.2022
1003 Clouds -1 1007 83 10000 0.45 117 11:49 18.11.2022
1004 Clear -1 1007 84 10000 1.7 108 10:22 18.11.2022
1005 Clear -3 1006 88 10000 1.56 80 07:52 18.11.2022
1006 Clouds -3 1005 89 10000 2.23 47 05:27 18.11.2022
1007 Clouds -3 1004 89 10000 0.45 315 01:57 18.11.2022
1008 Clouds -2 1004 91 10000 0.45 341 22:51 17.11.2022
1009 Clouds -2 1004 92 10000 0.89 10 20:47 17.11.2022
1010 Clouds -2 1004 92 10000 0.45 345 19:51 17.11.2022
1011 Clouds -1 1004 92 10000 0.89 17 19:18 17.11.2022
1012 Clouds -1 1004 92 10000 0.45 9 18:27 17.11.2022
1013 Clouds -3 1005 100 10000 3.99 48 16:56 17.11.2022
1014 Clouds -1 995 92 10000 0.89 340 15:21 17.11.2022
1015 Clouds 0 996 92 10000 0.89 344 11:45 17.11.2022
1016 Clouds 0 1006 93 3558 0.89 2 10:28 17.11.2022
1017 Clouds 0 976 93 364 4.83 40 06:19 17.11.2022
1018 Rain 1 1006 94 51 0.89 359 00:50 17.11.2022
1019 Rain 1 1006 94 22 0.45 358 22:38 16.11.2022
1020 Rain 1 1006 94 22 0.89 317 21:41 16.11.2022
1021 Rain 2 1006 94 23 0.89 353 20:19 16.11.2022
1022 Rain 2 997 93 28 1.34 327 18:48 16.11.2022
1023 Rain 4 997 93 34 0.89 329 17:57 16.11.2022
1024 Rain 5 997 93 8169 1.34 340 14:23 16.11.2022
1025 Clouds 5 1007 94 10000 0.45 86 10:24 16.11.2022
1026 Clouds 6 998 93 10000 0.82 14 06:48 16.11.2022
1027 Clear 6 1000 90 10000 2.04 270 01:34 16.11.2022
1028 Clouds 6 1001 88 10000 3.27 236 22:54 15.11.2022
1029 Clouds 6 1011 88 10000 0.45 276 20:56 15.11.2022
1030 Clouds 6 1012 88 10000 0.45 217 19:42 15.11.2022
1031 Clouds 6 1012 88 10000 4.24 214 18:51 15.11.2022
1032 Clouds 6 1013 88 10000 0.45 96 17:32 15.11.2022
1033 Clouds 6 1005 88 10000 4 203 16:20 15.11.2022
1034 Clouds 6 1005 88 10000 0.45 253 16:20 15.11.2022
1035 Clouds 6 1015 87 10000 4.23 203 15:21 15.11.2022
1036 Clouds 5 1016 87 10000 4.27 197 13:39 15.11.2022
1037 Clouds 8 1019 54 10000 4.46 198 12:26 15.11.2022
1038 Clouds 4 1019 87 10000 0.45 92 11:21 15.11.2022
1039 Clouds 4 1021 88 10000 0.45 49 09:28 15.11.2022
1040 Clouds 4 1016 89 10000 1.94 152 00:40 15.11.2022
1041 Clouds 4 1017 90 10000 0.45 70 00:18 15.11.2022
1042 Clouds 3 1018 92 10000 0.45 79 21:48 14.11.2022
1043 Clouds 4 1018 92 10000 0.89 78 20:42 14.11.2022
1044 Clouds 4 1018 93 10000 0.45 145 18:58 14.11.2022
1045 Clouds 4 1027 93 10000 0.45 357 17:28 14.11.2022
1046 Clouds 9 1027 77 10000 0.89 32 12:55 14.11.2022
1047 Clouds 9 1027 81 10000 1.34 30 11:42 14.11.2022
1048 Clouds 7 1028 89 10000 0.45 47 09:54 14.11.2022
1049 Clouds 6 1028 92 10000 0.89 24 08:29 14.11.2022
1050 Clouds 5 1019 93 10000 0.45 84 07:50 14.11.2022
1051 Clouds 8 1017 89 10000 0.45 6 00:19 14.11.2022
1052 Clouds 8 1017 89 10000 0.45 122 22:39 13.11.2022
1053 Clouds 9 1018 90 10000 0.45 158 21:40 13.11.2022
1054 Clouds 9 1017 91 10000 0.45 181 20:45 13.11.2022
1055 Clouds 9 1017 89 10000 0.89 229 18:35 13.11.2022
1056 Clouds 10 1017 88 10000 0.45 173 17:49 13.11.2022
1057 Clouds 11 1025 86 10000 0.45 319 15:20 13.11.2022
1058 Clouds 12 1017 82 10000 0.45 188 14:30 13.11.2022
1059 Clouds 13 1018 79 10000 1.34 237 12:52 13.11.2022
1060 Clouds 12 1017 82 10000 0.45 355 11:34 13.11.2022
1061 Clouds 10 1018 89 10000 0.45 6 09:44 13.11.2022
1062 Clouds 10 1027 92 10000 0.45 199 05:52 13.11.2022
1063 Clouds 10 1027 88 10000 0.89 222 23:35 12.11.2022
1064 Clouds 10 1018 91 10000 0.45 205 21:24 12.11.2022
1065 Clouds 10 1027 91 10000 0.45 122 20:23 12.11.2022
1066 Clear 11 1027 88 10000 1.34 235 18:45 12.11.2022
1067 Clear 11 1018 83 10000 0.45 273 16:32 12.11.2022
1068 Clouds 12 1018 82 10000 0.45 95 15:24 12.11.2022
1069 Clouds 12 1027 78 10000 0.89 257 13:28 12.11.2022
1070 Clouds 11 1028 86 10000 0.45 259 09:30 12.11.2022
1071 Clouds 8 1020 91 10000 0.45 300 07:47 12.11.2022
1072 Clouds 8 1020 91 10000 0.45 225 07:47 12.11.2022
1073 Clouds 6 1020 92 10000 2.56 252 23:23 11.11.2022
1074 Clouds 7 1020 93 10000 0.45 232 20:52 11.11.2022
1075 Clouds 8 1029 93 10000 1.94 264 20:23 11.11.2022
1076 Clouds 10 1028 89 10000 1.95 272 19:25 11.11.2022
1077 Clouds 10 1029 90 10000 1.66 282 17:58 11.11.2022
1078 Clouds 10 1019 90 10000 2.06 293 16:55 11.11.2022
1079 Clouds 12 1018 83 10000 0.45 248 14:29 11.11.2022
1080 Clouds 12 1027 84 10000 0.89 258 13:31 11.11.2022
1081 Clouds 11 1027 88 10000 0.45 212 11:38 11.11.2022
1082 Clouds 9 1018 91 10000 0.89 49 08:28 11.11.2022
1083 Rain 9 1018 91 10000 0.45 50 07:38 11.11.2022
1084 Clouds 8 1016 91 10000 0.45 256 23:58 10.11.2022
1085 Clouds 8 1016 91 10000 0.45 226 22:51 10.11.2022
1086 Clouds 8 1015 91 10000 0.45 283 21:39 10.11.2022
1087 Clouds 8 1015 91 10000 0.45 232 21:20 10.11.2022
1088 Clouds 8 1016 91 10000 3.48 211 20:23 10.11.2022
1089 Clouds 8 1015 91 10000 0.45 169 19:55 10.11.2022
1090 Clouds 8 1014 92 10000 0.45 247 18:44 10.11.2022
1091 Clouds 8 1014 92 10000 0.45 281 16:26 10.11.2022
1092 Clouds 9 1023 92 10000 0.45 153 14:43 10.11.2022
1093 Clouds 12 1023 59 10000 4.29 193 13:34 10.11.2022
1094 Clouds 8 1023 90 10000 0.45 109 09:19 10.11.2022
1095 Clouds 6 1014 92 10000 0.45 147 06:59 10.11.2022
1096 Clouds 4 1014 93 10000 3.1 183 00:56 10.11.2022
1097 Clouds 5 1014 92 10000 2.95 193 22:47 09.11.2022
1098 Clouds 6 1023 91 10000 0.45 280 21:21 09.11.2022
1099 Clouds 6 1014 91 10000 2.98 186 20:40 09.11.2022
1100 Clouds 6 1014 91 10000 2.92 183 19:59 09.11.2022
1101 Clouds 6 1014 90 10000 2.82 180 19:25 09.11.2022
1102 Clouds 7 1014 88 10000 0.45 248 17:41 09.11.2022
1103 Clouds 11 1023 76 10000 0.45 116 14:56 09.11.2022
1104 Clouds 11 1023 73 10000 0.45 120 14:26 09.11.2022
1105 Clouds 13 1023 68 10000 0.45 165 13:44 09.11.2022
1106 Clouds 13 1023 70 10000 0.45 238 12:52 09.11.2022
1107 Clouds 10 1015 85 10000 0.45 223 09:29 09.11.2022
1108 Clouds 6 1015 96 10000 1.86 206 07:47 09.11.2022
1109 Clouds 4 1023 96 10000 1.88 212 04:35 09.11.2022
1110 Clouds 5 1013 96 10000 1.74 253 22:35 08.11.2022
1111 Clouds 5 1013 95 10000 1.83 259 21:37 08.11.2022
1112 Clouds 5 1013 95 10000 1.83 259 20:47 08.11.2022
1113 Clouds 5 1022 94 10000 1.94 255 20:18 08.11.2022
1114 Clouds 5 1021 94 10000 1.97 257 19:24 08.11.2022
1115 Clouds 8 1011 93 10000 1.97 259 17:35 08.11.2022
1116 Clouds 8 1012 92 10000 1.96 263 15:22 08.11.2022
1117 Clouds 9 1021 91 10000 0.45 129 14:31 08.11.2022
1118 Clouds 9 1021 91 10000 0.45 129 14:31 08.11.2022
1119 Clouds 9 1020 89 10000 3.16 264 13:28 08.11.2022
1120 Clouds 11 1020 66 10000 3.4 261 10:58 08.11.2022
1121 Clouds 4 1020 93 10000 2.86 216 07:39 08.11.2022
1122 Clouds 4 1020 91 10000 3.44 195 04:27 08.11.2022
1123 Clouds 4 1021 91 10000 3.3 187 22:56 07.11.2022
1124 Clouds 5 1021 90 10000 0.45 240 21:42 07.11.2022
1125 Clouds 5 1012 90 10000 0.45 215 20:48 07.11.2022
1126 Clouds 6 1012 91 10000 0.45 154 19:40 07.11.2022
1127 Clouds 7 1013 88 10000 0.45 214 17:41 07.11.2022
1128 Clouds 7 1012 88 10000 0.45 160 15:38 07.11.2022
1129 Clouds 7 1012 87 10000 0.45 168 14:57 07.11.2022
1130 Clouds 7 1021 90 10000 0.45 200 13:33 07.11.2022
1131 Clouds 6 1022 92 10000 0.89 198 12:24 07.11.2022
1132 Clouds 7 1014 90 10000 0.45 182 10:45 07.11.2022
1133 Clouds 7 1023 90 10000 0.45 142 08:30 07.11.2022
1134 Clouds 7 1022 91 10000 0.45 106 06:31 07.11.2022
1135 Clouds 6 1015 93 10000 0.89 122 01:45 07.11.2022
1136 Clouds 6 1015 93 10000 0.45 150 23:23 06.11.2022
1137 Clouds 6 1015 93 10000 0.45 100 21:22 06.11.2022
1138 Clouds 6 1024 93 10000 0.45 157 20:43 06.11.2022
1139 Clouds 5 1024 93 10000 0.89 232 19:56 06.11.2022
1140 Clouds 5 1024 93 10000 0.89 116 19:24 06.11.2022
1141 Clouds 5 1024 93 10000 0.89 196 18:20 06.11.2022
1142 Clouds 5 1024 94 10000 0.45 181 17:23 06.11.2022
1143 Clouds 5 1024 94 10000 0.89 177 16:58 06.11.2022
1144 Clouds 5 1024 94 10000 0.45 207 16:18 06.11.2022
1145 Rain 6 1025 93 10000 0.45 96 14:45 06.11.2022
1146 Clouds 6 1025 93 10000 0.45 333 12:44 06.11.2022
1147 Clouds 6 1025 93 10000 0.89 159 10:52 06.11.2022
1148 Clouds 5 1025 94 10000 0.45 72 09:51 06.11.2022
1149 Clouds 5 1015 94 10000 0.45 117 06:40 06.11.2022
1150 Clouds 5 1015 93 10000 0.45 115 23:23 05.11.2022
1151 Clouds 5 1014 93 10000 0.45 120 20:40 05.11.2022
1152 Clouds 5 1014 94 10000 0.89 335 18:22 05.11.2022
1153 Clouds 6 1022 93 10000 0.45 313 16:26 05.11.2022
1154 Clouds 7 1021 92 10000 4.17 101 14:34 05.11.2022
1155 Clouds 7 1020 93 10000 0.45 297 13:29 05.11.2022
1156 Clouds 6 1020 95 10000 0.45 321 10:54 05.11.2022
1157 Clouds 6 1019 95 10000 0.89 125 08:54 05.11.2022
1158 Clouds 6 1019 96 10000 0.45 308 07:22 05.11.2022
1159 Clouds 6 1019 95 10000 2.53 94 06:54 05.11.2022
1160 Clear 6 1016 92 10000 0.77 103 23:36 04.11.2022
1161 Clear 7 1016 92 10000 0.77 103 23:18 04.11.2022
1162 -273 0 0 0 0 0 20:33 04.11.2022
1163 Clear 9 1016 89 10000 0.6 185 20:30 04.11.2022
1164 Clear 9 1016 89 10000 0.6 185 20:29 04.11.2022
1165 Clouds 9 1015 89 10000 0.28 5 17:56 04.11.2022
1166 Clouds 9 1015 89 10000 0.36 330 17:21 04.11.2022
1167 Clouds 10 1015 87 10000 0.45 78 13:47 04.11.2022
1168 Clouds 10 1015 89 10000 0.45 254 12:26 04.11.2022
1169 Clouds 10 1016 88 10000 0.45 240 10:40 04.11.2022
1170 Clouds 9 1016 91 10000 0.45 273 08:45 04.11.2022
1171 Clouds 9 1016 91 10000 0.45 273 08:45 04.11.2022
1172 Clouds 9 1016 92 10000 0.45 252 07:43 04.11.2022
1173 Clouds 9 1015 92 10000 0.45 277 03:51 04.11.2022
1174 Rain 9 1016 93 10000 0.89 311 22:50 03.11.2022
1175 Rain 9 1016 93 10000 1.62 7 20:50 03.11.2022
1176 Clouds 9 1016 93 10000 2.21 357 20:22 03.11.2022
1177 Rain 9 1016 92 10000 3.31 4 19:27 03.11.2022
1178 Rain 9 1016 92 10000 0.45 78 17:49 03.11.2022
1179 Clouds 9 1016 92 10000 0.45 19 16:52 03.11.2022
1180 Clouds 10 1015 92 10000 0.45 134 14:19 03.11.2022
1181 Rain 10 1006 92 10000 0.45 19 12:38 03.11.2022
1182 Rain 10 1007 92 10000 4.8 284 11:44 03.11.2022
1183 Rain 11 1006 93 10000 0.45 64 09:19 03.11.2022
1184 Rain 10 1015 94 10000 1.84 265 07:34 03.11.2022
1185 Clouds 9 1016 82 10000 0.45 314 21:29 02.11.2022
1186 Clouds 10 1007 74 10000 1.58 316 20:39 02.11.2022
1187 Clouds 10 1006 72 10000 2.12 332 19:54 02.11.2022
1188 Clouds 10 1005 72 10000 2.38 335 16:37 02.11.2022
1189 Clouds 11 1006 68 10000 0.45 154 15:36 02.11.2022
1190 Clouds 12 1014 63 10000 3.09 330 14:29 02.11.2022
1191 Clouds 12 1014 60 10000 3.42 336 12:43 02.11.2022
1192 Clouds 12 1014 62 10000 3.52 330 10:46 02.11.2022
1193 Clouds 10 1005 65 10000 2.54 317 08:49 02.11.2022
1194 Clouds 4 1014 90 10000 1.43 263 05:30 02.11.2022
1195 Clouds 6 1009 80 10000 2.25 180 23:53 01.11.2022
1196 Clouds 6 1009 77 10000 2.12 160 22:19 01.11.2022
1197 Clouds 7 1009 75 10000 2.12 160 21:37 01.11.2022
1198 Clouds 7 1019 71 10000 1.58 181 20:25 01.11.2022
1199 Clouds 7 1019 68 10000 1.58 181 19:42 01.11.2022
1200 Clouds 7 1019 64 10000 1.63 179 18:33 01.11.2022
1201 Clouds 7 1011 65 10000 1.35 178 17:21 01.11.2022
1202 Clouds 9 1012 61 10000 0.8 180 15:54 01.11.2022
1203 Clouds 12 1021 46 10000 0.74 315 13:35 01.11.2022
1204 Clouds 12 1021 50 10000 1.56 308 12:27 01.11.2022
1205 Clouds 11 1021 55 10000 1.44 296 11:22 01.11.2022
1206 Clouds 10 1022 61 10000 0.45 175 09:49 01.11.2022
1207 Clouds 8 1013 67 10000 0.45 256 08:38 01.11.2022
1208 Clouds 4 1013 79 10000 2.22 327 07:29 01.11.2022
1209 Clouds 2 1013 88 10000 2.22 327 06:46 01.11.2022
1210 Clouds 1 1013 90 10000 2.27 324 05:52 01.11.2022
1211 Clear 5 1012 71 10000 2.82 312 23:47 31.10.2022
1212 Clear 6 1012 66 10000 2.8 317 21:36 31.10.2022
1213 Clear 7 1020 59 10000 0.45 151 20:25 31.10.2022
1214 Clear 7 1019 52 10000 3.23 325 18:47 31.10.2022
1215 Clear 8 1010 49 10000 0.45 239 16:45 31.10.2022
1216 Clear 8 1010 46 10000 0.45 68 15:52 31.10.2022
1217 Clear 11 1017 40 10000 1.34 127 13:22 31.10.2022
1218 Clear 10 1016 55 10000 0.45 45 09:53 31.10.2022
1219 Clear 9 1016 56 10000 0.89 346 08:20 31.10.2022
1220 Clouds 9 1002 88 10000 0.89 248 02:51 31.10.2022
1221 Clouds 9 1002 87 10000 1.34 81 01:49 31.10.2022
1222 Clouds 10 1004 80 10000 0.89 220 22:33 30.10.2022
1223 Clouds 11 1003 78 10000 0.45 145 20:45 30.10.2022
1224 Clouds 11 1003 77 10000 0.45 52 19:54 30.10.2022
1225 Clouds 11 1003 75 10000 5.76 293 17:53 30.10.2022
1226 Clouds 13 1004 72 10000 0.89 304 15:28 30.10.2022
1227 Clouds 14 1004 69 10000 0.89 187 13:51 30.10.2022
1228 Clouds 14 1004 71 10000 0.45 226 12:30 30.10.2022
1229 Clouds 13 1004 73 10000 0.89 111 10:49 30.10.2022
1230 Clouds 13 1004 73 10000 0.89 111 10:49 30.10.2022
1231 Clouds 13 1004 73 10000 0.89 129 09:36 30.10.2022
1232 Clouds 13 1004 73 10000 1.34 59 08:20 30.10.2022
1233 Clouds 14 1003 85 10000 0.45 250 00:30 30.10.2022
1234 Clouds 14 1003 85 10000 0.45 250 00:30 30.10.2022
1235 Clouds 14 1003 84 10000 0.45 283 23:48 29.10.2022
1236 Clouds 15 1003 82 10000 5.98 282 22:52 29.10.2022
1237 Clouds 16 1004 78 10000 5.65 266 20:52 29.10.2022
1238 Clouds 17 1006 76 10000 0.45 169 17:24 29.10.2022
1239 Clouds 17 1006 76 10000 0.45 143 15:51 29.10.2022
1240 Clouds 17 1006 77 10000 0.45 135 15:23 29.10.2022
1241 Clouds 17 1007 79 10000 0.89 238 14:41 29.10.2022
1242 Clouds 17 1008 74 10000 0.45 229 12:34 29.10.2022
1243 Clouds 13 1011 85 10000 3.73 245 09:57 29.10.2022
1244 Clouds 9 1011 93 10000 0.45 218 07:31 29.10.2022
1245 Clouds 10 1012 92 10000 0.45 219 05:55 29.10.2022
1246 Clouds 12 1014 90 10000 2.29 252 02:45 29.10.2022
1247 Clouds 11 1016 88 10000 2.09 247 22:30 28.10.2022
1248 Clouds 11 1024 87 10000 2.1 242 20:46 28.10.2022
1249 Clouds 12 1015 81 10000 0.89 214 18:51 28.10.2022
1250 Clouds 12 1015 79 10000 2.39 233 18:30 28.10.2022
1251 Clouds 14 1025 69 10000 0.45 257 15:29 28.10.2022
1252 Clouds 15 1025 64 10000 2.8 251 14:36 28.10.2022
1253 Clouds 15 1026 66 10000 0.45 106 12:26 28.10.2022
1254 Clouds 12 1028 70 10000 2.54 259 11:34 28.10.2022
1255 Clouds 13 1018 81 10000 2.35 266 10:47 28.10.2022
1256 Clouds 13 1027 84 10000 2.32 270 09:47 28.10.2022
1257 Clouds 11 1018 90 10000 2.01 277 08:21 28.10.2022
1258 Clouds 11 1018 89 10000 2.8 284 03:42 28.10.2022
1259 Clouds 12 1017 87 10000 0.45 242 23:48 27.10.2022
1260 Clouds 11 998 100 10000 2.33 290 22:40 27.10.2022
1261 Clear 11 997 100 10000 2.56 298 21:35 27.10.2022
1262 Clouds 11 997 100 10000 3.05 309 19:55 27.10.2022
1263 Clouds 12 1016 83 10000 0.45 135 18:22 27.10.2022
1264 Clouds 14 1024 78 10000 0.45 156 13:58 27.10.2022
1265 Clouds 11 1014 90 10000 0.45 75 08:59 27.10.2022
1266 Clouds 11 1011 91 10000 0.45 251 03:40 27.10.2022
1267 Clouds 12 1010 90 10000 0.45 36 23:54 26.10.2022
1268 Clouds 12 1010 88 10000 0.45 212 22:47 26.10.2022
1269 Clouds 12 1009 89 10000 0.45 333 22:22 26.10.2022
1270 Clouds 13 1009 89 10000 0.89 68 19:27 26.10.2022
1271 Clouds 13 1006 88 10000 0.45 30 16:35 26.10.2022
1272 Clouds 15 1005 84 10000 0.89 79 14:33 26.10.2022
1273 Rain 15 1006 87 10000 0.89 234 12:37 26.10.2022
1274 Clouds 13 1004 90 10000 0.45 101 09:41 26.10.2022
1275 Clouds 13 1004 91 10000 0.89 292 08:53 26.10.2022
1276 Clouds 12 1004 91 10000 0.89 210 08:22 26.10.2022
1277 Clouds 12 1002 92 10000 0.45 128 00:45 26.10.2022
1278 Clouds 12 1003 93 10000 0.45 133 00:20 26.10.2022
1279 Clouds 12 1002 93 10000 1.43 288 21:47 25.10.2022
1280 Rain 12 1012 93 10000 1.27 262 20:53 25.10.2022
1281 Rain 12 1003 92 10000 0.83 242 19:40 25.10.2022
1282 Rain 12 1003 92 5405 0.68 242 17:51 25.10.2022
1283 Rain 12 1003 92 5405 0.68 242 17:51 25.10.2022
1284 Clouds 14 1004 88 10000 2.2 183 14:37 25.10.2022
1285 Clouds 15 1004 83 10000 2.31 203 11:38 25.10.2022
1286 Clouds 15 1004 83 10000 2.04 195 10:37 25.10.2022
1287 Clouds 15 1005 83 10000 2.05 195 09:44 25.10.2022
1288 Clouds 11 1006 91 10000 2.01 193 08:18 25.10.2022
1289 Clouds 11 1006 92 10000 0.45 208 07:54 25.10.2022
1290 Clouds 11 1006 94 10000 1.91 208 06:56 25.10.2022
1291 Clouds 10 1006 93 10000 2.77 179 03:46 25.10.2022
1292 Clouds 12 1007 92 10000 0.45 139 00:37 25.10.2022
1293 Clouds 11 1007 92 10000 2.14 174 23:47 24.10.2022
1294 Clouds 11 1007 93 10000 2.07 183 22:24 24.10.2022
1295 Clouds 10 1008 93 10000 2.09 193 21:33 24.10.2022
1296 Clouds 11 1007 93 10000 2.09 193 20:42 24.10.2022
1297 Clouds 11 1009 92 10000 1.94 197 18:52 24.10.2022
1298 Clouds 12 1008 90 10000 1.62 193 17:45 24.10.2022
1299 Clouds 13 1008 86 10000 1.54 220 16:33 24.10.2022
1300 Clouds 15 1008 85 10000 0.45 136 14:22 24.10.2022
1301 Clouds 14 1008 87 10000 2.43 257 13:34 24.10.2022
1302 Clouds 14 1008 87 10000 2.05 281 11:41 24.10.2022
1303 Clouds 11 1008 92 10000 2.07 286 07:57 24.10.2022
1304 Clouds 11 1006 92 10000 3.91 290 00:50 24.10.2022
1305 Clouds 11 1006 90 10000 3.94 295 21:23 23.10.2022
1306 Clouds 11 1005 89 10000 0.45 212 19:50 23.10.2022
1307 Clouds 11 1005 89 10000 0.45 108 17:55 23.10.2022
1308 Clouds 11 1005 89 10000 0.45 92 17:27 23.10.2022
1309 Clouds 12 1005 90 10000 0.45 38 15:19 23.10.2022
1310 Clouds 12 1003 92 10000 0.45 240 12:59 23.10.2022
1311 Clouds 11 1003 93 10000 2.89 255 10:59 23.10.2022
1312 Rain 9 1004 94 10000 2.53 217 07:53 23.10.2022
1313 Clouds 9 1005 87 10000 3 180 23:39 22.10.2022
1314 Clouds 10 1014 84 10000 3.02 195 22:31 22.10.2022
1315 Clouds 10 1014 83 10000 3.01 195 21:41 22.10.2022
1316 Clouds 9 1006 85 10000 3.2 187 20:36 22.10.2022
1317 Clouds 8 1006 91 10000 2.81 169 19:32 22.10.2022
1318 Clouds 8 1007 90 10000 2.8 169 18:55 22.10.2022
1319 Clouds 10 1006 81 10000 3.17 187 17:35 22.10.2022
1320 Clouds 12 1007 75 10000 3.94 168 15:26 22.10.2022
1321 Clouds 11 1009 76 10000 3.92 168 14:36 22.10.2022
1322 Clouds 10 1017 76 10000 0.45 218 13:33 22.10.2022
1323 Clouds 8 1019 75 10000 0.45 165 09:50 22.10.2022
1324 Clouds 6 1019 81 10000 0.45 162 09:18 22.10.2022
1325 Clouds 3 1020 90 10000 3.6 158 06:59 22.10.2022
1326 Clouds 2 1022 91 10000 2.72 171 01:54 22.10.2022
1327 Clouds 3 1023 92 10000 2.38 170 23:33 21.10.2022
1328 Clouds 3 1014 91 10000 2.13 168 21:34 21.10.2022
1329 Clouds 5 994 100 10000 2.03 173 20:56 21.10.2022
1330 Clouds 5 994 100 10000 1.52 189 18:55 21.10.2022
1331 Clouds 8 1015 65 10000 1.07 207 15:26 21.10.2022
1332 Clear 9 1015 64 10000 0.74 243 13:53 21.10.2022
1333 Clear 9 1018 69 10000 1.31 289 11:56 21.10.2022
1334 Clouds 8 1018 75 10000 0.45 320 10:27 21.10.2022
1335 Clouds 7 1016 78 10000 0.45 258 09:37 21.10.2022
1336 Clear 4 1025 87 10000 1.81 310 08:26 21.10.2022
1337 Clear 1 1016 93 10000 2.27 312 05:57 21.10.2022
1338 Clouds 5 1015 89 10000 3.4 330 23:59 20.10.2022
1339 Clouds 5 1015 89 10000 3.4 330 23:59 20.10.2022
1340 Clouds 6 1014 87 10000 0.45 351 21:23 20.10.2022
1341 Clouds 6 1013 87 10000 1.79 182 20:18 20.10.2022
1342 Clouds 6 1013 85 10000 0.45 133 19:30 20.10.2022
1343 Clouds 6 1012 86 10000 0.45 159 17:51 20.10.2022
1344 Rain 6 1010 90 10000 0.89 81 15:46 20.10.2022
1345 Clouds 5 1008 89 10000 0.45 100 12:33 20.10.2022
1346 Clouds 5 1007 90 71 0.45 83 11:53 20.10.2022
1347 Clouds 4 1007 90 66 0.45 223 10:56 20.10.2022
1348 Clouds 4 1006 91 118 0.89 192 10:23 20.10.2022
1349 Clouds 4 1005 87 10000 0.89 155 07:44 20.10.2022
1350 Clouds 4 1004 87 10000 0.89 80 03:31 20.10.2022
1351 Rain 8 1002 89 10000 0.45 32 23:53 19.10.2022
1352 Rain 9 1001 89 10000 5.9 337 22:32 19.10.2022
1353 Clouds 9 1001 86 10000 0.89 143 21:39 19.10.2022
1354 Clouds 10 1001 78 10000 4.63 322 20:40 19.10.2022
1355 Clouds 13 1002 65 10000 0.45 76 17:52 19.10.2022
1356 Clouds 13 1001 64 10000 4.98 293 16:49 19.10.2022
1357 Clouds 15 1002 64 10000 0.89 62 14:46 19.10.2022
1358 Clouds 14 1003 75 10000 0.45 203 12:42 19.10.2022
1359 Clouds 12 1004 81 10000 0.45 127 09:26 19.10.2022
1360 Clouds 12 1003 83 10000 0.89 208 07:31 19.10.2022
1361 Clouds 12 1004 62 10000 4.26 240 02:46 19.10.2022
1362 Clouds 13 1007 56 10000 0.45 284 23:48 18.10.2022
1363 Clouds 14 1008 52 10000 0.89 296 22:35 18.10.2022
1364 Clouds 15 1009 50 10000 0.45 215 21:32 18.10.2022
1365 Clouds 15 1010 48 10000 4.61 232 20:31 18.10.2022
1366 Clouds 16 1011 44 10000 0.45 214 19:20 18.10.2022
1367 Clouds 19 1021 44 10000 4.13 227 16:58 18.10.2022
1368 Clouds 21 1022 43 10000 4.59 232 15:43 18.10.2022
1369 Clouds 19 1024 31 10000 5.06 233 13:45 18.10.2022
1370 Clouds 21 1025 45 10000 0.89 204 11:48 18.10.2022
1371 Clear 17 997 32 10000 5.24 233 11:18 18.10.2022
1372 Clouds 13 998 37 10000 4.4 228 09:26 18.10.2022
1373 Clouds 10 1019 65 10000 0.45 171 06:56 18.10.2022
1374 Clouds 12 1021 60 10000 2.49 229 23:40 17.10.2022
1375 Clouds 13 1022 56 10000 0.45 198 21:35 17.10.2022
1376 Clouds 13 1022 55 10000 0.45 238 20:49 17.10.2022
1377 Clouds 13 1022 55 10000 0.89 273 20:29 17.10.2022
1378 Clouds 13 1022 56 10000 2.92 229 19:42 17.10.2022
1379 Clear 14 1022 53 10000 3 219 17:53 17.10.2022
1380 Clouds 16 1030 47 10000 2.96 223 16:22 17.10.2022
1381 Clouds 16 1031 45 10000 3.3 232 15:27 17.10.2022
1382 Clouds 17 1031 46 10000 0.45 229 13:35 17.10.2022
1383 Clouds 10 1003 61 10000 4.02 203 09:28 17.10.2022
1384 Clouds 5 1023 84 10000 2.69 195 02:37 17.10.2022
1385 Clouds 6 1022 77 10000 2.85 175 22:54 16.10.2022
1386 Clouds 6 1022 76 10000 3.02 171 21:46 16.10.2022
1387 Clouds 7 1021 79 10000 0.45 160 19:56 16.10.2022
1388 Clear 8 1021 76 10000 0.45 129 19:38 16.10.2022
1389 Clear 8 1022 76 10000 3.27 132 17:47 16.10.2022
1390 Clear 11 1029 60 10000 2.54 136 16:32 16.10.2022
1391 Clear 12 1029 57 10000 2.95 139 15:55 16.10.2022
1392 Clear 13 1029 55 10000 0.89 157 12:34 16.10.2022
1393 Clear 13 1030 58 10000 0.45 75 11:39 16.10.2022
1394 Clear 12 1030 63 10000 0.45 133 10:26 16.10.2022
1395 Clear 4 1029 90 10000 2.37 159 07:20 16.10.2022
1396 Clear 6 1017 79 10000 2.65 161 23:43 15.10.2022
1397 Clear 6 1017 79 10000 2.65 161 23:43 15.10.2022
1398 Clear 7 1017 76 10000 0.45 139 21:54 15.10.2022
1399 Clear 7 1017 78 10000 3.19 158 21:19 15.10.2022
1400 Clear 9 1016 72 10000 0.45 163 19:34 15.10.2022
1401 Clear 11 1015 61 10000 0.45 188 17:24 15.10.2022
1402 Clear 13 1024 53 10000 0.89 151 15:45 15.10.2022
1403 Clear 15 1024 51 10000 0.45 134 13:37 15.10.2022
1404 Clear 14 1025 54 10000 0.89 158 11:50 15.10.2022
1405 Clear 11 996 49 10000 3.6 161 09:43 15.10.2022
1406 Clear 7 1015 83 10000 0.45 231 07:38 15.10.2022
1407 Clouds 6 1015 91 10000 2.45 160 00:40 15.10.2022
1408 Clouds 7 1015 87 10000 2.45 137 22:58 14.10.2022
1409 Clouds 7 1014 86 10000 2.59 130 22:22 14.10.2022
1410 Clouds 7 1014 83 10000 2.49 128 20:51 14.10.2022
1411 Clouds 7 1014 85 10000 2.2 122 19:21 14.10.2022
1412 Clouds 12 1023 67 10000 1.9 130 16:19 14.10.2022
1413 Clouds 11 1025 89 10000 2.03 143 12:57 14.10.2022
1414 Clouds 11 1025 100 10000 2.1 146 11:26 14.10.2022
1415 Clouds 9 1016 93 10000 0.45 207 08:29 14.10.2022
1416 Clouds 8 1015 94 10000 0.56 164 06:47 14.10.2022
1417 Clouds 8 1015 94 10000 0.24 189 06:18 14.10.2022
1418 Clouds 8 1015 94 10000 0.24 189 05:42 14.10.2022
1419 Clouds 9 1015 90 10000 0.85 273 02:26 14.10.2022
1420 Clouds 9 1015 91 10000 1.05 259 23:42 13.10.2022
1421 Clouds 9 1015 91 10000 1.06 261 21:43 13.10.2022
1422 Clouds 9 1015 91 10000 0.97 274 20:44 13.10.2022
1423 Clouds 9 1015 92 10000 0.93 273 19:43 13.10.2022
1424 Clouds 8 1015 91 10000 1.1 292 18:52 13.10.2022
1425 Clouds 9 1015 90 10000 1.37 298 18:21 13.10.2022
1426 Clouds 13 1024 76 10000 1.99 291 15:49 13.10.2022
1427 Clouds 13 1015 76 10000 2.09 286 15:28 13.10.2022
1428 Clouds 13 1016 75 10000 1.9 284 13:53 13.10.2022
1429 Clouds 13 1016 73 10000 1.74 279 12:38 13.10.2022
1430 Clouds 12 1016 76 10000 1.81 288 10:58 13.10.2022
1431 Clouds 10 1016 86 10000 1.84 284 08:34 13.10.2022
1432 Clouds 10 1016 86 10000 1.84 284 08:34 13.10.2022
1433 Clouds 8 1016 90 10000 1.77 290 07:37 13.10.2022
1434 Clouds 8 1024 86 10000 1.49 319 03:46 13.10.2022
1435 Clouds 7 1025 86 10000 2.29 331 01:40 13.10.2022
1436 Clouds 8 996 53 10000 2.91 332 00:24 13.10.2022
1437 Clouds 9 996 52 10000 3.06 331 22:44 12.10.2022
1438 Clouds 9 996 53 10000 2.99 330 21:40 12.10.2022
1439 Clouds 8 1024 83 10000 3.08 330 21:18 12.10.2022
1440 Clouds 9 1015 80 10000 2.78 333 20:28 12.10.2022
1441 Clouds 10 1015 74 10000 0.45 160 19:22 12.10.2022
1442 Clouds 11 1014 67 10000 2.17 319 17:54 12.10.2022
1443 Clouds 14 1014 56 10000 0.89 110 16:48 12.10.2022
1444 Clouds 14 1014 61 10000 0.45 183 14:26 12.10.2022
1445 Clouds 15 1023 57 10000 0.45 75 13:50 12.10.2022
1446 Clouds 15 1023 71 10000 0.45 73 11:25 12.10.2022
1447 Clouds 12 1014 79 10000 0.45 270 09:23 12.10.2022
1448 Clouds 8 1013 90 10000 0.45 245 07:41 12.10.2022
1449 Clouds 8 1013 90 10000 2.92 311 06:43 12.10.2022
1450 Clouds 9 1012 86 10000 2.45 283 03:59 12.10.2022
1451 Clouds 10 1020 62 10000 2.1 234 23:37 11.10.2022
1452 Clouds 7 1012 82 10000 1.75 226 20:58 11.10.2022
1453 Clear 7 1012 81 10000 1.56 229 20:19 11.10.2022
1454 Clear 10 1012 69 10000 1.05 248 17:46 11.10.2022
1455 Clear 15 1021 56 10000 1.57 297 15:35 11.10.2022
1456 Clouds 15 1022 56 10000 0.45 81 13:29 11.10.2022
1457 Clouds 11 994 58 10000 1.72 330 10:32 11.10.2022
1458 Clouds 12 1023 63 10000 1.72 330 09:58 11.10.2022
1459 Clear 9 1014 80 10000 1.85 329 08:28 11.10.2022
1460 Clear 6 1014 90 10000 2.09 334 02:49 11.10.2022
1461 Clear 7 1015 85 10000 0.45 77 00:34 11.10.2022
1462 Clear 9 1015 78 10000 2.71 340 22:51 10.10.2022
1463 Clear 10 1015 75 10000 3.11 344 20:43 10.10.2022
1464 Clear 9 1015 78 10000 3.57 346 19:22 10.10.2022
1465 Clear 12 1015 64 10000 0.89 326 17:25 10.10.2022
1466 Clear 12 1024 60 10000 0.45 25 16:36 10.10.2022
1467 Clear 14 1024 61 10000 1.34 18 13:53 10.10.2022
1468 Clear 14 1024 67 10000 0.89 73 12:22 10.10.2022
1469 Clear 10 1015 84 10000 0.89 10 09:32 10.10.2022
1470 Clear 7 1014 93 10000 0.45 226 06:22 10.10.2022
1471 Clear 7 1013 92 10000 0.45 260 05:33 10.10.2022
1472 Clouds 9 1012 90 10000 0.45 213 01:30 10.10.2022
1473 Clouds 10 1012 91 10000 0.45 313 23:37 09.10.2022
1474 Clouds 11 1013 89 10000 0.45 211 22:26 09.10.2022
1475 Clouds 11 1011 89 10000 0.89 133 21:30 09.10.2022
1476 Clouds 12 1011 90 10000 0.45 326 20:43 09.10.2022
1477 Clouds 12 1011 91 10000 0.45 138 19:49 09.10.2022
1478 Clouds 12 1010 91 10000 0.45 109 18:50 09.10.2022
1479 Rain 13 1010 91 10000 0.45 114 17:44 09.10.2022
1480 Rain 13 1009 91 10000 3.54 305 16:48 09.10.2022
1481 Rain 13 1009 91 10000 0.45 92 16:19 09.10.2022
1482 Clouds 13 989 83 10000 4.77 323 14:56 09.10.2022
1483 Clouds 15 989 72 10000 5.12 313 14:26 09.10.2022
1484 Clouds 17 989 52 10000 4.07 289 12:49 09.10.2022
1485 Clouds 16 989 47 10000 2.82 252 11:27 09.10.2022
1486 Clouds 13 1009 76 10000 2.31 219 08:33 09.10.2022
1487 Clouds 7 1017 92 10000 1.82 211 05:59 09.10.2022
1488 Clouds 9 1009 90 10000 1.86 204 03:26 09.10.2022
1489 Clear 10 1010 85 10000 1.97 194 00:47 09.10.2022
1490 Clear 11 1011 80 10000 2.16 181 23:33 08.10.2022
1491 Clear 11 1011 79 10000 2.31 171 22:51 08.10.2022
1492 Clear 12 1011 75 10000 2.39 168 20:43 08.10.2022
1493 Clear 12 1011 78 10000 2.72 160 19:38 08.10.2022
1494 Clear 13 1020 76 10000 2.69 137 17:44 08.10.2022
1495 Clear 18 1021 54 10000 2.8 143 15:36 08.10.2022
1496 Clear 18 1022 57 10000 0.89 201 13:53 08.10.2022
1497 Clear 18 1024 62 10000 2.52 158 12:20 08.10.2022
1498 Clear 15 996 49 10000 2.46 158 10:35 08.10.2022
1499 Clear 13 997 70 10000 2.52 161 09:35 08.10.2022
1500 Clear 8 1017 95 10000 0.45 83 07:25 08.10.2022
1501 Clear 7 1026 94 10000 1.37 139 02:34 08.10.2022
1502 Clear 11 999 100 10000 1.24 126 23:49 07.10.2022
1503 Clear 9 1018 94 10000 1.14 118 23:20 07.10.2022
1504 Clear 9 1018 94 10000 0.99 96 22:19 07.10.2022
1505 Clear 12 999 100 10000 1.02 42 20:23 07.10.2022
1506 Clear 12 1018 82 10000 1.14 31 18:22 07.10.2022
1507 Clear 15 1027 71 10000 1.53 16 16:53 07.10.2022
1508 Clear 17 1027 61 10000 0.45 309 15:47 07.10.2022
1509 Clear 18 1027 63 10000 0.45 353 14:23 07.10.2022
1510 Clear 17 1029 68 10000 3.19 340 11:42 07.10.2022
1511 Clear 15 1029 74 10000 0.45 20 09:25 07.10.2022
1512 Clouds 14 1020 78 10000 0.89 65 08:29 07.10.2022
1513 Clouds 13 1018 90 10000 0.45 123 05:27 07.10.2022
1514 Clouds 14 997 100 10000 3.3 305 00:23 07.10.2022
1515 Clouds 14 996 100 10000 3.48 305 22:50 06.10.2022
1516 Clouds 14 1015 83 10000 3.61 300 21:41 06.10.2022
1517 Clouds 14 1014 83 10000 3.71 290 20:45 06.10.2022
1518 Clouds 14 1014 82 10000 3.87 277 19:33 06.10.2022
1519 Clouds 15 1014 80 10000 3.87 277 18:32 06.10.2022
1520 Clouds 20 1021 57 10000 0.89 248 15:47 06.10.2022
1521 Clouds 21 1021 56 10000 0.45 133 13:51 06.10.2022
1522 Clouds 18 1022 65 10000 0.45 256 10:45 06.10.2022
1523 Clouds 9 1013 93 10000 3.31 237 05:43 06.10.2022
1524 Clouds 11 1014 86 10000 3.3 236 02:38 06.10.2022
1525 Clouds 11 1014 87 10000 3.07 249 22:29 05.10.2022
1526 Clouds 11 1014 89 10000 2.9 250 19:54 05.10.2022
1527 Clouds 11 1014 89 10000 2.96 251 19:54 05.10.2022
1528 Clouds 12 1014 81 10000 2.17 260 17:50 05.10.2022
1529 Clouds 13 1014 80 10000 2.36 275 17:29 05.10.2022
1530 Clouds 13 1013 73 10000 0.89 209 15:46 05.10.2022
1531 Clouds 14 1012 72 10000 0.45 246 14:38 05.10.2022
1532 Clouds 13 1024 100 10000 4.66 288 13:39 05.10.2022
1533 Clouds 10 1024 81 10000 4.51 282 12:19 05.10.2022
1534 Clouds 11 1012 86 10000 1.34 105 08:45 05.10.2022
1535 Clouds 10 1011 90 10000 0.45 86 07:23 05.10.2022
1536 Clouds 10 1010 90 10000 0.45 177 05:35 05.10.2022
1537 Clouds 10 1007 92 10000 0.45 73 02:40 05.10.2022
1538 Clouds 9 1007 92 10000 5.67 275 00:41 05.10.2022
1539 Clouds 9 1006 92 10000 5.45 269 00:23 05.10.2022
1540 Clouds 9 1005 92 10000 3.32 266 21:38 04.10.2022
1541 Rain 8 985 100 10000 5.86 293 20:22 04.10.2022
1542 Clouds 8 984 100 10000 4.43 262 18:56 04.10.2022
1543 Clouds 8 984 100 10000 4.62 281 18:34 04.10.2022
1544 Clouds 9 1003 91 10000 0.45 85 16:58 04.10.2022
1545 Clouds 9 1001 89 10000 1.34 240 16:20 04.10.2022
1546 Clouds 9 999 89 10000 0.89 76 11:25 04.10.2022
1547 Rain 8 997 91 10000 0.89 272 08:28 04.10.2022
1548 Rain 7 995 92 10000 0.45 139 06:22 04.10.2022
1549 Clouds 7 994 93 10000 0.89 42 00:29 04.10.2022
1550 Clouds 7 993 91 10000 0.89 213 22:58 03.10.2022
1551 Rain 8 992 91 10000 0.89 168 21:46 03.10.2022
1552 Rain 10 991 90 10000 0.45 128 20:43 03.10.2022
1553 Rain 11 990 89 10000 0.45 144 18:57 03.10.2022
1554 Clouds 12 990 81 10000 7.88 236 17:39 03.10.2022
1555 Rain 12 990 86 10000 0.45 44 16:40 03.10.2022
1556 Rain 12 990 83 10000 0.45 282 15:26 03.10.2022
1557 Clouds 14 991 74 10000 1.34 116 13:39 03.10.2022
1558 Clouds 13 990 81 10000 0.89 169 11:45 03.10.2022
1559 Clouds 11 989 88 10000 0.89 178 10:19 03.10.2022
1560 Rain 10 989 92 10000 8.47 266 08:59 03.10.2022
1561 Rain 8 989 92 10000 5.13 295 04:49 03.10.2022
1562 Clouds 8 990 92 10000 0.45 69 01:51 03.10.2022
1563 Rain 7 990 92 10000 0.89 245 22:24 02.10.2022
1564 Rain 8 991 90 10000 0.89 93 20:22 02.10.2022
1565 Rain 9 990 91 10000 0.89 205 17:59 02.10.2022
1566 Rain 9 989 91 10000 1.79 299 17:29 02.10.2022
1567 Clouds 11 988 85 10000 1.79 179 16:33 02.10.2022
1568 Clouds 12 988 86 10000 1.34 219 15:39 02.10.2022
1569 Rain 13 988 90 10000 0.45 17 13:48 02.10.2022
1570 Clouds 15 988 88 10000 0.45 148 12:43 02.10.2022
1571 Clouds 15 988 88 10000 0.45 148 12:23 02.10.2022
1572 Rain 15 988 90 10000 0.45 101 11:34 02.10.2022
1573 Rain 14 988 90 10000 5.4 272 10:36 02.10.2022
1574 Rain 14 989 91 10000 3.62 166 08:31 02.10.2022
1575 Rain 14 989 91 10000 3.62 166 08:31 02.10.2022
1576 Clouds 14 992 90 10000 0.45 41 05:32 02.10.2022
1577 Clouds 14 995 90 10000 0.45 283 02:49 02.10.2022
1578 Rain 15 997 90 10000 0.89 140 00:39 02.10.2022
1579 Rain 15 997 90 10000 0.89 140 00:39 02.10.2022
1580 Clouds 14 998 90 10000 2.07 103 23:36 01.10.2022
1581 Clouds 15 999 90 10000 1.26 104 22:25 01.10.2022
1582 Clouds 15 1001 90 10000 1.35 271 19:31 01.10.2022
1583 Clouds 17 1002 83 10000 2.47 271 17:46 01.10.2022
1584 Clouds 19 1003 80 10000 3.6 262 16:24 01.10.2022
1585 Clouds 20 1004 68 10000 0.45 137 14:18 01.10.2022
1586 Clouds 22 1013 63 10000 0.89 56 12:35 01.10.2022
1587 Clouds 21 1004 69 10000 0.89 256 11:23 01.10.2022
1588 Clouds 20 1004 72 10000 0.45 131 10:53 01.10.2022
1589 Clouds 20 1013 75 10000 4.45 257 10:30 01.10.2022
1590 Clouds 20 1013 75 10000 4.45 257 10:30 01.10.2022
1591 Clouds 20 1013 75 10000 4.45 257 10:30 01.10.2022
1592 Clouds 18 986 69 10000 3.82 257 09:26 01.10.2022
1593 Clouds 16 986 75 10000 3.3 251 08:39 01.10.2022
1594 Clouds 14 1004 92 10000 2.49 195 03:52 01.10.2022
1595 Clouds 14 1004 91 10000 2.68 185 03:24 01.10.2022
1596 Clouds 16 1004 91 10000 1.52 221 23:22 30.09.2022
1597 Clouds 16 1004 91 10000 1.08 194 22:19 30.09.2022
1598 Clouds 15 1005 91 10000 0.71 224 21:22 30.09.2022
1599 Clouds 15 1004 90 10000 0.6 253 20:30 30.09.2022
1600 Clouds 16 1004 91 10000 0.3 248 18:45 30.09.2022
1601 Clouds 20 1012 87 10000 0.22 336 16:55 30.09.2022
1602 Clouds 20 1012 83 10000 0.75 240 14:49 30.09.2022
1603 Clouds 20 1011 84 10000 0.63 287 12:51 30.09.2022
1604 Clouds 19 1011 85 10000 0.79 313 11:56 30.09.2022
1605 Clouds 17 1010 88 10000 0.57 300 09:45 30.09.2022
1606 Clouds 15 1002 90 10000 0.45 190 08:19 30.09.2022
1607 Clouds 14 999 90 10000 1.93 181 04:21 30.09.2022
1608 Clouds 14 999 90 10000 1.95 166 02:21 30.09.2022
1609 Rain 14 998 87 10000 0.89 174 21:53 29.09.2022
1610 Clouds 14 998 83 10000 4.5 142 21:24 29.09.2022
1611 Clouds 15 998 79 10000 0.45 194 19:58 29.09.2022
1612 Clouds 16 998 72 10000 0.45 161 18:30 29.09.2022
1613 Clouds 16 998 72 10000 0.45 161 18:30 29.09.2022
1614 Clouds 18 1007 68 10000 0.45 292 16:29 29.09.2022
1615 Clouds 19 1007 66 10000 4.93 149 15:37 29.09.2022
1616 Clouds 19 1007 63 10000 0.45 132 14:59 29.09.2022
1617 Clouds 17 1007 69 10000 0.89 234 12:45 29.09.2022
1618 Clouds 10 1007 90 10000 0.45 148 08:47 29.09.2022
1619 Clouds 9 997 94 10000 1.67 199 04:46 29.09.2022
1620 Clouds 9 996 93 10000 1.72 240 02:37 29.09.2022
1621 Clear 10 995 92 10000 2.09 275 23:29 28.09.2022
1622 Clear 11 995 91 10000 0.45 156 22:22 28.09.2022
1623 Clouds 13 995 89 10000 0.45 185 21:25 28.09.2022
1624 Clouds 14 993 87 10000 0.45 137 19:57 28.09.2022
1625 Rain 16 991 87 10000 0.45 136 16:52 28.09.2022
1626 Clouds 17 991 82 10000 3.17 223 14:35 28.09.2022
1627 Clouds 17 999 79 10000 2.68 180 11:49 28.09.2022
1628 Clouds 14 991 88 10000 0.45 105 09:49 28.09.2022
1629 Clouds 14 991 89 10000 1.21 100 07:52 28.09.2022
1630 Clouds 12 991 90 10000 1.4 82 05:48 28.09.2022
1631 Clouds 13 991 91 10000 0.78 55 01:44 28.09.2022
1632 Clouds 13 991 91 10000 0.93 95 00:36 28.09.2022
1633 Clouds 13 991 91 10000 0.45 16 22:49 27.09.2022
1634 Clouds 13 991 91 10000 1.23 60 21:20 27.09.2022
1635 Clouds 13 991 91 10000 1.23 60 20:34 27.09.2022
1636 Clouds 13 992 91 10000 0.77 214 19:40 27.09.2022
1637 Clouds 14 993 90 10000 0.8 211 17:47 27.09.2022
1638 Clouds 15 991 90 10000 0.68 157 16:56 27.09.2022
1639 Clouds 14 992 90 10000 1.64 191 15:18 27.09.2022
1640 Clouds 14 993 90 10000 1.28 247 13:53 27.09.2022
1641 Clouds 14 992 90 10000 1.42 255 12:39 27.09.2022
1642 Clouds 13 992 90 10000 1.65 237 10:35 27.09.2022
1643 Clouds 12 993 91 10000 0.78 166 07:55 27.09.2022
1644 Clouds 11 994 92 10000 1.09 79 05:22 27.09.2022
1645 Clouds 12 996 91 10000 2.41 48 01:40 27.09.2022
1646 Clouds 12 996 90 10000 0.89 318 00:23 27.09.2022
1647 Clouds 12 997 89 10000 0.45 324 23:24 26.09.2022
1648 Clouds 12 998 91 10000 2.12 71 21:35 26.09.2022
1649 Rain 13 998 86 10000 0.45 0 19:49 26.09.2022
1650 Clouds 14 998 82 10000 2.75 99 18:55 26.09.2022
1651 Clouds 15 999 80 10000 1.51 79 17:26 26.09.2022
1652 Clouds 14 1010 67 10000 1.96 131 15:25 26.09.2022
1653 Clouds 12 1012 100 10000 1.97 176 12:31 26.09.2022
1654 Clouds 12 1001 89 10000 0.45 135 10:44 26.09.2022
1655 Clouds 12 1001 89 10000 2.31 181 10:23 26.09.2022
1656 Clouds 12 1001 90 10000 2.31 181 09:59 26.09.2022
1657 Clouds 11 1001 90 10000 2.31 181 09:40 26.09.2022
1658 Clouds 11 1003 91 10000 0.45 138 09:20 26.09.2022
1659 Rain 11 1002 90 10000 2.73 200 05:30 26.09.2022
1660 Clouds 11 1002 87 10000 1.71 210 02:29 26.09.2022
1661 Clouds 10 1003 89 10000 2.19 233 23:24 25.09.2022
1662 Clouds 10 1004 90 10000 2.34 237 21:44 25.09.2022
1663 Clouds 9 1004 91 10000 2.47 247 20:59 25.09.2022
1664 Clouds 9 1004 91 10000 2.47 247 20:34 25.09.2022
1665 Clouds 10 1004 86 10000 3.22 255 18:55 25.09.2022
1666 Clouds 11 1004 80 10000 3.6 255 18:24 25.09.2022
1667 Clouds 14 1004 67 10000 3.1 262 17:23 25.09.2022
1668 Clouds 16 1013 58 10000 3 272 16:00 25.09.2022
1669 Clouds 17 1004 54 10000 0.45 233 14:37 25.09.2022
1670 Clouds 17 1004 52 10000 0.89 175 13:58 25.09.2022
1671 Clouds 16 1014 65 10000 0.45 237 10:38 25.09.2022
1672 Clouds 11 986 50 10000 5.15 281 09:37 25.09.2022
1673 Clear 7 1005 91 10000 0.45 211 06:53 25.09.2022
1674 Clear 6 1004 92 10000 4.16 273 05:19 25.09.2022
1675 Clouds 9 1004 88 10000 0.89 159 23:36 24.09.2022
1676 Clouds 10 1004 86 10000 0.45 255 21:19 24.09.2022
1677 Clouds 10 1003 84 10000 4.42 283 19:33 24.09.2022
1678 Clouds 10 1003 84 10000 0.45 243 18:57 24.09.2022
1679 Clouds 14 1011 71 10000 0.89 178 16:50 24.09.2022
1680 Clouds 14 1002 74 10000 0.45 190 15:23 24.09.2022
1681 Clouds 14 1003 72 10000 0.89 85 14:27 24.09.2022
1682 Clouds 13 1002 72 10000 0.45 18 12:59 24.09.2022
1683 Clouds 15 1011 70 10000 0.45 124 12:22 24.09.2022
1684 Clouds 11 1002 83 10000 0.89 51 09:58 24.09.2022
1685 Clouds 10 1002 87 10000 0.89 185 08:56 24.09.2022
1686 Clouds 9 1002 90 10000 0.45 264 07:40 24.09.2022
1687 Clouds 9 1001 91 10000 0.45 249 04:52 24.09.2022
1688 Clouds 9 1001 91 10000 3.49 296 03:48 24.09.2022
1689 Clouds 9 1002 90 10000 0.45 239 22:54 23.09.2022
1690 Clouds 9 1002 90 10000 2.69 298 21:33 23.09.2022
1691 Clouds 9 1003 91 10000 0.45 69 20:57 23.09.2022
1692 Rain 10 1003 91 10000 0.45 69 20:26 23.09.2022
1693 Clouds 10 1003 90 10000 0.45 266 19:19 23.09.2022
1694 Clouds 13 1002 76 10000 0.45 132 15:29 23.09.2022
1695 Rain 11 1003 87 10000 2.64 327 11:47 23.09.2022
1696 Clouds 11 1003 88 10000 0.45 90 09:36 23.09.2022
1697 Clouds 10 1003 90 10000 0.45 262 06:51 23.09.2022
1698 Clouds 10 1004 90 10000 0.45 155 00:42 23.09.2022
1699 Clouds 9 1004 91 10000 0.45 221 23:23 22.09.2022
1700 Clouds 9 1004 91 10000 2.04 279 22:27 22.09.2022
1701 Clouds 10 1004 90 10000 0.45 234 21:19 22.09.2022
1702 Clouds 9 1004 91 10000 2.83 287 19:58 22.09.2022
1703 Clouds 11 1004 88 10000 2.87 290 17:38 22.09.2022
1704 Clouds 12 1004 87 10000 0.45 138 13:20 22.09.2022
1705 Clouds 11 1004 87 10000 0.45 174 10:37 22.09.2022
1706 Clouds 10 1004 89 10000 0.45 315 08:58 22.09.2022
1707 Clouds 8 1004 92 10000 2.19 292 07:27 22.09.2022
1708 Clouds 8 1003 90 10000 1.8 302 04:36 22.09.2022
1709 Clouds 10 1003 90 10000 2.26 275 23:32 21.09.2022
1710 Clouds 10 1004 90 10000 2.07 283 21:51 21.09.2022
1711 Clouds 10 1003 91 10000 1.92 295 20:40 21.09.2022
1712 Clouds 11 1003 90 10000 0.45 187 17:51 21.09.2022
1713 Clouds 13 1002 87 10000 0.45 82 16:55 21.09.2022
1714 Clouds 12 1002 89 10000 0.45 60 14:52 21.09.2022
1715 Rain 11 1002 89 10000 0.45 77 13:24 21.09.2022
1716 Clouds 12 1002 89 10000 3.87 323 11:30 21.09.2022
1717 Rain 11 1001 90 10000 0.45 133 10:34 21.09.2022
1718 Clouds 11 1001 89 10000 0.89 100 09:36 21.09.2022
1719 Clouds 10 1001 89 10000 0.45 97 07:58 21.09.2022
1720 Clouds 10 1000 89 10000 0.45 41 02:51 21.09.2022
1721 Clouds 10 1000 89 10000 0.45 346 02:29 21.09.2022
1722 Clouds 10 1000 89 10000 0.45 107 01:49 21.09.2022
1723 Rain 10 1000 90 10000 4.39 33 23:19 20.09.2022
1724 Clouds 10 1000 90 9659 3.89 14 21:33 20.09.2022
1725 Clouds 10 1000 90 10000 3.16 22 19:57 20.09.2022
1726 Clouds 11 1000 90 10000 0.45 335 17:38 20.09.2022
1727 Clouds 11 1001 90 10000 0.45 350 14:53 20.09.2022
1728 Rain 11 1001 90 10000 2.17 92 13:52 20.09.2022
1729 Clouds 12 1002 87 10000 2.6 67 10:41 20.09.2022
1730 Clouds 11 1001 87 10000 0.45 302 08:29 20.09.2022
1731 Clouds 11 1001 88 10000 1.84 71 07:27 20.09.2022
1732 Clouds 9 1001 90 10000 0.85 220 04:29 20.09.2022
1733 Clouds 10 1001 89 10000 3 248 23:49 19.09.2022
1734 Clouds 10 1001 89 10000 3.27 241 22:28 19.09.2022
1735 Clouds 10 1001 87 10000 3.55 237 20:58 19.09.2022
1736 Clouds 10 1001 88 10000 3.29 240 20:39 19.09.2022
1737 Clouds 11 1000 81 10000 3.32 239 18:41 19.09.2022
1738 Clouds 16 1007 59 10000 0.45 198 15:56 19.09.2022
1739 Clouds 16 998 62 10000 0.45 165 13:39 19.09.2022
1740 Clouds 13 996 79 10000 0.45 55 11:30 19.09.2022
1741 Clouds 13 995 83 10000 0.89 155 09:20 19.09.2022
1742 Clouds 11 994 87 10000 0.45 136 08:19 19.09.2022
1743 Clouds 10 989 89 10000 0.45 134 02:18 19.09.2022
1744 Clouds 9 988 89 10000 0.45 79 23:24 18.09.2022
1745 Rain 9 986 89 10000 0.45 78 21:47 18.09.2022
1746 Rain 9 984 89 10000 0.89 144 20:34 18.09.2022
1747 Clouds 12 980 87 10000 0.45 171 18:41 18.09.2022
1748 Clouds 12 962 82 10000 4.56 197 17:43 18.09.2022
1749 Clouds 16 989 85 10000 0.89 124 15:56 18.09.2022
1750 Clouds 15 990 85 10000 0.45 146 14:30 18.09.2022
1751 Clouds 14 983 85 8226 0.45 236 12:36 18.09.2022
1752 Rain 14 983 87 2679 2.13 148 11:46 18.09.2022
1753 Clouds 12 987 87 10000 0.89 321 06:30 18.09.2022
1754 Rain 12 991 87 10000 2.43 65 01:30 18.09.2022
1755 Clouds 13 992 87 10000 0.45 312 00:42 18.09.2022
1756 Clouds 13 994 87 10000 2.18 97 21:54 17.09.2022
1757 Clouds 13 994 87 10000 2.14 101 20:29 17.09.2022
1758 Rain 14 995 87 10000 2.07 115 19:19 17.09.2022
1759 Rain 15 995 89 10000 3.2 146 16:57 17.09.2022
1760 Clouds 16 1005 84 10000 3.02 148 13:59 17.09.2022
1761 Clouds 16 996 82 10000 2.2 178 12:29 17.09.2022
1762 Clouds 15 996 84 10000 0.45 153 10:28 17.09.2022
1763 Clouds 12 996 88 10000 1.47 241 06:28 17.09.2022
1764 Clouds 11 995 88 10000 1.62 238 02:43 17.09.2022
1765 Clouds 12 995 86 10000 2.25 266 22:58 16.09.2022
1766 Clouds 13 995 85 10000 3.04 277 21:32 16.09.2022
1767 Clouds 13 994 85 10000 3.11 269 20:31 16.09.2022
1768 Clouds 18 975 64 10000 3.22 277 17:52 16.09.2022
1769 Clouds 20 975 92 10000 4.42 278 15:57 16.09.2022
1770 Clouds 21 1002 65 10000 0.45 123 14:32 16.09.2022
1771 Clouds 20 992 82 10000 0.89 234 11:56 16.09.2022
1772 Clouds 16 992 89 10000 0.45 102 09:21 16.09.2022
1773 Clouds 14 992 90 10000 0.45 170 07:20 16.09.2022
1774 Rain 14 991 90 10000 0.45 163 06:47 16.09.2022
1775 Clouds 15 990 89 10000 0.45 179 02:59 16.09.2022
1776 Clouds 16 989 90 10000 0.45 155 23:50 15.09.2022
1777 Rain 16 990 89 10000 0.45 101 21:24 15.09.2022
1778 Rain 16 990 88 10000 0.45 121 20:23 15.09.2022
1779 Rain 16 990 88 10000 0.45 48 18:30 15.09.2022
1780 Clouds 16 991 87 10000 0.45 104 17:33 15.09.2022
1781 Clouds 16 991 87 10000 1.99 157 16:52 15.09.2022
1782 Rain 13 1002 96 10000 2.57 154 14:41 15.09.2022
1783 Rain 15 1003 100 10000 2.66 156 12:30 15.09.2022
1784 Clouds 16 994 91 10000 0.45 138 10:21 15.09.2022
1785 Rain 14 993 92 10000 2.47 181 07:51 15.09.2022
1786 Clouds 12 994 93 10000 2.24 204 03:58 15.09.2022
1787 Clouds 12 995 94 10000 2.45 222 01:27 15.09.2022
1788 Clouds 13 995 94 10000 1.74 257 21:54 14.09.2022
1789 Clouds 13 995 95 10000 2.63 304 19:59 14.09.2022
1790 Clouds 13 995 94 10000 3.1 287 19:26 14.09.2022
1791 Clouds 16 995 92 10000 3.19 264 17:25 14.09.2022
1792 Rain 15 995 91 10000 2.72 241 15:56 14.09.2022
1793 Clouds 16 995 84 10000 0.45 184 14:34 14.09.2022
1794 Clouds 16 996 71 10000 0.45 233 11:40 14.09.2022
1795 Clouds 16 996 75 10000 0.45 99 09:48 14.09.2022
1796 Clouds 12 997 88 10000 0.45 224 07:39 14.09.2022
1797 Clouds 12 997 90 10000 0.45 186 06:47 14.09.2022
1798 Clouds 11 996 91 10000 0.45 111 04:33 14.09.2022
1799 Clouds 11 997 91 10000 2.79 271 01:48 14.09.2022
1800 Clouds 11 997 91 10000 0.89 88 01:27 14.09.2022
1801 Clouds 11 997 91 10000 0.45 116 00:48 14.09.2022
1802 Rain 11 998 91 10000 3.24 274 23:54 13.09.2022
1803 Clouds 11 998 91 10000 3.24 274 23:36 13.09.2022
1804 Clouds 11 998 91 10000 3 282 23:18 13.09.2022
1805 Clouds 11 998 91 10000 2.83 293 21:50 13.09.2022
1806 Clouds 11 998 91 10000 3.24 322 19:45 13.09.2022
1807 Clouds 11 998 90 10000 0.45 212 18:18 13.09.2022
1808 Clouds 12 998 89 10000 0.89 134 15:55 13.09.2022
1809 Clouds 12 997 88 10000 0.89 224 14:36 13.09.2022
1810 Clouds 12 997 88 10000 0.89 224 14:36 13.09.2022
1811 Clouds 12 997 89 10000 0.45 171 12:40 13.09.2022
1812 Clouds 12 997 91 10000 0.45 352 08:50 13.09.2022
1813 Clouds 12 996 91 9220 0.45 279 06:24 13.09.2022
1814 Rain 12 997 91 10000 1.97 326 00:22 13.09.2022
1815 Clouds 12 997 90 10000 2.58 306 22:50 12.09.2022
1816 Clouds 11 997 90 7808 2.8 302 21:55 12.09.2022
1817 Rain 12 998 90 10000 2.39 316 20:25 12.09.2022
1818 Clouds 12 998 90 10000 2 311 18:44 12.09.2022
1819 Rain 13 997 86 10000 2 298 16:38 12.09.2022
1820 Clouds 14 997 85 10000 1.69 251 14:37 12.09.2022
1821 Clouds 14 978 100 10000 2.86 235 11:30 12.09.2022
1822 Clouds 13 996 87 10000 2.64 240 09:56 12.09.2022
1823 Clouds 13 996 90 10000 0.45 148 04:51 12.09.2022
1824 Clouds 13 996 90 10000 0.45 133 04:25 12.09.2022
1825 Clouds 13 997 91 10000 2.4 180 23:39 11.09.2022
1826 Rain 13 997 91 10000 0.89 148 22:28 11.09.2022
1827 Clouds 13 998 90 10000 0.45 182 20:50 11.09.2022
1828 Clouds 13 999 90 10000 0.45 359 19:57 11.09.2022
1829 Clouds 14 998 89 10000 0.45 183 19:25 11.09.2022
1830 Clouds 15 999 87 10000 4.59 137 18:21 11.09.2022
1831 Clouds 16 1008 83 10000 0.89 217 16:47 11.09.2022
1832 Clouds 15 1000 84 10000 0.45 131 14:53 11.09.2022
1833 Clouds 15 1000 84 10000 3.25 143 12:50 11.09.2022
1834 Clouds 13 1000 89 10000 1.61 235 09:25 11.09.2022
1835 Clouds 13 1000 89 10000 1.61 235 09:25 11.09.2022
1836 Clouds 12 1000 91 10000 3.24 183 07:19 11.09.2022
1837 Clouds 12 1001 90 10000 0.45 300 00:54 11.09.2022
1838 Rain 12 1002 92 10000 0.89 188 22:56 10.09.2022
1839 Rain 12 1003 92 9134 0.89 210 21:33 10.09.2022
1840 Clouds 11 1004 92 10000 0.89 245 19:48 10.09.2022
1841 Rain 11 1004 92 10000 1.34 193 19:29 10.09.2022
1842 Rain 11 1005 92 10000 0.89 216 18:55 10.09.2022
1843 Rain 11 1006 92 10000 0.45 276 16:51 10.09.2022
1844 Rain 10 1007 92 10000 0.89 226 14:43 10.09.2022
1845 Rain 10 1008 92 10000 0.89 294 12:53 10.09.2022
1846 Clouds 10 1009 92 10000 0.89 264 11:19 10.09.2022
1847 Rain 9 1010 93 10000 1.34 299 09:51 10.09.2022
1848 Rain 9 1010 93 10000 0.45 303 08:37 10.09.2022
1849 Rain 10 1010 93 10000 0.45 319 07:22 10.09.2022
1850 Rain 10 1012 87 10000 0.89 303 00:51 10.09.2022
1851 Rain 11 1012 78 10000 0.89 304 23:33 09.09.2022
1852 Clouds 14 1012 55 10000 0.89 314 22:19 09.09.2022
1853 Clouds 15 1012 56 10000 0.89 291 20:47 09.09.2022
1854 Clouds 15 1012 58 10000 0.45 188 19:25 09.09.2022
1855 Clouds 15 1012 56 10000 0.89 312 18:53 09.09.2022
1856 Clouds 17 1012 46 10000 0.45 334 16:28 09.09.2022
1857 Clouds 19 1021 40 10000 0.89 182 13:50 09.09.2022
1858 Clouds 19 1012 44 10000 0.89 117 12:32 09.09.2022
1859 Clouds 16 1013 55 10000 0.89 309 09:57 09.09.2022
1860 Clouds 8 1012 83 10000 3.57 77 05:38 09.09.2022
1861 Clouds 9 1012 79 10000 0.45 70 03:20 09.09.2022
1862 Clear 13 1011 68 10000 0.45 347 21:53 08.09.2022
1863 Clear 14 1011 67 10000 0.45 54 20:56 08.09.2022
1864 Clouds 15 1011 67 10000 2.75 54 20:32 08.09.2022
1865 Clouds 15 1010 67 10000 2.75 54 19:57 08.09.2022
1866 Clouds 17 1009 58 10000 0.45 142 18:26 08.09.2022
1867 Clouds 21 1017 37 10000 0.45 320 16:21 08.09.2022
1868 Clear 21 1018 34 10000 0.45 52 14:40 08.09.2022
1869 Clouds 21 1018 34 10000 2.34 356 13:27 08.09.2022
1870 Clouds 21 1018 34 10000 0.89 96 12:24 08.09.2022
1871 Clouds 21 1018 41 10000 0.45 212 10:57 08.09.2022
1872 Clouds 18 1009 52 10000 0.89 95 08:51 08.09.2022
1873 Clouds 10 1008 74 10000 1.6 347 06:42 08.09.2022
1874 Clouds 10 1017 67 10000 0.53 355 02:37 08.09.2022
1875 Clear 10 1017 68 10000 0.52 359 02:18 08.09.2022
1876 Clear 9 1018 75 10000 0.14 22 00:56 08.09.2022
1877 Clear 9 1018 73 10000 0.48 138 22:44 07.09.2022
1878 Clear 9 1018 70 10000 0.69 141 21:42 07.09.2022
1879 Clear 11 1009 68 10000 0.91 127 20:49 07.09.2022
1880 Clear 12 1010 61 10000 0.52 17 19:40 07.09.2022
1881 Clear 17 1009 43 10000 1.21 316 17:49 07.09.2022
1882 Clear 20 1021 37 10000 2.56 267 12:52 07.09.2022
1883 Clear 17 1022 41 10000 0.45 111 10:47 07.09.2022
1884 Clear 12 994 41 10000 2 262 09:19 07.09.2022
1885 Clear 10 1013 70 10000 2.35 268 07:23 07.09.2022
1886 Clear 7 1013 87 10000 1.85 263 03:19 07.09.2022
1887 Clear 8 1014 84 10000 0.82 313 22:59 06.09.2022
1888 Clear 9 1014 80 10000 1.12 341 21:41 06.09.2022
1889 Clouds 10 1014 73 10000 1.29 315 20:24 06.09.2022
1890 Clouds 13 1013 61 10000 1.28 329 18:45 06.09.2022
1891 Clouds 13 1013 58 10000 2.24 347 18:21 06.09.2022
1892 Clouds 14 1013 56 10000 0.89 62 17:21 06.09.2022
1893 Clouds 15 1022 58 10000 0.45 125 16:37 06.09.2022
1894 Clouds 16 1014 51 10000 0.45 328 14:59 06.09.2022
1895 Clouds 15 1014 51 10000 0.45 116 13:45 06.09.2022
1896 Clouds 16 1014 52 10000 0.89 104 13:22 06.09.2022
1897 Clouds 15 1015 50 10000 0.89 31 11:57 06.09.2022
1898 Clouds 14 1015 52 10000 0.45 318 10:41 06.09.2022
1899 Clear 13 1015 62 10000 3.03 331 08:50 06.09.2022
1900 Clear 11 1015 74 10000 2.74 330 07:37 06.09.2022
1901 Clear 9 1014 82 10000 1.77 350 02:43 06.09.2022
1902 Clouds 11 1014 69 10000 2.26 4 23:22 05.09.2022
1903 Clouds 13 1014 65 10000 0.45 326 21:53 05.09.2022
1904 Clouds 13 1014 65 10000 2.9 18 20:33 05.09.2022
1905 Clouds 14 1014 64 10000 3.73 18 19:19 05.09.2022
1906 Clouds 15 1013 61 10000 3.73 18 18:45 05.09.2022
1907 Clouds 15 1013 60 10000 0.45 84 18:21 05.09.2022
1908 Clouds 17 1022 48 10000 0.89 57 16:35 05.09.2022
1909 Clouds 19 1021 48 10000 0.89 273 15:46 05.09.2022
1910 Clouds 18 1022 53 10000 0.45 106 13:25 05.09.2022
1911 Clouds 19 1022 55 10000 0.45 109 12:26 05.09.2022
1912 Clouds 15 1014 70 10000 0.45 333 09:44 05.09.2022
1913 Clouds 14 1013 60 10000 0.45 160 06:40 05.09.2022
1914 Clouds 14 1014 59 10000 0.45 123 01:56 05.09.2022
1915 Clouds 12 1014 73 10000 1.19 59 22:44 04.09.2022
1916 Clouds 12 1014 72 10000 1.34 16 22:26 04.09.2022
1917 Clouds 12 1014 70 10000 1.66 8 20:43 04.09.2022
1918 Clear 15 1013 58 10000 1.48 9 19:20 04.09.2022
1919 Clear 18 1013 46 10000 2.25 350 17:43 04.09.2022
1920 Clouds 20 1022 41 10000 0.45 213 16:28 04.09.2022
1921 Clear 22 1022 36 10000 0.89 3 14:27 04.09.2022
1922 Clear 21 1022 39 10000 4.07 19 12:57 04.09.2022
1923 Clear 21 1022 40 10000 0.45 155 11:52 04.09.2022
1924 Clear 17 1023 51 10000 3.6 32 09:50 04.09.2022
1925 Clear 12 1013 78 10000 2.43 33 06:51 04.09.2022
1926 Clouds 11 1012 87 10000 1.88 8 03:59 04.09.2022
1927 Clouds 12 1012 81 10000 1.49 341 23:40 03.09.2022
1928 Clouds 12 1012 79 10000 1.1 5 22:21 03.09.2022
1929 Clouds 13 1012 72 10000 0.27 175 21:23 03.09.2022
1930 Clouds 13 1012 72 10000 0.27 175 21:23 03.09.2022
1931 Clouds 16 1011 60 10000 2.31 175 18:59 03.09.2022
1932 Clouds 18 1020 53 10000 0.45 62 17:25 03.09.2022
1933 Clouds 20 1021 48 10000 2.9 146 16:26 03.09.2022
1934 Clouds 19 1021 52 10000 0.45 184 14:44 03.09.2022
1935 Clouds 20 1021 48 10000 0.45 333 13:50 03.09.2022
1936 Clouds 20 1022 49 10000 0.45 326 11:37 03.09.2022
1937 Clouds 17 1013 61 10000 2.98 103 09:51 03.09.2022
1938 Clouds 14 1013 64 10000 1.92 58 07:57 03.09.2022
1939 Clouds 13 1013 66 10000 1.96 89 04:57 03.09.2022
1940 Clouds 13 1013 66 10000 2.28 86 03:57 03.09.2022
1941 Clouds 14 1013 62 10000 2.54 57 23:49 02.09.2022
1942 Clouds 14 1012 58 10000 0.45 242 22:34 02.09.2022
1943 Clouds 14 1012 62 10000 2.75 40 20:57 02.09.2022
1944 Clouds 14 1012 61 10000 0.45 332 20:23 02.09.2022
1945 Clouds 16 1011 55 10000 2.26 34 18:59 02.09.2022
1946 Clouds 18 1011 52 10000 2.26 21 18:26 02.09.2022
1947 Clouds 19 1020 47 10000 2.5 4 17:30 02.09.2022
1948 Clouds 19 1020 47 10000 2.5 4 17:30 02.09.2022
1949 Clouds 19 1020 44 10000 2.5 4 16:44 02.09.2022
1950 Clouds 19 1021 44 10000 0.45 297 13:51 02.09.2022
1951 Clouds 20 1021 45 10000 0.45 350 11:36 02.09.2022
1952 Clouds 19 1021 54 10000 0.45 339 09:46 02.09.2022
1953 Clouds 17 1021 61 10000 0.45 317 08:49 02.09.2022
1954 Clouds 12 1020 77 10000 1.84 322 07:24 02.09.2022
1955 Clouds 10 1011 89 10000 1.83 322 06:34 02.09.2022
1956 Clear 11 1009 83 10000 2.35 338 02:34 02.09.2022
1957 Clear 14 1008 68 10000 3.01 343 22:24 01.09.2022
1958 Clear 13 1007 70 10000 3.01 343 21:39 01.09.2022
1959 Clear 13 1007 71 10000 3.1 352 21:20 01.09.2022
1960 Clouds 14 1007 65 10000 3.96 11 20:31 01.09.2022
1961 Clouds 18 1006 50 10000 5.12 9 18:37 01.09.2022
1962 Clouds 21 1014 38 10000 0.89 64 16:55 01.09.2022
1963 Clouds 22 1014 41 10000 0.89 348 15:26 01.09.2022
1964 Clouds 22 1014 43 10000 0.45 12 13:33 01.09.2022
1965 Clouds 21 1014 48 10000 0.45 66 12:56 01.09.2022
1966 Clouds 21 1015 47 10000 0.45 40 11:51 01.09.2022
1967 Clouds 21 1015 46 10000 0.45 98 11:22 01.09.2022
1968 Clouds 20 1015 55 10000 0.45 298 09:32 01.09.2022
1969 Clouds 16 1006 79 10000 1.57 14 07:31 01.09.2022
1970 Clouds 14 1005 76 10000 1.87 27 03:59 01.09.2022
1971 Clouds 15 1005 76 10000 0.45 64 01:30 01.09.2022
1972 Clouds 15 1005 76 10000 0.45 64 01:30 01.09.2022
1973 Clouds 15 1005 76 10000 0.45 64 01:30 01.09.2022
1974 Clouds 15 1005 76 10000 0.45 64 01:30 01.09.2022
1975 Clouds 15 1005 76 10000 0.45 64 01:30 01.09.2022
1976 Clouds 17 1005 74 10000 1.56 352 22:50 31.08.2022
1977 Clouds 18 1005 65 10000 2.51 357 20:44 31.08.2022
1978 Clouds 21 1004 56 10000 3.95 11 18:46 31.08.2022
1979 Clouds 23 1004 56 10000 0.45 124 16:47 31.08.2022
1980 Clouds 24 1004 55 10000 0.45 166 15:25 31.08.2022
1981 Clouds 24 1013 62 10000 1.34 90 13:28 31.08.2022
1982 Clouds 24 1005 63 10000 0.45 84 11:55 31.08.2022
1983 Clear 24 1014 63 10000 0.45 122 09:36 31.08.2022
1984 Clear 24 1014 63 10000 0.45 122 09:36 31.08.2022
1985 Clouds 21 1014 70 10000 0.45 101 08:26 31.08.2022
1986 Clouds 18 1005 74 10000 0.45 273 02:58 31.08.2022
1987 Clouds 19 1005 70 10000 2.9 283 22:24 30.08.2022
1988 Clouds 20 1005 65 10000 2.61 292 21:29 30.08.2022
1989 Clouds 20 1005 63 10000 2.72 296 20:35 30.08.2022
1990 Clear 27 1013 45 10000 0.45 89 16:58 30.08.2022
1991 Clouds 29 1014 46 10000 0.45 201 13:51 30.08.2022
1992 Clouds 28 1014 49 10000 0.45 74 11:58 30.08.2022
1993 Clouds 27 1014 48 10000 0.89 133 11:20 30.08.2022
1994 Clouds 25 1006 63 10000 0.45 123 09:39 30.08.2022
1995 Clouds 19 1005 88 10000 0.45 154 06:48 30.08.2022
1996 Clouds 22 1004 80 10000 0.45 156 01:18 30.08.2022
1997 Clouds 24 1004 70 10000 4.2 286 22:38 29.08.2022
1998 Clouds 24 1004 65 10000 0.45 137 21:53 29.08.2022
1999 Clouds 26 1003 62 10000 3.48 308 20:47 29.08.2022
2000 Clouds 26 1003 61 10000 2.4 280 18:59 29.08.2022
2001 Clouds 27 1011 55 10000 2.18 265 17:33 29.08.2022
2002 Clouds 29 1002 54 10000 3.76 282 16:59 29.08.2022
2003 Clear 33 1002 39 10000 0.45 121 15:20 29.08.2022
2004 Clear 33 1003 37 10000 0.89 106 13:54 29.08.2022
2005 Clear 32 1011 37 10000 0.89 116 12:24 29.08.2022
2006 Clear 30 1011 49 10000 0.45 49 10:48 29.08.2022
2007 Clear 27 1011 58 10000 0.45 69 09:19 29.08.2022
2008 Clouds 19 1002 82 10000 2.9 243 07:20 29.08.2022
2009 Rain 18 1002 90 10000 1.67 256 02:31 29.08.2022
2010 Clear 18 1002 90 10000 0.82 49 23:35 28.08.2022
2011 Clear 19 1002 85 10000 1.23 32 21:48 28.08.2022
2012 Clear 20 1002 81 10000 1.83 28 21:25 28.08.2022
2013 Clouds 21 1002 77 10000 2.97 9 20:18 28.08.2022
2014 Clouds 24 1001 58 10000 0.45 75 18:22 28.08.2022
2015 Clouds 25 1001 54 10000 0.45 62 17:59 28.08.2022
2016 Clouds 27 1009 44 10000 0.45 84 16:44 28.08.2022
2017 Clouds 27 1009 50 10000 0.45 311 15:33 28.08.2022
2018 Clouds 30 1000 41 10000 0.45 54 13:32 28.08.2022
2019 Clouds 27 1001 48 10000 0.45 136 11:59 28.08.2022
2020 Clouds 25 1009 61 10000 0.45 283 10:20 28.08.2022
2021 Clouds 24 1009 64 10000 0.45 247 09:24 28.08.2022
2022 Clouds 21 1009 70 10000 1.03 81 07:56 28.08.2022
2023 Clouds 21 1000 70 10000 0.67 30 07:26 28.08.2022
2024 Clouds 20 1001 70 10000 1.46 25 00:37 28.08.2022
2025 Clouds 20 1001 66 10000 2.04 56 23:20 27.08.2022
2026 Clouds 22 1001 60 10000 2.23 46 22:27 27.08.2022
2027 Clouds 23 1002 60 10000 2.28 49 20:35 27.08.2022
2028 Clouds 26 1001 50 10000 0.45 298 19:26 27.08.2022
2029 Clouds 31 1001 29 10000 0.45 58 16:29 27.08.2022
2030 Clouds 31 1010 27 10000 1.34 322 15:31 27.08.2022
2031 Clouds 30 1002 36 10000 0.89 306 13:22 27.08.2022
2032 Clouds 29 1010 44 10000 0.45 147 11:59 27.08.2022
2033 Clouds 25 1011 55 10000 6.13 69 10:30 27.08.2022
2034 Clouds 24 984 28 10000 6.13 69 09:33 27.08.2022
2035 Clouds 21 1011 60 10000 0.45 104 06:52 27.08.2022
2036 Clouds 21 1003 54 10000 0.45 300 01:21 27.08.2022
2037 Clouds 23 1003 55 10000 0.45 306 23:46 26.08.2022
2038 Clouds 24 1003 49 10000 0.45 295 21:46 26.08.2022
2039 Clouds 26 1003 39 10000 4.35 139 20:20 26.08.2022
2040 Clouds 29 1004 32 10000 0.45 300 17:59 26.08.2022
2041 Clouds 30 1012 29 10000 0.89 190 16:32 26.08.2022
2042 Clouds 31 1012 28 10000 0.45 174 15:24 26.08.2022
2043 Clouds 32 1013 26 10000 0.45 240 13:18 26.08.2022
2044 Clouds 31 1004 31 10000 0.89 267 11:48 26.08.2022
2045 Clouds 30 1004 36 10000 0.45 315 11:21 26.08.2022
2046 Clouds 25 1005 53 10000 0.45 121 08:55 26.08.2022
2047 Clouds 21 1005 68 10000 2.4 59 03:59 26.08.2022
2048 Clear 22 1006 66 10000 3 74 00:39 26.08.2022
2049 Clear 24 1006 59 10000 3.7 71 22:39 25.08.2022
2050 Clear 25 1006 53 10000 3.72 68 20:55 25.08.2022
2051 Clear 27 1007 45 10000 4.22 68 19:35 25.08.2022
2052 Clear 29 1007 37 10000 0.45 294 18:29 25.08.2022
2053 Clear 31 1015 33 10000 0.89 337 17:32 25.08.2022
2054 Clear 31 1015 33 10000 1.34 339 16:45 25.08.2022
2055 Clear 31 1015 33 10000 0.89 332 15:30 25.08.2022
2056 Clear 34 1007 29 10000 1.34 0 13:58 25.08.2022
2057 Clear 30 1009 39 10000 0.45 324 11:21 25.08.2022
2058 Clear 28 1009 46 10000 0.45 310 10:42 25.08.2022
2059 Clear 21 1009 68 10000 0.45 326 07:35 25.08.2022
2060 Clear 19 1010 69 10000 2.28 72 02:51 25.08.2022
2061 Clear 22 1010 62 10000 0.89 310 23:36 24.08.2022
2062 Clear 23 1010 58 10000 3.78 86 22:55 24.08.2022
2063 Clear 24 1010 55 10000 0.45 302 21:53 24.08.2022
2064 Clear 25 1010 54 10000 0.45 118 21:28 24.08.2022
2065 Clear 27 1010 47 10000 0.45 315 19:52 24.08.2022
2066 Clear 32 1018 35 10000 0.89 240 16:51 24.08.2022
2067 Clear 33 1018 33 10000 0.89 309 15:53 24.08.2022
2068 Clear 34 1018 31 10000 0.45 247 15:18 24.08.2022
2069 Clear 33 1010 32 10000 0.45 213 12:48 24.08.2022
2070 Clear 30 1010 37 10000 0.89 179 11:18 24.08.2022
2071 Clear 25 1019 47 10000 0.45 284 08:45 24.08.2022
2072 Clear 20 1009 61 10000 0.45 292 05:26 24.08.2022
2073 Clear 21 1008 65 10000 3.48 103 00:41 24.08.2022
2074 Clear 25 1008 53 10000 0.45 340 22:35 23.08.2022
2075 Clear 25 1008 55 10000 0.89 318 21:49 23.08.2022
2076 Clear 25 990 44 10000 3.2 90 20:43 23.08.2022
2077 Clouds 26 1007 54 10000 3.35 118 18:58 23.08.2022
2078 Clouds 28 1015 45 10000 4.42 135 17:56 23.08.2022
2079 Clouds 29 1007 41 10000 0.89 138 17:21 23.08.2022
2080 Clouds 32 1015 31 10000 0.89 264 15:54 23.08.2022
2081 Clouds 30 1015 33 10000 0.89 299 13:54 23.08.2022
2082 Clouds 29 1015 36 10000 0.89 140 12:46 23.08.2022
2083 Clouds 28 1006 45 10000 0.89 184 10:57 23.08.2022
2084 Clouds 28 1006 44 10000 0.89 184 10:33 23.08.2022
2085 Clouds 25 1006 52 10000 0.89 139 08:58 23.08.2022
2086 Clear 23 1006 57 10000 5.38 115 08:38 23.08.2022
2087 Clear 23 1005 57 10000 0.45 226 08:18 23.08.2022
2088 Clear 22 1005 59 10000 0.45 207 07:31 23.08.2022
2089 Clear 21 1005 61 10000 0.45 215 06:22 23.08.2022
2090 Clouds 21 1003 68 10000 0.45 294 01:45 23.08.2022
2091 Clouds 21 1003 68 10000 2.37 70 00:27 23.08.2022
2092 Clouds 21 1004 70 10000 2.49 55 23:32 22.08.2022
2093 Clouds 21 1003 71 10000 2.48 59 22:24 22.08.2022
2094 Clouds 23 1004 64 10000 2.05 82 20:29 22.08.2022
2095 Clouds 24 1003 58 10000 2.5 85 19:41 22.08.2022
2096 Clouds 27 985 54 10000 3.49 86 18:36 22.08.2022
2097 Clouds 30 1011 42 10000 0.45 325 15:46 22.08.2022
2098 Clouds 30 1011 41 10000 0.45 293 15:18 22.08.2022
2099 Clear 28 1002 47 10000 0.89 309 11:39 22.08.2022
2100 Clear 24 1003 60 10000 0.45 311 09:24 22.08.2022
2101 Clear 17 1002 87 10000 1.91 87 05:51 22.08.2022
2102 Clouds 20 1002 85 10000 2.28 112 00:56 22.08.2022
2103 Clouds 20 1002 84 10000 2.28 112 00:36 22.08.2022
2104 Clouds 21 1002 83 10000 1.73 100 23:21 21.08.2022
2105 Clouds 22 1002 80 10000 1.76 56 21:55 21.08.2022
2106 Clouds 22 1002 76 10000 0.45 302 21:18 21.08.2022
2107 Clouds 24 1002 69 10000 0.45 333 19:42 21.08.2022
2108 Clouds 25 1001 63 10000 0.45 308 18:36 21.08.2022
2109 Clouds 29 1010 54 10000 0.45 5 16:48 21.08.2022
2110 Clouds 29 1010 52 10000 0.45 309 15:52 21.08.2022
2111 Clear 29 1010 53 10000 0.89 185 14:41 21.08.2022
2112 Clouds 29 1010 50 10000 0.45 193 13:48 21.08.2022
2113 Clouds 29 1010 52 10000 0.45 324 12:53 21.08.2022
2114 Clouds 25 1002 69 10000 3.15 100 09:57 21.08.2022
2115 Clouds 22 1002 73 10000 0.45 178 08:56 21.08.2022
2116 Clouds 22 1002 74 10000 0.45 160 08:38 21.08.2022
2117 Clouds 20 1002 80 10000 0.89 194 07:53 21.08.2022
2118 Clouds 18 1002 89 10000 0.45 293 05:39 21.08.2022
2119 Clouds 19 1002 89 10000 0.45 354 00:54 21.08.2022
2120 Clouds 20 1003 89 10000 0.45 61 23:20 20.08.2022
2121 Clouds 21 1003 88 10000 2.3 54 21:46 20.08.2022
2122 Clouds 21 1003 86 10000 0.45 252 20:50 20.08.2022
2123 Clouds 21 1004 86 10000 2.08 347 19:42 20.08.2022
2124 Clouds 22 1003 85 10000 1.85 351 18:45 20.08.2022
2125 Clouds 23 1003 85 10000 0.45 40 18:25 20.08.2022
2126 Clouds 23 1003 80 10000 0.9 27 17:20 20.08.2022
2127 Clouds 24 1003 78 10000 1.72 51 15:52 20.08.2022
2128 Clouds 24 1003 74 10000 0.45 88 13:48 20.08.2022
2129 Clouds 24 1003 73 10000 1.78 53 11:54 20.08.2022
2130 Clouds 24 1003 72 10000 0.45 295 11:24 20.08.2022
2131 Clouds 22 1004 80 10000 2.24 36 09:20 20.08.2022
2132 Clouds 18 1004 89 10000 0.45 315 06:40 20.08.2022
2133 Clouds 16 1004 91 10000 1.83 13 04:40 20.08.2022
2134 Clear 18 1004 88 10000 1.78 25 00:55 20.08.2022
2135 Clear 18 1004 89 10000 2.76 38 23:25 19.08.2022
2136 Clear 18 1004 89 10000 3.02 31 22:36 19.08.2022
2137 Clear 21 1005 79 10000 0.89 299 20:41 19.08.2022
2138 Clouds 22 1004 76 10000 0.45 312 18:53 19.08.2022
2139 Clouds 24 1004 72 10000 0.89 323 15:55 19.08.2022
2140 Clouds 24 1004 72 10000 0.89 323 15:55 19.08.2022
2141 Clouds 27 1004 67 10000 0.89 321 13:41 19.08.2022
2142 Clear 26 1012 64 10000 0.89 0 11:40 19.08.2022
2143 Clear 25 1011 68 10000 0.45 110 10:30 19.08.2022
2144 Clear 20 1003 84 10000 0.45 25 07:25 19.08.2022
2145 Clear 20 1002 83 10000 0.45 308 02:23 19.08.2022
2146 Clear 21 1002 78 10000 3.46 14 00:36 19.08.2022
2147 Clear 22 1002 74 10000 0.45 228 23:48 18.08.2022
2148 Clear 22 1002 75 10000 0.45 303 23:48 18.08.2022
2149 Clear 23 1002 68 10000 3.64 23 22:53 18.08.2022
2150 Clear 23 1002 67 10000 0.89 310 22:18 18.08.2022
2151 Clear 24 1002 65 10000 0.45 305 21:40 18.08.2022
2152 Clear 25 1002 63 10000 0.45 294 20:32 18.08.2022
2153 Clear 26 1001 63 10000 0.45 294 19:32 18.08.2022
2154 Clear 28 1001 55 10000 0.89 315 18:19 18.08.2022
2155 Clear 30 1009 51 10000 0.45 338 17:29 18.08.2022
2156 Clouds 30 1009 51 10000 0.89 317 15:27 18.08.2022
2157 Clouds 30 1009 53 10000 0.45 337 14:20 18.08.2022
2158 Clouds 30 1009 52 10000 0.45 313 13:40 18.08.2022
2159 Clouds 29 1001 54 10000 0.45 326 12:27 18.08.2022
2160 Clouds 26 1009 64 10000 0.89 338 10:25 18.08.2022
2161 Clouds 25 1009 66 10000 0.89 59 09:42 18.08.2022
2162 Clouds 20 1000 82 10000 0.45 307 07:24 18.08.2022
2163 Clouds 19 1000 88 10000 0.45 25 04:47 18.08.2022
2164 Clouds 22 999 85 10000 1.55 27 23:49 17.08.2022
2165 Clouds 22 1008 84 10000 2.69 54 22:20 17.08.2022
2166 Clouds 24 1008 76 10000 1.97 32 20:20 17.08.2022
2167 Clouds 25 1000 73 10000 1.03 351 19:32 17.08.2022
2168 Clouds 27 999 65 10000 1.4 246 18:21 17.08.2022
2169 Clouds 28 1008 59 10000 1.19 110 16:50 17.08.2022
2170 Clouds 29 1007 60 10000 2.26 92 15:30 17.08.2022
2171 Clouds 29 1007 58 10000 0.45 306 14:18 17.08.2022
2172 Clouds 28 1008 64 10000 0.45 300 11:45 17.08.2022
2173 Clouds 27 1008 63 10000 0.45 319 10:22 17.08.2022
2174 Clouds 22 1008 79 10000 2.06 68 08:25 17.08.2022
2175 Clouds 16 999 90 10000 1.41 70 04:20 17.08.2022
2176 Clouds 18 1000 89 10000 1.81 101 00:40 17.08.2022
2177 Clouds 19 1000 89 10000 0.45 278 22:50 16.08.2022
2178 Rain 19 1000 90 10000 0.45 297 20:59 16.08.2022
2179 Rain 19 1001 90 10000 0.89 284 19:54 16.08.2022
2180 Clouds 20 1000 89 10000 2 69 19:19 16.08.2022
2181 Clouds 21 1000 87 10000 0.45 323 17:54 16.08.2022
2182 Clouds 23 1000 81 10000 0.45 281 16:18 16.08.2022
2183 Clouds 23 1000 81 10000 0.45 249 15:39 16.08.2022
2184 Clouds 23 1000 83 10000 0.45 308 14:43 16.08.2022
2185 Clouds 23 1000 82 10000 0.45 256 14:25 16.08.2022
2186 Clouds 20 1000 90 10000 0.45 305 11:39 16.08.2022
2187 Clouds 22 1000 82 10000 0.89 293 09:58 16.08.2022
2188 Rain 22 1006 83 10000 1.34 175 08:48 16.08.2022
2189 Clouds 23 997 75 10000 0.45 257 08:19 16.08.2022
2190 Clouds 21 997 80 10000 4.58 77 05:18 16.08.2022
2191 Clouds 24 1007 71 10000 6.59 49 23:18 15.08.2022
2192 Clouds 23 999 73 10000 0.45 340 22:18 15.08.2022
2193 Clouds 23 999 76 10000 6.8 47 21:41 15.08.2022
2194 Clouds 24 1000 70 10000 5.91 49 20:30 15.08.2022
2195 Clouds 26 999 65 10000 4.46 60 18:56 15.08.2022
2196 Clouds 26 999 60 10000 0.45 305 17:56 15.08.2022
2197 Clouds 27 1000 69 10000 4.96 61 16:23 15.08.2022
2198 Clouds 24 1000 75 10000 5.29 85 14:40 15.08.2022
2199 Clouds 27 982 90 10000 5.52 88 13:19 15.08.2022
2200 Clouds 24 1009 74 10000 5.25 89 10:36 15.08.2022
2201 Clouds 27 1010 33 10000 6.14 90 08:53 15.08.2022
2202 Clouds 21 1000 85 10000 4.27 60 06:39 15.08.2022
2203 Clouds 21 1000 83 10000 0.45 319 03:34 15.08.2022
2204 Clouds 22 1001 85 10000 0.89 319 23:27 14.08.2022
2205 Clouds 23 1001 81 10000 0.45 92 21:48 14.08.2022
2206 Clouds 23 1001 80 10000 5.03 77 20:41 14.08.2022
2207 Clouds 26 1011 46 10000 5.29 66 19:45 14.08.2022
2208 Clouds 29 1010 37 10000 5.86 69 18:32 14.08.2022
2209 Clouds 29 1010 37 10000 5.85 69 17:37 14.08.2022
2210 Clouds 30 1011 34 10000 5.07 66 16:23 14.08.2022
2211 Clouds 28 1001 63 10000 0.89 333 15:34 14.08.2022
2212 Clouds 30 1010 58 10000 0.89 336 13:51 14.08.2022
2213 Clouds 29 1010 59 10000 0.45 333 13:31 14.08.2022
2214 Clouds 30 1002 57 10000 0.89 282 12:42 14.08.2022
2215 Clouds 28 1002 63 10000 0.45 304 11:23 14.08.2022
2216 Clouds 24 1002 74 10000 0.45 303 09:34 14.08.2022
2217 Clouds 21 1002 79 10000 4.13 70 06:53 14.08.2022
2218 Clouds 21 1002 79 10000 0.45 35 05:45 14.08.2022
2219 Clouds 22 1002 80 10000 0.45 326 01:43 14.08.2022
2220 Clouds 23 1002 84 10000 0.45 299 23:22 13.08.2022
2221 Clouds 23 1002 82 10000 0.45 278 22:28 13.08.2022
2222 Clouds 24 1002 79 10000 0.45 293 20:51 13.08.2022
2223 Clouds 26 1003 77 10000 5.33 59 19:49 13.08.2022
2224 Clouds 25 1002 79 10000 0.45 305 19:18 13.08.2022
2225 Clouds 27 1002 75 10000 6.04 52 17:21 13.08.2022
2226 Clouds 28 1012 67 10000 0.89 306 14:50 13.08.2022
2227 Clouds 29 1013 40 10000 6.31 61 13:50 13.08.2022
2228 Clouds 26 1013 96 10000 6.31 61 13:50 13.08.2022
2229 Clouds 26 1014 92 10000 6.74 74 13:28 13.08.2022
2230 Rain 27 1015 44 10000 6.44 85 11:29 13.08.2022
2231 Clouds 23 986 52 10000 5.16 81 09:26 13.08.2022
2232 Rain 20 1005 89 10000 0.89 312 06:54 13.08.2022
2233 Clouds 21 1006 87 10000 3.97 24 01:51 13.08.2022
2234 Clouds 23 1017 100 10000 4.3 18 23:32 12.08.2022
2235 Rain 20 1017 88 10000 4.47 14 21:39 12.08.2022
2236 Clouds 23 989 100 10000 4.92 38 19:49 12.08.2022
2237 Clouds 24 1007 80 10000 4.19 31 19:23 12.08.2022
2238 Clouds 25 1007 79 10000 4.44 25 18:26 12.08.2022
2239 Clouds 26 1007 75 10000 6.83 97 16:27 12.08.2022
2240 Rain 26 1018 100 10000 3.76 69 15:21 12.08.2022
2241 Clouds 25 1008 77 10000 1.9 24 13:47 12.08.2022
2242 Clouds 25 1008 77 10000 0.89 319 12:38 12.08.2022
2243 Clouds 23 1007 82 10000 0.45 39 08:57 12.08.2022
2244 Clouds 21 1007 85 10000 4.47 43 07:46 12.08.2022
2245 Clouds 20 1008 87 10000 3.96 25 06:24 12.08.2022
2246 Clouds 22 1008 86 10000 0.45 333 00:49 12.08.2022
2247 Clouds 21 990 100 10000 3.08 41 23:59 11.08.2022
2248 Clouds 22 1008 85 10000 0.45 355 23:25 11.08.2022
2249 Clouds 22 1008 86 10000 0.89 40 21:55 11.08.2022
2250 Clouds 22 1008 86 10000 4.36 46 21:28 11.08.2022
2251 Clouds 22 990 100 10000 3.39 34 20:31 11.08.2022
2252 Clouds 22 990 100 10000 4.63 51 19:34 11.08.2022
2253 Clouds 23 990 100 10000 4.63 51 18:57 11.08.2022
2254 Clouds 26 990 100 10000 3.72 14 17:23 11.08.2022
2255 Clouds 25 1008 79 10000 4.23 38 15:51 11.08.2022
2256 Clouds 24 1017 77 10000 0.45 2 14:46 11.08.2022
2257 Clouds 22 1008 84 10000 0.45 93 12:35 11.08.2022
2258 Clouds 19 1008 87 10000 0.45 60 09:24 11.08.2022
2259 Clouds 17 1007 88 10000 0.89 330 06:58 11.08.2022
2260 Rain 17 1008 87 10000 0.45 322 03:23 11.08.2022
2261 Clouds 18 1009 88 10000 2.49 19 00:28 11.08.2022
2262 Clouds 19 1010 84 10000 3.04 15 22:18 10.08.2022
2263 Clouds 19 1010 83 10000 3.17 26 21:20 10.08.2022
2264 Clouds 19 1010 83 10000 3.17 26 20:42 10.08.2022
2265 Clouds 21 1009 76 10000 1.52 61 18:53 10.08.2022
2266 Clouds 22 1009 76 10000 3.56 61 17:28 10.08.2022
2267 Clouds 23 1010 72 10000 0.45 309 15:26 10.08.2022
2268 Clouds 22 1010 80 10000 0.45 297 13:34 10.08.2022
2269 Clouds 22 1010 75 10000 0.45 29 12:24 10.08.2022
2270 Clouds 19 1011 84 10000 0.45 54 08:45 10.08.2022
2271 Clouds 19 1010 81 10000 2.8 24 07:44 10.08.2022
2272 Clouds 18 1010 86 10000 2.74 2 05:53 10.08.2022
2273 Clouds 18 1010 79 10000 3.05 355 02:44 10.08.2022
2274 Clouds 18 1011 78 10000 2.81 328 23:33 09.08.2022
2275 Clouds 19 1011 73 10000 2.97 329 22:48 09.08.2022
2276 Clouds 20 1013 69 10000 2.86 328 21:34 09.08.2022
2277 Clouds 20 1011 69 10000 2.25 351 19:33 09.08.2022
2278 Clouds 21 1011 65 10000 0.45 331 18:23 09.08.2022
2279 Clouds 22 1011 65 10000 0.45 261 17:26 09.08.2022
2280 Clouds 23 1011 64 10000 3.75 5 16:40 09.08.2022
2281 Clouds 23 1012 63 10000 0.89 8 15:31 09.08.2022
2282 Clouds 23 1012 64 10000 0.45 52 12:25 09.08.2022
2283 Clouds 23 1012 71 10000 0.45 44 09:22 09.08.2022
2284 Clouds 21 1021 78 10000 0.45 106 08:26 09.08.2022
2285 Clouds 19 1012 84 10000 3.58 26 07:18 09.08.2022
2286 Clouds 18 1011 86 10000 0.45 349 02:54 09.08.2022
2287 Clouds 18 1011 86 10000 2.51 28 23:26 08.08.2022
2288 Clouds 18 1011 86 10000 2.51 28 22:52 08.08.2022
2289 Clouds 19 1011 86 10000 2.32 28 21:48 08.08.2022
2290 Clouds 19 1011 86 10000 2.25 28 20:51 08.08.2022
2291 Clouds 20 992 100 10000 2.13 22 19:50 08.08.2022
2292 Clouds 22 1010 82 10000 2.34 21 18:19 08.08.2022
2293 Clouds 24 1011 79 10000 0.45 37 15:57 08.08.2022
2294 Clouds 23 1011 81 10000 0.45 327 15:38 08.08.2022
2295 Clouds 21 1011 84 10000 0.45 70 12:39 08.08.2022
2296 Clouds 21 1011 84 10000 0.45 55 11:32 08.08.2022
2297 Clouds 19 1010 84 10000 0.45 177 08:26 08.08.2022
2298 Clouds 18 1010 83 10000 0.45 292 05:33 08.08.2022
2299 Clouds 19 1009 88 10000 0.45 352 01:47 08.08.2022
2300 Clouds 20 1009 88 10000 0.45 96 21:49 07.08.2022
2301 Clouds 20 1009 89 10000 0.45 315 21:30 07.08.2022
2302 Clouds 20 1008 89 10000 5.73 356 20:25 07.08.2022
2303 Clouds 20 1008 89 10000 0.45 66 19:53 07.08.2022
2304 Clouds 20 1010 88 10000 0.89 84 19:24 07.08.2022
2305 Rain 20 1008 88 10000 0.89 44 17:59 07.08.2022
2306 Rain 21 1007 85 10000 0.89 347 16:53 07.08.2022
2307 Rain 23 1017 100 10000 6.49 346 15:45 07.08.2022
2308 Clouds 26 1016 100 10000 5.73 350 14:34 07.08.2022
2309 Clouds 29 1006 58 10000 3.16 3 12:50 07.08.2022
2310 Clouds 29 1006 56 10000 0.45 155 12:50 07.08.2022
2311 Clouds 30 1015 64 10000 0.45 347 10:54 07.08.2022
2312 Clouds 29 1015 68 10000 2.86 353 10:21 07.08.2022
2313 Clouds 21 1005 85 10000 0.66 10 04:42 07.08.2022
2314 Clouds 21 1005 85 10000 0.91 79 02:37 07.08.2022
2315 Clouds 22 1006 85 10000 0.88 61 22:57 06.08.2022
2316 Clear 22 1006 84 10000 1.07 94 22:19 06.08.2022
2317 Clear 25 1006 74 10000 1.35 107 20:19 06.08.2022
2318 Clear 26 1006 69 10000 2.17 97 19:37 06.08.2022
2319 Clear 31 1014 54 10000 0.45 250 17:52 06.08.2022
2320 Clear 30 1014 57 10000 0.45 239 16:30 06.08.2022
2321 Clear 31 1014 56 10000 0.45 134 13:52 06.08.2022
2322 Clear 31 1015 56 10000 3.49 61 12:46 06.08.2022
2323 Clear 29 1015 62 10000 0.45 177 11:21 06.08.2022
2324 Clear 27 1015 68 10000 0.45 220 09:49 06.08.2022
2325 Clear 21 1006 83 10000 0.45 145 07:35 06.08.2022
2326 Clear 20 1005 85 10000 2.15 84 01:59 06.08.2022
2327 Clear 21 1005 85 10000 2.44 82 22:40 05.08.2022
2328 Clouds 21 1005 85 10000 2.75 89 21:36 05.08.2022
2329 Clouds 24 1005 81 10000 2.16 28 19:22 05.08.2022
2330 Clouds 24 1014 75 10000 2.16 28 18:44 05.08.2022
2331 Clouds 28 1014 67 10000 3.72 60 16:55 05.08.2022
2332 Clouds 26 1014 100 10000 3.72 60 16:37 05.08.2022
2333 Clouds 27 1014 69 10000 3.26 73 15:19 05.08.2022
2334 Clouds 25 1014 80 10000 0.45 298 13:39 05.08.2022
2335 Clouds 24 988 53 10000 3.56 88 13:20 05.08.2022
2336 Clouds 22 1015 83 10000 0.45 23 12:23 05.08.2022
2337 Clouds 22 1014 84 10000 0.45 46 10:25 05.08.2022
2338 Clouds 19 1005 84 10000 0.45 320 07:58 05.08.2022
2339 Clouds 18 1004 84 10000 0.45 288 05:25 05.08.2022
2340 Clouds 19 1005 85 10000 3.1 357 23:50 04.08.2022
2341 Clouds 19 1005 85 10000 3.1 357 23:50 04.08.2022
2342 Clouds 21 1006 84 10000 2.99 354 21:39 04.08.2022
2343 Clouds 21 1005 84 10000 3.09 6 21:21 04.08.2022
2344 Clouds 21 1007 85 10000 3.09 6 20:40 04.08.2022
2345 Clouds 22 1005 85 10000 0.45 35 19:21 04.08.2022
2346 Clouds 22 1005 84 10000 2.97 13 18:34 04.08.2022
2347 Clouds 24 1005 83 10000 2.65 33 17:28 04.08.2022
2348 Clouds 26 1005 75 10000 0.45 43 13:35 04.08.2022
2349 Clouds 25 1005 78 10000 0.89 133 11:46 04.08.2022
2350 Clouds 23 1005 83 10000 0.89 218 10:27 04.08.2022
2351 Clouds 20 1005 84 10000 0.45 117 07:50 04.08.2022
2352 Clouds 19 1005 84 10000 0.45 296 04:28 04.08.2022
2353 Clouds 19 1005 84 10000 0.45 47 01:58 04.08.2022
2354 Clouds 20 1005 84 10000 0.45 55 23:42 03.08.2022
2355 Clouds 20 1004 84 10000 0.45 44 21:39 03.08.2022
2356 Clouds 20 1005 84 10000 4.03 4 20:22 03.08.2022
2357 Clouds 21 1004 85 10000 0.45 91 19:28 03.08.2022
2358 Clouds 22 1004 84 10000 0.45 80 17:41 03.08.2022
2359 Rain 21 1013 85 10000 0.89 123 16:24 03.08.2022
2360 Rain 25 1012 78 10000 0.89 121 14:25 03.08.2022
2361 Rain 24 1003 84 10000 0.45 269 11:47 03.08.2022
2362 Clouds 20 1012 84 10000 0.45 120 08:20 03.08.2022
2363 Clouds 18 1002 85 10000 0.45 307 04:46 03.08.2022
2364 Clouds 18 1002 85 10000 0.45 351 03:27 03.08.2022
2365 Clouds 18 1002 86 10000 4.53 347 01:18 03.08.2022
2366 Clouds 18 1001 86 10000 0.45 58 22:59 02.08.2022
2367 Rain 18 1001 87 10000 0.45 80 21:53 02.08.2022
2368 Rain 18 1001 87 10000 0.45 71 20:58 02.08.2022
2369 Clouds 18 1001 87 10000 0.45 132 18:48 02.08.2022
2370 Rain 19 1001 87 6101 0.45 71 16:21 02.08.2022
2371 Rain 19 1001 88 10000 0.89 33 11:45 02.08.2022
2372 Rain 19 1000 87 10000 2.55 4 09:18 02.08.2022
2373 Rain 19 1000 89 10000 2.27 6 07:53 02.08.2022
2374 Rain 20 1000 88 10000 0.89 312 06:43 02.08.2022
2375 Clouds 21 1000 86 10000 0.45 65 04:54 02.08.2022
2376 Clouds 21 1001 80 10000 0.69 137 23:51 01.08.2022
2377 Clouds 22 1001 79 8147 2.52 101 22:25 01.08.2022
2378 Clouds 22 1001 80 10000 3 74 20:52 01.08.2022
2379 Clouds 24 1000 75 10000 0.45 240 19:25 01.08.2022
2380 Clouds 25 1000 71 10000 0.45 300 18:40 01.08.2022
2381 Clouds 26 1009 69 10000 4.86 101 16:53 01.08.2022
2382 Clouds 28 1008 54 10000 0.45 235 15:52 01.08.2022
2383 Clouds 29 1008 53 10000 0.89 294 15:30 01.08.2022
2384 Clouds 28 1008 54 10000 0.89 261 14:43 01.08.2022
2385 Clouds 29 1000 50 10000 0.89 165 11:59 01.08.2022
2386 Clouds 27 1000 51 10000 0.45 214 09:43 01.08.2022
2387 Clouds 24 1000 57 10000 0.45 306 08:30 01.08.2022
2388 Clouds 18 1000 80 10000 2.8 99 04:54 01.08.2022
2389 Clouds 18 1001 80 10000 3.21 104 03:49 01.08.2022
2390 Clouds 21 1001 68 10000 0.45 266 00:23 01.08.2022
2391 Clouds 23 1002 60 10000 0.45 260 22:39 31.07.2022
2392 Clouds 24 1002 58 10000 0.89 309 21:27 31.07.2022
2393 Clouds 26 1002 53 10000 0.45 246 19:53 31.07.2022
2394 Clouds 30 1010 43 10000 0.45 273 17:57 31.07.2022
2395 Clouds 32 1010 40 10000 0.89 304 15:39 31.07.2022
2396 Clouds 31 1011 41 10000 0.45 268 13:43 31.07.2022
2397 Clouds 30 1004 39 10000 0.89 209 11:58 31.07.2022
2398 Clouds 28 1004 51 10000 0.45 264 09:55 31.07.2022
2399 Clouds 23 1005 62 10000 0.89 218 07:59 31.07.2022
2400 Clouds 20 1005 79 10000 0.45 273 02:58 31.07.2022
2401 Clouds 22 1006 76 10000 0.45 207 23:40 30.07.2022
2402 Clouds 23 1006 70 10000 0.45 233 22:19 30.07.2022
2403 Clouds 23 1006 69 10000 0.45 227 21:48 30.07.2022
2404 Clouds 24 1006 67 10000 0.45 329 20:57 30.07.2022
2405 Clouds 25 1005 59 10000 0.45 252 19:59 30.07.2022
2406 Clouds 27 1014 53 10000 0.45 347 18:53 30.07.2022
2407 Clouds 27 1015 47 10000 3.93 97 17:44 30.07.2022
2408 Clouds 30 1014 43 10000 0.45 207 15:50 30.07.2022
2409 Clouds 29 1016 31 10000 3.1 72 15:22 30.07.2022
2410 Clouds 31 1016 44 10000 0.45 204 12:59 30.07.2022
2411 Clouds 30 1007 45 10000 0.89 134 12:19 30.07.2022
2412 Clouds 29 1008 49 10000 0.45 176 10:31 30.07.2022
2413 Clouds 29 1008 49 10000 0.45 176 10:31 30.07.2022
2414 Clouds 27 1008 55 10000 2.69 155 09:54 30.07.2022
2415 Clouds 23 1008 70 10000 2.65 135 07:55 30.07.2022
2416 Clouds 19 1008 78 10000 2.58 135 02:57 30.07.2022
2417 Clouds 21 1009 74 10000 2.1 131 02:24 30.07.2022
2418 Clouds 23 1009 66 10000 2.82 89 22:41 29.07.2022
2419 Clouds 23 1009 62 10000 0.45 294 21:24 29.07.2022
2420 Clouds 24 1009 64 10000 3.15 58 20:35 29.07.2022
2421 Clouds 29 1017 45 10000 0.45 351 17:59 29.07.2022
2422 Clouds 27 1018 47 10000 0.45 198 15:35 29.07.2022
2423 Clear 30 1019 42 10000 0.45 200 13:19 29.07.2022
2424 Clear 29 1019 42 10000 0.45 326 11:22 29.07.2022
2425 Clear 25 1010 47 10000 0.45 89 08:50 29.07.2022
2426 Clouds 22 1010 58 10000 0.45 178 07:54 29.07.2022
2427 Clouds 16 1010 77 10000 0.69 39 01:52 29.07.2022
2428 Clear 18 1009 72 10000 1 93 22:49 28.07.2022
2429 Clear 20 1009 66 10000 1.83 59 21:20 28.07.2022
2430 Clear 20 1008 62 10000 2.19 59 20:31 28.07.2022
2431 Clear 21 1017 58 10000 2.19 59 19:43 28.07.2022
2432 Clear 22 1016 55 10000 2.29 38 19:23 28.07.2022
2433 Clear 27 1016 44 10000 0.45 89 17:43 28.07.2022
2434 Clear 27 1016 42 10000 0.45 252 16:55 28.07.2022
2435 Clouds 27 1016 44 10000 0.89 339 15:32 28.07.2022
2436 Clouds 27 1016 48 10000 0.45 320 13:29 28.07.2022
2437 Clouds 24 1016 58 10000 0.89 324 10:37 28.07.2022
2438 Clouds 19 1015 81 10000 0.45 136 06:42 28.07.2022
2439 Clouds 18 1005 85 10000 0.45 123 05:29 28.07.2022
2440 Clouds 19 1005 86 10000 3.88 333 01:23 28.07.2022
2441 Clouds 20 1004 84 10000 3.67 331 22:41 27.07.2022
2442 Clouds 21 1003 81 10000 3.9 319 21:28 27.07.2022
2443 Clouds 23 1002 66 10000 3.56 329 19:42 27.07.2022
2444 Clouds 23 1001 68 10000 0.45 101 17:49 27.07.2022
2445 Clouds 26 1001 56 10000 0.45 85 15:52 27.07.2022
2446 Clouds 26 1001 55 10000 0.45 93 14:57 27.07.2022
2447 Clouds 27 1001 54 10000 0.45 272 14:34 27.07.2022
2448 Clouds 31 1009 41 10000 0.45 129 12:50 27.07.2022
2449 Clouds 24 1009 63 10000 0.45 154 07:54 27.07.2022
2450 Clouds 22 1000 68 10000 1.32 213 06:56 27.07.2022
2451 Clouds 17 1009 84 10000 1.79 124 01:59 27.07.2022
2452 Clear 18 1000 73 10000 1.99 58 22:29 26.07.2022
2453 Clear 19 1000 68 10000 1.85 46 21:20 26.07.2022
2454 Clear 21 1000 65 10000 1.42 40 20:31 26.07.2022
2455 Clear 25 1008 53 10000 1.88 47 18:44 26.07.2022
2456 Clear 28 1008 44 10000 0.45 279 17:59 26.07.2022
2457 Clear 29 1008 42 10000 0.45 310 16:31 26.07.2022
2458 Clear 29 1009 42 10000 0.45 75 15:30 26.07.2022
2459 Clear 27 1009 46 10000 0.45 21 13:38 26.07.2022
2460 Clear 26 1010 56 10000 0.45 76 11:38 26.07.2022
2461 Clear 23 1010 71 10000 0.45 132 08:57 26.07.2022
2462 Clear 18 1001 83 10000 2.75 318 06:26 26.07.2022
2463 Clear 19 1011 84 10000 2.43 316 00:44 26.07.2022
2464 Clear 19 984 76 10000 2.12 318 23:32 25.07.2022
2465 Clear 20 1011 76 10000 2.33 328 22:26 25.07.2022
2466 Clear 20 1011 79 10000 2.33 328 21:43 25.07.2022
2467 Clear 20 1011 78 10000 0.45 329 20:42 25.07.2022
2468 Clouds 21 1010 72 10000 2.96 347 19:46 25.07.2022
2469 Clouds 22 1010 69 10000 0.45 44 18:19 25.07.2022
2470 Clouds 24 1001 63 10000 0.89 320 17:27 25.07.2022
2471 Clouds 25 1010 61 10000 0.45 356 15:20 25.07.2022
2472 Clouds 25 1011 66 10000 0.45 356 12:22 25.07.2022
2473 Clouds 23 1002 72 10000 0.45 224 09:58 25.07.2022
2474 Clouds 17 1002 85 10000 0.45 343 04:38 25.07.2022
2475 Clouds 19 1002 84 10000 0.89 216 23:54 24.07.2022
2476 Clouds 19 1002 85 10000 0.45 96 23:18 24.07.2022
2477 Clouds 19 1002 85 10000 3.89 309 22:34 24.07.2022
2478 Rain 19 1002 86 10000 2.64 299 21:25 24.07.2022
2479 Rain 20 1002 86 10000 2.64 299 20:51 24.07.2022
2480 Rain 20 1002 86 10000 1.54 298 20:26 24.07.2022
2481 Rain 20 1011 86 10000 0.45 232 18:48 24.07.2022
2482 Clouds 24 1013 100 10000 5.85 271 16:32 24.07.2022
2483 Rain 23 1011 83 10000 0.45 128 15:50 24.07.2022
2484 Clouds 27 1011 63 10000 0.45 147 14:38 24.07.2022
2485 Clouds 30 1003 46 10000 0.45 83 12:55 24.07.2022
2486 Clouds 31 1003 42 10000 0.45 116 11:40 24.07.2022
2487 Clouds 32 1011 40 10000 0.89 114 11:18 24.07.2022
2488 Clear 29 1012 55 10000 0.45 113 08:48 24.07.2022
2489 Clouds 25 1004 65 10000 0.89 168 07:52 24.07.2022
2490 Clear 21 1004 72 10000 0.45 142 06:18 24.07.2022
2491 Clear 21 1005 72 10000 2.59 161 01:27 24.07.2022
2492 Clear 21 1005 74 10000 2.22 109 22:21 23.07.2022
2493 Clear 23 1005 67 10000 1.18 57 20:28 23.07.2022
2494 Clear 26 1013 47 10000 1.78 28 18:51 23.07.2022
2495 Clear 31 1014 39 10000 0.89 305 17:29 23.07.2022
2496 Clear 31 1014 41 10000 0.45 296 16:36 23.07.2022
2497 Clear 30 1014 46 10000 0.45 114 15:31 23.07.2022
2498 Clear 29 1006 48 10000 0.45 68 14:59 23.07.2022
2499 Clear 29 1015 51 10000 3.01 358 14:30 23.07.2022
2500 Clear 30 1015 47 10000 0.45 345 13:36 23.07.2022
2501 Clear 28 1015 51 10000 0.45 80 10:49 23.07.2022
2502 Clear 27 1016 56 10000 0.45 293 10:22 23.07.2022
2503 Clear 25 1016 63 10000 0.45 315 08:50 23.07.2022
2504 Clear 18 1006 84 10000 2.3 344 03:40 23.07.2022
2505 Clear 19 1006 77 10000 2.08 350 01:33 23.07.2022
2506 Clear 21 1006 72 10000 0.45 44 22:56 22.07.2022
2507 Clear 22 1014 64 10000 0.45 325 20:57 22.07.2022
2508 Clouds 24 1013 60 10000 3.84 0 19:46 22.07.2022
2509 Clouds 26 1013 52 10000 0.45 59 18:28 22.07.2022
2510 Clouds 27 1013 47 10000 0.45 62 17:28 22.07.2022
2511 Clouds 27 1013 46 10000 1.34 74 14:55 22.07.2022
2512 Clear 25 1013 57 10000 0.89 64 11:36 22.07.2022
2513 Clear 23 1012 68 10000 0.45 77 09:26 22.07.2022
2514 Clear 22 1012 75 10000 0.89 71 08:37 22.07.2022
2515 Clear 19 1012 85 10000 0.45 263 06:59 22.07.2022
2516 Clear 18 1002 87 10000 3.42 341 02:25 22.07.2022
2517 Clouds 20 1001 81 10000 0.45 352 22:45 21.07.2022
2518 Rain 22 1002 74 10000 1.34 64 21:34 21.07.2022
2519 Clouds 25 1001 55 10000 0.45 82 19:28 21.07.2022
2520 Clouds 25 1012 50 10000 5.26 341 17:41 21.07.2022
2521 Clouds 27 1001 49 10000 0.89 281 17:19 21.07.2022
2522 Clouds 26 1001 50 10000 0.45 283 17:19 21.07.2022
2523 Clouds 27 1010 48 10000 0.45 55 15:22 21.07.2022
2524 Clouds 27 1002 45 10000 0.89 153 14:37 21.07.2022
2525 Clear 26 1002 46 10000 1.34 80 12:28 21.07.2022
2526 Clear 26 1011 46 10000 0.89 180 11:19 21.07.2022
2527 Clear 24 1012 53 10000 0.89 85 09:38 21.07.2022
2528 Clear 22 1012 56 10000 0.89 117 08:52 21.07.2022
2529 Clouds 20 1013 63 10000 0.45 121 07:50 21.07.2022
2530 Clear 15 1004 72 10000 0.45 100 05:47 21.07.2022
2531 Clouds 17 1004 70 10000 3.53 318 00:43 21.07.2022
2532 Clouds 19 1004 64 10000 4.59 356 22:22 20.07.2022
2533 Clouds 20 1004 58 10000 0.45 133 20:55 20.07.2022
2534 Clouds 19 1015 53 10000 6.4 2 19:52 20.07.2022
2535 Clouds 22 1011 57 10000 0.45 357 19:24 20.07.2022
2536 Clouds 25 1010 52 10000 0.89 65 18:34 20.07.2022
2537 Clouds 25 1010 54 10000 0.89 95 17:59 20.07.2022
2538 Clouds 21 983 100 10000 5.57 338 16:45 20.07.2022
2539 Clouds 25 983 45 10000 5.49 301 15:31 20.07.2022
2540 Clouds 25 984 54 10000 5.45 283 14:20 20.07.2022
2541 Clouds 25 984 54 10000 5.45 283 14:20 20.07.2022
2542 Clouds 25 984 54 10000 5.45 283 14:20 20.07.2022
2543 Clouds 27 1014 57 10000 0.45 300 11:34 20.07.2022
2544 Clouds 24 1016 67 10000 0.45 250 08:50 20.07.2022
2545 Clear 15 991 100 10000 2.22 279 03:47 20.07.2022
2546 Clear 17 1010 88 10000 1.81 277 00:49 20.07.2022
2547 Clear 17 1010 88 10000 1.77 276 23:41 19.07.2022
2548 Clear 18 1010 87 10000 1.94 282 22:33 19.07.2022
2549 Clear 18 1010 86 10000 1.94 282 21:31 19.07.2022
2550 Clouds 19 1009 83 10000 2.15 262 20:28 19.07.2022
2551 Clouds 21 1018 74 10000 0.45 87 18:44 19.07.2022
2552 Clouds 23 1018 69 10000 0.45 177 17:58 19.07.2022
2553 Rain 21 1009 80 10000 0.45 20 16:37 19.07.2022
2554 Rain 21 1019 77 10000 0.89 156 14:53 19.07.2022
2555 Clouds 19 992 72 10000 2.55 267 11:39 19.07.2022
2556 Clouds 16 1022 72 10000 2.55 267 10:47 19.07.2022
2557 Clouds 15 1022 73 10000 2.05 281 09:23 19.07.2022
2558 Clouds 15 1022 73 10000 2.05 281 08:38 19.07.2022
2559 Clouds 18 1011 71 10000 0.45 344 07:19 19.07.2022
2560 Clouds 17 1011 73 10000 0.45 132 05:28 19.07.2022
2561 Clouds 16 1011 74 10000 2.29 257 04:53 19.07.2022
2562 Clouds 15 1011 78 10000 2.65 281 00:38 19.07.2022
2563 Clouds 16 1011 73 10000 2.32 273 23:36 18.07.2022
2564 Clouds 16 1011 70 10000 2.35 272 23:18 18.07.2022
2565 Clouds 18 1011 64 10000 0.45 149 21:58 18.07.2022
2566 Clouds 19 1011 57 10000 2.56 285 20:51 18.07.2022
2567 Clouds 21 1010 51 10000 0.45 223 19:33 18.07.2022
2568 Clouds 22 1011 52 10000 0.45 314 17:31 18.07.2022
2569 Clouds 22 1021 46 10000 4.51 311 15:52 18.07.2022
2570 Clouds 23 992 46 10000 3.96 301 14:34 18.07.2022
2571 Clouds 24 1020 50 10000 0.89 91 12:58 18.07.2022
2572 Clouds 24 1020 52 10000 0.89 148 11:30 18.07.2022
2573 Clear 21 1020 69 10000 4.44 314 08:57 18.07.2022
2574 Clouds 16 1011 81 10000 0.45 256 07:38 18.07.2022
2575 Clouds 13 1009 87 10000 0.45 135 01:24 18.07.2022
2576 Rain 13 1009 86 10000 0.45 137 22:43 17.07.2022
2577 Rain 14 1009 85 10000 4.29 282 22:22 17.07.2022
2578 Clouds 13 1008 83 10000 0.45 271 21:23 17.07.2022
2579 Clouds 13 1008 82 10000 0.45 42 20:44 17.07.2022
2580 Rain 15 1008 69 10000 0.89 334 19:34 17.07.2022
2581 Clouds 17 1007 64 10000 0.45 85 18:54 17.07.2022
2582 Clouds 21 1007 53 10000 0.45 178 17:38 17.07.2022
2583 Clouds 20 1016 55 10000 0.89 100 16:51 17.07.2022
2584 Clouds 19 1016 61 10000 0.45 77 16:26 17.07.2022
2585 Clouds 20 1006 56 10000 0.89 123 14:58 17.07.2022
2586 Clouds 21 1006 49 10000 0.45 275 13:31 17.07.2022
2587 Clouds 21 1006 49 10000 0.89 70 11:41 17.07.2022
2588 Clouds 18 1015 69 10000 0.89 137 09:24 17.07.2022
2589 Clouds 17 1005 80 10000 0.45 89 05:25 17.07.2022
2590 Clouds 18 1006 76 10000 0.45 186 02:33 17.07.2022
2591 Clouds 18 987 100 10000 1.69 182 23:20 16.07.2022
2592 Clouds 20 1014 60 10000 1.88 332 21:32 16.07.2022
2593 Clouds 21 1005 59 10000 2.8 320 19:40 16.07.2022
2594 Clouds 23 1005 54 10000 0.45 305 18:32 16.07.2022
2595 Clouds 27 1005 39 10000 0.45 116 16:53 16.07.2022
2596 Clouds 25 1015 46 10000 0.89 137 13:56 16.07.2022
2597 Clouds 24 1015 53 10000 0.45 106 10:55 16.07.2022
2598 Clouds 20 988 47 10000 2.03 316 09:33 16.07.2022
2599 Clouds 20 988 47 10000 2.03 316 08:47 16.07.2022
2600 Clouds 20 988 54 10000 2.27 318 08:29 16.07.2022
2601 Clouds 14 1006 88 10000 1.99 299 04:24 16.07.2022
2602 Clouds 14 1006 88 10000 1.63 307 03:22 16.07.2022
2603 Clouds 16 1005 86 10000 2.41 301 23:34 15.07.2022
2604 Clouds 17 1005 83 10000 2.34 306 22:41 15.07.2022
2605 Clouds 17 1004 88 10000 2.18 316 21:29 15.07.2022
2606 Clouds 17 1004 88 10000 1.44 359 20:30 15.07.2022
2607 Clouds 21 1012 77 10000 1.71 64 18:42 15.07.2022
2608 Clouds 24 1011 72 10000 0.45 314 17:38 15.07.2022
2609 Clouds 20 1002 85 10000 0.45 68 14:54 15.07.2022
2610 Clouds 21 983 85 10000 6.3 343 12:58 15.07.2022
2611 Clouds 24 1000 74 10000 0.45 88 11:27 15.07.2022
2612 Clouds 23 999 77 10000 0.45 170 09:44 15.07.2022
2613 Clouds 19 1001 83 10000 1.01 255 06:24 15.07.2022
2614 Clear 18 1001 81 10000 2.33 273 00:58 15.07.2022
2615 Clear 19 1001 82 10000 2.5 266 00:21 15.07.2022
2616 Clear 20 1002 74 10000 2.92 266 22:50 14.07.2022
2617 Clear 19 1010 74 10000 3.35 266 21:47 14.07.2022
2618 Clear 19 1001 73 10000 3.55 262 21:29 14.07.2022
2619 Clear 20 1010 69 10000 3.55 262 20:45 14.07.2022
2620 Clouds 21 1001 64 10000 3.09 253 20:21 14.07.2022
2621 Clouds 24 1010 54 10000 3.28 265 19:18 14.07.2022
2622 Clouds 25 1011 37 10000 4.79 285 16:23 14.07.2022
2623 Clouds 25 1011 47 10000 4.58 275 15:32 14.07.2022
2624 Clouds 25 1010 59 10000 0.45 64 13:59 14.07.2022
2625 Clouds 25 1001 60 10000 0.89 60 12:58 14.07.2022
2626 Clouds 24 1001 61 10000 0.45 205 11:54 14.07.2022
2627 Clouds 23 1010 66 10000 0.89 139 11:23 14.07.2022
2628 Clouds 23 1009 63 10000 0.45 128 10:24 14.07.2022
2629 Clouds 17 1000 82 10000 0.45 317 07:50 14.07.2022
2630 Clouds 16 997 86 10000 0.89 156 01:26 14.07.2022
2631 Clouds 16 997 86 10000 0.89 1 00:53 14.07.2022
2632 Clouds 15 996 86 10000 0.45 278 22:33 13.07.2022
2633 Clouds 15 996 86 10000 0.45 155 21:59 13.07.2022
2634 Rain 15 996 86 10000 0.45 202 21:19 13.07.2022
2635 Clouds 16 996 86 10000 0.45 349 19:58 13.07.2022
2636 Rain 16 994 87 9021 0.45 0 17:52 13.07.2022
2637 Rain 16 995 87 7878 0.45 158 16:46 13.07.2022
2638 Rain 15 996 87 10000 5.62 221 15:26 13.07.2022
2639 Clouds 15 996 87 10000 0.45 193 13:24 13.07.2022
2640 Rain 14 996 88 10000 0.45 145 10:46 13.07.2022
2641 Rain 14 996 89 10000 0.89 141 10:28 13.07.2022
2642 Rain 14 996 88 10000 0.89 143 09:26 13.07.2022
2643 Clouds 14 996 88 10000 0.45 181 07:53 13.07.2022
2644 Clouds 14 997 83 10000 0.45 175 03:26 13.07.2022
2645 Clouds 15 999 81 10000 0.89 159 00:18 13.07.2022
2646 Clouds 15 1000 81 10000 0.45 145 22:18 12.07.2022
2647 Clouds 15 1000 79 10000 0.45 114 21:35 12.07.2022
2648 Clouds 16 1001 78 10000 0.45 136 20:42 12.07.2022
2649 Clouds 17 1001 73 10000 0.89 109 19:42 12.07.2022
2650 Clouds 19 1002 67 10000 0.89 161 18:21 12.07.2022
2651 Rain 19 1011 80 10000 0.45 162 16:20 12.07.2022
2652 Clouds 19 1011 65 10000 0.89 86 14:31 12.07.2022
2653 Clouds 22 1001 58 10000 0.89 121 13:24 12.07.2022
2654 Clouds 20 983 52 10000 5.64 252 11:46 12.07.2022
2655 Clouds 20 1010 68 10000 0.45 108 10:25 12.07.2022
2656 Clear 19 1009 74 10000 0.45 214 08:38 12.07.2022
2657 Clouds 16 1009 83 10000 0.45 299 07:38 12.07.2022
2658 Clouds 14 999 87 10000 0.89 34 05:44 12.07.2022
2659 Clouds 14 999 88 10000 0.45 129 03:50 12.07.2022
2660 Rain 15 1008 88 10000 0.45 94 23:50 11.07.2022
2661 Clouds 15 999 86 10000 0.45 26 22:37 11.07.2022
2662 Rain 15 998 88 10000 0.45 238 20:54 11.07.2022
2663 Rain 16 1007 88 10000 1.34 177 20:29 11.07.2022
2664 Clouds 16 1009 100 10000 4.76 296 18:39 11.07.2022
2665 Clouds 20 1009 45 10000 5.26 300 17:57 11.07.2022
2666 Clouds 22 1008 39 10000 4.15 326 16:26 11.07.2022
2667 Rain 19 1006 80 10000 0.45 144 14:58 11.07.2022
2668 Clouds 22 997 64 10000 0.89 25 12:38 11.07.2022
2669 Clouds 22 997 68 10000 0.89 64 10:56 11.07.2022
2670 Clouds 22 997 68 10000 0.89 33 09:54 11.07.2022
2671 Clouds 21 997 73 10000 0.45 72 09:21 11.07.2022
2672 Clouds 18 997 81 10000 0.45 160 07:52 11.07.2022
2673 Clouds 18 997 82 10000 3.9 335 00:54 11.07.2022
2674 Clouds 19 997 83 10000 3.97 330 23:53 10.07.2022
2675 Clouds 20 998 75 10000 3.43 319 22:37 10.07.2022
2676 Clouds 20 980 62 10000 3 328 20:55 10.07.2022
2677 Clouds 22 997 62 10000 0.45 52 20:24 10.07.2022
2678 Clouds 22 997 62 10000 0.45 95 19:28 10.07.2022
2679 Clouds 24 1006 58 10000 0.45 144 17:59 10.07.2022
2680 Clouds 25 997 56 10000 0.45 51 16:59 10.07.2022
2681 Clouds 25 1007 56 10000 5.08 325 16:20 10.07.2022
2682 Clouds 26 1006 52 10000 0.89 54 14:44 10.07.2022
2683 Rain 23 1008 56 10000 4.19 327 13:18 10.07.2022
2684 Clouds 25 1007 60 10000 0.89 85 11:39 10.07.2022
2685 Clouds 22 1007 72 10000 0.45 68 09:45 10.07.2022
2686 Clouds 21 980 50 10000 3.85 322 08:43 10.07.2022
2687 Clear 18 998 83 10000 0.45 109 06:39 10.07.2022
2688 Clouds 17 982 100 10000 2.05 299 23:47 09.07.2022
2689 Clouds 18 1001 81 10000 2.25 326 22:26 09.07.2022
2690 Clouds 18 1001 83 10000 2.25 326 21:41 09.07.2022
2691 Clouds 19 1002 82 10000 2.15 13 19:44 09.07.2022
2692 Clouds 19 1002 83 10000 2.15 13 19:44 09.07.2022
2693 Clouds 19 1002 82 10000 3.24 342 18:26 09.07.2022
2694 Clouds 19 1002 82 10000 3.24 342 18:26 09.07.2022
2695 Clouds 19 1011 82 10000 3.69 341 17:32 09.07.2022
2696 Clouds 19 1011 82 10000 3.69 341 16:34 09.07.2022
2697 Clouds 19 1003 84 10000 4.31 344 15:39 09.07.2022
2698 Clouds 19 1003 83 10000 5.36 356 14:23 09.07.2022
2699 Clouds 19 1012 84 10000 0.45 126 13:48 09.07.2022
2700 Clouds 19 1003 85 10000 0.45 69 12:22 09.07.2022
2701 Rain 18 1003 86 10000 0.45 75 10:27 09.07.2022
2702 Rain 18 1004 87 10000 0.45 56 09:57 09.07.2022
2703 Clouds 19 1004 83 10000 0.45 280 07:44 09.07.2022
2704 Clouds 19 1005 77 10000 3.96 13 04:49 09.07.2022
2705 Clouds 19 1005 76 10000 0.45 57 00:38 09.07.2022
2706 Clouds 20 1005 72 10000 0.45 326 22:41 08.07.2022
2707 Clouds 21 1005 67 10000 0.45 330 21:27 08.07.2022
2708 Clouds 21 1006 67 10000 0.45 278 20:40 08.07.2022
2709 Clouds 21 1015 68 10000 0.45 291 19:48 08.07.2022
2710 Clouds 23 1015 67 10000 0.45 39 17:56 08.07.2022
2711 Clouds 23 1017 76 10000 4.37 8 16:33 08.07.2022
2712 Clouds 23 1017 78 10000 4.69 12 14:51 08.07.2022
2713 Clouds 24 1016 65 10000 0.45 71 12:42 08.07.2022
2714 Clouds 23 989 43 10000 4.87 29 11:24 08.07.2022
2715 Clouds 21 989 47 10000 4.62 24 10:21 08.07.2022
2716 Clouds 19 1007 80 10000 0.45 74 07:55 08.07.2022
2717 Clouds 19 1007 82 10000 3.11 16 06:23 08.07.2022
2718 Clouds 19 1007 80 10000 2.67 24 00:41 08.07.2022
2719 Clouds 19 1006 80 10000 0.45 356 22:57 07.07.2022
2720 Clouds 19 1006 79 10000 3.71 1 21:52 07.07.2022
2721 Clouds 22 1006 67 10000 0.89 320 19:35 07.07.2022
2722 Clouds 23 1016 77 10000 5.08 325 17:56 07.07.2022
2723 Clouds 24 1015 58 10000 0.89 60 16:32 07.07.2022
2724 Clouds 24 1015 61 10000 0.89 106 14:21 07.07.2022
2725 Clouds 23 1015 64 10000 0.89 57 12:45 07.07.2022
2726 Clouds 24 1006 66 10000 0.89 47 12:23 07.07.2022
2727 Clouds 22 1008 71 10000 0.89 57 11:34 07.07.2022
2728 Clouds 21 1005 71 10000 0.89 189 10:46 07.07.2022
2729 Clouds 21 1005 76 10000 0.89 111 10:27 07.07.2022
2730 Clouds 18 1005 81 10000 4.69 328 09:32 07.07.2022
2731 Clouds 16 1004 84 10000 0.89 67 06:26 07.07.2022
2732 Clouds 19 1002 83 10000 0.89 126 00:28 07.07.2022
2733 Clouds 19 1002 83 10000 0.45 148 23:36 06.07.2022
2734 Clouds 20 1002 83 10000 0.45 120 23:18 06.07.2022
2735 Clouds 20 1002 84 10000 0.45 238 22:51 06.07.2022
2736 Clouds 20 1002 84 10000 0.45 238 22:51 06.07.2022
2737 Clouds 20 1001 84 10000 6.1 317 22:33 06.07.2022
2738 Clouds 21 1010 100 10000 2.03 304 20:23 06.07.2022
2739 Clouds 26 1010 43 10000 2.3 11 19:18 06.07.2022
2740 Clouds 28 1010 40 10000 2.39 253 17:21 06.07.2022
2741 Clouds 27 1007 66 10000 0.89 231 15:55 06.07.2022
2742 Clouds 36 1009 36 10000 0.89 223 12:44 06.07.2022
2743 Clouds 32 983 15 10000 4.82 170 11:52 06.07.2022
2744 Clouds 31 984 34 10000 5.04 161 10:49 06.07.2022
2745 Clouds 27 984 38 10000 4.54 155 09:21 06.07.2022
2746 Clouds 27 1003 57 10000 0.89 144 07:44 06.07.2022
2747 Clouds 25 1003 66 10000 3.65 150 06:44 06.07.2022
2748 Clouds 24 1004 63 10000 2.25 84 23:42 05.07.2022
2749 Clouds 25 1004 61 10000 0.45 176 22:42 05.07.2022
2750 Clear 26 1012 60 10000 2.81 78 20:48 05.07.2022
2751 Clouds 27 1012 53 10000 2.91 45 19:56 05.07.2022
2752 Clouds 29 1012 49 10000 2.91 45 19:36 05.07.2022
2753 Clouds 31 1014 23 10000 2.26 34 17:50 05.07.2022
2754 Clouds 31 1014 23 10000 2.14 45 17:19 05.07.2022
2755 Clouds 31 1014 23 10000 1.81 59 16:18 05.07.2022
2756 Clouds 33 1012 42 10000 0.89 190 14:54 05.07.2022
2757 Clouds 34 1013 41 10000 0.45 244 12:59 05.07.2022
2758 Clouds 32 1013 45 10000 0.89 202 12:22 05.07.2022
2759 Clouds 32 1013 44 10000 0.45 174 10:45 05.07.2022
2760 Clouds 30 987 37 10000 0.73 38 09:52 05.07.2022
2761 Clouds 29 1014 59 10000 0.8 283 08:21 05.07.2022
2762 Clouds 25 1005 71 10000 1.17 285 06:48 05.07.2022
2763 Clouds 20 1005 85 10000 1.55 246 04:30 05.07.2022
2764 Clear 23 987 98 10000 1.6 142 00:47 05.07.2022
2765 Clear 22 1005 72 10000 1.7 135 23:37 04.07.2022
2766 Clear 22 1014 72 10000 1.2 131 22:55 04.07.2022
2767 Clear 23 1005 65 10000 0.73 112 21:56 04.07.2022
2768 Clear 23 1013 61 10000 0.36 65 20:55 04.07.2022
2769 Clear 25 1013 58 10000 0.35 67 20:35 04.07.2022
2770 Clouds 26 1013 53 10000 1.44 23 19:56 04.07.2022
2771 Clouds 27 1013 50 10000 1.44 23 19:37 04.07.2022
2772 Clouds 30 1013 41 10000 0.45 194 18:34 04.07.2022
2773 Clouds 29 1015 24 10000 0.88 251 16:42 04.07.2022
2774 Clouds 32 1014 36 10000 0.45 163 15:34 04.07.2022
2775 Clouds 32 1015 36 10000 0.89 172 13:44 04.07.2022
2776 Clouds 32 1015 36 10000 0.45 232 12:38 04.07.2022
2777 Clouds 27 989 32 10000 1.98 170 10:39 04.07.2022
2778 Clouds 30 1016 46 10000 0.45 224 10:20 04.07.2022
2779 Clear 24 989 42 10000 1.59 174 08:31 04.07.2022
2780 Clear 19 1008 81 10000 1.06 140 05:36 04.07.2022
2781 Clouds 18 1007 85 10000 1.28 201 00:44 04.07.2022
2782 Clouds 18 1008 84 10000 1.59 171 23:38 03.07.2022
2783 Clouds 18 1008 82 10000 1.26 90 22:23 03.07.2022
2784 Clouds 20 1008 74 10000 1.44 75 20:42 03.07.2022
2785 Clouds 22 1016 71 10000 1.68 55 19:42 03.07.2022
2786 Clouds 22 1016 70 10000 1.16 45 19:23 03.07.2022
2787 Clouds 25 1009 62 10000 0.94 60 17:45 03.07.2022
2788 Clouds 25 990 32 10000 0.65 78 17:18 03.07.2022
2789 Clouds 24 990 69 10000 0.58 213 15:26 03.07.2022
2790 Rain 24 1008 67 10000 0.58 213 14:37 03.07.2022
2791 Clouds 27 1008 56 10000 0.71 231 13:49 03.07.2022
2792 Clouds 25 1019 36 10000 1.3 219 12:42 03.07.2022
2793 Clouds 26 1019 33 10000 1.18 172 11:46 03.07.2022
2794 Clouds 28 991 29 10000 1.59 112 10:40 03.07.2022
2795 Clouds 29 1018 42 10000 0.45 181 10:20 03.07.2022
2796 Clouds 22 1020 37 10000 0.9 184 07:37 03.07.2022
2797 Clouds 19 1019 61 10000 1.83 189 05:26 03.07.2022
2798 Clouds 18 1010 66 10000 2.5 136 00:25 03.07.2022
2799 Clouds 19 1010 57 10000 2.73 109 22:37 02.07.2022
2800 Clouds 20 1019 56 10000 2.74 109 22:18 02.07.2022
2801 Clear 23 1019 50 10000 0.45 198 20:21 02.07.2022
2802 Clear 21 1021 42 10000 2.79 71 19:49 02.07.2022
2803 Clear 26 1021 27 10000 3.47 55 17:59 02.07.2022
2804 Clear 26 1021 24 10000 3.48 52 17:37 02.07.2022
2805 Clear 27 1021 25 10000 3.18 52 15:37 02.07.2022
2806 Clear 26 1022 31 10000 3.27 77 12:49 02.07.2022
2807 Clear 28 993 35 10000 3.39 85 11:48 02.07.2022
2808 Clear 26 993 37 10000 3.26 93 10:50 02.07.2022
2809 Clear 24 993 41 10000 3.16 101 09:49 02.07.2022
2810 Clouds 23 993 53 10000 3.64 116 08:37 02.07.2022
2811 Clouds 23 993 53 10000 3.64 116 08:19 02.07.2022
2812 Clouds 18 1009 81 10000 0.45 283 02:53 02.07.2022
2813 Clouds 19 1008 78 10000 1.71 63 00:27 02.07.2022
2814 Clear 20 1008 74 10000 1.72 59 22:59 01.07.2022
2815 Clear 21 1007 73 10000 1.48 61 22:26 01.07.2022
2816 Clear 23 1016 62 10000 1.48 61 21:37 01.07.2022
2817 Clear 23 989 60 10000 1.81 63 20:58 01.07.2022
2818 Clear 22 1018 59 10000 2.24 56 20:19 01.07.2022
2819 Clear 26 1015 51 10000 3.59 47 19:34 01.07.2022
2820 Clear 28 1017 27 10000 4.24 34 16:40 01.07.2022
2821 Clear 27 1017 35 10000 4.14 19 14:27 01.07.2022
2822 Clear 28 1017 33 10000 4.17 18 13:33 01.07.2022
2823 Clear 29 1015 56 10000 0.45 77 10:53 01.07.2022
2824 Clear 28 989 52 10000 3.51 9 10:19 01.07.2022
2825 Clear 22 1007 79 10000 0.85 7 06:21 01.07.2022
2826 Clouds 19 1007 84 10000 0.71 134 02:19 01.07.2022
2827 Clouds 20 1007 85 10000 2.05 124 23:34 30.06.2022
2828 Clear 21 1007 85 10000 2.37 104 22:50 30.06.2022
2829 Clouds 21 1007 83 10000 2.95 91 22:31 30.06.2022
2830 Clouds 21 1015 81 10000 2.95 91 21:53 30.06.2022
2831 Clouds 24 1015 72 10000 3.07 84 20:45 30.06.2022
2832 Clouds 24 1006 70 10000 0.45 290 20:18 30.06.2022
2833 Clouds 25 1014 67 10000 0.45 291 19:47 30.06.2022
2834 Clouds 26 1014 64 10000 0.45 323 18:52 30.06.2022
2835 Clouds 26 1016 67 10000 4.38 67 17:53 30.06.2022
2836 Clouds 29 1014 56 10000 0.45 310 17:18 30.06.2022
2837 Clouds 27 1016 68 10000 4.4 56 15:56 30.06.2022
2838 Clouds 30 1014 59 10000 0.45 24 13:59 30.06.2022
2839 Clear 30 1014 58 10000 0.45 27 13:20 30.06.2022
2840 Clear 30 1015 57 10000 2.99 43 12:33 30.06.2022
2841 Clear 28 1015 64 10000 0.45 25 10:49 30.06.2022
2842 Clear 27 1015 65 10000 0.45 23 09:47 30.06.2022
2843 Clear 23 988 62 10000 2.18 59 08:31 30.06.2022
2844 Clouds 21 1015 83 10000 0.45 29 07:41 30.06.2022
2845 Clouds 18 1006 84 10000 1.99 72 05:45 30.06.2022
2846 Clouds 19 1005 84 10000 0.45 86 23:39 29.06.2022
2847 Clouds 19 1005 85 10000 0.45 130 22:42 29.06.2022
2848 Clouds 19 1006 85 10000 0.45 129 22:19 29.06.2022
2849 Rain 19 1006 87 10000 0.45 128 20:35 29.06.2022
2850 Rain 20 1008 88 10000 2.72 182 19:57 29.06.2022
2851 Rain 21 1017 88 10000 0.45 22 18:46 29.06.2022
2852 Clouds 21 987 94 5595 4.84 334 17:38 29.06.2022
2853 Clouds 30 1014 48 10000 0.83 14 16:24 29.06.2022
2854 Clouds 32 1015 43 10000 2.68 100 13:52 29.06.2022
2855 Clear 34 1016 28 10000 2.38 71 12:38 29.06.2022
2856 Clear 31 989 44 10000 2.16 80 10:19 29.06.2022
2857 Clear 30 989 49 10000 1.53 77 09:31 29.06.2022
2858 Rain 22 1018 71 10000 1.76 81 06:57 29.06.2022
2859 Clouds 21 1007 89 10000 1.39 53 04:46 29.06.2022
2860 Clouds 24 1015 82 10000 1.04 124 00:54 29.06.2022
2861 Clouds 24 1015 80 10000 1.02 125 00:35 29.06.2022
2862 Clouds 26 1008 65 10000 0.45 326 22:52 28.06.2022
2863 Clouds 27 1007 63 10000 0.45 238 22:18 28.06.2022
2864 Clouds 27 1016 63 10000 0.45 307 21:49 28.06.2022
2865 Clear 26 1016 68 10000 1.97 62 21:29 28.06.2022
2866 Rain 24 1017 70 10000 3.44 12 19:56 28.06.2022
2867 Clouds 30 1015 55 10000 3.91 343 19:31 28.06.2022
2868 Clouds 32 1014 48 10000 0.45 299 18:40 28.06.2022
2869 Clouds 30 1017 45 10000 3.71 80 17:36 28.06.2022
2870 Clouds 34 1015 44 10000 1.34 318 15:55 28.06.2022
2871 Clouds 34 1015 44 10000 0.45 16 14:54 28.06.2022
2872 Clouds 35 1015 43 10000 0.89 312 14:19 28.06.2022
2873 Clouds 34 1016 44 10000 0.45 121 13:45 28.06.2022
2874 Clouds 34 1016 46 10000 0.45 69 12:35 28.06.2022
2875 Clouds 31 1017 53 10000 0.45 89 10:40 28.06.2022
2876 Clouds 30 1017 55 10000 0.45 70 08:56 28.06.2022
2877 Clouds 28 990 53 10000 3.29 27 08:37 28.06.2022
2878 Clouds 25 1017 73 10000 0.45 117 07:20 28.06.2022
2879 Clouds 21 1017 85 10000 1.93 24 04:54 28.06.2022
2880 Clouds 21 1009 79 10000 1.48 69 23:53 27.06.2022
2881 Clouds 21 1009 79 10000 1.84 55 23:27 27.06.2022
2882 Clouds 21 1018 78 10000 1.85 82 22:42 27.06.2022
2883 Clouds 23 1009 72 10000 2.68 79 21:30 27.06.2022
2884 Clouds 26 1010 62 10000 2.68 78 20:34 27.06.2022
2885 Clouds 29 1008 53 10000 0.45 278 18:52 27.06.2022
2886 Clouds 30 1017 49 10000 0.45 290 17:44 27.06.2022
2887 Clouds 32 1017 41 10000 0.45 298 15:50 27.06.2022
2888 Clouds 32 1018 44 10000 0.45 312 14:26 27.06.2022
2889 Clouds 31 1018 48 10000 0.45 319 12:59 27.06.2022
2890 Clouds 31 1018 49 10000 0.45 328 12:36 27.06.2022
2891 Clouds 29 1019 60 10000 0.45 120 09:53 27.06.2022
2892 Clouds 27 1019 64 10000 0.45 81 08:43 27.06.2022
2893 Clouds 25 1010 70 10000 0.45 87 07:52 27.06.2022
2894 Clouds 22 1019 73 10000 3.06 47 06:37 27.06.2022
2895 Clouds 21 1009 74 10000 2.35 53 01:26 27.06.2022
2896 Clouds 20 1009 76 10000 2.35 58 23:27 26.06.2022
2897 Clouds 22 1017 67 10000 3.42 74 21:40 26.06.2022
2898 Clouds 24 1008 63 10000 3.97 65 20:34 26.06.2022
2899 Clouds 26 1008 56 10000 4.4 63 19:19 26.06.2022
2900 Clouds 27 1016 53 10000 0.45 23 18:23 26.06.2022
2901 Clouds 27 1016 49 10000 0.89 31 15:37 26.06.2022
2902 Clouds 28 1018 30 10000 3.04 72 14:33 26.06.2022
2903 Clouds 26 1018 46 10000 5.67 72 13:27 26.06.2022
2904 Clouds 28 1016 48 10000 0.45 38 12:37 26.06.2022
2905 Clouds 29 1017 49 10000 0.89 192 10:53 26.06.2022
2906 Clouds 28 990 50 10000 4.8 60 10:22 26.06.2022
2907 Clouds 26 1017 62 10000 0.45 37 08:45 26.06.2022
2908 Clouds 21 1016 75 10000 0.89 295 06:50 26.06.2022
2909 Clouds 19 1015 76 10000 1.85 43 00:38 26.06.2022
2910 Clouds 20 1015 74 10000 1.74 72 00:19 26.06.2022
2911 Clouds 20 1015 74 10000 1.74 72 23:31 25.06.2022
2912 Clouds 21 1015 70 10000 2.2 84 22:48 25.06.2022
2913 Clouds 21 1015 69 10000 2.44 85 22:25 25.06.2022
2914 Clouds 20 1017 67 10000 2.87 86 21:22 25.06.2022
2915 Clouds 20 1017 67 10000 2.87 86 20:54 25.06.2022
2916 Clouds 21 1017 61 10000 3.12 71 20:25 25.06.2022
2917 Clouds 25 1016 34 10000 2.96 89 18:26 25.06.2022
2918 Clouds 22 1016 58 10000 3.5 124 17:27 25.06.2022
2919 Clouds 26 1016 29 10000 3.92 104 16:29 25.06.2022
2920 Clouds 27 1016 28 10000 3.84 87 14:43 25.06.2022
2921 Clouds 25 1015 46 10000 4.2 79 12:51 25.06.2022
2922 Clouds 25 1016 45 10000 4.38 68 12:32 25.06.2022
2923 Clouds 23 1016 54 10000 4.16 63 09:35 25.06.2022
2924 Clear 25 987 57 10000 4.15 61 08:55 25.06.2022
2925 Clouds 23 987 62 10000 3.65 53 08:20 25.06.2022
2926 Clouds 20 1013 71 10000 3.82 52 06:36 25.06.2022
2927 Clouds 17 1003 77 10000 2.67 29 01:31 25.06.2022
2928 Clouds 18 1003 74 10000 2.29 33 23:58 24.06.2022
2929 Clear 21 1012 60 10000 0.45 308 22:29 24.06.2022
2930 Clouds 22 1012 58 10000 0.45 293 21:28 24.06.2022
2931 Clouds 23 1012 53 10000 0.45 311 20:24 24.06.2022
2932 Clouds 24 1011 50 10000 0.45 78 19:37 24.06.2022
2933 Clouds 25 1011 47 10000 0.45 248 19:18 24.06.2022
2934 Clouds 26 1011 44 10000 0.89 330 18:31 24.06.2022
2935 Clouds 25 1013 31 10000 5.63 31 17:57 24.06.2022
2936 Clouds 26 1013 29 10000 5.88 26 16:47 24.06.2022
2937 Clouds 26 1013 28 10000 5.26 36 14:50 24.06.2022
2938 Clouds 26 1013 31 10000 6.6 31 14:23 24.06.2022
2939 Clouds 27 1011 45 10000 0.89 342 13:41 24.06.2022
2940 Clouds 26 1012 51 10000 0.89 306 11:41 24.06.2022
2941 Clouds 23 1002 62 10000 0.45 44 10:36 24.06.2022
2942 Clouds 22 1003 65 10000 0.89 311 09:42 24.06.2022
2943 Clouds 21 1002 66 10000 0.89 158 08:53 24.06.2022
2944 Clouds 20 1003 69 10000 0.45 106 07:57 24.06.2022
2945 Clouds 19 1003 71 10000 0.45 69 06:44 24.06.2022
2946 Clouds 19 1002 73 10000 0.89 176 06:22 24.06.2022
2947 Clouds 17 1002 86 10000 0.45 39 04:41 24.06.2022
2948 Rain 18 1003 81 10000 0.89 325 23:24 23.06.2022
2949 Clouds 19 1003 70 10000 4.04 1 22:42 23.06.2022
2950 Clouds 19 1002 70 10000 4.48 1 20:59 23.06.2022
2951 Clouds 19 1001 68 10000 0.45 311 20:36 23.06.2022
2952 Clouds 20 1002 64 10000 0.89 320 19:40 23.06.2022
2953 Clouds 20 983 81 10000 3.97 7 18:26 23.06.2022
2954 Clouds 21 982 85 10000 5.37 21 17:33 23.06.2022
2955 Clouds 21 1000 66 10000 0.45 290 16:23 23.06.2022
2956 Clouds 21 1009 66 10000 0.45 325 15:25 23.06.2022
2957 Clouds 20 1008 72 10000 0.45 316 13:46 23.06.2022
2958 Clouds 21 1007 71 10000 0.89 23 11:27 23.06.2022
2959 Clouds 20 997 80 10000 0.89 36 10:40 23.06.2022
2960 Clouds 19 996 80 10000 0.45 354 09:18 23.06.2022
2961 Clouds 14 994 89 10000 0.45 102 03:51 23.06.2022
2962 Clouds 16 994 85 10000 0.45 304 00:27 23.06.2022
2963 Clouds 16 994 85 10000 0.89 100 23:43 22.06.2022
2964 Clouds 15 994 86 10000 0.89 117 22:48 22.06.2022
2965 Clouds 15 994 86 10000 0.89 117 22:48 22.06.2022
2966 Clouds 16 994 80 10000 0.45 134 21:27 22.06.2022
2967 Clouds 16 994 75 10000 0.45 284 20:48 22.06.2022
2968 Clouds 17 993 72 10000 0.45 141 19:58 22.06.2022
2969 Rain 17 1002 72 10000 0.45 154 18:50 22.06.2022
2970 Rain 18 1002 64 10000 4.02 337 17:29 22.06.2022
2971 Clouds 19 1000 59 10000 0.45 36 16:37 22.06.2022
2972 Clouds 21 1000 49 10000 0.45 84 15:27 22.06.2022
2973 Rain 19 1001 54 10000 4.36 357 14:31 22.06.2022
2974 Clouds 20 999 56 10000 0.89 7 13:44 22.06.2022
2975 Clouds 16 972 57 10000 4.26 354 13:23 22.06.2022
2976 Rain 17 999 79 10000 0.45 224 11:50 22.06.2022
2977 Clouds 17 988 72 10000 0.45 289 10:58 22.06.2022
2978 Rain 15 988 80 10000 4.07 357 10:19 22.06.2022
2979 Clouds 14 989 77 10000 0.45 307 08:48 22.06.2022
2980 Clouds 13 988 81 10000 0.45 91 05:59 22.06.2022
2981 Clear 12 972 82 10000 4.57 276 01:49 22.06.2022
2982 Clear 13 991 73 10000 0.45 209 00:36 22.06.2022
2983 Clear 15 991 63 10000 5.69 270 22:37 21.06.2022
2984 Clear 17 973 63 10000 6.28 273 20:39 21.06.2022
2985 Clouds 20 1000 70 10000 0.45 354 18:51 21.06.2022
2986 Clouds 20 1000 70 10000 0.89 236 17:40 21.06.2022
2987 Rain 17 1000 87 10000 0.89 86 15:21 21.06.2022
2988 Rain 24 1001 69 6841 7.13 278 11:55 21.06.2022
2989 Clear 28 972 52 10000 5.91 259 10:20 21.06.2022
2990 Clear 25 972 48 10000 5.96 251 08:51 21.06.2022
2991 Clear 25 999 52 10000 0.45 149 07:35 21.06.2022
2992 Clear 21 975 49 10000 4.05 223 03:21 21.06.2022
2993 Clear 21 1006 60 10000 3.52 210 23:27 20.06.2022
2994 Clear 22 1007 59 10000 3.33 207 21:58 20.06.2022
2995 Clear 23 1007 57 10000 3 220 21:31 20.06.2022
2996 Clear 24 1008 53 10000 2.96 233 19:57 20.06.2022
2997 Clear 26 1008 47 10000 3.36 243 18:54 20.06.2022
2998 Clear 30 1008 18 10000 4.44 248 18:24 20.06.2022
2999 Clear 30 1008 18 10000 4.44 248 17:41 20.06.2022
3000 Clear 31 1009 15 10000 5.24 242 16:21 20.06.2022
3001 Clear 32 981 13 10000 5.13 236 14:29 20.06.2022
3002 Clear 28 982 37 10000 5.46 233 11:46 20.06.2022
3003 Clear 26 983 40 10000 5.74 228 09:49 20.06.2022
3004 Clear 24 983 43 10000 5.73 223 08:45 20.06.2022
3005 Clear 22 984 47 10000 5.32 224 07:35 20.06.2022
3006 Clear 20 984 62 10000 4.15 228 03:51 20.06.2022
3007 Clear 19 1015 71 10000 3.82 213 00:52 20.06.2022
3008 Clear 20 1015 70 10000 3.21 211 23:29 19.06.2022
3009 Clear 22 1013 63 10000 2.98 216 22:19 19.06.2022
3010 Clear 22 1013 64 10000 2.98 216 21:42 19.06.2022
3011 Clear 24 1013 60 10000 2.91 220 20:48 19.06.2022
3012 Clear 22 1016 63 10000 3.03 223 19:49 19.06.2022
3013 Clear 24 1016 58 10000 3.33 223 19:24 19.06.2022
3014 Clear 27 1016 31 10000 3.61 234 18:31 19.06.2022
3015 Clear 28 1016 29 10000 3.61 234 17:39 19.06.2022
3016 Clear 28 1016 26 10000 3.78 241 16:39 19.06.2022
3017 Clear 28 1016 25 10000 3.83 248 15:44 19.06.2022
3018 Clear 28 1017 24 10000 3.9 255 15:26 19.06.2022
3019 Clear 29 1017 23 10000 3.9 255 14:35 19.06.2022
3020 Clear 26 1017 42 10000 3.96 256 13:44 19.06.2022
3021 Clear 28 988 42 10000 3.86 247 11:53 19.06.2022
3022 Clear 25 989 44 10000 3.68 252 10:52 19.06.2022
3023 Clear 23 989 52 10000 3.35 252 08:55 19.06.2022
3024 Clouds 23 990 57 10000 2.91 263 08:30 19.06.2022
3025 Clouds 20 1016 63 10000 0.45 148 06:54 19.06.2022
3026 Clouds 15 1016 75 10000 2.08 251 03:38 19.06.2022
3027 Clouds 15 1016 80 10000 1.86 226 00:28 19.06.2022
3028 Clouds 14 1016 79 10000 1.86 226 23:59 18.06.2022
3029 Clouds 15 1016 80 10000 1.86 226 23:34 18.06.2022
3030 Clouds 16 1016 73 10000 1.06 194 22:23 18.06.2022
3031 Clouds 19 1016 61 10000 0.3 180 20:51 18.06.2022
3032 Clouds 19 1016 60 10000 0.81 92 20:18 18.06.2022
3033 Clouds 22 1015 54 10000 0.45 110 18:57 18.06.2022
3034 Clouds 24 1015 50 10000 1.55 79 18:38 18.06.2022
3035 Clouds 22 1017 43 10000 2.61 28 17:29 18.06.2022
3036 Clouds 25 1015 53 10000 0.45 309 15:57 18.06.2022
3037 Clouds 22 1016 62 10000 0.45 96 14:54 18.06.2022
3038 Clouds 21 1016 62 10000 0.45 325 14:35 18.06.2022
3039 Clouds 21 1016 69 10000 0.45 305 12:30 18.06.2022
3040 Rain 19 1018 64 10000 3.3 342 11:20 18.06.2022
3041 Clouds 18 989 71 10000 2.78 333 09:46 18.06.2022
3042 Clouds 19 1016 79 10000 2.99 320 08:46 18.06.2022
3043 Clouds 17 1006 85 10000 0.89 244 07:34 18.06.2022
3044 Clouds 14 1006 87 10000 2.51 338 05:20 18.06.2022
3045 Rain 14 1006 89 10000 0.45 146 01:50 18.06.2022
3046 Rain 14 1006 89 10000 2.69 351 01:21 18.06.2022
3047 Rain 15 1006 90 10000 2.69 351 00:32 18.06.2022
3048 Rain 15 1006 90 7800 2.85 355 23:37 17.06.2022
3049 Clouds 15 1006 90 7230 2.56 355 22:33 17.06.2022
3050 Clouds 16 1014 89 10000 0.45 75 20:29 17.06.2022
3051 Rain 17 1014 81 8567 0.45 137 19:24 17.06.2022
3052 Clouds 17 986 93 10000 2.81 360 18:19 17.06.2022
3053 Rain 15 1016 91 10000 3.54 6 16:50 17.06.2022
3054 Rain 15 1016 91 10000 3.55 358 16:25 17.06.2022
3055 Rain 15 1016 91 10000 3.55 358 15:40 17.06.2022
3056 Clouds 21 1015 49 10000 5.45 284 14:23 17.06.2022
3057 Clouds 25 1013 42 10000 0.45 116 13:59 17.06.2022
3058 Clouds 26 1013 43 10000 5.03 287 13:38 17.06.2022
3059 Clouds 26 1013 40 10000 0.45 111 12:28 17.06.2022
3060 Clouds 27 1013 38 10000 0.45 151 11:55 17.06.2022
3061 Clouds 26 1014 38 10000 0.45 314 11:33 17.06.2022
3062 Clouds 21 1016 44 10000 2.53 184 09:36 17.06.2022
3063 Clouds 19 1016 52 10000 1.91 210 08:26 17.06.2022
3064 Clouds 19 1005 75 10000 2.03 225 06:45 17.06.2022
3065 Clouds 14 1006 80 10000 1.86 227 03:59 17.06.2022
3066 Clouds 15 1005 80 10000 2.86 209 01:56 17.06.2022
3067 Clouds 16 1007 72 10000 2.07 219 23:47 16.06.2022
3068 Clouds 17 1007 70 10000 1.86 231 22:42 16.06.2022
3069 Clouds 19 1016 61 10000 1.66 251 21:22 16.06.2022
3070 Clouds 19 1015 59 10000 1.66 251 20:52 16.06.2022
3071 Clouds 20 1015 59 10000 2.07 258 20:33 16.06.2022
3072 Clouds 20 1015 55 10000 2.46 262 19:32 16.06.2022
3073 Clouds 23 1015 49 10000 2.88 262 18:24 16.06.2022
3074 Clouds 23 1015 49 10000 0.45 16 17:42 16.06.2022
3075 Clouds 21 1018 44 10000 2.78 258 16:33 16.06.2022
3076 Clouds 20 1019 46 10000 2.98 275 15:22 16.06.2022
3077 Clouds 21 1019 44 10000 2.99 284 14:30 16.06.2022
3078 Clouds 22 1019 39 10000 2.87 288 13:19 16.06.2022
3079 Clouds 25 1017 45 10000 0.45 92 12:35 16.06.2022
3080 Clouds 22 1017 48 10000 0.45 102 11:49 16.06.2022
3081 Clear 23 1017 47 10000 0.45 140 10:54 16.06.2022
3082 Clear 23 1017 49 10000 0.45 243 09:43 16.06.2022
3083 Clear 21 990 52 10000 3.1 298 09:20 16.06.2022
3084 Clouds 19 990 58 10000 2.99 297 07:57 16.06.2022
3085 Clouds 18 990 64 10000 3.06 294 07:24 16.06.2022
3086 Clouds 15 990 100 10000 2.58 287 04:33 16.06.2022
3087 Clouds 15 1017 70 10000 0.45 139 01:54 16.06.2022
3088 Clouds 16 1017 70 10000 0.45 0 01:34 16.06.2022
3089 Clouds 16 1017 70 10000 0.45 0 01:34 16.06.2022
3090 Clouds 16 1017 70 10000 2.87 282 00:38 16.06.2022
3091 Clouds 16 1017 67 10000 2.87 285 23:25 15.06.2022
3092 Clouds 16 1008 67 10000 2.98 285 22:28 15.06.2022
3093 Clouds 17 1008 64 10000 0.45 159 21:21 15.06.2022
3094 Clouds 18 1016 67 10000 0.45 106 20:38 15.06.2022
3095 Clouds 19 1016 60 10000 0.45 321 20:19 15.06.2022
3096 Clouds 20 1016 60 10000 0.45 321 18:51 15.06.2022
3097 Clouds 21 1006 55 10000 0.45 39 17:55 15.06.2022
3098 Clouds 21 1016 54 10000 0.45 301 16:38 15.06.2022
3099 Clouds 22 1018 33 10000 4.33 282 15:26 15.06.2022
3100 Clouds 23 1016 44 10000 0.45 85 13:43 15.06.2022
3101 Clouds 23 1016 41 10000 0.45 145 12:53 15.06.2022
3102 Clear 23 1016 42 10000 0.89 189 11:48 15.06.2022
3103 Clear 21 989 45 10000 4.67 295 10:23 15.06.2022
3104 Clear 20 1016 54 10000 0.89 220 09:38 15.06.2022
3105 Clouds 16 989 57 10000 4.05 295 08:27 15.06.2022
3106 Clouds 15 1016 73 10000 0.89 123 06:33 15.06.2022
3107 Clouds 14 1006 69 10000 0.45 65 03:45 15.06.2022
3108 Clouds 15 1006 64 10000 3.08 295 01:53 15.06.2022
3109 Clouds 14 988 92 10000 3.06 294 00:50 15.06.2022
3110 Clouds 16 1006 58 10000 0.45 9 23:39 14.06.2022
3111 Clouds 16 987 65 10000 3.03 287 22:56 14.06.2022
3112 Clouds 17 1005 54 10000 0.45 58 22:18 14.06.2022
3113 Clouds 17 1004 52 10000 0.45 74 21:28 14.06.2022
3114 Clouds 18 1005 49 10000 0.45 219 20:48 14.06.2022
3115 Clouds 18 1006 49 10000 0.45 204 20:28 14.06.2022
3116 Clouds 21 1003 46 10000 0.89 75 18:45 14.06.2022
3117 Clouds 24 1012 40 10000 0.45 310 17:29 14.06.2022
3118 Clouds 23 1012 44 10000 0.89 111 16:43 14.06.2022
3119 Clouds 24 1011 44 10000 0.89 123 15:49 14.06.2022
3120 Clouds 24 1011 43 10000 0.89 125 15:49 14.06.2022
3121 Clouds 23 1003 48 10000 0.89 92 14:57 14.06.2022
3122 Clouds 22 1002 52 10000 0.45 236 14:23 14.06.2022
3123 Clouds 21 1003 57 10000 0.89 154 13:39 14.06.2022
3124 Clouds 20 1003 60 10000 0.89 126 12:30 14.06.2022
3125 Clouds 20 1001 63 10000 0.89 111 11:28 14.06.2022
3126 Clouds 18 1011 78 10000 0.89 200 10:35 14.06.2022
3127 Rain 17 1002 88 10000 0.45 119 09:45 14.06.2022
3128 Clouds 18 1010 81 10000 0.45 132 08:45 14.06.2022
3129 Clouds 20 1008 72 10000 0.45 131 07:26 14.06.2022
3130 Clouds 19 1009 76 10000 0.45 117 07:26 14.06.2022
3131 Clear 20 1007 68 10000 4.08 242 04:44 14.06.2022
3132 Clouds 20 1007 67 10000 2.69 185 02:45 14.06.2022
3133 Clouds 22 999 62 10000 1.97 163 00:27 14.06.2022
3134 Clouds 21 1002 62 10000 1.12 149 23:18 13.06.2022
3135 Clouds 22 1009 59 10000 0.95 111 22:25 13.06.2022
3136 Clouds 22 1009 59 10000 0.95 111 21:43 13.06.2022
3137 Clouds 24 1009 55 10000 0.45 303 20:19 13.06.2022
3138 Clouds 25 1008 52 10000 1.74 154 19:34 13.06.2022
3139 Clouds 27 1011 31 10000 1.31 107 17:57 13.06.2022
3140 Clouds 27 1011 29 10000 1.31 107 17:36 13.06.2022
3141 Clouds 27 1011 27 10000 1.01 85 16:39 13.06.2022
3142 Clouds 28 983 40 10000 1.87 11 15:20 13.06.2022
3143 Clouds 29 1010 41 10000 0.45 284 14:41 13.06.2022
3144 Clouds 26 1012 36 10000 3.17 13 13:41 13.06.2022
3145 Clear 25 1013 42 10000 3.06 14 12:30 13.06.2022
3146 Clear 24 1013 45 10000 3.26 12 11:25 13.06.2022
3147 Clear 23 1014 49 10000 3.46 8 10:26 13.06.2022
3148 Clear 22 1014 55 10000 3.39 4 09:23 13.06.2022
3149 Clear 22 1012 78 10000 0.45 68 07:34 13.06.2022
3150 Clouds 20 1011 85 10000 0.45 75 05:39 13.06.2022
3151 Clouds 20 1003 80 10000 2.4 350 02:47 13.06.2022
3152 Clear 18 1014 81 10000 2.4 342 01:37 13.06.2022
3153 Clear 18 1014 78 10000 2.75 348 23:52 12.06.2022
3154 Clear 21 1011 71 10000 3.11 347 22:50 12.06.2022
3155 Clear 20 1014 68 10000 3.18 343 22:22 12.06.2022
3156 Clouds 23 985 61 10000 2.89 345 21:20 12.06.2022
3157 Clouds 24 1002 62 10000 2.4 328 20:27 12.06.2022
3158 Clouds 25 1010 60 10000 0.45 17 19:30 12.06.2022
3159 Clouds 26 1012 73 10000 2.72 1 17:51 12.06.2022
3160 Clouds 26 1013 46 10000 2.98 9 16:24 12.06.2022
3161 Clouds 26 1013 45 10000 3.85 355 14:57 12.06.2022
3162 Clouds 27 1013 43 10000 4.38 345 14:21 12.06.2022
3163 Clear 27 1013 44 10000 4.54 344 13:51 12.06.2022
3164 Clear 29 1011 48 10000 0.45 104 12:37 12.06.2022
3165 Clear 29 1012 57 10000 0.89 91 11:37 12.06.2022
3166 Clear 27 1012 64 10000 0.45 109 10:22 12.06.2022
3167 Clear 25 1012 71 10000 0.89 68 08:55 12.06.2022
3168 Clear 25 1012 71 10000 0.89 68 08:36 12.06.2022
3169 Clouds 23 1012 82 10000 0.89 59 07:32 12.06.2022
3170 Clouds 20 1003 86 10000 0.45 357 04:45 12.06.2022
3171 Clouds 20 985 100 10000 2.21 323 02:53 12.06.2022
3172 Clouds 19 1014 70 10000 1.67 320 01:39 12.06.2022
3173 Clear 21 1012 55 10000 1.16 298 00:58 12.06.2022
3174 Clear 21 1012 54 10000 0.93 288 00:20 12.06.2022
3175 Clear 21 1012 54 10000 0.93 288 00:20 12.06.2022
3176 Clear 21 1012 56 10000 0.93 288 23:40 11.06.2022
3177 Clear 21 1012 54 10000 0.3 219 22:38 11.06.2022
3178 Clear 21 1012 53 10000 0.79 110 21:52 11.06.2022
3179 Clear 24 1012 46 10000 0.72 67 20:36 11.06.2022
3180 Clouds 26 1012 44 10000 1.2 72 19:46 11.06.2022
3181 Clouds 27 1012 40 10000 1.03 88 19:19 11.06.2022
3182 Clouds 30 1012 34 10000 0.45 242 18:33 11.06.2022
3183 Clouds 27 1013 41 10000 1.58 103 17:50 11.06.2022
3184 Clouds 30 1014 10 10000 1.69 102 17:26 11.06.2022
3185 Clouds 28 1014 36 10000 1.69 102 16:52 11.06.2022
3186 Clouds 31 1014 9 10000 1.51 103 16:26 11.06.2022
3187 Clear 31 1014 9 10000 1.73 115 15:28 11.06.2022
3188 Clear 29 1014 32 10000 2 117 13:53 11.06.2022
3189 Clear 28 1015 33 10000 2.11 101 12:37 11.06.2022
3190 Clear 29 987 36 10000 2.02 103 10:46 11.06.2022
3191 Clear 28 987 40 10000 1.79 103 09:48 11.06.2022
3192 Clear 27 987 46 10000 1.62 102 08:51 11.06.2022
3193 Clear 24 987 36 10000 1.57 99 06:47 11.06.2022
3194 Clear 20 1016 47 10000 1.32 85 06:24 11.06.2022
3195 Clear 17 1013 66 10000 0.47 67 03:46 11.06.2022
3196 Clouds 17 1013 63 10000 1 124 01:52 11.06.2022
3197 Clouds 17 1013 63 10000 1.08 123 01:27 11.06.2022
3198 Clouds 19 1013 58 10000 1.74 123 23:29 10.06.2022
3199 Clouds 20 1013 56 10000 1.98 117 22:31 10.06.2022
3200 Clouds 20 1013 53 10000 1.98 117 21:50 10.06.2022
3201 Clouds 22 1012 49 10000 1.9 119 20:39 10.06.2022
3202 Clouds 22 1012 49 10000 2.39 117 20:21 10.06.2022
3203 Clouds 25 1012 43 10000 3.09 108 19:19 10.06.2022
3204 Clouds 24 1014 53 10000 3.09 108 18:55 10.06.2022
3205 Clouds 28 1014 17 10000 3.72 101 17:55 10.06.2022
3206 Clouds 28 1014 17 10000 3.72 101 17:32 10.06.2022
3207 Clouds 28 1014 17 10000 4.26 88 16:36 10.06.2022
3208 Clouds 28 1014 18 10000 4.09 82 15:40 10.06.2022
3209 Clear 29 1015 16 10000 3.97 90 14:29 10.06.2022
3210 Clear 30 1013 36 10000 0.45 199 13:19 10.06.2022
3211 Clear 30 1013 38 10000 0.45 195 11:59 10.06.2022
3212 Clear 28 986 42 10000 3.12 137 10:51 10.06.2022
3213 Clear 27 986 48 10000 2.91 123 09:57 10.06.2022
3214 Clear 27 1013 52 10000 0.45 313 08:58 10.06.2022
3215 Clear 23 1003 63 10000 0.45 238 07:50 10.06.2022
3216 Clear 20 1003 71 10000 2.48 99 06:47 10.06.2022
3217 Clear 19 1003 70 10000 0.45 0 06:28 10.06.2022
3218 Clear 17 1003 77 10000 1.81 80 04:53 10.06.2022
3219 Clouds 19 1011 65 10000 1.84 73 01:59 10.06.2022
3220 Clouds 19 1011 64 10000 2.07 80 01:36 10.06.2022
3221 Clouds 19 1011 64 10000 2.07 80 01:36 10.06.2022
3222 Clouds 20 1011 56 10000 0.89 329 23:57 09.06.2022
3223 Clouds 22 1010 51 10000 0.45 284 22:30 09.06.2022
3224 Clouds 20 1013 66 10000 2.56 82 21:43 09.06.2022
3225 Clouds 24 983 60 10000 2.32 82 21:24 09.06.2022
3226 Clouds 21 1012 60 10000 2.32 82 20:36 09.06.2022
3227 Clouds 21 1013 64 10000 2.04 83 19:41 09.06.2022
3228 Clouds 23 1012 58 10000 2.01 79 18:36 09.06.2022
3229 Clouds 24 1012 51 10000 1.03 157 17:28 09.06.2022
3230 Clouds 23 1013 52 10000 2.24 156 16:28 09.06.2022
3231 Clouds 24 1013 50 10000 3.64 118 14:45 09.06.2022
3232 Clouds 26 1013 44 10000 3.45 92 14:24 09.06.2022
3233 Clouds 27 1013 36 10000 3.34 128 13:30 09.06.2022
3234 Clouds 27 1013 36 10000 3.34 128 12:50 09.06.2022
3235 Clouds 26 1013 38 10000 3.16 142 11:20 09.06.2022
3236 Clouds 25 1013 41 10000 3.33 137 09:55 09.06.2022
3237 Clouds 25 1013 41 10000 3.33 137 09:55 09.06.2022
3238 Clouds 27 983 41 10000 3.33 137 09:36 09.06.2022
3239 Clouds 26 983 48 10000 2.56 135 08:27 09.06.2022
3240 Clouds 24 1010 61 10000 0.45 154 07:23 09.06.2022
3241 Clouds 18 1001 80 10000 1.83 130 03:29 09.06.2022
3242 Clouds 20 1001 66 10000 2.17 136 00:32 09.06.2022
3243 Clouds 20 1001 66 10000 2.37 134 22:59 08.06.2022
3244 Clouds 20 1001 64 10000 2.55 125 22:30 08.06.2022
3245 Clouds 20 1001 63 10000 2.55 125 21:59 08.06.2022
3246 Clouds 21 1001 60 10000 2.55 125 21:31 08.06.2022
3247 Clouds 23 1010 50 10000 2.13 115 20:24 08.06.2022
3248 Clouds 25 1010 43 10000 1.72 132 19:40 08.06.2022
3249 Clouds 23 1013 54 10000 1.72 132 18:48 08.06.2022
3250 Clouds 27 1013 23 10000 2.75 140 17:35 08.06.2022
3251 Clouds 28 1013 22 10000 2.97 134 15:52 08.06.2022
3252 Clouds 28 1013 18 10000 2.72 125 14:31 08.06.2022
3253 Clouds 25 1014 39 10000 2.58 137 12:46 08.06.2022
3254 Clouds 24 1015 45 10000 2.71 143 11:35 08.06.2022
3255 Clouds 22 1015 52 10000 2.56 148 10:37 08.06.2022
3256 Clouds 20 1015 59 10000 2.03 152 09:28 08.06.2022
3257 Clouds 20 1015 59 10000 2.03 152 08:52 08.06.2022
3258 Clouds 19 1015 63 10000 1.87 156 06:43 08.06.2022
3259 Clouds 20 985 100 10000 1.7 144 04:35 08.06.2022
3260 Clouds 18 1004 71 10000 1.77 146 00:58 08.06.2022
3261 Clouds 19 1004 68 10000 1.57 139 23:32 07.06.2022
3262 Clouds 20 1004 66 10000 1.57 139 22:51 07.06.2022
3263 Clouds 20 1004 64 10000 1.57 139 22:33 07.06.2022
3264 Clouds 21 1004 61 10000 1.42 138 21:37 07.06.2022
3265 Clouds 20 1013 62 10000 1.12 125 21:18 07.06.2022
3266 Clouds 23 1016 43 10000 1.12 125 20:37 07.06.2022
3267 Clouds 21 1016 56 10000 0.86 109 19:49 07.06.2022
3268 Clouds 23 1016 49 10000 0.86 271 18:25 07.06.2022
3269 Clouds 23 1016 48 10000 2.07 262 17:31 07.06.2022
3270 Clouds 23 1016 48 10000 2.05 262 16:44 07.06.2022
3271 Clouds 23 1016 48 10000 2.73 250 15:58 07.06.2022
3272 Clouds 26 1016 27 10000 2.24 219 15:30 07.06.2022
3273 Clouds 23 1016 45 10000 2.27 219 14:56 07.06.2022
3274 Clouds 27 1016 26 10000 2.27 219 14:38 07.06.2022
3275 Clouds 24 1017 39 10000 2.1 169 13:33 07.06.2022
3276 Clouds 25 1017 39 10000 2.11 168 12:54 07.06.2022
3277 Clouds 24 1017 39 10000 1.91 154 11:49 07.06.2022
3278 Clouds 23 1018 44 10000 1.77 130 10:27 07.06.2022
3279 Clouds 22 989 48 10000 1.77 110 08:53 07.06.2022
3280 Clouds 21 1016 61 10000 0.45 156 07:35 07.06.2022
3281 Clouds 19 1007 69 10000 0.97 82 06:39 07.06.2022
3282 Clouds 14 1007 83 10000 0.3 56 04:39 07.06.2022
3283 Clouds 15 1007 76 10000 0.72 79 01:27 07.06.2022
3284 Clouds 15 1007 75 10000 0.85 95 23:52 06.06.2022
3285 Clouds 16 1007 73 10000 1.08 85 22:54 06.06.2022
3286 Clouds 16 1007 73 10000 1.4 70 22:29 06.06.2022
3287 Clouds 18 1016 65 10000 1.47 60 20:47 06.06.2022
3288 Clouds 21 1016 54 10000 2.08 51 19:28 06.06.2022
3289 Clouds 22 1016 46 10000 0.45 231 18:49 06.06.2022
3290 Clouds 23 1018 32 10000 2.67 51 18:21 06.06.2022
3291 Clouds 23 1018 31 10000 2.93 50 17:24 06.06.2022
3292 Clouds 25 1019 32 10000 3.07 49 16:18 06.06.2022
3293 Clouds 23 1019 40 10000 3.07 55 14:59 06.06.2022
3294 Clear 23 1019 41 10000 3.3 47 14:29 06.06.2022
3295 Clear 22 1019 42 10000 3.46 40 13:21 06.06.2022
3296 Clear 22 1020 44 10000 3.38 35 12:35 06.06.2022
3297 Clear 22 1020 44 10000 3.38 35 11:50 06.06.2022
3298 Clear 20 1020 49 10000 3.54 29 10:21 06.06.2022
3299 Clear 22 990 54 10000 3.25 24 09:24 06.06.2022
3300 Clear 17 1020 61 10000 2.95 23 08:31 06.06.2022
3301 Clear 19 1017 68 10000 0.45 291 07:28 06.06.2022
3302 Clear 14 1017 87 10000 2.19 5 04:43 06.06.2022
3303 Clear 15 1007 87 10000 0.45 109 02:27 06.06.2022
3304 Clear 16 1007 82 10000 2.12 6 00:57 06.06.2022
3305 Clear 16 1016 81 10000 0.45 248 00:35 06.06.2022
3306 Clear 16 1016 79 10000 0.45 269 23:28 05.06.2022
3307 Clear 16 1016 79 10000 2.78 351 22:33 05.06.2022
3308 Clear 15 1018 78 10000 2.39 342 20:40 05.06.2022
3309 Clouds 20 1015 65 10000 0.45 58 19:26 05.06.2022
3310 Clouds 21 1015 66 10000 0.45 53 18:26 05.06.2022
3311 Clouds 21 1015 67 10000 0.45 55 17:50 05.06.2022
3312 Clouds 19 1018 64 10000 3.41 36 17:23 05.06.2022
3313 Clouds 19 1018 64 10000 3.41 36 16:49 05.06.2022
3314 Clouds 19 1018 64 10000 3.71 38 15:50 05.06.2022
3315 Clouds 16 1017 82 10000 2.25 17 14:22 05.06.2022
3316 Rain 16 1017 87 10000 3.55 22 12:34 05.06.2022
3317 Rain 16 1017 87 10000 3.55 22 11:35 05.06.2022
3318 Clouds 19 1006 69 10000 0.89 309 10:25 05.06.2022
3319 Clouds 19 1006 67 10000 0.45 323 09:58 05.06.2022
3320 Clouds 19 1015 66 10000 0.45 200 08:25 05.06.2022
3321 Clouds 18 1005 67 10000 1.28 303 06:48 05.06.2022
3322 Clouds 17 1005 70 10000 2.03 148 05:20 05.06.2022
3323 Clouds 16 1006 70 10000 2.13 140 02:58 05.06.2022
3324 Clouds 16 1006 73 10000 2.83 143 01:30 05.06.2022
3325 Clouds 15 1007 74 10000 2.82 149 23:49 04.06.2022
3326 Clouds 17 1008 66 10000 2.89 136 21:39 04.06.2022
3327 Clouds 21 1017 53 10000 2.56 114 19:49 04.06.2022
3328 Clouds 24 1017 47 10000 0.45 321 17:59 04.06.2022
3329 Clouds 23 1019 32 10000 2.61 91 16:22 04.06.2022
3330 Clouds 24 1019 32 10000 2.61 91 15:54 04.06.2022
3331 Clouds 25 1020 29 10000 2.45 97 14:36 04.06.2022
3332 Clouds 24 1020 46 10000 0.89 305 11:51 04.06.2022
3333 Clouds 22 1022 44 10000 2.46 98 10:57 04.06.2022
3334 Clouds 23 1021 48 10000 0.45 136 10:22 04.06.2022
3335 Clouds 24 1021 51 10000 0.45 56 09:41 04.06.2022
3336 Clouds 21 994 53 10000 1.81 121 08:40 04.06.2022
3337 Clouds 19 1013 67 10000 0.45 208 07:38 04.06.2022
3338 Clear 14 1022 84 10000 1.3 118 04:33 04.06.2022
3339 Clear 14 1022 84 10000 1.3 118 04:33 04.06.2022
3340 Clear 14 1013 84 10000 1.07 89 00:56 04.06.2022
3341 Clear 14 1013 82 10000 0.28 93 23:35 03.06.2022
3342 Clear 15 1012 78 10000 1.17 81 22:30 03.06.2022
3343 Clear 16 1021 68 10000 1.49 80 20:52 03.06.2022
3344 Clear 17 1012 65 10000 1.67 73 20:27 03.06.2022
3345 Clear 22 1021 48 10000 0.89 5 17:58 03.06.2022
3346 Clear 24 1021 47 10000 0.45 349 16:47 03.06.2022
3347 Clear 24 1021 48 10000 0.45 89 15:18 03.06.2022
3348 Clouds 23 1022 48 10000 0.89 336 12:56 03.06.2022
3349 Clouds 21 1021 60 10000 0.89 16 10:54 03.06.2022
3350 Clouds 19 1021 67 10000 0.89 324 09:37 03.06.2022
3351 Clouds 18 1021 73 10000 0.89 88 08:32 03.06.2022
3352 Clouds 15 1012 84 10000 0.89 61 07:26 03.06.2022
3353 Clouds 15 1011 86 10000 0.45 108 06:31 03.06.2022
3354 Clouds 15 1010 86 10000 0.45 191 05:19 03.06.2022
3355 Clouds 17 1007 86 10000 4.25 304 00:25 03.06.2022
3356 Rain 17 1006 87 10000 0.45 191 22:41 02.06.2022
3357 Rain 18 1007 89 10000 0.45 113 21:34 02.06.2022
3358 Clouds 22 987 82 10000 3.59 250 20:22 02.06.2022
3359 Rain 20 1016 82 10000 3.59 250 19:43 02.06.2022
3360 Clouds 25 1013 65 10000 2.17 249 19:23 02.06.2022
3361 Rain 28 1016 35 10000 2.58 202 16:47 02.06.2022
3362 Clouds 28 1016 36 10000 2.82 190 16:27 02.06.2022
3363 Clouds 27 1017 46 10000 2.78 164 13:56 02.06.2022
3364 Clear 27 1017 45 10000 1.15 167 13:29 02.06.2022
3365 Clear 28 1016 60 10000 0.45 330 11:22 02.06.2022
3366 Clear 26 1016 64 10000 0.89 330 10:20 02.06.2022
3367 Clear 22 1018 66 10000 1.8 50 09:27 02.06.2022
3368 Clouds 20 1018 74 10000 2.05 36 08:26 02.06.2022
3369 Clouds 18 1018 84 10000 2.45 5 06:59 02.06.2022
3370 Clouds 17 1018 100 10000 1.9 327 04:40 02.06.2022
3371 Clouds 18 1015 84 10000 1.74 295 02:30 02.06.2022
3372 Clouds 18 1006 84 10000 1.59 273 23:43 01.06.2022
3373 Clouds 18 1006 84 10000 1.59 273 23:43 01.06.2022
3374 Clouds 18 1006 84 10000 1.59 273 23:43 01.06.2022
3375 Clouds 18 1006 84 10000 1.59 273 23:43 01.06.2022
3376 Clouds 19 1014 82 10000 2 263 22:23 01.06.2022
3377 Clouds 19 1014 79 10000 2 263 21:32 01.06.2022
3378 Clouds 19 1014 75 10000 2.07 245 20:39 01.06.2022
3379 Clouds 21 1014 69 10000 1 143 19:53 01.06.2022
3380 Clouds 24 1014 56 10000 1.22 177 18:58 01.06.2022
3381 Clouds 25 1016 50 10000 1.94 157 17:40 01.06.2022
3382 Clouds 26 1016 50 10000 2.61 151 16:33 01.06.2022
3383 Clouds 26 1016 51 10000 2.64 123 14:52 01.06.2022
3384 Clouds 24 1017 55 10000 2.35 100 13:44 01.06.2022
3385 Clouds 22 1018 58 10000 2.44 83 12:25 01.06.2022
3386 Clouds 20 1019 63 10000 2.97 67 09:36 01.06.2022
3387 Clouds 16 1019 65 10000 2.92 54 08:29 01.06.2022
3388 Clouds 16 1017 76 10000 2.85 40 07:21 01.06.2022
3389 Clouds 12 1020 100 10000 2.02 32 04:59 01.06.2022
3390 Clear 14 1018 87 10000 2.16 29 00:20 01.06.2022
3391 Clear 11 1021 82 10000 2.22 30 22:59 31.05.2022
3392 Clear 14 1018 87 10000 2.22 30 22:33 31.05.2022
3393 Clear 14 1017 86 10000 2.69 38 21:45 31.05.2022
3394 Clear 15 1018 87 10000 2.69 14 20:45 31.05.2022
3395 Clouds 16 1017 85 10000 2.81 10 19:53 31.05.2022
3396 Clouds 17 1017 79 10000 0.45 313 18:45 31.05.2022
3397 Clouds 17 1019 100 10000 2.69 5 17:49 31.05.2022
3398 Clouds 17 1019 100 10000 2.69 5 17:49 31.05.2022
3399 Clouds 17 1019 100 10000 2.83 7 16:48 31.05.2022
3400 Clouds 17 1019 100 10000 3.39 3 15:40 31.05.2022
3401 Clouds 20 1018 47 10000 4.77 5 13:38 31.05.2022
3402 Clouds 19 1018 50 10000 4.87 7 12:19 31.05.2022
3403 Clouds 16 1018 82 10000 0.89 96 10:52 31.05.2022
3404 Clouds 16 1007 85 10000 0.45 44 08:41 31.05.2022
3405 Clouds 16 1006 85 10000 0.45 6 06:57 31.05.2022
3406 Clear 15 1015 84 10000 2.55 354 04:46 31.05.2022
3407 Clouds 16 1005 87 10000 3.53 327 23:53 30.05.2022
3408 Clouds 15 1006 87 10000 2.78 305 23:25 30.05.2022
3409 Clouds 16 1004 87 10000 2.78 305 22:44 30.05.2022
3410 Clouds 17 1004 86 10000 0.45 191 21:51 30.05.2022
3411 Clouds 17 1004 86 10000 1.83 237 21:32 30.05.2022
3412 Clouds 18 1003 86 10000 2.53 174 19:51 30.05.2022
3413 Clouds 19 1002 84 10000 3.74 177 18:34 30.05.2022
3414 Clouds 19 1002 83 9119 0.89 224 17:23 30.05.2022
3415 Clouds 19 1002 83 9119 0.45 129 16:39 30.05.2022
3416 Clouds 17 1002 85 10000 0.45 199 13:44 30.05.2022
3417 Clouds 17 1012 84 10000 3.79 124 12:19 30.05.2022
3418 Clouds 14 1003 85 10000 0.45 243 10:26 30.05.2022
3419 Rain 14 1003 86 7298 0.45 285 09:19 30.05.2022
3420 Clouds 14 985 100 10000 3.72 112 06:28 30.05.2022
3421 Clouds 15 1004 85 10000 0.45 142 05:38 30.05.2022
3422 Clouds 15 986 80 10000 2.87 116 01:32 30.05.2022
3423 Clouds 15 1014 58 10000 0.45 343 22:49 29.05.2022
3424 Clouds 15 1014 59 10000 2.06 82 22:31 29.05.2022
3425 Clouds 15 1013 61 10000 1.93 66 20:51 29.05.2022
3426 Clouds 16 1013 53 10000 1.86 121 19:30 29.05.2022
3427 Clouds 18 1015 36 10000 1.86 121 18:35 29.05.2022
3428 Clouds 19 1015 33 10000 0.85 265 16:51 29.05.2022
3429 Clouds 20 1015 33 10000 2.12 273 15:47 29.05.2022
3430 Clouds 21 1015 31 10000 2.79 266 14:56 29.05.2022
3431 Clouds 19 1014 38 10000 3.1 263 13:46 29.05.2022
3432 Clouds 18 985 41 10000 3.53 244 11:31 29.05.2022
3433 Clouds 16 985 44 10000 3.31 243 10:37 29.05.2022
3434 Clouds 17 1013 58 10000 0.45 103 08:36 29.05.2022
3435 Clouds 11 1003 79 10000 2.79 226 05:22 29.05.2022
3436 Clouds 11 1003 76 10000 0.45 72 04:41 29.05.2022
3437 Clouds 11 1002 81 10000 4.47 234 02:24 29.05.2022
3438 Clouds 10 1001 84 10000 4.63 244 23:48 28.05.2022
3439 Clouds 10 1001 84 10000 0.45 264 23:25 28.05.2022
3440 Clouds 11 1002 80 10000 2.73 267 22:21 28.05.2022
3441 Clear 13 1001 69 10000 2.47 242 21:19 28.05.2022
3442 Clear 13 1001 69 10000 2.47 242 21:19 28.05.2022
3443 Clouds 15 1000 58 10000 1.34 114 19:21 28.05.2022
3444 Clouds 14 1011 61 10000 2.97 287 18:45 28.05.2022
3445 Clouds 17 1011 38 10000 4.23 280 17:34 28.05.2022
3446 Clouds 18 1010 38 10000 5.61 257 16:22 28.05.2022
3447 Clouds 18 980 37 10000 5.61 257 15:38 28.05.2022
3448 Clouds 19 1009 44 10000 5.7 268 13:42 28.05.2022
3449 Clouds 17 980 40 10000 6.21 269 12:43 28.05.2022
3450 Clouds 17 981 37 10000 6.25 268 11:54 28.05.2022
3451 Clouds 18 999 59 10000 0.89 247 10:43 28.05.2022
3452 Clouds 17 1008 62 10000 0.89 118 09:56 28.05.2022
3453 Clouds 14 999 77 10000 0.89 123 08:39 28.05.2022
3454 Clouds 12 1000 85 10000 0.45 184 06:53 28.05.2022
3455 Clouds 11 998 86 10000 0.45 99 05:24 28.05.2022
3456 Rain 10 998 87 10000 0.89 157 02:27 28.05.2022
3457 Rain 11 998 87 10000 0.45 124 00:18 28.05.2022
3458 Rain 11 999 88 6125 0.89 121 22:49 27.05.2022
3459 Rain 14 998 88 10000 0.89 231 21:35 27.05.2022
3460 Clouds 20 977 100 5275 6.05 264 20:46 27.05.2022
3461 Clouds 20 977 65 10000 4.78 235 20:21 27.05.2022
3462 Clouds 20 995 58 10000 0.89 186 19:38 27.05.2022
3463 Clouds 20 996 58 10000 5.01 233 19:20 27.05.2022
3464 Clouds 21 999 53 10000 0.45 230 17:24 27.05.2022
3465 Clouds 21 980 62 10000 5.99 244 15:57 27.05.2022
3466 Clouds 18 1011 59 10000 5.47 246 14:57 27.05.2022
3467 Clouds 21 1000 50 10000 0.45 112 13:40 27.05.2022
3468 Clouds 22 983 46 10000 6.3 266 12:20 27.05.2022
3469 Clouds 22 1011 47 10000 0.89 130 11:31 27.05.2022
3470 Clouds 22 1002 45 10000 0.89 78 10:43 27.05.2022
3471 Clouds 20 1002 52 10000 0.89 162 09:59 27.05.2022
3472 Clouds 20 1013 43 10000 6.53 266 09:30 27.05.2022
3473 Clouds 17 1003 73 10000 0.89 171 07:39 27.05.2022
3474 Clouds 17 1003 73 10000 0.89 171 07:39 27.05.2022
3475 Clouds 14 1004 78 10000 0.45 115 04:58 27.05.2022
3476 Clouds 15 1002 72 10000 0.45 96 01:38 27.05.2022
3477 Clouds 15 1002 66 10000 0.45 138 23:23 26.05.2022
3478 Clear 15 1002 67 10000 0.45 272 22:22 26.05.2022
3479 Clear 16 1002 62 10000 4.5 253 21:27 26.05.2022
3480 Clouds 19 1010 51 10000 0.45 70 19:35 26.05.2022
3481 Clouds 19 1010 50 10000 0.45 100 18:51 26.05.2022
3482 Clouds 21 1010 48 10000 0.89 93 17:36 26.05.2022
3483 Clouds 21 1001 48 10000 0.45 86 16:30 26.05.2022
3484 Clouds 21 1001 48 10000 0.89 80 15:28 26.05.2022
3485 Clouds 20 982 46 10000 7.66 278 14:19 26.05.2022
3486 Clouds 19 1000 64 10000 0.45 130 12:18 26.05.2022
3487 Clouds 18 1001 72 10000 0.89 139 11:20 26.05.2022
3488 Rain 13 1000 85 10000 0.45 102 09:39 26.05.2022
3489 Rain 14 999 85 10000 0.45 114 08:48 26.05.2022
3490 Clouds 11 980 94 10000 5.19 216 05:43 26.05.2022
3491 Clouds 17 1000 61 10000 5.51 203 02:51 26.05.2022
3492 Clouds 18 1002 54 10000 4.43 164 23:57 25.05.2022
3493 Clouds 19 1012 52 10000 0.45 174 22:53 25.05.2022
3494 Clouds 15 1014 70 10000 3.72 186 21:42 25.05.2022
3495 Clouds 16 1015 59 10000 4 195 20:49 25.05.2022
3496 Clouds 17 1015 54 10000 2.64 170 19:45 25.05.2022
3497 Clouds 18 1015 51 10000 2.58 186 18:48 25.05.2022
3498 Clouds 22 1016 21 10000 3.55 202 17:24 25.05.2022
3499 Clouds 23 1016 18 10000 3.55 202 16:34 25.05.2022
3500 Clouds 21 1016 36 10000 3.5 199 15:36 25.05.2022
3501 Clouds 21 1016 34 10000 3.17 197 14:50 25.05.2022
3502 Clouds 21 1017 33 10000 2.89 194 14:32 25.05.2022
3503 Clouds 21 1017 32 10000 2.08 167 13:23 25.05.2022
3504 Clouds 21 1017 32 10000 2.08 167 13:23 25.05.2022
3505 Clouds 21 1017 33 10000 1.73 157 11:50 25.05.2022
3506 Clouds 22 988 35 10000 1.35 179 10:42 25.05.2022
3507 Clouds 21 988 39 10000 1.35 222 09:45 25.05.2022
3508 Clear 16 1017 50 10000 1.28 250 07:42 25.05.2022
3509 Clear 14 1015 54 10000 0.45 290 05:57 25.05.2022
3510 Clear 10 1014 73 10000 1.53 264 02:44 25.05.2022
3511 Clouds 11 1013 68 10000 1.56 269 23:50 24.05.2022
3512 Clouds 12 1013 65 10000 1.43 287 22:59 24.05.2022
3513 Clouds 12 1013 65 10000 1.43 287 22:59 24.05.2022
3514 Clouds 12 1013 66 10000 1.2 299 21:58 24.05.2022
3515 Clouds 12 1012 66 10000 1.2 299 21:37 24.05.2022
3516 Clouds 12 1012 65 10000 1.12 316 21:19 24.05.2022
3517 Clouds 16 1011 50 10000 1.13 354 19:27 24.05.2022
3518 Clouds 18 1014 32 10000 2 13 18:29 24.05.2022
3519 Clouds 16 1014 46 10000 3.03 16 16:40 24.05.2022
3520 Clouds 17 1014 42 10000 4.24 23 15:52 24.05.2022
3521 Clouds 18 1013 38 10000 4.31 26 14:41 24.05.2022
3522 Clear 21 1011 33 10000 0.45 356 13:47 24.05.2022
3523 Clear 20 1012 34 10000 0.45 329 12:31 24.05.2022
3524 Clear 19 1012 35 10000 0.89 348 09:52 24.05.2022
3525 Clear 17 1011 45 10000 0.45 312 08:57 24.05.2022
3526 Clear 17 1011 47 10000 0.45 17 08:38 24.05.2022
3527 Clouds 13 1002 66 10000 0.45 48 06:41 24.05.2022
3528 Clouds 8 1010 85 10000 2.56 325 03:41 24.05.2022
3529 Clouds 9 1001 74 10000 2.55 331 01:47 24.05.2022
3530 Clouds 10 1001 70 10000 2.53 332 00:34 24.05.2022
3531 Clouds 11 1000 72 10000 2.53 344 22:24 23.05.2022
3532 Clouds 11 1000 72 10000 2.53 344 21:53 23.05.2022
3533 Clouds 11 1000 71 10000 2.31 345 20:49 23.05.2022
3534 Clouds 13 1008 67 10000 1.36 49 19:55 23.05.2022
3535 Clouds 15 1008 65 10000 1.94 64 19:24 23.05.2022
3536 Clouds 17 1008 57 10000 1.94 64 18:41 23.05.2022
3537 Clouds 17 1008 57 10000 1.94 64 18:41 23.05.2022
3538 Clouds 17 1009 42 10000 2.2 57 17:56 23.05.2022
3539 Clouds 19 1007 51 10000 0.45 181 16:40 23.05.2022
3540 Clouds 17 998 57 10000 3.1 354 14:20 23.05.2022
3541 Clouds 16 1007 66 10000 0.45 219 11:57 23.05.2022
3542 Clouds 17 1007 64 10000 3.75 9 10:58 23.05.2022
3543 Clouds 16 1007 61 10000 0.45 63 09:48 23.05.2022
3544 Clouds 16 1007 68 10000 3.74 343 08:47 23.05.2022
3545 Clouds 12 1007 84 10000 0.45 39 07:37 23.05.2022
3546 Clouds 11 998 87 10000 0.45 136 06:41 23.05.2022
3547 Clouds 10 997 88 10000 2.66 325 04:40 23.05.2022
3548 Clouds 10 996 89 10000 2.41 324 02:18 23.05.2022
3549 Rain 11 996 89 10000 2.52 350 01:33 23.05.2022
3550 Rain 11 995 90 10000 3 339 23:22 22.05.2022
3551 Clouds 11 995 89 10000 3 339 22:33 22.05.2022
3552 Clouds 11 995 89 10000 3.33 343 21:53 22.05.2022
3553 Clouds 11 995 89 10000 0.45 139 20:50 22.05.2022
3554 Clouds 11 995 90 10000 0.45 230 20:23 22.05.2022
3555 Clouds 11 994 90 10000 0.89 131 19:42 22.05.2022
3556 Clouds 11 994 90 10000 0.45 176 18:52 22.05.2022
3557 Clouds 11 995 89 10000 0.45 323 18:22 22.05.2022
3558 Clouds 11 993 88 10000 0.45 92 17:26 22.05.2022
3559 Clouds 12 993 87 10000 0.45 168 15:59 22.05.2022
3560 Rain 11 992 89 10000 0.89 22 14:48 22.05.2022
3561 Clouds 11 992 90 10000 0.89 157 13:22 22.05.2022
3562 Clouds 12 991 80 10000 0.89 227 12:48 22.05.2022
3563 Clouds 13 991 76 10000 0.89 149 11:32 22.05.2022
3564 Clouds 13 991 73 10000 0.89 164 09:41 22.05.2022
3565 Clouds 12 972 100 10000 7.16 286 08:21 22.05.2022
3566 Clouds 12 972 100 10000 7.29 282 07:21 22.05.2022
3567 Clouds 12 993 75 10000 0.89 181 05:22 22.05.2022
3568 Clear 14 993 67 10000 0.45 151 01:26 22.05.2022
3569 Clear 15 993 66 10000 1.34 183 00:39 22.05.2022
3570 Clear 15 993 66 10000 0.45 144 23:50 21.05.2022
3571 Clear 16 993 66 10000 0.89 147 22:26 21.05.2022
3572 Clear 17 994 63 10000 0.45 114 21:41 21.05.2022
3573 Clear 17 975 81 10000 6.12 301 20:48 21.05.2022
3574 Clouds 15 1004 77 10000 9.01 304 20:21 21.05.2022
3575 Clouds 16 1002 81 10000 10.29 291 19:25 21.05.2022
3576 Clouds 21 1002 96 10000 9.18 270 17:47 21.05.2022
3577 Rain 20 1002 100 8061 7.68 267 15:44 21.05.2022
3578 Clouds 21 975 100 10000 5.96 246 14:37 21.05.2022
3579 Rain 19 1003 86 10000 0.45 140 13:41 21.05.2022
3580 Rain 19 1004 88 10000 4.78 236 12:41 21.05.2022
3581 Clouds 17 977 89 6110 5.77 256 11:58 21.05.2022
3582 Clouds 20 1006 72 10000 3.36 264 10:23 21.05.2022
3583 Clouds 20 1006 72 10000 3.34 264 10:23 21.05.2022
3584 Clouds 18 1007 84 10000 3.55 274 09:41 21.05.2022
3585 Clouds 21 978 84 10000 3.55 274 08:52 21.05.2022
3586 Clouds 20 997 68 10000 0.45 121 07:53 21.05.2022
3587 Clouds 17 998 69 10000 0.45 127 03:48 21.05.2022
3588 Clouds 16 1009 61 10000 3.99 247 23:50 20.05.2022
3589 Clouds 16 1010 62 10000 3.79 247 22:42 20.05.2022
3590 Clouds 16 1010 62 10000 3.79 247 22:42 20.05.2022
3591 Clouds 16 1010 63 10000 3.3 246 22:23 20.05.2022
3592 Clouds 18 1011 60 10000 3.3 246 21:40 20.05.2022
3593 Clouds 19 1011 55 10000 3.34 252 20:54 20.05.2022
3594 Clouds 18 1012 59 10000 3.24 243 19:57 20.05.2022
3595 Clouds 20 1012 61 10000 3.26 241 19:24 20.05.2022
3596 Clouds 21 1012 58 10000 3.26 241 18:36 20.05.2022
3597 Clouds 24 1013 42 10000 0.89 177 16:53 20.05.2022
3598 Clouds 24 1013 45 10000 3.99 260 15:58 20.05.2022
3599 Clouds 24 1014 44 10000 0.45 147 15:40 20.05.2022
3600 Clouds 24 1015 43 10000 0.45 215 14:29 20.05.2022
3601 Clouds 24 1015 44 10000 0.45 218 13:54 20.05.2022
3602 Clouds 19 1009 71 10000 0.45 200 11:22 20.05.2022
3603 Rain 15 1011 84 10000 0.97 143 09:51 20.05.2022
3604 Clouds 15 1010 66 10000 0.45 150 08:41 20.05.2022
3605 Clouds 14 1010 58 10000 1.99 310 06:46 20.05.2022
3606 Clouds 14 1010 54 10000 2.82 292 06:21 20.05.2022
3607 Clouds 12 990 73 10000 2.62 275 03:53 20.05.2022
3608 Clouds 12 1010 53 10000 2.73 274 00:24 20.05.2022
3609 Clouds 14 1010 43 10000 0.45 269 22:44 19.05.2022
3610 Clouds 15 1010 39 10000 0.45 198 21:53 19.05.2022
3611 Clouds 15 1011 39 10000 0.45 170 21:24 19.05.2022
3612 Clouds 15 991 35 10000 2.36 315 20:58 19.05.2022
3613 Clouds 16 1020 33 10000 0.45 245 20:21 19.05.2022
3614 Clouds 17 1010 32 10000 0.45 66 19:34 19.05.2022
3615 Clouds 19 1021 27 10000 4.6 317 17:52 19.05.2022
3616 Clouds 20 1022 27 10000 5.28 311 16:22 19.05.2022
3617 Clouds 19 1022 34 10000 5.47 314 14:52 19.05.2022
3618 Clouds 21 1020 38 10000 0.45 221 14:21 19.05.2022
3619 Clouds 19 993 40 10000 4.97 325 12:23 19.05.2022
3620 Clouds 19 1022 48 10000 0.89 199 10:40 19.05.2022
3621 Clouds 17 1023 55 10000 0.45 318 08:57 19.05.2022
3622 Clear 12 1022 69 10000 0.45 96 07:41 19.05.2022
3623 Clear 8 1013 81 10000 0.89 67 04:38 19.05.2022
3624 Clear 9 1012 79 10000 0.45 214 01:57 19.05.2022
3625 Clear 10 1012 81 10000 0.45 260 23:49 18.05.2022
3626 Clear 10 1012 82 10000 0.45 251 22:46 18.05.2022
3627 Clear 10 1012 79 10000 0.89 59 21:47 18.05.2022
3628 Clear 11 1011 77 10000 0.45 98 21:24 18.05.2022
3629 Clouds 11 1011 78 10000 0.45 196 20:23 18.05.2022
3630 Clouds 11 1010 78 10000 0.45 252 19:32 18.05.2022
3631 Clouds 13 1009 71 10000 1.34 60 18:20 18.05.2022
3632 Clouds 12 1018 74 10000 1.34 357 17:41 18.05.2022
3633 Clouds 12 1018 75 10000 0.89 108 17:22 18.05.2022
3634 Clouds 11 1009 82 10000 0.89 124 15:59 18.05.2022
3635 Clouds 11 1009 82 10000 0.89 124 15:59 18.05.2022
3636 Clouds 11 1008 83 10000 0.45 121 15:38 18.05.2022
3637 Clouds 9 1008 88 10000 0.45 198 14:30 18.05.2022
3638 Clouds 9 1008 88 10000 0.45 198 14:30 18.05.2022
3639 Clouds 9 1007 89 10000 0.45 85 12:59 18.05.2022
3640 Rain 9 1007 89 10000 0.45 87 12:39 18.05.2022
3641 Rain 8 1006 91 10000 0.45 120 11:33 18.05.2022
3642 Rain 8 1006 91 10000 0.45 358 10:49 18.05.2022
3643 Clouds 8 1006 79 10000 0.45 105 08:29 18.05.2022
3644 Clouds 7 1005 81 10000 0.89 344 07:28 18.05.2022
3645 Clear 7 1004 74 10000 0.89 119 04:33 18.05.2022
3646 Clouds 7 1014 63 10000 3.45 326 00:52 18.05.2022
3647 Clouds 10 984 56 10000 3.46 319 00:18 18.05.2022
3648 Clouds 12 1002 46 10000 0.45 49 21:24 17.05.2022
3649 Clouds 12 1011 47 10000 0.45 142 20:57 17.05.2022
3650 Clouds 11 1013 45 10000 3.61 312 19:45 17.05.2022
3651 Clouds 15 1013 36 10000 3.84 318 19:25 17.05.2022
3652 Clouds 16 1013 28 10000 5.18 322 17:49 17.05.2022
3653 Clouds 17 1013 27 10000 5.96 320 16:58 17.05.2022
3654 Clouds 18 1013 24 10000 6.29 314 16:24 17.05.2022
3655 Clouds 19 1013 20 10000 6.64 311 14:56 17.05.2022
3656 Clouds 20 982 21 10000 7.2 308 14:29 17.05.2022
3657 Clouds 19 1011 35 10000 0.89 216 13:30 17.05.2022
3658 Clouds 19 1012 36 10000 0.89 148 10:43 17.05.2022
3659 Clouds 16 1004 44 10000 0.45 86 08:55 17.05.2022
3660 Clouds 14 1004 51 10000 0.45 93 07:57 17.05.2022
3661 Clouds 10 986 44 10000 3.75 269 06:27 17.05.2022
3662 Clouds 7 1015 66 10000 2.46 273 01:59 17.05.2022
3663 Clouds 10 1006 56 10000 0.45 284 23:59 16.05.2022
3664 Clouds 11 1006 51 10000 0.45 15 22:40 16.05.2022
3665 Clouds 12 1006 51 10000 2.59 347 21:31 16.05.2022
3666 Clouds 14 1006 42 10000 0.45 27 20:43 16.05.2022
3667 Clouds 16 1005 41 10000 0.89 59 19:19 16.05.2022
3668 Clouds 17 1016 41 10000 4.38 330 17:34 16.05.2022
3669 Clouds 18 986 37 10000 4.73 321 15:36 16.05.2022
3670 Clouds 18 986 34 10000 5.13 327 13:48 16.05.2022
3671 Clouds 19 1005 42 10000 1.34 239 12:44 16.05.2022
3672 Clear 18 1015 46 10000 0.89 246 10:38 16.05.2022
3673 Clear 15 1006 53 10000 0.89 24 08:32 16.05.2022
3674 Clear 11 1006 73 10000 0.89 8 06:30 16.05.2022
3675 Clouds 10 987 100 10000 3.33 295 01:44 16.05.2022
3676 Clouds 12 986 99 10000 3.73 294 22:52 15.05.2022
3677 Clouds 13 986 100 10000 3.73 297 22:25 15.05.2022
3678 Clouds 13 986 72 10000 3.73 297 21:38 15.05.2022
3679 Clouds 11 1016 70 10000 3.89 303 20:53 15.05.2022
3680 Clouds 16 1014 50 10000 4.96 306 18:52 15.05.2022
3681 Clouds 17 1013 47 10000 5.35 303 17:29 15.05.2022
3682 Clouds 19 1011 45 10000 0.89 264 14:58 15.05.2022
3683 Clouds 18 983 46 10000 6.33 313 13:46 15.05.2022
3684 Clouds 18 1002 54 10000 0.89 224 12:19 15.05.2022
3685 Clouds 17 1002 57 10000 0.89 84 11:27 15.05.2022
3686 Clouds 16 1003 66 10000 0.45 127 09:57 15.05.2022
3687 Clouds 12 1003 80 10000 0.45 177 07:25 15.05.2022
3688 Clouds 11 1003 81 10000 4.99 288 06:56 15.05.2022
3689 Clouds 10 1003 82 10000 0.45 289 03:40 15.05.2022
3690 Clouds 12 1003 74 10000 0.89 217 00:42 15.05.2022
3691 Clouds 12 984 100 10000 4.32 280 23:37 14.05.2022
3692 Clouds 14 1002 66 10000 0.45 58 22:39 14.05.2022
3693 Clear 14 1002 65 10000 0.45 94 21:26 14.05.2022
3694 Clouds 14 1002 62 10000 0.45 281 20:28 14.05.2022
3695 Clouds 16 1001 57 10000 0.89 291 19:21 14.05.2022
3696 Clouds 16 1001 54 10000 0.89 154 18:59 14.05.2022
3697 Clouds 17 1001 50 10000 0.89 61 17:53 14.05.2022
3698 Clouds 19 1011 48 10000 4.37 319 16:23 14.05.2022
3699 Clouds 19 1009 54 10000 0.45 124 14:40 14.05.2022
3700 Clouds 19 1000 53 10000 0.89 223 14:22 14.05.2022
3701 Clouds 18 1000 58 10000 0.45 28 11:48 14.05.2022
3702 Clouds 18 1000 58 10000 0.45 257 10:45 14.05.2022
3703 Clouds 19 1000 58 10000 0.45 145 10:19 14.05.2022
3704 Clouds 18 981 76 10000 4.77 345 09:25 14.05.2022
3705 Clouds 17 999 71 10000 0.45 197 07:34 14.05.2022
3706 Clouds 13 1000 81 10000 1.69 257 04:49 14.05.2022
3707 Clouds 14 1002 69 10000 0.45 211 01:42 14.05.2022
3708 Clouds 13 1003 66 10000 0.92 248 23:28 13.05.2022
3709 Clouds 14 1002 65 10000 0.95 246 22:55 13.05.2022
3710 Clouds 14 1002 63 10000 1.57 233 22:21 13.05.2022
3711 Clouds 17 984 65 10000 1.84 224 20:59 13.05.2022
3712 Clouds 17 1012 57 10000 1.84 224 20:38 13.05.2022
3713 Clouds 17 1012 57 10000 2.31 213 20:20 13.05.2022
3714 Clouds 18 984 62 10000 2.1 220 19:18 13.05.2022
3715 Clouds 17 1014 56 10000 1.89 251 17:47 13.05.2022
3716 Clouds 17 1015 56 10000 2.2 277 17:23 13.05.2022
3717 Clouds 18 1015 51 10000 3.65 282 15:47 13.05.2022
3718 Clouds 17 1016 53 10000 3.58 282 14:45 13.05.2022
3719 Clouds 20 1014 47 10000 0.89 186 12:54 13.05.2022
3720 Clouds 20 1014 50 10000 0.45 74 11:56 13.05.2022
3721 Clouds 19 1015 53 10000 0.45 135 10:19 13.05.2022
3722 Clouds 16 987 44 10000 4.68 302 09:29 13.05.2022
3723 Clouds 17 1014 63 10000 0.45 239 07:52 13.05.2022
3724 Clouds 15 1014 70 10000 0.45 116 07:26 13.05.2022
3725 Clouds 12 1005 76 10000 0.45 330 05:31 13.05.2022
3726 Clouds 16 1003 85 10000 0.89 337 01:21 13.05.2022
3727 Clouds 16 984 100 10000 4.04 292 23:23 12.05.2022
3728 Rain 16 1002 87 10000 4.04 292 22:34 12.05.2022
3729 Clouds 17 1001 88 10000 5.39 271 21:26 12.05.2022
3730 Rain 18 999 85 10000 0.89 61 19:51 12.05.2022
3731 Clouds 24 1008 53 10000 8.05 248 18:27 12.05.2022
3732 Clouds 28 1008 18 10000 8.36 242 16:45 12.05.2022
3733 Clear 28 1010 19 10000 7.65 242 14:57 12.05.2022
3734 Clouds 26 1011 43 10000 7.65 244 13:50 12.05.2022
3735 Clouds 27 982 47 10000 6.95 235 11:55 12.05.2022
3736 Clouds 19 1013 60 10000 5.41 225 10:32 12.05.2022
3737 Clouds 18 1013 60 10000 5.16 224 08:53 12.05.2022
3738 Clouds 17 1013 59 10000 5.15 224 08:35 12.05.2022
3739 Clouds 17 985 62 10000 3.93 226 07:25 12.05.2022
3740 Clouds 11 1015 74 10000 3.34 231 04:32 12.05.2022
3741 Clouds 13 1016 60 10000 3.28 241 01:30 12.05.2022
3742 Clouds 15 1013 47 10000 0.45 110 23:36 11.05.2022
3743 Clouds 14 1013 53 10000 3.08 234 22:21 11.05.2022
3744 Clouds 13 1013 54 10000 2.88 229 21:26 11.05.2022
3745 Clouds 13 1013 54 10000 2.88 229 21:26 11.05.2022
3746 Clouds 17 985 41 10000 2.43 235 20:20 11.05.2022
3747 Clouds 19 1016 28 10000 2.81 272 17:37 11.05.2022
3748 Clouds 19 1016 25 10000 3.8 293 16:27 11.05.2022
3749 Clouds 21 1016 22 10000 3.82 297 14:48 11.05.2022
3750 Clouds 21 1017 23 10000 3.86 298 14:25 11.05.2022
3751 Clouds 18 1017 33 10000 3.41 297 13:25 11.05.2022
3752 Clouds 20 1015 32 10000 0.45 335 11:48 11.05.2022
3753 Clouds 13 988 41 10000 2.82 318 09:30 11.05.2022
3754 Clouds 10 989 45 10000 2.94 300 06:36 11.05.2022
3755 Clouds 10 989 100 10000 1.36 293 02:27 11.05.2022
3756 Clouds 9 1009 53 10000 1.74 15 22:58 10.05.2022
3757 Clouds 10 1009 51 10000 2.21 18 22:30 10.05.2022
3758 Clouds 10 1018 49 10000 2.21 18 21:41 10.05.2022
3759 Clouds 11 1018 44 10000 0.45 333 20:47 10.05.2022
3760 Clouds 12 1021 47 10000 3.61 35 18:57 10.05.2022
3761 Clouds 13 1020 39 10000 4.23 11 17:38 10.05.2022
3762 Clouds 15 1021 34 10000 4.41 354 16:35 10.05.2022
3763 Clouds 17 1021 34 10000 0.45 1 13:31 10.05.2022
3764 Clouds 17 1022 34 10000 0.45 28 11:54 10.05.2022
3765 Clouds 16 993 33 10000 3.08 337 11:34 10.05.2022
3766 Clouds 16 1022 35 10000 0.45 126 10:56 10.05.2022
3767 Clouds 15 1023 35 10000 1.34 63 09:47 10.05.2022
3768 Clear 14 1024 43 10000 0.89 1 08:18 10.05.2022
3769 Clear 10 1024 67 10000 0.89 67 06:20 10.05.2022
3770 Clouds 7 1027 60 10000 1.26 7 02:23 10.05.2022
3771 Clouds 7 1027 60 10000 2.16 34 23:53 09.05.2022
3772 Clouds 11 1024 44 10000 0.45 326 22:36 09.05.2022
3773 Clouds 9 1027 58 10000 2.76 34 21:39 09.05.2022
3774 Clouds 13 1023 44 10000 0.45 326 20:21 09.05.2022
3775 Clouds 16 1022 36 10000 0.45 67 18:26 09.05.2022
3776 Clouds 15 1025 34 10000 4.51 8 17:26 09.05.2022
3777 Clouds 15 1025 31 10000 4.98 5 16:19 09.05.2022
3778 Clouds 15 1025 31 10000 4.98 5 15:47 09.05.2022
3779 Clouds 19 1023 31 10000 1.34 28 14:36 09.05.2022
3780 Clouds 18 1023 34 10000 0.89 50 13:58 09.05.2022
3781 Clouds 17 1023 37 10000 0.89 64 13:22 09.05.2022
3782 Clouds 17 1023 42 10000 1.34 25 11:53 09.05.2022
3783 Clouds 17 1023 53 10000 0.89 38 10:48 09.05.2022
3784 Clouds 13 1025 51 10000 5.83 21 10:23 09.05.2022
3785 Clouds 10 1024 83 10000 4.95 13 07:57 09.05.2022
3786 Clouds 13 1020 88 10000 0.89 325 05:53 09.05.2022
3787 Clouds 11 990 86 10000 2.17 280 00:59 09.05.2022
3788 Clouds 15 1019 72 10000 0.45 47 23:28 08.05.2022
3789 Clouds 15 1019 71 10000 3.15 242 22:32 08.05.2022
3790 Clear 14 1019 73 10000 2.98 240 21:20 08.05.2022
3791 Clouds 15 1019 72 10000 2.98 238 20:23 08.05.2022
3792 Clouds 17 1018 65 10000 2.92 228 19:33 08.05.2022
3793 Clouds 19 1018 60 10000 3.16 241 18:35 08.05.2022
3794 Clouds 19 1018 58 10000 3.98 249 17:39 08.05.2022
3795 Clouds 19 1019 61 10000 0.45 11 15:46 08.05.2022
3796 Clouds 21 991 45 10000 4.5 247 15:22 08.05.2022
3797 Rain 19 1021 50 10000 4.42 239 12:46 08.05.2022
3798 Rain 18 1022 53 10000 4.36 235 10:59 08.05.2022
3799 Clouds 20 993 57 10000 3.9 243 10:22 08.05.2022
3800 Clouds 19 993 57 10000 3.9 243 09:51 08.05.2022
3801 Clouds 15 992 59 10000 3.6 234 07:43 08.05.2022
3802 Clouds 13 1020 59 10000 0.45 185 05:22 08.05.2022
3803 Clouds 14 1020 56 10000 0.45 131 03:21 08.05.2022
3804 Clouds 14 1021 62 10000 3.86 195 00:42 08.05.2022
3805 Clouds 16 993 59 10000 3.96 186 23:55 07.05.2022
3806 Clouds 15 1021 52 10000 4.23 176 22:59 07.05.2022
3807 Clouds 15 1021 52 10000 4.23 176 22:35 07.05.2022
3808 Clouds 15 1021 52 10000 3.84 167 21:55 07.05.2022
3809 Clouds 16 1021 48 10000 4.23 152 21:20 07.05.2022
3810 Clouds 16 1021 48 10000 1.97 168 19:59 07.05.2022
3811 Clouds 18 993 52 10000 1.73 167 18:41 07.05.2022
3812 Clouds 19 993 42 10000 3.65 221 16:19 07.05.2022
3813 Clouds 17 1023 40 10000 4.08 207 14:46 07.05.2022
3814 Clouds 19 995 41 10000 4.89 180 11:21 07.05.2022
3815 Clouds 17 995 45 10000 4.63 180 09:39 07.05.2022
3816 Clouds 15 995 53 10000 4.01 176 08:28 07.05.2022
3817 Clouds 11 995 58 10000 3.6 172 06:44 07.05.2022
3818 Clouds 10 994 63 10000 3.01 164 05:41 07.05.2022
3819 Clouds 10 994 64 10000 3 158 03:54 07.05.2022
3820 Clouds 11 1024 53 10000 3.04 152 23:39 06.05.2022
3821 Clouds 12 1024 48 10000 0.45 131 22:33 06.05.2022
3822 Clouds 12 1024 47 10000 0.45 215 21:47 06.05.2022
3823 Clouds 14 1024 43 10000 0.45 180 20:37 06.05.2022
3824 Clouds 12 1026 53 10000 3.54 142 19:42 06.05.2022
3825 Clouds 13 1026 53 10000 3.77 134 19:19 06.05.2022
3826 Clouds 15 1025 49 10000 3.91 133 18:24 06.05.2022
3827 Clouds 16 1026 42 10000 3.66 143 16:57 06.05.2022
3828 Clouds 17 1026 38 10000 3.47 146 15:47 06.05.2022
3829 Clouds 17 1026 37 10000 3.3 147 14:58 06.05.2022
3830 Clouds 16 1027 38 10000 3.15 147 13:31 06.05.2022
3831 Clouds 16 1027 38 10000 3.15 147 12:41 06.05.2022
3832 Clear 15 1028 39 10000 3.12 146 11:49 06.05.2022
3833 Clear 15 1028 41 10000 2.9 147 10:34 06.05.2022
3834 Clear 15 998 44 10000 2.67 148 09:46 06.05.2022
3835 Clear 13 998 50 10000 2.52 148 08:43 06.05.2022
3836 Clear 11 1027 54 10000 0.45 180 07:26 06.05.2022
3837 Clear 7 1026 57 10000 2.48 138 05:48 06.05.2022
3838 Clouds 7 1026 53 10000 2.02 126 02:51 06.05.2022
3839 Clouds 7 1026 54 10000 2.1 123 01:31 06.05.2022
3840 Clouds 7 1025 59 10000 2.12 114 22:32 05.05.2022
3841 Clouds 8 1025 59 10000 2.42 108 21:22 05.05.2022
3842 Clouds 10 1025 53 10000 2.45 98 20:26 05.05.2022
3843 Clouds 10 1027 49 10000 2.73 88 18:35 05.05.2022
3844 Clouds 13 1026 35 10000 3.29 76 16:35 05.05.2022
3845 Clouds 13 1026 34 10000 3.37 71 14:51 05.05.2022
3846 Clear 13 1026 33 10000 3.46 60 13:24 05.05.2022
3847 Clear 15 1024 32 10000 0.89 330 12:49 05.05.2022
3848 Clouds 13 996 35 10000 3.82 57 10:48 05.05.2022
3849 Clouds 11 996 36 10000 3.91 55 09:40 05.05.2022
3850 Clouds 9 1024 56 10000 0.45 63 07:35 05.05.2022
3851 Clouds 5 1023 65 10000 0.45 265 05:19 05.05.2022
3852 Clouds 5 1023 64 10000 0.45 325 05:19 05.05.2022
3853 Clouds 5 1021 61 10000 3.56 30 01:59 05.05.2022
3854 Clouds 6 1021 60 10000 3.75 28 01:29 05.05.2022
3855 Clouds 7 1021 55 10000 0.45 351 23:52 04.05.2022
3856 Clear 9 1020 53 10000 0.45 325 22:42 04.05.2022
3857 Clear 9 1019 50 10000 0.45 32 21:50 04.05.2022
3858 Clear 10 1019 51 10000 0.45 48 21:29 04.05.2022
3859 Clouds 11 1017 41 10000 0.45 2 20:27 04.05.2022
3860 Clouds 11 989 47 10000 4.9 21 19:53 04.05.2022
3861 Clouds 10 1019 41 10000 5.13 9 19:18 04.05.2022
3862 Clouds 12 1018 36 10000 5.88 2 18:22 04.05.2022
3863 Clouds 12 1018 35 10000 5.86 2 17:51 04.05.2022
3864 Clouds 14 1017 37 10000 6.42 350 15:42 04.05.2022
3865 Clouds 15 1017 38 10000 6.3 347 15:23 04.05.2022
3866 Clouds 15 1016 39 10000 5.95 354 14:21 04.05.2022
3867 Clouds 15 1016 43 10000 6.21 359 13:35 04.05.2022
3868 Clouds 17 1014 42 10000 0.89 19 12:33 04.05.2022
3869 Clouds 15 1014 50 10000 0.89 5 10:41 04.05.2022
3870 Clouds 16 1013 54 10000 0.89 4 09:44 04.05.2022
3871 Clouds 15 1013 59 10000 0.89 336 08:47 04.05.2022
3872 Clouds 14 1013 59 10000 0.89 35 08:47 04.05.2022
3873 Clouds 12 1012 66 10000 0.45 56 06:47 04.05.2022
3874 Clouds 12 982 86 10000 2.41 289 02:59 04.05.2022
3875 Clouds 13 982 81 10000 3.04 279 00:38 04.05.2022
3876 Clouds 13 1010 63 10000 2.78 245 22:40 03.05.2022
3877 Clouds 12 1010 68 10000 2.57 229 21:46 03.05.2022
3878 Clouds 12 1010 67 10000 2.47 226 20:54 03.05.2022
3879 Clouds 14 1010 63 10000 3.79 236 19:59 03.05.2022
3880 Rain 14 1012 66 10000 4.09 236 18:54 03.05.2022
3881 Clouds 18 1010 48 10000 4.78 224 18:21 03.05.2022
3882 Clouds 17 1012 51 10000 3.9 221 16:44 03.05.2022
3883 Clouds 17 1011 53 10000 0.45 333 15:38 03.05.2022
3884 Clouds 18 1013 41 10000 4.25 246 12:47 03.05.2022
3885 Clouds 20 984 44 10000 4.55 234 12:27 03.05.2022
3886 Clouds 19 985 48 10000 4.97 232 10:57 03.05.2022
3887 Clouds 17 986 48 10000 4.59 233 09:35 03.05.2022
3888 Clouds 13 1015 57 10000 3.52 219 07:33 03.05.2022
3889 Clouds 14 1013 57 10000 3.04 205 06:45 03.05.2022
3890 Clouds 10 1014 62 10000 1.74 248 01:47 03.05.2022
3891 Clouds 14 1015 47 10000 1.96 212 22:39 02.05.2022
3892 Clouds 15 1015 43 10000 0.45 209 21:54 02.05.2022
3893 Clouds 15 1015 44 10000 0.45 242 21:23 02.05.2022
3894 Clouds 14 1017 54 10000 2.94 163 18:46 02.05.2022
3895 Clouds 15 1017 50 10000 3.02 167 18:25 02.05.2022
3896 Clouds 15 1017 50 10000 3.02 167 17:37 02.05.2022
3897 Clouds 19 988 41 10000 3.09 187 16:23 02.05.2022
3898 Clouds 17 1018 38 10000 3.26 191 15:31 02.05.2022
3899 Clouds 17 1018 37 10000 3.51 195 13:53 02.05.2022
3900 Clouds 17 1019 37 10000 3.32 191 12:27 02.05.2022
3901 Clouds 16 1020 38 10000 3.17 191 10:51 02.05.2022
3902 Clouds 15 991 44 10000 2.79 196 09:30 02.05.2022
3903 Clouds 15 1020 48 10000 2.15 203 07:52 02.05.2022
3904 Clouds 10 1020 56 10000 2.08 207 04:36 02.05.2022
3905 Clouds 9 1020 59 10000 2.03 202 00:25 02.05.2022
3906 Clouds 9 1020 60 10000 2.03 202 23:52 01.05.2022
3907 Clouds 9 1021 63 10000 1.92 201 22:39 01.05.2022
3908 Clouds 9 1021 61 10000 1.87 168 21:26 01.05.2022
3909 Clouds 10 1020 55 10000 1.75 146 20:19 01.05.2022
3910 Clouds 13 1020 48 10000 1.4 107 18:59 01.05.2022
3911 Clouds 15 1020 42 10000 1.4 107 18:39 01.05.2022
3912 Clouds 17 1020 35 10000 0.45 134 17:38 01.05.2022
3913 Clouds 17 1021 34 10000 0.45 346 16:24 01.05.2022
3914 Clouds 15 1022 34 10000 1.7 57 15:38 01.05.2022
3915 Clouds 15 1022 34 10000 1.41 70 13:52 01.05.2022
3916 Clouds 17 1023 37 10000 0.89 343 11:28 01.05.2022
3917 Clouds 13 1024 39 10000 1.82 62 09:32 01.05.2022
3918 Clouds 15 1023 48 10000 0.45 119 08:42 01.05.2022
3919 Clouds 5 1023 84 10000 0.89 73 03:44 01.05.2022
3920 Clouds 6 1022 76 10000 1.63 65 00:29 01.05.2022
3921 Clouds 7 1022 69 10000 1.98 37 21:51 30.04.2022
3922 Clouds 9 1022 66 10000 1.7 39 21:18 30.04.2022
3923 Clouds 11 1022 57 10000 2.62 47 19:45 30.04.2022
3924 Clouds 14 1021 47 10000 0.45 44 18:28 30.04.2022
3925 Clouds 16 1021 39 10000 0.89 350 16:50 30.04.2022
3926 Clouds 16 1021 40 10000 0.45 325 15:48 30.04.2022
3927 Clouds 16 1022 44 10000 0.45 93 14:53 30.04.2022
3928 Clouds 15 1022 44 10000 0.45 349 13:20 30.04.2022
3929 Clouds 16 1022 51 10000 0.45 323 11:34 30.04.2022
3930 Clouds 16 1022 55 10000 0.89 10 10:49 30.04.2022
3931 Clouds 14 1023 56 10000 0.45 46 09:48 30.04.2022
3932 Clouds 11 1023 76 10000 1.11 85 06:48 30.04.2022
3933 Rain 8 1025 86 10000 0.42 257 02:55 30.04.2022
3934 Clouds 11 995 69 10000 0.97 124 23:53 29.04.2022
3935 Clouds 12 995 67 10000 1.35 117 22:34 29.04.2022
3936 Clouds 12 1023 60 10000 1.35 117 21:54 29.04.2022
3937 Clouds 12 995 65 10000 1.32 105 20:51 29.04.2022
3938 Clouds 13 995 61 10000 1.53 73 19:47 29.04.2022
3939 Clouds 15 1022 45 10000 1.94 48 18:36 29.04.2022
3940 Clouds 13 1024 47 10000 2.08 27 17:25 29.04.2022
3941 Clouds 14 1024 44 10000 2.54 11 15:50 29.04.2022
3942 Clouds 16 1023 42 10000 0.89 312 14:23 29.04.2022
3943 Clouds 16 1024 43 10000 0.45 352 13:22 29.04.2022
3944 Clouds 15 1025 44 10000 0.89 43 11:50 29.04.2022
3945 Clouds 10 1027 59 10000 2.24 29 08:53 29.04.2022
3946 Clouds 10 1025 62 10000 0.45 325 07:28 29.04.2022
3947 Clouds 10 1025 62 10000 0.45 325 07:28 29.04.2022
3948 Clouds 9 1025 67 10000 0.45 347 06:46 29.04.2022
3949 Clouds 7 1025 71 10000 0.45 72 05:44 29.04.2022
3950 Clouds 8 1024 66 10000 1.71 43 00:46 29.04.2022
3951 Clouds 9 1024 61 10000 1.66 55 23:34 28.04.2022
3952 Clouds 10 1024 59 10000 1.66 55 22:44 28.04.2022
3953 Clouds 10 1024 54 10000 1.76 64 21:47 28.04.2022
3954 Clouds 11 1023 51 10000 2.13 60 21:22 28.04.2022
3955 Clouds 11 1023 52 10000 2.13 60 20:35 28.04.2022
3956 Clouds 12 1023 50 10000 2.64 46 19:46 28.04.2022
3957 Clouds 13 1022 47 10000 2.94 36 19:23 28.04.2022
3958 Clouds 11 1024 49 10000 2.94 36 18:36 28.04.2022
3959 Clouds 16 1021 39 10000 0.45 10 17:26 28.04.2022
3960 Clouds 17 1022 38 10000 0.45 335 16:41 28.04.2022
3961 Clouds 15 1023 36 10000 3.04 21 16:19 28.04.2022
3962 Clouds 17 1022 40 10000 0.89 322 15:29 28.04.2022
3963 Clouds 15 1024 36 10000 2.96 9 14:20 28.04.2022
3964 Clouds 16 1023 39 10000 0.45 38 12:44 28.04.2022
3965 Clouds 14 1023 44 10000 0.45 39 11:59 28.04.2022
3966 Clouds 16 1023 43 10000 0.89 22 10:46 28.04.2022
3967 Clouds 15 1023 44 10000 0.89 46 09:56 28.04.2022
3968 Clouds 12 1022 65 10000 0.45 82 08:31 28.04.2022
3969 Clouds 11 1022 68 10000 0.89 332 07:19 28.04.2022
3970 Clear 10 1021 77 10000 0.89 38 05:56 28.04.2022
3971 Clear 10 1021 76 10000 1.59 4 05:38 28.04.2022
3972 Clear 10 1021 71 10000 0.45 356 04:39 28.04.2022
3973 Clouds 11 1021 66 10000 1.55 10 00:30 28.04.2022
3974 Clouds 11 1020 63 10000 2.09 23 22:39 27.04.2022
3975 Clouds 11 1020 61 10000 2.36 17 21:55 27.04.2022
3976 Clouds 11 1020 59 10000 1.87 4 21:18 27.04.2022
3977 Clouds 11 1020 60 10000 1.87 4 20:37 27.04.2022
3978 Clouds 14 1019 51 10000 1.03 337 19:38 27.04.2022
3979 Clouds 14 1019 52 10000 1.25 342 19:18 27.04.2022
3980 Clouds 15 1018 48 10000 0.45 31 18:22 27.04.2022
3981 Clouds 16 1018 43 10000 0.45 328 16:58 27.04.2022
3982 Clouds 16 1018 50 10000 0.45 37 14:33 27.04.2022
3983 Clouds 17 1018 52 10000 0.89 29 12:23 27.04.2022
3984 Clouds 17 1018 54 10000 0.45 291 11:20 27.04.2022
3985 Clouds 12 989 54 10000 3.77 308 09:20 27.04.2022
3986 Clouds 11 1016 80 10000 0.45 289 07:18 27.04.2022
3987 Clouds 10 1015 87 10000 3.45 284 04:30 27.04.2022
3988 Clouds 10 1014 87 10000 0.45 98 01:32 27.04.2022
3989 Clouds 11 1014 87 10000 0.45 230 00:37 27.04.2022
3990 Clouds 11 1013 88 10000 0.45 162 23:25 26.04.2022
3991 Clouds 11 1013 89 10000 0.89 136 22:58 26.04.2022
3992 Clouds 11 1013 90 10000 0.45 231 22:39 26.04.2022
3993 Rain 11 1013 91 10000 0.89 233 21:35 26.04.2022
3994 Rain 11 1013 91 10000 0.45 242 20:41 26.04.2022
3995 Rain 11 1012 91 10000 0.45 300 19:53 26.04.2022
3996 Rain 11 1011 91 10000 0.89 354 19:32 26.04.2022
3997 Clouds 12 1011 90 10000 0.89 227 18:44 26.04.2022
3998 Rain 13 1010 90 10000 0.45 233 17:59 26.04.2022
3999 Rain 15 1009 83 10000 0.45 223 16:49 26.04.2022
4000 Clouds 13 1010 73 10000 5.8 299 13:59 26.04.2022
4001 Clouds 16 1008 71 10000 0.89 296 13:32 26.04.2022
4002 Clouds 15 1008 78 10000 0.45 269 11:55 26.04.2022
4003 Clouds 13 1008 78 10000 5.94 293 10:37 26.04.2022
4004 Clouds 12 1007 89 10000 4.45 276 09:25 26.04.2022
4005 Rain 12 1006 90 10000 0.45 240 07:22 26.04.2022
4006 Rain 12 1004 91 10000 0.45 277 04:23 26.04.2022
4007 Rain 14 1005 87 8494 0.45 224 01:25 26.04.2022
4008 Clouds 15 1005 75 10000 0.45 162 00:26 26.04.2022
4009 Clouds 16 1005 69 10000 0.45 217 22:33 25.04.2022
4010 Clouds 16 1005 70 10000 2.13 171 21:40 25.04.2022
4011 Clouds 14 1005 74 10000 1.98 185 20:39 25.04.2022
4012 Clouds 14 1006 79 10000 2.09 207 18:55 25.04.2022
4013 Clouds 15 1006 74 10000 2.75 206 17:54 25.04.2022
4014 Clouds 17 1007 69 10000 3.48 198 16:55 25.04.2022
4015 Clouds 16 1008 71 10000 4.3 194 15:29 25.04.2022
4016 Clouds 16 1008 71 10000 4.3 194 14:38 25.04.2022
4017 Rain 16 1008 67 10000 4.67 212 13:32 25.04.2022
4018 Clouds 17 1008 60 10000 5.45 208 11:38 25.04.2022
4019 Clouds 17 1008 56 10000 6.73 191 10:23 25.04.2022
4020 Clouds 16 1008 62 10000 5.92 198 08:39 25.04.2022
4021 Clouds 11 1007 76 10000 5.22 157 06:39 25.04.2022
4022 Clear 10 1008 80 10000 3.48 181 03:47 25.04.2022
4023 Clear 10 1009 74 10000 3.08 173 00:43 25.04.2022
4024 Clear 10 1008 75 10000 3.11 172 23:51 24.04.2022
4025 Clear 10 1008 76 10000 3.03 169 22:41 24.04.2022
4026 Clear 10 1008 75 10000 2.65 165 22:20 24.04.2022
4027 Clear 10 1009 73 10000 2.55 182 21:26 24.04.2022
4028 Clear 11 1009 70 10000 2.55 182 20:48 24.04.2022
4029 Clear 11 1009 68 10000 2.41 180 20:29 24.04.2022
4030 Clear 12 1009 64 10000 2.41 180 19:45 24.04.2022
4031 Clear 17 1008 51 10000 0.45 342 18:20 24.04.2022
4032 Clear 19 1008 45 10000 0.45 84 17:27 24.04.2022
4033 Clear 16 1010 43 10000 3.34 237 16:58 24.04.2022
4034 Clear 16 1010 43 10000 3.34 237 16:32 24.04.2022
4035 Clear 16 1010 41 10000 3.56 245 15:54 24.04.2022
4036 Clear 16 1010 41 10000 3.74 253 14:58 24.04.2022
4037 Clouds 16 1010 43 10000 3.53 264 13:51 24.04.2022
4038 Clouds 15 1010 45 10000 3.61 264 13:24 24.04.2022
4039 Clouds 14 1010 46 10000 3.69 261 11:56 24.04.2022
4040 Clouds 13 1010 48 10000 3.85 262 11:27 24.04.2022
4041 Clouds 14 1008 63 10000 0.89 254 09:55 24.04.2022
4042 Clouds 13 1007 71 10000 0.89 90 08:51 24.04.2022
4043 Clouds 10 1006 90 10000 0.89 248 06:18 24.04.2022
4044 Clouds 10 1005 91 10000 0.45 240 03:37 24.04.2022
4045 Rain 11 1005 86 10000 2.86 300 01:18 24.04.2022
4046 Clouds 11 1005 79 10000 0.45 151 23:57 23.04.2022
4047 Clouds 11 1005 78 10000 0.45 113 23:25 23.04.2022
4048 Clouds 11 1005 77 10000 0.89 199 22:46 23.04.2022
4049 Clouds 12 1005 74 10000 0.45 264 21:49 23.04.2022
4050 Clouds 12 1005 73 10000 0.89 193 21:31 23.04.2022
4051 Clouds 14 1005 67 10000 0.45 51 20:27 23.04.2022
4052 Clouds 15 1005 60 10000 0.45 228 19:21 23.04.2022
4053 Clouds 15 1005 60 10000 0.45 102 18:55 23.04.2022
4054 Clouds 15 1005 59 10000 0.89 341 18:32 23.04.2022
4055 Clouds 16 1005 55 10000 0.89 124 17:48 23.04.2022
4056 Clouds 16 1005 50 10000 1.34 192 16:47 23.04.2022
4057 Clouds 16 1006 52 10000 5.94 170 15:54 23.04.2022
4058 Clouds 17 1008 43 10000 7.55 165 13:33 23.04.2022
4059 Clouds 15 1009 47 10000 7.7 159 11:57 23.04.2022
4060 Clouds 12 1009 76 10000 1.34 104 10:37 23.04.2022
4061 Clouds 9 1010 88 10000 0.89 189 08:27 23.04.2022
4062 Rain 7 1010 92 10000 0.89 126 05:27 23.04.2022
4063 Clouds 9 1010 86 10000 0.89 244 03:32 23.04.2022
4064 Clouds 10 1012 89 10000 0.45 141 23:38 22.04.2022
4065 Clouds 10 1012 89 10000 0.45 215 23:20 22.04.2022
4066 Clouds 10 1012 88 10000 0.45 254 21:58 22.04.2022
4067 Clouds 11 1012 87 10000 0.45 47 21:39 22.04.2022
4068 Clouds 10 1013 87 10000 0.45 319 20:35 22.04.2022
4069 Clouds 11 1013 86 10000 3.37 110 19:27 22.04.2022
4070 Clouds 11 1013 86 10000 0.45 123 18:57 22.04.2022
4071 Clouds 11 1013 87 10000 3.12 115 18:26 22.04.2022
4072 Clouds 11 1013 86 10000 0.45 243 17:24 22.04.2022
4073 Clouds 11 1014 86 10000 0.45 37 15:59 22.04.2022
4074 Clouds 11 1014 86 10000 0.45 129 15:30 22.04.2022
4075 Clouds 10 1014 87 10000 0.45 139 14:38 22.04.2022
4076 Clouds 9 1014 90 10000 0.45 80 13:41 22.04.2022
4077 Clouds 8 1015 91 10000 0.45 70 12:47 22.04.2022
4078 Rain 8 1014 92 10000 0.89 219 11:23 22.04.2022
4079 Clouds 8 1014 91 10000 0.45 173 10:56 22.04.2022
4080 Clouds 8 1014 92 10000 0.45 91 10:34 22.04.2022
4081 Clouds 7 1014 92 10000 0.45 25 09:57 22.04.2022
4082 Rain 7 1013 93 10000 5.48 152 09:21 22.04.2022
4083 Rain 7 1013 93 10000 0.45 224 08:42 22.04.2022
4084 Rain 6 1012 94 10000 5.83 134 06:38 22.04.2022
4085 Rain 6 1012 94 10000 0.45 109 01:24 22.04.2022
4086 Clouds 6 1012 93 10000 0.89 114 23:33 21.04.2022
4087 Clouds 6 1012 92 10000 0.45 147 22:43 21.04.2022
4088 Clouds 6 1012 90 10000 0.45 211 21:36 21.04.2022
4089 Clouds 7 1012 86 10000 3.44 131 20:30 21.04.2022
4090 Clouds 7 1011 84 10000 0.89 139 18:49 21.04.2022
4091 Clouds 7 1010 82 10000 0.89 197 18:28 21.04.2022
4092 Clouds 8 1010 79 10000 0.45 173 17:19 21.04.2022
4093 Clouds 8 1009 83 10000 0.45 170 15:25 21.04.2022
4094 Clouds 7 1009 86 10000 0.45 135 14:52 21.04.2022
4095 Clouds 7 1009 87 10000 0.45 234 14:18 21.04.2022
4096 Clouds 7 1009 85 10000 0.45 40 13:21 21.04.2022
4097 Clouds 7 1008 86 10000 0.45 121 12:22 21.04.2022
4098 Clouds 7 1007 88 10000 0.45 225 09:33 21.04.2022
4099 Clouds 6 1007 91 10000 0.45 123 08:46 21.04.2022
4100 Clouds 5 1007 93 10000 3.8 189 06:44 21.04.2022
4101 Clouds 5 1007 93 10000 0.45 240 03:41 21.04.2022
4102 Clouds 5 1007 93 10000 2.94 191 03:20 21.04.2022
4103 Clouds 5 1007 94 10000 2.94 191 02:44 21.04.2022
4104 Clouds 5 1007 94 10000 0.45 142 00:34 21.04.2022
4105 Clouds 5 1007 93 10000 2.78 248 23:25 20.04.2022
4106 Clouds 5 1007 93 10000 2.78 248 22:59 20.04.2022
4107 Clouds 5 1007 93 10000 2.78 248 22:59 20.04.2022
4108 Clouds 5 1008 93 10000 0.45 235 22:34 20.04.2022
4109 Rain 6 1008 93 10000 2.88 260 21:36 20.04.2022
4110 Rain 6 1008 92 10000 2.87 261 20:44 20.04.2022
4111 Rain 6 1008 92 10000 2.87 261 20:44 20.04.2022
4112 Rain 6 1008 92 10000 2.87 261 20:44 20.04.2022
4113 Rain 6 1009 92 10000 1.75 254 20:21 20.04.2022
4114 Clouds 6 1009 91 10000 0.45 196 19:39 20.04.2022
4115 Rain 7 1008 89 10000 1.79 268 18:45 20.04.2022
4116 Clouds 9 1008 77 10000 1.69 275 17:49 20.04.2022
4117 Clouds 10 1008 72 10000 0.45 129 16:39 20.04.2022
4118 Clouds 10 1008 66 10000 2.61 274 14:58 20.04.2022
4119 Clouds 10 1008 69 10000 0.45 139 12:22 20.04.2022
4120 Clouds 10 1008 69 10000 0.89 220 11:40 20.04.2022
4121 Clouds 9 1008 75 10000 0.45 264 10:39 20.04.2022
4122 Clouds 8 1008 74 10000 4.08 271 09:28 20.04.2022
4123 Clouds 7 1009 77 10000 0.45 247 08:27 20.04.2022
4124 Clouds 7 1008 78 10000 0.45 201 07:44 20.04.2022
4125 Clouds 6 1008 82 10000 0.45 63 05:29 20.04.2022
4126 Clouds 6 1007 86 10000 3.53 272 01:35 20.04.2022
4127 Clouds 6 1007 86 10000 0.45 196 00:21 20.04.2022
4128 Clouds 6 1008 88 10000 0.45 208 22:44 19.04.2022
4129 Clouds 6 1008 88 10000 0.89 255 22:23 19.04.2022
4130 Clouds 6 1007 89 10000 0.89 248 21:46 19.04.2022
4131 Clouds 6 1007 90 10000 2.64 306 20:57 19.04.2022
4132 Rain 6 1008 90 10000 0.45 110 20:37 19.04.2022
4133 Clouds 6 1008 88 10000 0.89 118 19:32 19.04.2022
4134 Clouds 7 1008 87 10000 3.68 326 18:27 19.04.2022
4135 Clouds 7 1008 82 10000 0.89 7 16:50 19.04.2022
4136 Clouds 7 1008 81 10000 0.89 14 16:25 19.04.2022
4137 Clouds 8 1008 80 10000 0.45 154 15:57 19.04.2022
4138 Clouds 8 1008 78 10000 0.45 185 14:44 19.04.2022
4139 Clouds 7 1009 81 10000 0.89 265 12:53 19.04.2022
4140 Clouds 7 1009 82 10000 0.45 249 12:31 19.04.2022
4141 Clouds 6 1009 84 10000 0.89 146 11:27 19.04.2022
4142 Clouds 6 1009 86 10000 0.89 47 09:31 19.04.2022
4143 Clouds 4 1009 91 10000 0.45 245 07:43 19.04.2022
4144 Clouds 3 1009 92 10000 0.45 151 04:24 19.04.2022
4145 Clouds 4 1010 84 10000 0.89 117 01:24 19.04.2022
4146 Clouds 5 1010 80 10000 0.45 0 23:44 18.04.2022
4147 Clouds 5 1011 72 10000 0.45 251 21:57 18.04.2022
4148 Clouds 5 1011 71 10000 0.45 243 21:25 18.04.2022
4149 Clouds 5 1011 71 10000 0.45 245 20:39 18.04.2022
4150 Clouds 5 1011 70 10000 0.45 90 19:59 18.04.2022
4151 Clouds 6 1011 68 10000 1.88 357 19:32 18.04.2022
4152 Clouds 6 1011 67 10000 0.45 20 18:43 18.04.2022
4153 Clouds 6 1011 64 10000 0.45 46 17:40 18.04.2022
4154 Clouds 6 1011 65 10000 0.45 357 17:19 18.04.2022
4155 Clouds 6 1011 64 10000 0.45 22 16:38 18.04.2022
4156 Clouds 6 1011 68 10000 0.89 314 15:30 18.04.2022
4157 Clouds 6 1012 70 10000 0.89 338 14:22 18.04.2022
4158 Clouds 4 1012 82 10000 0.45 354 12:54 18.04.2022
4159 Clouds 4 1012 80 10000 0.89 24 12:23 18.04.2022
4160 Clouds 4 1012 82 10000 0.45 113 10:46 18.04.2022
4161 Clouds 4 1013 82 10000 0.89 243 09:32 18.04.2022
4162 Clouds 2 1013 87 10000 0.45 351 08:46 18.04.2022
4163 Clouds 1 1013 90 10000 3.31 342 06:52 18.04.2022
4164 Clouds 1 1015 91 10000 0.45 341 02:29 18.04.2022
4165 Clouds 2 1016 87 10000 0.45 272 23:21 17.04.2022
4166 Clouds 2 1016 88 10000 0.89 38 22:36 17.04.2022
4167 Clouds 2 1017 86 10000 0.45 23 21:34 17.04.2022
4168 Clouds 2 1017 84 10000 0.45 33 20:51 17.04.2022
4169 Clouds 3 1017 83 10000 0.89 20 20:19 17.04.2022
4170 Clouds 4 1017 79 10000 0.45 12 18:45 17.04.2022
4171 Clouds 5 1017 80 10000 0.45 44 17:26 17.04.2022
4172 Clouds 5 1017 79 10000 0.89 41 15:34 17.04.2022
4173 Clouds 5 1017 81 10000 0.89 45 14:45 17.04.2022
4174 Clouds 5 1017 76 10000 1.34 38 13:29 17.04.2022
4175 Clouds 5 1017 80 10000 1.79 29 12:45 17.04.2022
4176 Rain 4 1017 93 8113 0.45 37 10:51 17.04.2022
4177 Rain 4 1017 95 8075 0.45 228 10:29 17.04.2022
4178 Rain 2 1018 94 8075 0.89 36 09:51 17.04.2022
4179 Rain 4 1018 95 9251 0.89 243 09:20 17.04.2022
4180 Rain 2 1017 95 9251 0.45 163 08:31 17.04.2022
4181 Rain 3 1016 94 5326 0.45 2 05:33 17.04.2022
4182 Clouds 4 1017 83 10000 0.45 83 01:52 17.04.2022
4183 Clouds 5 1017 79 10000 0.45 226 00:41 17.04.2022
4184 Clouds 5 1017 75 10000 0.89 240 23:30 16.04.2022
4185 Clouds 6 1017 77 10000 0.45 239 21:47 16.04.2022
4186 Clouds 6 1017 79 10000 4.75 338 20:54 16.04.2022
4187 Clouds 6 1016 80 10000 1.79 49 19:24 16.04.2022
4188 Clouds 6 1016 83 10000 1.34 23 18:43 16.04.2022
4189 Clouds 6 1015 84 10000 1.34 357 17:20 16.04.2022
4190 Clouds 7 1015 80 10000 2.68 21 15:51 16.04.2022
4191 Clouds 7 1014 83 10000 0.89 80 14:58 16.04.2022
4192 Clouds 7 1014 84 10000 1.79 21 14:37 16.04.2022
4193 Clouds 7 1013 89 10000 1.34 42 13:49 16.04.2022
4194 Clouds 8 1013 88 10000 1.79 36 12:43 16.04.2022
4195 Clouds 10 1014 74 10000 5.15 353 11:33 16.04.2022
4196 Clouds 10 1014 74 10000 5.15 353 10:33 16.04.2022
4197 Clouds 12 1011 78 10000 0.89 19 09:37 16.04.2022
4198 Clouds 13 1011 76 10000 0.89 31 08:51 16.04.2022
4199 Clouds 11 1011 83 10000 0.45 130 07:21 16.04.2022
4200 Clouds 11 1010 81 10000 0.89 251 04:58 16.04.2022
4201 Clouds 13 1014 100 10000 3.71 285 01:23 16.04.2022
4202 Clouds 11 1013 80 10000 4.03 294 23:45 15.04.2022
4203 Clouds 12 1013 80 10000 4.51 293 22:48 15.04.2022
4204 Rain 15 1013 40 10000 4.4 295 22:28 15.04.2022
4205 Clouds 16 1010 44 10000 4.53 273 21:21 15.04.2022
4206 Clouds 16 1011 43 10000 4.53 273 20:38 15.04.2022
4207 Clouds 16 1011 41 10000 3.63 214 19:43 15.04.2022
4208 Clouds 17 1011 37 10000 3.44 200 18:58 15.04.2022
4209 Clouds 19 1011 34 10000 0.45 196 18:26 15.04.2022
4210 Clouds 18 1013 27 10000 3.35 204 17:57 15.04.2022
4211 Clouds 19 1014 26 10000 3.75 216 17:24 15.04.2022
4212 Clouds 19 1014 26 10000 4.54 219 16:24 15.04.2022
4213 Clouds 19 1014 26 10000 4.54 219 15:42 15.04.2022
4214 Clouds 19 1014 26 10000 4.54 219 15:41 15.04.2022
4215 Clouds 20 1016 25 10000 4.39 210 13:55 15.04.2022
4216 Clouds 18 1016 35 10000 4.03 204 12:50 15.04.2022
4217 Clouds 17 1017 36 10000 3.72 203 12:21 15.04.2022
4218 Clouds 17 1017 36 10000 3.72 203 11:42 15.04.2022
4219 Clouds 15 1018 39 10000 3.47 202 10:46 15.04.2022
4220 Clouds 14 1018 42 10000 2.99 202 09:59 15.04.2022
4221 Clouds 13 989 46 10000 2.59 201 09:22 15.04.2022
4222 Clouds 12 989 40 10000 2.14 205 08:37 15.04.2022
4223 Clouds 9 1018 53 10000 1.62 205 06:47 15.04.2022
4224 Clouds 6 1018 63 10000 1.49 225 04:42 15.04.2022
4225 Clouds 6 1019 66 10000 0.21 238 00:32 15.04.2022
4226 Clouds 7 1010 65 10000 1.1 11 23:20 14.04.2022
4227 Clouds 7 1010 63 10000 1.1 11 22:44 14.04.2022
4228 Clouds 7 1010 62 10000 1.44 6 22:25 14.04.2022
4229 Clouds 7 1010 61 10000 1.28 14 21:39 14.04.2022
4230 Clouds 11 1010 45 10000 2.16 5 19:24 14.04.2022
4231 Clouds 13 1010 40 10000 0.45 26 18:38 14.04.2022
4232 Clouds 14 1018 35 10000 0.45 71 17:45 14.04.2022
4233 Clouds 15 1019 35 10000 0.89 30 16:49 14.04.2022
4234 Clouds 15 1018 39 10000 1.34 10 15:50 14.04.2022
4235 Clouds 13 1019 45 10000 1.34 43 13:52 14.04.2022
4236 Clouds 12 1019 49 10000 1.34 356 13:19 14.04.2022
4237 Clouds 11 1010 55 10000 2.24 28 12:32 14.04.2022
4238 Clouds 9 1011 69 10000 0.89 20 11:36 14.04.2022
4239 Clouds 8 1019 72 10000 0.89 15 10:57 14.04.2022
4240 Clouds 8 1010 74 10000 1.34 41 10:29 14.04.2022
4241 Clouds 7 1010 77 10000 1.34 22 09:26 14.04.2022
4242 Clouds 7 1010 77 10000 0.89 35 07:54 14.04.2022
4243 Clouds 6 1008 80 10000 0.89 33 05:35 14.04.2022
4244 Clouds 6 1008 90 10000 1.34 38 00:22 14.04.2022
4245 Clouds 6 1008 90 10000 1.34 14 22:37 13.04.2022
4246 Clouds 6 1008 90 10000 1.34 353 21:42 13.04.2022
4247 Clouds 6 1008 90 10000 0.89 35 20:35 13.04.2022
4248 Clouds 6 1008 90 10000 1.34 9 19:46 13.04.2022
4249 Clouds 6 1007 89 10000 2.24 25 18:36 13.04.2022
4250 Clouds 6 1006 90 10000 1.79 35 17:24 13.04.2022
4251 Clouds 6 1006 90 10000 1.34 16 16:49 13.04.2022
4252 Clouds 6 1006 90 10000 1.79 27 15:44 13.04.2022
4253 Clouds 6 1005 89 10000 1.79 36 15:21 13.04.2022
4254 Clouds 6 1005 90 10000 1.79 43 14:34 13.04.2022
4255 Clouds 6 1005 89 10000 2.24 358 13:37 13.04.2022
4256 Clouds 6 1005 89 10000 1.79 35 12:45 13.04.2022
4257 Clouds 5 1004 89 10000 1.34 26 11:25 13.04.2022
4258 Clouds 5 1004 92 10000 2.24 22 09:53 13.04.2022
4259 Clouds 5 1003 91 10000 1.79 54 08:44 13.04.2022
4260 Clouds 5 1003 88 10000 1.34 52 07:38 13.04.2022
4261 Clouds 5 1002 84 10000 0.89 21 06:46 13.04.2022
4262 Clouds 5 1002 84 10000 1.34 69 06:23 13.04.2022
4263 Clouds 6 1003 77 10000 2.68 30 00:28 13.04.2022
4264 Clouds 6 1003 76 10000 1.34 37 23:55 12.04.2022
4265 Clouds 6 1003 75 10000 1.79 12 22:31 12.04.2022
4266 Clouds 6 1004 77 10000 0.45 5 21:47 12.04.2022
4267 Clouds 6 1004 78 10000 1.34 31 20:44 12.04.2022
4268 Clouds 6 1004 78 10000 1.79 37 20:18 12.04.2022
4269 Clouds 7 1004 72 10000 0.45 119 19:39 12.04.2022
4270 Clouds 7 1003 68 10000 0.89 44 18:52 12.04.2022
4271 Clouds 8 1003 59 10000 1.34 27 17:37 12.04.2022
4272 Clouds 10 1002 52 10000 1.34 16 16:34 12.04.2022
4273 Clouds 10 1002 51 10000 0.89 22 15:33 12.04.2022
4274 Clouds 10 1002 51 10000 1.34 23 14:33 12.04.2022
4275 Clouds 10 1001 51 10000 0.89 108 13:40 12.04.2022
4276 Clouds 10 1001 50 10000 1.79 25 13:20 12.04.2022
4277 Clouds 10 1001 48 10000 2.24 41 11:47 12.04.2022
4278 Clouds 10 1001 48 10000 1.34 22 11:28 12.04.2022
4279 Clouds 7 1001 60 10000 0.89 286 09:32 12.04.2022
4280 Clouds 6 1001 63 10000 0.45 302 08:32 12.04.2022
4281 Clouds 5 1001 65 10000 0.45 285 06:33 12.04.2022
4282 Clouds 4 1001 67 10000 0.45 246 05:38 12.04.2022
4283 Clouds 5 1002 63 10000 0.45 228 01:48 12.04.2022
4284 Clouds 7 1002 57 10000 0.45 264 23:20 11.04.2022
4285 Clouds 7 1002 56 10000 0.45 53 21:51 11.04.2022
4286 Clouds 8 1002 57 10000 4.9 329 21:18 11.04.2022
4287 Clouds 8 1003 62 10000 0.89 329 20:30 11.04.2022
4288 Clouds 8 1003 64 10000 0.89 35 19:58 11.04.2022
4289 Clouds 8 1003 62 10000 4.3 355 19:25 11.04.2022
4290 Clouds 9 1003 60 10000 0.45 16 18:52 11.04.2022
4291 Clouds 9 1002 60 10000 0.45 43 17:57 11.04.2022
4292 Clouds 10 1002 61 10000 0.45 118 17:30 11.04.2022
4293 Clouds 10 1002 56 10000 1.79 6 16:25 11.04.2022
4294 Clouds 10 1002 59 10000 1.34 7 14:40 11.04.2022
4295 Clouds 11 1001 58 10000 1.34 22 13:19 11.04.2022
4296 Clouds 10 982 54 10000 5.73 347 12:36 11.04.2022
4297 Clouds 10 1011 64 10000 1.34 20 11:42 11.04.2022
4298 Clouds 10 1010 68 10000 1.34 14 10:34 11.04.2022
4299 Clouds 8 1010 74 10000 1.79 4 09:34 11.04.2022
4300 Clouds 6 1001 85 10000 0.89 45 07:24 11.04.2022
4301 Clouds 4 1001 92 10000 0.45 33 02:36 11.04.2022
4302 Clouds 7 1000 75 10000 0.89 338 22:58 10.04.2022
4303 Clouds 7 1000 73 10000 0.89 358 22:26 10.04.2022
4304 Clouds 7 1000 79 10000 0.89 24 21:35 10.04.2022
4305 Clouds 6 1000 81 10000 0.89 1 20:39 10.04.2022
4306 Clouds 7 1000 83 10000 3.64 9 19:46 10.04.2022
4307 Clouds 7 1000 81 10000 0.45 340 19:25 10.04.2022
4308 Clouds 7 1000 78 10000 0.89 3 18:45 10.04.2022
4309 Clouds 7 999 82 10000 0.45 54 17:56 10.04.2022
4310 Clouds 7 999 82 10000 0.45 56 17:56 10.04.2022
4311 Clouds 7 999 82 10000 0.45 339 17:37 10.04.2022
4312 Clouds 7 999 84 10000 0.89 352 16:33 10.04.2022
4313 Clouds 9 999 73 10000 0.89 350 15:37 10.04.2022
4314 Clouds 9 999 68 10000 1.34 5 14:25 10.04.2022
4315 Clouds 10 1008 70 10000 0.89 28 12:35 10.04.2022
4316 Clouds 10 1008 69 10000 0.89 17 12:35 10.04.2022
4317 Clouds 9 1008 74 10000 0.89 17 11:56 10.04.2022
4318 Clouds 9 999 78 10000 0.89 22 11:29 10.04.2022
4319 Clouds 9 999 81 10000 0.45 18 10:56 10.04.2022
4320 Clouds 8 999 84 10000 0.45 276 09:58 10.04.2022
4321 Clouds 8 999 86 10000 0.45 55 09:38 10.04.2022
4322 Clouds 7 998 86 10000 0.89 38 08:23 10.04.2022
4323 Clouds 6 998 89 10000 0.45 36 07:35 10.04.2022
4324 Clouds 6 996 89 10000 0.89 2 05:50 10.04.2022
4325 Clouds 8 994 90 10000 0.45 23 02:25 10.04.2022
4326 Clouds 9 992 90 10000 0.45 64 00:29 10.04.2022
4327 Clouds 10 992 90 10000 0.89 272 23:49 09.04.2022
4328 Clouds 11 990 90 10000 0.45 140 22:48 09.04.2022
4329 Clouds 10 989 93 10000 2.67 267 21:35 09.04.2022
4330 Clouds 10 989 93 10000 2.14 216 20:49 09.04.2022
4331 Clouds 10 989 94 10000 1.46 204 20:26 09.04.2022
4332 Clouds 11 988 92 10000 2.44 257 19:42 09.04.2022
4333 Clouds 11 988 86 10000 1.76 230 18:58 09.04.2022
4334 Clouds 11 988 84 10000 1.5 195 18:20 09.04.2022
4335 Clouds 12 988 82 10000 1.5 195 17:39 09.04.2022
4336 Clouds 12 988 82 10000 1.5 195 17:39 09.04.2022
4337 Clouds 13 988 79 10000 1.88 199 16:50 09.04.2022
4338 Clouds 13 988 74 10000 0.45 320 15:55 09.04.2022
4339 Clouds 13 989 73 10000 2.23 191 15:30 09.04.2022
4340 Clouds 13 989 71 10000 0.45 313 14:44 09.04.2022
4341 Clouds 13 998 70 10000 0.45 355 14:22 09.04.2022
4342 Clouds 12 989 74 10000 2.75 191 13:18 09.04.2022
4343 Clouds 12 989 73 10000 2.75 191 12:41 09.04.2022
4344 Clouds 11 990 73 10000 0.45 125 11:22 09.04.2022
4345 Clouds 11 990 70 10000 0.89 155 10:21 09.04.2022
4346 Clouds 10 999 74 10000 0.89 178 09:37 09.04.2022
4347 Clouds 9 990 80 10000 0.89 158 08:53 09.04.2022
4348 Clouds 7 1001 84 10000 5.65 178 06:56 09.04.2022
4349 Clouds 6 992 84 10000 2.74 217 01:32 09.04.2022
4350 Clouds 7 992 84 10000 3.59 246 23:30 08.04.2022
4351 Clouds 7 992 85 10000 4.03 249 21:58 08.04.2022
4352 Clouds 7 991 83 10000 3.8 257 21:29 08.04.2022
4353 Clouds 8 991 82 10000 3.8 257 20:38 08.04.2022
4354 Clouds 9 989 89 10000 0.45 146 19:20 08.04.2022
4355 Clouds 10 989 86 10000 0.45 65 18:29 08.04.2022
4356 Clouds 11 988 79 10000 3.31 247 17:46 08.04.2022
4357 Clouds 12 997 72 10000 0.89 216 17:22 08.04.2022
4358 Clouds 12 997 76 10000 0.45 166 16:47 08.04.2022
4359 Clouds 8 987 90 10000 3.03 263 15:56 08.04.2022
4360 Clouds 9 997 85 10000 1.34 246 15:25 08.04.2022
4361 Rain 10 996 84 10000 1.79 245 14:26 08.04.2022
4362 Rain 13 995 78 10000 0.89 327 13:45 08.04.2022
4363 Rain 13 986 71 10000 0.89 286 13:27 08.04.2022
4364 Clouds 14 985 64 10000 0.45 193 11:54 08.04.2022
4365 Clouds 13 986 70 10000 0.89 219 10:33 08.04.2022
4366 Clouds 12 986 74 10000 0.45 267 09:37 08.04.2022
4367 Clouds 10 986 83 10000 0.45 108 08:34 08.04.2022
4368 Clouds 6 967 100 10000 3.97 180 06:47 08.04.2022
4369 Clouds 6 968 100 10000 3.82 171 04:58 08.04.2022
4370 Clouds 10 989 74 10000 0.89 109 01:26 08.04.2022
4371 Clouds 10 989 73 10000 0.45 144 00:22 08.04.2022
4372 Clouds 12 989 65 10000 0.45 89 22:59 07.04.2022
4373 Clouds 12 989 63 10000 0.45 199 22:39 07.04.2022
4374 Clouds 12 989 59 10000 1.34 197 22:20 07.04.2022
4375 Clouds 12 988 55 10000 0.89 201 21:49 07.04.2022
4376 Clouds 13 991 46 10000 0.89 95 20:58 07.04.2022
4377 Clouds 14 990 42 10000 0.45 220 20:30 07.04.2022
4378 Clouds 17 989 41 10000 0.89 184 18:29 07.04.2022
4379 Clouds 19 999 38 10000 0.45 88 17:25 07.04.2022
4380 Clouds 20 990 38 10000 0.45 190 16:44 07.04.2022
4381 Clouds 21 999 36 10000 0.89 205 16:21 07.04.2022
4382 Clouds 20 991 40 10000 0.45 196 14:42 07.04.2022
4383 Clouds 21 1001 41 10000 0.89 148 13:42 07.04.2022
4384 Clouds 20 993 42 10000 0.89 116 12:46 07.04.2022
4385 Clouds 17 975 41 10000 6.21 197 11:30 07.04.2022
4386 Clouds 16 1004 55 10000 0.45 331 09:37 07.04.2022
4387 Clouds 13 996 64 10000 0.89 130 08:38 07.04.2022
4388 Clouds 7 996 82 10000 3.25 182 06:42 07.04.2022
4389 Clouds 7 996 82 10000 2.66 212 02:51 07.04.2022
4390 Clouds 7 997 85 10000 3.1 203 02:20 07.04.2022
4391 Clouds 8 997 83 10000 2.97 204 00:26 07.04.2022
4392 Clouds 9 999 82 10000 2.79 200 22:49 06.04.2022
4393 Clouds 9 998 80 10000 2.87 204 22:26 06.04.2022
4394 Clouds 10 998 79 10000 3.06 213 21:34 06.04.2022
4395 Clouds 9 998 81 10000 3.06 213 20:36 06.04.2022
4396 Clouds 9 998 80 10000 2.85 211 19:53 06.04.2022
4397 Clouds 11 997 74 10000 2.7 216 18:51 06.04.2022
4398 Clouds 12 997 71 10000 0.45 192 18:25 06.04.2022
4399 Clouds 13 1006 68 10000 3.85 250 17:35 06.04.2022
4400 Clouds 12 1006 70 10000 0.45 106 16:38 06.04.2022
4401 Clouds 12 998 69 10000 0.45 122 15:48 06.04.2022
4402 Clouds 13 997 67 10000 0.89 306 14:57 06.04.2022
4403 Clouds 12 996 65 10000 0.89 309 13:24 06.04.2022
4404 Clouds 12 996 62 10000 1.79 245 12:26 06.04.2022
4405 Clouds 10 996 74 10000 0.89 228 10:47 06.04.2022
4406 Clouds 9 996 76 10000 0.89 241 10:25 06.04.2022
4407 Clouds 8 997 80 10000 0.45 124 09:40 06.04.2022
4408 Clouds 6 996 85 10000 0.45 183 08:32 06.04.2022
4409 Clouds 5 997 87 10000 0.45 87 07:49 06.04.2022
4410 Clouds 4 995 92 10000 0.45 121 03:53 06.04.2022
4411 Clouds 5 994 90 10000 4.64 267 23:52 05.04.2022
4412 Clouds 5 994 88 10000 0.89 359 22:57 05.04.2022
4413 Clouds 6 993 87 10000 0.45 106 21:20 05.04.2022
4414 Clouds 6 993 86 10000 0.45 272 20:26 05.04.2022
4415 Clouds 6 993 87 10000 0.89 158 19:42 05.04.2022
4416 Clouds 5 973 100 10000 6.55 240 18:18 05.04.2022
4417 Clouds 7 992 59 10000 0.89 284 16:54 05.04.2022
4418 Clouds 7 1002 59 10000 0.45 227 15:56 05.04.2022
4419 Clouds 7 1002 60 10000 0.89 195 15:34 05.04.2022
4420 Clouds 6 1002 70 10000 0.89 219 14:36 05.04.2022
4421 Clouds 6 994 68 10000 0.89 253 13:35 05.04.2022
4422 Clouds 5 1004 71 10000 0.89 213 11:51 05.04.2022
4423 Clouds 5 1004 71 10000 0.89 213 11:51 05.04.2022
4424 Clouds 4 995 69 10000 0.89 250 11:32 05.04.2022
4425 Clouds 4 975 76 10000 6.68 209 09:59 05.04.2022
4426 Clouds 3 975 89 10000 6.21 204 08:54 05.04.2022
4427 Clouds 0 976 100 10000 5.4 193 06:58 05.04.2022
4428 Clear -1 979 100 10000 4.1 214 01:55 05.04.2022
4429 Clear 0 981 100 10000 3.57 226 22:42 04.04.2022
4430 Clear 0 981 100 10000 3.41 227 22:24 04.04.2022
4431 Clear 1 981 100 10000 3.26 235 21:21 04.04.2022
4432 Clear 1 982 100 10000 3.26 235 20:49 04.04.2022
4433 Clouds 2 982 75 10000 3.04 246 19:57 04.04.2022
4434 Clouds 2 982 69 10000 3.59 256 19:26 04.04.2022
4435 Clouds 3 982 61 10000 3.59 256 18:33 04.04.2022
4436 Clouds 5 982 55 10000 4.89 270 16:36 04.04.2022
4437 Clouds 5 1003 47 10000 0.89 246 15:44 04.04.2022
4438 Clouds 6 1003 47 10000 0.89 246 15:25 04.04.2022
4439 Clouds 6 1012 49 10000 0.45 260 14:46 04.04.2022
4440 Clouds 6 1003 49 10000 1.34 296 13:30 04.04.2022
4441 Clear 6 1003 44 10000 0.89 254 11:55 04.04.2022
4442 Clear 6 1012 43 10000 0.89 233 11:29 04.04.2022
4443 Clouds 3 1003 72 10000 0.45 177 08:54 04.04.2022
4444 Clouds -1 1000 84 10000 0.89 251 04:45 04.04.2022
4445 Clouds 1 999 80 10000 0.89 239 01:28 04.04.2022
4446 Clouds 1 997 86 10000 4.63 318 22:43 03.04.2022
4447 Clouds 1 998 90 10000 0.45 265 21:46 03.04.2022
4448 Clouds 1 996 92 10000 0.45 217 20:57 03.04.2022
4449 Clouds 1 996 92 10000 0.45 264 19:51 03.04.2022
4450 Clouds 1 995 91 89 0.45 356 18:33 03.04.2022
4451 Clouds 1 994 91 90 0.45 81 17:47 03.04.2022
4452 Clouds 2 993 90 891 0.89 54 16:59 03.04.2022
4453 Clouds 1 993 91 892 0.89 36 16:41 03.04.2022
4454 Clouds 2 993 91 3006 1.34 11 14:52 03.04.2022
4455 Clouds 2 992 89 6727 0.89 12 13:55 03.04.2022
4456 Clouds 3 992 87 10000 0.89 23 12:46 03.04.2022
4457 Clouds 2 991 92 9641 0.89 37 11:29 03.04.2022
4458 Clouds 2 991 90 10000 0.89 36 09:38 03.04.2022
4459 Clouds 2 990 90 9627 0.45 68 08:36 03.04.2022
4460 Clouds 2 990 88 10000 0.45 59 05:42 03.04.2022
4461 Clouds 2 989 88 10000 0.45 312 02:53 03.04.2022
4462 Clouds 3 988 89 10000 0.89 219 23:21 02.04.2022
4463 Clouds 3 988 89 10000 0.89 243 22:18 02.04.2022
4464 Clouds 3 988 89 10000 0.45 108 21:47 02.04.2022
4465 Clouds 3 988 89 7990 0.45 235 21:19 02.04.2022
4466 Clouds 4 987 88 3905 0.89 250 20:29 02.04.2022
4467 Clouds 4 985 89 10000 0.89 259 18:23 02.04.2022
4468 Clouds 4 985 90 10000 0.89 258 17:53 02.04.2022
4469 Clouds 5 984 89 10000 0.45 257 16:30 02.04.2022
4470 Clouds 5 983 88 10000 0.45 255 15:22 02.04.2022
4471 Clouds 5 983 88 10000 1.34 261 14:51 02.04.2022
4472 Clouds 5 983 87 10000 0.89 248 13:56 02.04.2022
4473 Clouds 4 982 87 10000 0.89 87 13:19 02.04.2022
4474 Clouds 5 982 87 10000 0.45 43 11:39 02.04.2022
4475 Clouds 5 962 94 10000 2.23 356 09:31 02.04.2022
4476 Clouds 4 990 89 10000 0.45 69 06:56 02.04.2022
4477 Clouds 5 983 90 10000 0.89 14 03:55 02.04.2022
4478 Clouds 6 985 90 10000 0.45 327 00:25 02.04.2022
4479 Clouds 6 985 90 10000 0.89 352 23:45 01.04.2022
4480 Clouds 6 985 90 10000 0.89 339 21:55 01.04.2022
4481 Clouds 6 986 89 10000 0.45 356 20:53 01.04.2022
4482 Clouds 6 986 89 10000 0.45 40 20:31 01.04.2022
4483 Clouds 6 986 89 10000 1.34 16 19:38 01.04.2022
4484 Clouds 7 986 88 10000 0.89 25 18:52 01.04.2022
4485 Clouds 8 986 88 10000 0.89 29 17:59 01.04.2022
4486 Clouds 8 967 91 10000 3.29 7 17:35 01.04.2022
4487 Clouds 11 967 79 10000 1.58 329 15:43 01.04.2022
4488 Clouds 11 967 100 10000 1.12 255 14:39 01.04.2022
4489 Clouds 11 987 86 10000 0.45 329 13:35 01.04.2022
4490 Clouds 11 986 85 10000 1.85 182 12:33 01.04.2022
4491 Clouds 11 986 85 10000 1.85 182 11:44 01.04.2022
4492 Clouds 10 986 87 10000 0.45 134 10:19 01.04.2022
4493 Clouds 9 986 88 10000 0.45 143 09:30 01.04.2022
4494 Clouds 7 996 88 10000 0.45 340 06:55 01.04.2022
4495 Clouds 7 997 88 10000 0.45 18 04:54 01.04.2022
4496 Clouds 7 997 88 10000 0.89 52 04:36 01.04.2022
4497 Clouds 7 990 89 10000 0.89 65 01:59 01.04.2022
4498 Clouds 6 992 90 10000 0.89 357 00:44 01.04.2022
4499 Clouds 8 992 90 10000 0.45 354 21:55 31.03.2022
4500 Clouds 8 992 90 10000 0.89 24 21:33 31.03.2022
4501 Clouds 9 992 90 10000 0.89 352 20:30 31.03.2022
4502 Clouds 9 992 90 10000 0.45 33 19:50 31.03.2022
4503 Clouds 10 992 88 10000 0.89 359 18:51 31.03.2022
4504 Clouds 12 992 83 10000 0.89 30 17:50 31.03.2022
4505 Clouds 14 991 76 10000 1.34 32 16:39 31.03.2022
4506 Clouds 15 1001 69 10000 0.89 342 15:46 31.03.2022
4507 Clouds 17 1001 62 10000 0.89 30 15:20 31.03.2022
4508 Clouds 18 991 55 10000 0.45 300 14:37 31.03.2022
4509 Clouds 14 1001 73 10000 0.45 117 12:30 31.03.2022
4510 Clouds 13 992 75 10000 0.45 253 11:26 31.03.2022
4511 Clouds 8 993 88 10000 0.45 75 09:47 31.03.2022
4512 Clouds 6 993 88 10000 2.44 113 08:20 31.03.2022
4513 Clouds 5 994 89 10000 1.97 113 05:42 31.03.2022
4514 Clouds 5 996 93 10000 1.13 165 23:58 30.03.2022
4515 Clouds 4 996 93 10000 1.09 229 22:44 30.03.2022
4516 Clouds 5 996 93 10000 1.34 238 21:39 30.03.2022
4517 Clouds 6 996 93 10000 0.45 353 20:54 30.03.2022
4518 Clouds 6 996 92 10000 2.75 247 20:20 30.03.2022
4519 Clouds 6 996 92 10000 2.75 247 20:20 30.03.2022
4520 Clouds 7 996 91 10000 2.91 245 19:28 30.03.2022
4521 Clouds 8 996 87 10000 3.63 246 18:28 30.03.2022
4522 Clouds 8 995 86 10000 3.63 246 17:47 30.03.2022
4523 Clouds 8 995 87 10000 3.68 240 16:57 30.03.2022
4524 Clouds 8 995 88 10000 0.45 212 16:33 30.03.2022
4525 Clouds 9 995 85 10000 3.9 229 15:24 30.03.2022
4526 Clouds 9 995 84 10000 0.45 276 13:42 30.03.2022
4527 Clouds 9 995 84 10000 0.89 259 12:47 30.03.2022
4528 Clouds 11 995 68 10000 3.86 252 11:27 30.03.2022
4529 Clouds 11 995 68 10000 3.86 252 11:27 30.03.2022
4530 Clouds 10 995 69 10000 0.45 284 10:23 30.03.2022
4531 Clouds 10 995 71 10000 1.85 293 09:23 30.03.2022
4532 Clouds 9 1004 72 10000 2.32 275 07:32 30.03.2022
4533 Clouds 7 1002 80 10000 1.49 270 05:40 30.03.2022
4534 Clouds 7 1003 78 10000 2.22 277 03:39 30.03.2022
4535 Clouds 7 1003 81 10000 1.98 278 00:41 30.03.2022
4536 Clouds 9 1003 84 10000 3.01 270 22:25 29.03.2022
4537 Clouds 9 1003 85 10000 3.01 270 21:44 29.03.2022
4538 Clouds 10 1003 80 10000 3.02 277 20:52 29.03.2022
4539 Clouds 11 1003 78 10000 0.45 199 19:53 29.03.2022
4540 Clouds 12 1002 77 10000 0.89 110 18:55 29.03.2022
4541 Clouds 12 1002 74 10000 0.45 209 18:19 29.03.2022
4542 Clouds 13 1002 72 10000 0.89 251 17:21 29.03.2022
4543 Clouds 13 1002 72 10000 0.89 251 17:21 29.03.2022
4544 Clouds 14 1002 71 10000 0.89 252 16:56 29.03.2022
4545 Clouds 13 1002 75 10000 0.45 303 15:57 29.03.2022
4546 Clouds 12 1004 100 10000 5.66 274 14:48 29.03.2022
4547 Clouds 14 1003 72 10000 2.68 256 13:53 29.03.2022
4548 Clouds 14 1005 65 10000 7.16 285 12:47 29.03.2022
4549 Clouds 14 1005 54 10000 6.64 260 11:31 29.03.2022
4550 Clouds 15 1004 44 10000 0.89 279 10:27 29.03.2022
4551 Clouds 11 1006 58 10000 5.9 256 09:23 29.03.2022
4552 Clouds 8 1007 52 10000 5.23 248 06:55 29.03.2022
4553 Clouds 9 1008 49 10000 5.66 247 03:47 29.03.2022
4554 Clouds 11 1009 48 10000 7.1 250 23:49 28.03.2022
4555 Clouds 11 1010 44 10000 7.33 249 22:59 28.03.2022
4556 Clouds 11 1010 43 10000 7.33 249 22:39 28.03.2022
4557 Clouds 12 1008 39 10000 0.89 234 22:19 28.03.2022
4558 Clouds 12 1008 38 10000 0.45 173 20:47 28.03.2022
4559 Clouds 12 1011 36 10000 6.99 249 19:59 28.03.2022
4560 Clouds 12 1012 36 10000 7.19 253 19:40 28.03.2022
4561 Clouds 12 1012 36 10000 7.2 253 18:51 28.03.2022
4562 Clouds 13 1012 36 10000 7.68 255 18:18 28.03.2022
4563 Clouds 13 1013 34 10000 8.18 254 17:28 28.03.2022
4564 Clouds 12 1013 35 10000 8.46 251 15:38 28.03.2022
4565 Clouds 12 1016 36 10000 8.58 247 14:24 28.03.2022
4566 Clouds 13 1015 34 10000 1.79 234 13:26 28.03.2022
4567 Clouds 11 1017 36 10000 0.89 239 11:53 28.03.2022
4568 Clouds 7 1019 39 10000 0.89 220 10:35 28.03.2022
4569 Clouds 4 1021 46 10000 0.89 214 09:21 28.03.2022
4570 Clouds 3 1021 50 10000 1.34 193 08:45 28.03.2022
4571 Clouds 2 1013 54 10000 0.45 158 08:21 28.03.2022
4572 Clouds 1 1013 57 10000 0.89 215 07:23 28.03.2022
4573 Clouds -1 1015 54 10000 0.45 247 02:44 28.03.2022
4574 Clouds 1 1015 47 10000 0.89 192 22:38 27.03.2022
4575 Clouds 1 1014 46 10000 0.45 316 21:48 27.03.2022
4576 Clouds 1 1014 43 10000 0.45 230 21:28 27.03.2022
4577 Clouds 2 1014 43 10000 0.45 218 20:41 27.03.2022
4578 Clouds 2 1014 44 10000 0.45 35 19:43 27.03.2022
4579 Clouds 3 1012 41 10000 0.89 29 18:45 27.03.2022
4580 Clouds 3 1012 40 10000 0.89 359 18:24 27.03.2022
4581 Clouds 4 1011 38 10000 2.24 36 17:37 27.03.2022
4582 Clouds 5 1010 36 10000 1.79 236 15:51 27.03.2022
4583 Clouds 5 1009 39 10000 0.89 230 13:59 27.03.2022
4584 Clouds 5 1009 39 10000 1.34 66 13:25 27.03.2022
4585 Clouds 2 1009 51 10000 0.89 249 11:41 27.03.2022
4586 Clouds 2 1008 50 10000 2.24 22 09:49 27.03.2022
4587 Clouds 1 1006 72 10000 1.79 48 07:47 27.03.2022
4588 Clouds 3 1003 60 10000 0.89 42 04:49 27.03.2022
4589 Clouds 5 1001 49 10000 2.24 16 00:26 27.03.2022
4590 Clouds 6 1000 71 10000 2.24 41 22:52 26.03.2022
4591 Clouds 7 999 74 10000 0.89 356 22:25 26.03.2022
4592 Clouds 9 999 68 10000 1.79 26 21:31 26.03.2022
4593 Clouds 9 998 75 10000 0.89 273 19:38 26.03.2022
4594 Clouds 9 999 77 10000 0.89 224 18:44 26.03.2022
4595 Clouds 9 999 83 10000 0.89 282 17:44 26.03.2022
4596 Clouds 10 999 84 10000 0.45 284 16:46 26.03.2022
4597 Clouds 11 979 77 10000 8.25 289 15:43 26.03.2022
4598 Clouds 16 999 43 10000 1.34 261 13:57 26.03.2022
4599 Clouds 15 1011 43 10000 9.06 268 13:36 26.03.2022
4600 Clouds 16 1001 45 10000 1.34 269 12:18 26.03.2022
4601 Clouds 14 1003 50 10000 1.34 228 10:49 26.03.2022
4602 Clouds 12 1006 51 10000 0.89 236 09:19 26.03.2022
4603 Clear 6 1007 64 10000 0.89 252 06:56 26.03.2022
4604 Clear 4 1008 69 10000 0.89 282 05:31 26.03.2022
4605 Clear 5 1010 66 10000 0.45 213 02:34 26.03.2022
4606 Clouds 6 1012 70 10000 0.45 274 22:47 25.03.2022
4607 Clouds 5 1013 70 10000 2.55 274 20:58 25.03.2022
4608 Clear 5 1013 70 10000 2.33 280 20:26 25.03.2022
4609 Clear 6 1013 68 10000 2.23 287 19:19 25.03.2022
4610 Clear 6 1013 65 10000 1.97 303 18:35 25.03.2022
4611 Clear 8 1013 57 10000 1.68 325 17:30 25.03.2022
4612 Clear 10 1021 48 10000 0.45 319 16:27 25.03.2022
4613 Clear 11 1022 44 10000 0.45 330 15:34 25.03.2022
4614 Clouds 10 1022 52 10000 0.89 350 13:32 25.03.2022
4615 Clouds 10 1022 57 10000 0.89 11 11:25 25.03.2022
4616 Clouds 8 1021 68 10000 0.45 296 09:37 25.03.2022
4617 Clouds 7 1021 71 10000 0.45 333 08:50 25.03.2022
4618 Clouds 5 1012 80 10000 0.45 85 07:42 25.03.2022
4619 Clouds 4 1011 83 10000 0.45 76 06:59 25.03.2022
4620 Clouds 2 1007 91 10000 3.91 66 02:37 25.03.2022
4621 Clouds 3 1006 90 38 0.89 37 22:59 24.03.2022
4622 Clouds 3 1006 89 59 2.99 324 22:19 24.03.2022
4623 Clouds 3 1006 91 167 0.45 187 20:52 24.03.2022
4624 Rain 3 1006 91 2649 0.89 211 19:49 24.03.2022
4625 Clouds 3 1007 89 8025 0.45 201 18:45 24.03.2022
4626 Clouds 5 1007 72 3936 1.34 268 17:36 24.03.2022
4627 Clouds 5 1007 75 1668 0.89 244 17:36 24.03.2022
4628 Clouds 7 1007 56 10000 0.89 222 16:28 24.03.2022
4629 Clouds 9 1007 46 10000 0.89 257 14:52 24.03.2022
4630 Clouds 9 1016 46 10000 0.89 230 14:22 24.03.2022
4631 Clouds 9 1007 47 10000 1.34 86 13:34 24.03.2022
4632 Clear 10 1016 45 10000 1.34 265 12:24 24.03.2022
4633 Clear 10 1016 48 10000 1.34 43 11:27 24.03.2022
4634 Clear 9 1016 54 10000 0.89 73 09:27 24.03.2022
4635 Clear 9 1016 56 10000 0.89 1 08:34 24.03.2022
4636 Clear 6 1006 58 10000 0.45 134 05:30 24.03.2022
4637 Clear 6 1006 58 10000 0.45 134 05:30 24.03.2022
4638 Clouds 7 1019 58 10000 2.45 255 23:59 23.03.2022
4639 Clouds 8 1021 58 10000 2.09 257 22:19 23.03.2022
4640 Clear 9 1021 54 10000 1.69 261 21:21 23.03.2022
4641 Clear 9 1022 53 10000 1.42 265 19:56 23.03.2022
4642 Clear 9 1022 54 10000 1.02 289 19:25 23.03.2022
4643 Clear 11 1023 49 10000 0.81 325 17:48 23.03.2022
4644 Clear 13 1023 42 10000 1.09 355 17:18 23.03.2022
4645 Clear 16 1024 36 10000 0.45 20 15:25 23.03.2022
4646 Clear 14 1026 36 10000 2.47 346 14:47 23.03.2022
4647 Clear 13 1028 40 10000 2.49 347 13:30 23.03.2022
4648 Clear 12 1029 47 10000 2.42 336 10:50 23.03.2022
4649 Clear 11 1000 60 10000 2.25 321 08:21 23.03.2022
4650 Clear 3 1021 68 10000 1.82 309 05:50 23.03.2022
4651 Clear 3 1033 100 10000 1.95 297 01:59 23.03.2022
4652 Clear 6 1032 60 10000 2 274 00:25 23.03.2022
4653 Clear 6 1032 60 10000 1.99 274 00:25 23.03.2022
4654 Clear 9 1032 50 10000 1.63 258 21:36 22.03.2022
4655 Clear 7 1032 51 10000 1.15 251 20:57 22.03.2022
4656 Clear 8 1024 50 10000 0.68 254 19:59 22.03.2022
4657 Clear 8 1024 50 10000 0.33 262 19:25 22.03.2022
4658 Clear 9 1024 49 10000 0.34 316 18:46 22.03.2022
4659 Clear 10 1033 42 10000 0.51 12 17:43 22.03.2022
4660 Clear 14 1036 35 10000 1.03 17 16:37 22.03.2022
4661 Clear 11 1036 42 10000 1.52 24 15:40 22.03.2022
4662 Clear 12 1036 39 10000 2.16 29 15:19 22.03.2022
4663 Clear 12 1036 39 10000 2.16 29 14:42 22.03.2022
4664 Clear 12 1036 38 10000 2.38 30 13:42 22.03.2022
4665 Clear 11 1037 41 10000 2.34 37 11:52 22.03.2022
4666 Clear 10 1038 45 10000 2.47 39 10:53 22.03.2022
4667 Clear 10 1036 60 10000 2.56 36 08:43 22.03.2022
4668 Clear 6 1036 72 10000 2.59 34 07:21 22.03.2022
4669 Clear 5 1026 78 10000 0.89 17 03:55 22.03.2022
4670 Clear 5 1026 79 10000 0.45 41 03:55 22.03.2022
4671 Clear 5 1038 100 10000 3.12 12 00:46 22.03.2022
4672 Clear 6 1037 100 10000 3.61 7 22:46 21.03.2022
4673 Clear 8 1005 87 10000 3.51 6 21:25 21.03.2022
4674 Clear 8 1037 75 10000 3.51 6 20:43 21.03.2022
4675 Clear 10 1005 69 10000 3.53 5 20:21 21.03.2022
4676 Clear 10 1005 61 10000 3.53 5 19:35 21.03.2022
4677 Clear 10 1005 61 10000 3.53 5 19:35 21.03.2022
4678 Clear 10 1037 61 10000 3.53 5 19:35 21.03.2022
4679 Clear 7 1037 70 10000 3.39 5 18:47 21.03.2022
4680 Clear 8 1037 65 10000 3.23 2 17:35 21.03.2022
4681 Clear 9 1037 60 10000 3.11 3 16:59 21.03.2022
4682 Clear 13 1034 45 10000 0.89 49 16:26 21.03.2022
4683 Clear 13 1034 44 10000 0.89 37 15:37 21.03.2022
4684 Clear 13 1035 44 10000 1.34 38 14:29 21.03.2022
4685 Clear 12 1036 45 10000 1.34 12 12:58 21.03.2022
4686 Clear 11 1036 44 10000 1.34 25 11:57 21.03.2022
4687 Clear 11 1036 44 10000 0.89 0 11:20 21.03.2022
4688 Clear 8 1037 57 10000 1.79 29 09:42 21.03.2022
4689 Clear 5 1028 65 10000 0.89 34 07:22 21.03.2022
4690 Clear 2 1028 73 10000 0.45 105 05:42 21.03.2022
4691 Clouds 4 1038 57 10000 0.45 45 00:46 21.03.2022
4692 Clouds 2 1040 64 10000 3.07 352 22:56 20.03.2022
4693 Clouds 3 1041 62 10000 2.9 352 22:22 20.03.2022
4694 Clear 3 1041 65 10000 2.88 354 21:31 20.03.2022
4695 Clear 3 1041 65 10000 2.88 354 21:31 20.03.2022
4696 Clear 5 1038 45 10000 0.45 276 20:48 20.03.2022
4697 Clear 5 1038 44 10000 2.9 355 20:27 20.03.2022
4698 Clear 6 1038 43 10000 0.45 325 19:43 20.03.2022
4699 Clear 6 1029 41 10000 2.49 350 19:19 20.03.2022
4700 Clear 5 1041 54 10000 2.55 358 17:43 20.03.2022
4701 Clear 8 1029 37 10000 2.64 3 17:24 20.03.2022
4702 Clear 10 1039 33 10000 0.45 64 15:57 20.03.2022
4703 Clear 10 1040 34 10000 0.89 33 14:38 20.03.2022
4704 Clear 10 1040 37 10000 1.34 10 13:31 20.03.2022
4705 Clear 6 1043 52 10000 3.62 12 11:51 20.03.2022
4706 Clear 4 1044 59 10000 3.15 15 09:58 20.03.2022
4707 Clear 4 1042 60 10000 1.34 4 08:19 20.03.2022
4708 Clear 0 1032 69 10000 0.89 52 05:49 20.03.2022
4709 Clear 1 1033 66 10000 0.45 36 03:18 20.03.2022
4710 Clear 2 1033 55 10000 0.45 38 00:51 20.03.2022
4711 Clear 2 1012 79 10000 2.09 3 23:37 19.03.2022
4712 Clear 1 1042 47 10000 0.45 291 21:58 19.03.2022
4713 Clear 1 1043 47 10000 1.69 7 21:25 19.03.2022
4714 Clear 2 1033 43 10000 1.6 18 19:22 19.03.2022
4715 Clear 3 1033 41 10000 1.8 18 18:30 19.03.2022
4716 Clear 5 1033 33 10000 0.45 68 17:45 19.03.2022
4717 Clear 5 1044 41 10000 1.98 12 16:46 19.03.2022
4718 Clear 6 1042 31 10000 0.89 358 15:22 19.03.2022
4719 Clear 4 1044 29 10000 2.51 8 13:40 19.03.2022
4720 Clear 3 1044 31 10000 2.34 17 12:42 19.03.2022
4721 Clear 3 1044 32 10000 2.32 22 12:19 19.03.2022
4722 Clear 6 1043 34 10000 0.45 62 11:42 19.03.2022
4723 Clear 3 1044 44 10000 0.89 4 08:57 19.03.2022
4724 Clear -3 1043 66 10000 1.41 9 04:42 19.03.2022
4725 Clear -4 1043 70 10000 0.56 34 02:32 19.03.2022
4726 Clouds -4 1034 68 10000 0.85 59 23:50 18.03.2022
4727 Clouds -3 1034 66 10000 0.91 74 22:43 18.03.2022
4728 Clouds -3 1034 65 10000 1 76 22:20 18.03.2022
4729 Clouds -2 1034 60 10000 1.19 71 20:25 18.03.2022
4730 Clouds -2 1034 59 10000 1.19 71 20:25 18.03.2022
4731 Clouds -2 1034 59 10000 1.19 71 20:25 18.03.2022
4732 Clouds -1 1034 56 10000 1.4 74 19:24 18.03.2022
4733 Clouds -1 1034 53 10000 1.83 71 18:35 18.03.2022
4734 Clouds 2 1034 44 10000 0.89 47 16:53 18.03.2022
4735 Clouds 2 1043 42 10000 0.45 247 16:18 18.03.2022
4736 Clouds 4 1043 40 10000 0.89 334 14:26 18.03.2022
4737 Clouds 4 1044 40 10000 1.34 311 13:36 18.03.2022
4738 Clouds 2 1044 48 10000 0.89 38 11:29 18.03.2022
4739 Clouds 0 1044 56 10000 0.89 307 09:52 18.03.2022
4740 Clouds -1 1044 60 10000 0.89 312 08:45 18.03.2022
4741 Clouds -5 1034 71 10000 0.45 343 06:45 18.03.2022
4742 Clear -5 1033 70 10000 0.45 330 04:39 18.03.2022
4743 Clear -3 1031 61 10000 0.45 6 00:55 18.03.2022
4744 Clear -3 1032 58 10000 0.45 345 23:52 17.03.2022
4745 Clear -3 1032 58 10000 0.45 345 23:52 17.03.2022
4746 Clear -2 1031 56 10000 0.89 9 22:44 17.03.2022
4747 Clear -2 1031 56 10000 1.34 324 22:18 17.03.2022
4748 Clear -1 1031 53 10000 0.45 27 21:27 17.03.2022
4749 Clear -1 1031 51 10000 0.45 330 20:52 17.03.2022
4750 Clear -1 1030 51 10000 3.55 50 20:19 17.03.2022
4751 Clear -1 1030 50 10000 0.45 2 19:37 17.03.2022
4752 Clouds 0 1030 48 10000 0.89 342 18:51 17.03.2022
4753 Clouds 1 1029 44 10000 0.89 345 17:28 17.03.2022
4754 Clouds 2 1038 41 10000 0.89 329 16:19 17.03.2022
4755 Clouds 2 1038 41 10000 0.89 329 16:19 17.03.2022
4756 Clouds 2 1038 40 10000 0.89 345 15:42 17.03.2022
4757 Clouds 2 1038 41 10000 1.34 355 14:58 17.03.2022
4758 Clouds 2 1038 42 10000 0.89 354 13:28 17.03.2022
4759 Clouds 2 1038 43 10000 1.34 37 12:44 17.03.2022
4760 Clouds 1 1038 45 10000 1.34 82 11:32 17.03.2022
4761 Clouds 1 1038 46 10000 0.89 4 10:41 17.03.2022
4762 Clear 0 1038 49 10000 0.89 91 08:46 17.03.2022
4763 Clear -1 1038 52 10000 0.45 72 08:18 17.03.2022
4764 Clear -5 1028 74 10000 0.45 321 05:49 17.03.2022
4765 Clear -5 1027 78 10000 3.32 57 04:24 17.03.2022
4766 Clouds -4 1026 80 10000 3.75 76 00:24 17.03.2022
4767 Clear -3 1025 75 10000 3.59 81 22:52 16.03.2022
4768 Clear -3 1025 74 10000 3.25 86 22:33 16.03.2022
4769 Clear -3 1025 72 10000 3.25 86 21:55 16.03.2022
4770 Clear -2 1025 66 10000 2.89 95 20:40 16.03.2022
4771 Clear 0 1024 62 10000 3.65 93 19:23 16.03.2022
4772 Clear 0 1024 61 10000 0.89 325 18:42 16.03.2022
4773 Clear 1 1023 58 10000 0.45 102 17:45 16.03.2022
4774 Clear 1 1023 57 10000 0.89 347 17:27 16.03.2022
4775 Clear 3 1032 49 10000 0.89 327 15:56 16.03.2022
4776 Clear 4 1031 40 10000 0.89 339 14:38 16.03.2022
4777 Clear 5 1031 43 10000 0.89 119 13:35 16.03.2022
4778 Clear 5 1031 47 10000 0.89 314 12:18 16.03.2022
4779 Clear 4 1031 50 10000 0.45 88 11:23 16.03.2022
4780 Clear 3 1022 48 10000 0.45 302 10:28 16.03.2022
4781 Clear 3 1022 54 10000 0.89 109 09:55 16.03.2022
4782 Clouds -3 1030 83 10000 0.89 180 06:47 16.03.2022
4783 Clouds -2 1021 74 10000 0.89 125 02:29 16.03.2022
4784 Clouds 0 1021 75 10000 4.18 116 22:54 15.03.2022
4785 Clouds 0 1021 74 10000 0.89 151 22:33 15.03.2022
4786 Clouds 0 1021 74 10000 0.89 151 22:33 15.03.2022
4787 Clouds 2 1021 74 10000 0.45 167 20:51 15.03.2022
4788 Clouds 3 1020 75 10000 0.45 218 19:34 15.03.2022
4789 Clouds 7 1028 64 10000 0.45 8 17:41 15.03.2022
4790 Clouds 6 1030 60 10000 3.19 72 16:34 15.03.2022
4791 Clouds 7 1030 53 10000 2.54 38 15:26 15.03.2022
4792 Clouds 7 1030 53 10000 2.54 38 14:47 15.03.2022
4793 Clouds 7 1031 51 10000 2.49 17 13:55 15.03.2022
4794 Clouds 6 1031 51 10000 2.61 8 12:46 15.03.2022
4795 Clouds 6 1032 58 10000 2.71 6 11:32 15.03.2022
4796 Clear 6 1000 62 10000 3.07 348 09:54 15.03.2022
4797 Clear 3 1000 65 10000 3.22 337 08:49 15.03.2022
4798 Clear 4 1021 65 10000 0.89 262 07:52 15.03.2022
4799 Clear 3 1021 65 10000 0.89 248 07:34 15.03.2022
4800 Clear 0 1021 77 10000 0.45 234 05:42 15.03.2022
4801 Clouds 2 1022 66 10000 3.26 302 23:58 14.03.2022
4802 Clouds 2 1022 64 10000 0.45 255 23:25 14.03.2022
4803 Clouds 2 1023 65 10000 0.45 254 22:30 14.03.2022
4804 Clouds 2 1023 65 10000 3.26 299 21:35 14.03.2022
4805 Clouds 3 1022 63 10000 0.45 261 20:54 14.03.2022
4806 Clouds 3 1022 61 10000 0.45 262 20:20 14.03.2022
4807 Clouds 2 1002 74 10000 3.04 288 19:21 14.03.2022
4808 Clouds 4 1022 59 10000 2.82 287 17:55 14.03.2022
4809 Clouds 5 1022 56 10000 2.74 291 17:24 14.03.2022
4810 Clouds 6 1031 51 10000 0.89 244 16:18 14.03.2022
4811 Clouds 7 1032 48 10000 0.45 50 14:41 14.03.2022
4812 Clouds 6 1033 52 10000 0.45 115 12:51 14.03.2022
4813 Clouds 4 1034 60 10000 0.45 184 10:54 14.03.2022
4814 Clouds 2 1025 64 10000 0.45 45 09:55 14.03.2022
4815 Clouds 2 1026 65 10000 0.45 115 09:22 14.03.2022
4816 Clouds 2 1026 64 10000 0.89 59 08:56 14.03.2022
4817 Clouds 1 1025 69 10000 0.45 69 07:34 14.03.2022
4818 Clear 0 1025 76 10000 2.27 303 05:46 14.03.2022
4819 Clouds -1 1024 81 10000 1.97 310 01:55 14.03.2022
4820 Clouds -1 1024 84 10000 1.79 302 01:29 14.03.2022
4821 Clouds -1 1024 84 10000 1.32 272 22:52 13.03.2022
4822 Clouds -1 1024 84 10000 0.65 198 21:31 13.03.2022
4823 Clouds -1 1023 83 10000 0.65 199 20:56 13.03.2022
4824 Clouds -1 1023 83 10000 0.72 146 20:31 13.03.2022
4825 Clouds 0 1022 83 10000 0.72 146 19:59 13.03.2022
4826 Clouds 0 1023 82 10000 0.72 146 19:37 13.03.2022
4827 Clouds 0 1023 83 10000 0.88 103 19:18 13.03.2022
4828 Clouds 0 1022 83 10000 1.06 82 18:35 13.03.2022
4829 Clouds 0 1022 83 10000 1.52 79 17:46 13.03.2022
4830 Clouds 0 1022 83 10000 0.45 344 17:20 13.03.2022
4831 Clouds 0 1021 82 10000 2.35 56 16:30 13.03.2022
4832 Clouds 0 1021 82 10000 2.35 56 15:47 13.03.2022
4833 Clouds 0 1021 81 10000 0.45 330 14:56 13.03.2022
4834 Clouds 0 1020 80 10000 0.45 309 13:45 13.03.2022
4835 Clouds 0 1020 79 10000 0.45 320 12:55 13.03.2022
4836 Clouds 1 1020 82 10000 0.45 31 11:52 13.03.2022
4837 Clouds 0 1020 82 10000 0.45 36 11:32 13.03.2022
4838 Clouds 0 1019 84 10000 0.45 321 10:47 13.03.2022
4839 Clouds 0 1019 87 10000 0.45 319 10:22 13.03.2022
4840 Clouds -1 1019 87 10000 0.45 310 09:40 13.03.2022
4841 Clouds -1 1018 86 10000 0.89 329 08:46 13.03.2022
4842 Clouds -1 1018 88 10000 1.34 343 07:41 13.03.2022
4843 Clouds -1 1016 91 10000 0.45 131 05:41 13.03.2022
4844 Clouds -1 1015 92 1096 0.45 347 02:43 13.03.2022
4845 Clouds -1 1014 92 1014 0.45 23 23:56 12.03.2022
4846 Clouds 0 1014 89 842 2.27 343 22:27 12.03.2022
4847 Clouds 1 1014 79 10000 2.71 353 20:34 12.03.2022
4848 Clouds 1 1014 74 10000 0.45 12 19:47 12.03.2022
4849 Clouds 1 1015 74 10000 0.45 47 18:58 12.03.2022
4850 Clouds 2 1015 71 10000 0.89 14 18:22 12.03.2022
4851 Clouds 3 1014 56 10000 0.45 38 17:31 12.03.2022
4852 Clouds 3 1014 56 10000 0.45 47 16:23 12.03.2022
4853 Clouds 3 1014 56 10000 0.45 355 16:23 12.03.2022
4854 Clouds 4 1014 49 10000 1.34 355 15:22 12.03.2022
4855 Clouds 5 1015 47 10000 0.45 105 14:28 12.03.2022
4856 Clouds 2 1026 40 10000 4.59 320 12:45 12.03.2022
4857 Clouds 2 1027 40 10000 4.39 313 11:56 12.03.2022
4858 Clouds 5 1025 39 10000 0.45 227 11:34 12.03.2022
4859 Clouds 2 996 39 10000 4.33 311 10:52 12.03.2022
4860 Clouds 4 1026 44 10000 0.89 234 09:44 12.03.2022
4861 Clouds 2 1027 50 10000 0.45 324 08:55 12.03.2022
4862 Clouds -2 1027 63 10000 0.45 200 07:19 12.03.2022
4863 Clouds -5 1029 80 10000 1.76 317 02:34 12.03.2022
4864 Clear -5 1030 73 10000 1.49 13 23:52 11.03.2022
4865 Clear -4 1030 70 10000 1.93 29 22:52 11.03.2022
4866 Clear -5 1030 72 10000 2.3 34 21:35 11.03.2022
4867 Clear -4 1031 65 10000 2.76 37 20:54 11.03.2022
4868 Clear -4 1031 64 10000 3.04 42 20:28 11.03.2022
4869 Clear -3 1031 60 10000 3.04 42 19:42 11.03.2022
4870 Clouds -1 1030 56 10000 3.52 40 18:51 11.03.2022
4871 Clouds 0 1030 51 10000 0.45 351 17:28 11.03.2022
4872 Clouds 0 1030 44 10000 1.79 339 16:27 11.03.2022
4873 Clouds 1 1030 41 10000 0.89 46 15:53 11.03.2022
4874 Clouds 1 1030 37 10000 1.34 34 14:19 11.03.2022
4875 Clouds 1 1030 34 10000 1.79 30 12:43 11.03.2022
4876 Clouds 0 1030 36 10000 1.79 350 12:20 11.03.2022
4877 Clouds -1 1030 38 10000 1.79 350 11:40 11.03.2022
4878 Clouds -4 1030 45 10000 1.79 343 09:39 11.03.2022
4879 Clouds -4 1030 48 10000 1.34 1 08:40 11.03.2022
4880 Clouds -5 1030 55 10000 1.34 355 07:49 11.03.2022
4881 Clouds -7 1030 63 10000 0.89 10 06:59 11.03.2022
4882 Clouds -8 1030 63 10000 1.34 20 05:20 11.03.2022
4883 Clouds -7 1030 58 10000 0.89 18 02:45 11.03.2022
4884 Clouds -5 1030 54 10000 0.45 293 22:51 10.03.2022
4885 Clear -5 1030 53 10000 0.45 343 22:27 10.03.2022
4886 Clear -5 1030 51 10000 0.89 343 21:26 10.03.2022
4887 Clear -5 1031 52 10000 0.89 46 20:39 10.03.2022
4888 Clear -4 1030 48 10000 0.89 7 19:22 10.03.2022
4889 Clouds -4 1030 45 10000 0.89 0 18:30 10.03.2022
4890 Clouds -3 1029 44 10000 0.89 359 16:53 10.03.2022
4891 Clouds -2 1029 43 10000 1.34 312 15:36 10.03.2022
4892 Clouds -1 1029 43 10000 1.79 352 14:19 10.03.2022
4893 Clouds -2 1029 47 10000 1.34 353 12:43 10.03.2022
4894 Clouds -3 1029 47 10000 1.34 30 11:33 10.03.2022
4895 Clouds -4 1029 57 10000 1.79 32 09:54 10.03.2022
4896 Clouds -4 1029 66 10000 0.45 355 08:40 10.03.2022
4897 Clouds -7 1028 79 10000 0.89 4 05:48 10.03.2022
4898 Clouds -5 1026 75 10000 0.45 305 03:22 10.03.2022
4899 Clouds -3 1024 89 10000 0.89 337 00:22 10.03.2022
4900 Clouds -3 1024 86 10000 0.45 324 22:43 09.03.2022
4901 Clouds -3 1023 81 7145 0.45 16 21:48 09.03.2022
4902 Clouds -3 1023 80 10000 0.89 41 20:53 09.03.2022
4903 Clouds -2 1022 84 10000 4.04 37 19:23 09.03.2022
4904 Clouds -2 1021 88 10000 0.45 63 17:29 09.03.2022
4905 Clouds -1 1021 93 10000 3.69 26 16:48 09.03.2022
4906 Clouds -1 1020 90 10000 0.45 321 15:41 09.03.2022
4907 Clouds 0 1020 74 10000 0.89 33 14:24 09.03.2022
4908 Clouds 0 1020 75 10000 0.89 15 13:38 09.03.2022
4909 Clouds 1 1020 72 10000 0.89 16 12:20 09.03.2022
4910 Clouds 0 1020 76 10000 0.89 358 11:46 09.03.2022
4911 Clouds 0 1019 78 10000 1.34 34 10:54 09.03.2022
4912 Clouds -2 1019 83 10000 0.89 39 09:25 09.03.2022
4913 Clouds -2 1019 85 10000 0.89 19 08:43 09.03.2022
4914 Clouds -3 1018 84 8635 0.89 8 05:56 09.03.2022
4915 Clouds -3 1017 81 10000 0.89 317 00:58 09.03.2022
4916 Clouds -2 1017 78 10000 1.34 7 23:46 08.03.2022
4917 Clouds -2 1017 76 6546 0.89 350 22:45 08.03.2022
4918 Clouds -2 1016 76 10000 0.89 5 21:46 08.03.2022
4919 Clouds -2 1016 76 10000 0.89 347 21:19 08.03.2022
4920 Clouds -1 1016 74 10000 0.89 332 20:18 08.03.2022
4921 Clouds -1 1016 79 10000 0.89 18 18:55 08.03.2022
4922 Clouds -1 1015 77 10000 0.89 357 17:58 08.03.2022
4923 Clouds 0 1014 74 10000 1.34 27 16:37 08.03.2022
4924 Clouds 1 1013 68 10000 1.34 20 14:24 08.03.2022
4925 Clouds 1 1013 71 10000 0.89 16 13:23 08.03.2022
4926 Clouds 2 1012 75 10000 1.34 23 12:20 08.03.2022
4927 Clouds 2 1012 74 10000 0.89 4 11:41 08.03.2022
4928 Clouds 0 1012 92 3211 0.89 46 10:27 08.03.2022
4929 Clouds 0 1012 91 2510 0.45 71 08:30 08.03.2022
4930 Clouds 0 1012 92 210 0.45 340 05:49 08.03.2022
4931 Clouds -1 1012 89 10000 2.83 311 01:49 08.03.2022
4932 Clouds 0 1012 84 10000 2.49 323 22:41 07.03.2022
4933 Clouds 0 1012 76 10000 2.32 326 21:36 07.03.2022
4934 Clouds 0 1012 77 10000 2.05 326 20:55 07.03.2022
4935 Clouds 0 1012 77 10000 1.91 327 20:26 07.03.2022
4936 Clouds 0 1012 76 10000 1.91 327 19:41 07.03.2022
4937 Clouds 0 1012 78 2131 0.45 39 18:47 07.03.2022
4938 Clouds 1 1012 75 10000 0.45 342 17:58 07.03.2022
4939 Clouds 1 1012 70 10000 0.89 32 16:56 07.03.2022
4940 Clouds 1 1012 69 10000 0.89 56 16:30 07.03.2022
4941 Clouds 1 1011 61 10000 0.45 329 14:40 07.03.2022
4942 Clouds 1 1012 63 10000 0.45 4 12:33 07.03.2022
4943 Clouds 2 1012 63 10000 0.89 24 10:45 07.03.2022
4944 Clouds 2 1012 64 10000 0.89 236 10:24 07.03.2022
4945 Clouds -2 1016 100 10000 3.02 280 06:35 07.03.2022
4946 Clouds -2 1019 95 10000 2.96 251 00:23 07.03.2022
4947 Clouds -2 1019 96 10000 2.96 251 23:41 06.03.2022
4948 Clouds 0 1017 69 10000 2.78 245 22:58 06.03.2022
4949 Clouds 0 1017 69 10000 2.54 242 22:24 06.03.2022
4950 Clear 0 1018 70 10000 2.26 246 20:56 06.03.2022
4951 Clear 0 1018 70 10000 2.1 251 20:28 06.03.2022
4952 Clouds 0 1019 71 10000 1.97 260 19:29 06.03.2022
4953 Clouds 0 1019 70 10000 1.9 261 18:25 06.03.2022
4954 Clouds 0 1019 70 10000 1.98 268 17:22 06.03.2022
4955 Clouds 0 1019 75 10000 1.98 268 16:44 06.03.2022
4956 Clouds 0 1019 75 10000 1.98 268 16:44 06.03.2022
4957 Clouds 1 1020 75 10000 2.47 261 16:18 06.03.2022
4958 Clouds 1 1020 62 10000 0.45 211 14:57 06.03.2022
4959 Clouds 2 1020 62 10000 2.87 259 14:38 06.03.2022
4960 Clouds 1 1022 100 10000 2.52 260 13:36 06.03.2022
4961 Clouds 2 1021 62 10000 1.85 288 12:35 06.03.2022
4962 Clouds 1 1022 71 10000 1.93 299 11:21 06.03.2022
4963 Clouds 1 1022 73 10000 1.96 299 10:28 06.03.2022
4964 Clouds 0 1022 81 10000 1.71 320 08:32 06.03.2022
4965 Clouds 0 1022 76 10000 1.71 320 07:45 06.03.2022
4966 Clouds -1 1022 77 10000 1.74 337 06:22 06.03.2022
4967 Clouds 0 1021 81 10000 2.15 8 00:55 06.03.2022
4968 Clouds 0 1021 81 10000 2.53 9 00:33 06.03.2022
4969 Clouds 0 1021 80 10000 2.73 9 23:26 05.03.2022
4970 Clouds 0 1021 80 10000 2.73 9 22:57 05.03.2022
4971 Clouds 0 1021 79 10000 2.84 10 22:23 05.03.2022
4972 Clouds 1 1020 75 10000 0.45 330 21:23 05.03.2022
4973 Clouds 1 1020 73 10000 0.89 18 19:49 05.03.2022
4974 Clouds 1 1019 74 10000 0.45 47 18:56 05.03.2022
4975 Clouds 1 1019 76 10000 0.45 300 18:27 05.03.2022
4976 Clouds 1 1018 78 10000 0.89 13 16:52 05.03.2022
4977 Clouds 1 1017 75 10000 0.89 22 15:40 05.03.2022
4978 Clouds 1 1017 71 10000 4.45 353 14:52 05.03.2022
4979 Clouds 1 1017 71 10000 4.45 353 14:33 05.03.2022
4980 Clouds 2 1017 71 10000 0.89 352 13:22 05.03.2022
4981 Clouds 1 1017 73 10000 1.34 30 11:49 05.03.2022
4982 Clouds 1 1017 73 10000 0.89 34 11:19 05.03.2022
4983 Clouds 1 1016 71 10000 0.89 33 10:20 05.03.2022
4984 Clouds 1 1016 74 10000 0.45 92 09:26 05.03.2022
4985 Clouds 0 1015 77 10000 0.45 350 07:51 05.03.2022
4986 Clouds 0 1014 79 10000 0.89 25 05:43 05.03.2022
4987 Clouds 0 1013 79 10000 0.45 336 03:49 05.03.2022
4988 Clouds 0 1013 80 10000 0.45 36 23:38 04.03.2022
4989 Clouds 0 1013 81 10000 0.89 37 22:42 04.03.2022
4990 Clouds 0 1013 81 10000 1.34 32 22:23 04.03.2022
4991 Clouds 0 1012 80 10000 1.34 346 20:57 04.03.2022
4992 Clouds 0 1012 81 10000 1.34 46 20:27 04.03.2022
4993 Clouds 0 1012 83 10000 0.89 48 19:36 04.03.2022
4994 Clouds 0 1012 82 10000 0.89 102 18:45 04.03.2022
4995 Clouds 1 1012 81 10000 1.34 44 17:48 04.03.2022
4996 Clouds 1 1012 81 10000 0.89 29 17:28 04.03.2022
4997 Clouds 3 1011 76 10000 0.45 58 15:30 04.03.2022
4998 Clouds 2 1011 79 10000 0.89 354 14:33 04.03.2022
4999 Clouds 4 1010 74 10000 0.89 3 13:26 04.03.2022
5000 Clouds 4 1011 78 10000 0.89 50 11:46 04.03.2022
5001 Clouds 3 1010 82 10000 0.89 334 10:54 04.03.2022
5002 Clouds 3 1010 84 10000 0.89 13 09:58 04.03.2022
5003 Clouds 2 1010 88 938 0.45 31 08:40 04.03.2022
5004 Clouds 1 1010 90 264 0.89 37 07:38 04.03.2022
5005 Clouds 1 1009 91 3988 0.89 52 04:31 04.03.2022
5006 Clouds 2 1009 91 10000 0.89 15 00:38 04.03.2022
5007 Clouds 2 1010 92 423 0.45 19 22:28 03.03.2022
5008 Clouds 1 1010 92 423 0.45 58 21:50 03.03.2022
5009 Clouds 2 1010 92 3293 0.45 27 21:29 03.03.2022
5010 Clouds 1 1010 92 10000 3.08 351 20:18 03.03.2022
5011 Clouds 1 1010 92 10000 0.45 70 18:55 03.03.2022
5012 Clouds 1 1010 92 10000 0.45 29 18:24 03.03.2022
5013 Clouds 1 1010 92 10000 0.45 57 17:31 03.03.2022
5014 Clouds 1 1010 92 10000 0.45 34 16:25 03.03.2022
5015 Clouds 2 1010 92 10000 0.89 349 15:24 03.03.2022
5016 Clouds 2 1010 91 10000 0.89 41 14:43 03.03.2022
5017 Clouds 2 1010 91 10000 0.45 50 14:20 03.03.2022
5018 Clouds 2 1010 91 10000 0.45 50 14:20 03.03.2022
5019 Clouds 2 1010 91 10000 0.45 50 14:20 03.03.2022
5020 Clouds 2 1010 91 10000 0.45 38 12:23 03.03.2022
5021 Clouds 1 1010 92 10000 0.45 18 10:48 03.03.2022
5022 Clouds 1 1010 92 10000 0.45 346 09:41 03.03.2022
5023 Clouds 1 1011 94 10000 0.45 350 07:50 03.03.2022
5024 Clouds 1 1011 94 10000 0.45 7 06:37 03.03.2022
5025 Clouds 0 1014 100 1302 2.22 15 03:21 03.03.2022
5026 Clouds 0 1016 100 49 2.3 39 23:39 02.03.2022
5027 Clouds 1 1014 94 49 0.45 352 22:53 02.03.2022
5028 Clouds 2 1014 94 24 0.45 15 21:35 02.03.2022
5029 Clouds 2 1015 94 24 0.45 359 20:55 02.03.2022
5030 Clouds 2 1015 94 25 0.45 332 20:24 02.03.2022
5031 Clouds 2 1016 94 25 2.77 46 19:37 02.03.2022
5032 Clouds 2 1016 94 25 2.77 46 18:54 02.03.2022
5033 Clouds 2 1016 94 22 0.45 335 18:26 02.03.2022
5034 Clouds 2 1016 94 22 0.45 8 17:36 02.03.2022
5035 Clouds 2 1017 93 22 0.45 347 16:51 02.03.2022
5036 Clouds 2 1017 92 160 0.45 349 14:59 02.03.2022
5037 Clouds 3 1018 93 8872 0.89 327 13:30 02.03.2022
5038 Clouds 2 1019 93 6773 0.89 333 12:45 02.03.2022
5039 Clouds 2 1019 93 3428 0.45 96 11:59 02.03.2022
5040 Clouds 2 1020 93 5036 0.89 72 11:25 02.03.2022
5041 Clouds 2 1020 93 10000 0.45 67 10:30 02.03.2022
5042 Clouds 2 1020 93 10000 0.45 67 10:30 02.03.2022
5043 Clouds 1 1021 93 8694 0.45 329 09:31 02.03.2022
5044 Clouds 1 1021 94 251 4.09 53 07:59 02.03.2022
5045 Clouds 0 1022 94 86 0.45 13 07:23 02.03.2022
5046 Clouds 1 1023 93 388 0.45 5 03:56 02.03.2022
5047 Clouds 1 1025 91 712 3.69 33 00:39 02.03.2022
5048 Clouds 1 1025 90 10000 0.45 51 22:53 01.03.2022
5049 Clouds 1 1025 90 10000 0.45 355 22:35 01.03.2022
5050 Clouds 1 1026 90 10000 3.3 41 21:25 01.03.2022
5051 Clouds 1 1026 89 10000 0.89 354 20:37 01.03.2022
5052 Clouds 1 1027 90 10000 0.45 339 20:18 01.03.2022
5053 Clouds 1 1026 91 10000 0.45 342 18:52 01.03.2022
5054 Clouds 1 1026 91 10000 1.34 9 18:21 01.03.2022
5055 Clouds 1 1026 90 10000 0.45 354 17:37 01.03.2022
5056 Clouds 1 1026 90 10000 0.45 20 16:35 01.03.2022
5057 Clouds 1 1026 90 10000 0.45 20 16:35 01.03.2022
5058 Clouds 1 1027 90 10000 0.45 357 15:45 01.03.2022
5059 Clouds 1 1027 90 10000 0.45 64 14:41 01.03.2022
5060 Clouds 1 1027 90 10000 0.45 8 14:23 01.03.2022
5061 Clouds 1 1027 89 10000 0.89 326 13:26 01.03.2022
5062 Clouds 1 1027 89 2516 0.89 41 12:35 01.03.2022
5063 Clouds 1 1027 90 10000 0.45 12 12:35 01.03.2022
5064 Clouds 0 1028 91 3369 0.89 23 10:38 01.03.2022
5065 Clouds 0 1028 91 2937 0.45 47 09:25 01.03.2022
5066 Clouds -1 1028 92 243 0.89 17 07:55 01.03.2022
5067 Clouds -1 1029 93 165 0.45 1 06:27 01.03.2022
5068 Clouds 0 1029 76 213 0.89 341 02:48 01.03.2022
5069 Clouds 1 1030 70 10000 0.89 346 00:40 01.03.2022
5070 Clouds 1 1030 69 10000 0.89 5 23:35 28.02.2022
5071 Clouds 1 1030 68 10000 0.89 334 22:28 28.02.2022
5072 Clouds 1 1030 67 10000 0.89 343 21:43 28.02.2022
5073 Clouds 1 1030 65 10000 0.89 15 20:32 28.02.2022
5074 Clouds 1 1030 75 10000 0.45 23 19:42 28.02.2022
5075 Clouds 2 1031 75 10000 0.89 40 18:49 28.02.2022
5076 Clouds 2 1031 65 10000 0.89 22 17:33 28.02.2022
5077 Clouds 3 1032 70 10000 5.75 22 16:54 28.02.2022
5078 Clouds 4 1031 62 10000 5.68 19 15:58 28.02.2022
5079 Clouds 6 1031 52 10000 5.64 19 14:32 28.02.2022
5080 Clouds 3 1032 36 10000 6.21 21 13:48 28.02.2022
5081 Clouds 3 1032 35 10000 6.12 22 12:53 28.02.2022
5082 Clouds 3 1032 36 10000 5.9 23 11:59 28.02.2022
5083 Clouds 3 1031 60 10000 0.89 347 11:18 28.02.2022
5084 Clouds 3 1032 61 10000 0.89 29 10:22 28.02.2022
5085 Clouds 2 1032 69 10000 0.89 0 09:41 28.02.2022
5086 Clouds 0 1032 75 10000 0.89 358 08:51 28.02.2022
5087 Clouds 0 1032 79 10000 0.89 343 07:57 28.02.2022
5088 Clouds -2 1031 91 10000 0.45 346 05:53 28.02.2022
5089 Clouds -1 1031 92 10000 3.64 34 04:30 28.02.2022
5090 Clouds -1 1031 92 10000 3.24 42 04:30 28.02.2022
5091 Clouds -1 1031 92 10000 3.24 42 04:30 28.02.2022
5092 Clouds 0 1030 88 10000 0.45 341 00:42 28.02.2022
5093 Clouds 1 1030 84 10000 0.45 75 22:38 27.02.2022
5094 Clouds 0 1030 83 10000 2.58 34 21:58 27.02.2022
5095 Clouds 1 1030 81 10000 3.2 23 21:36 27.02.2022
5096 Clouds 1 1030 78 10000 3.2 23 20:41 27.02.2022
5097 Clouds 1 1030 75 10000 3.25 11 20:18 27.02.2022
5098 Clouds 2 1030 71 10000 3.25 11 19:36 27.02.2022
5099 Clouds 2 1030 70 10000 3.03 357 19:18 27.02.2022
5100 Clouds 3 1030 63 10000 0.45 356 17:57 27.02.2022
5101 Clouds 4 1030 60 10000 2.61 340 17:34 27.02.2022
5102 Clouds 4 1029 54 10000 0.89 66 16:22 27.02.2022
5103 Clouds 2 1031 66 10000 3.29 352 14:28 27.02.2022
5104 Clouds 2 1031 72 10000 3.3 356 12:35 27.02.2022
5105 Clouds 2 1031 72 10000 3.59 357 11:46 27.02.2022
5106 Clouds 5 1030 55 10000 0.89 16 10:36 27.02.2022
5107 Clouds 5 1030 56 10000 0.89 40 09:58 27.02.2022
5108 Clouds 5 1030 60 10000 0.45 17 09:23 27.02.2022
5109 Clouds 3 1022 58 10000 0.89 350 08:44 27.02.2022
5110 Clouds 2 1022 69 10000 2.77 344 05:45 27.02.2022
5111 Clouds 2 1021 70 10000 2.27 333 03:35 27.02.2022
5112 Clouds 3 1021 61 10000 0.45 73 23:52 26.02.2022
5113 Clouds 4 1009 16 10000 2.7 354 22:42 26.02.2022
5114 Clouds 5 1020 53 10000 0.45 11 21:27 26.02.2022
5115 Clouds 5 1019 52 10000 0.45 131 20:41 26.02.2022
5116 Clouds 5 1019 53 10000 0.45 222 19:55 26.02.2022
5117 Clouds 5 1008 93 10000 3.14 350 19:33 26.02.2022
5118 Clouds 5 1007 75 10000 2.67 349 18:33 26.02.2022
5119 Clouds 6 1007 64 10000 2.98 354 17:36 26.02.2022
5120 Clouds 6 1017 45 10000 4.02 360 16:39 26.02.2022
5121 Clouds 8 1025 36 10000 6 10 15:37 26.02.2022
5122 Clouds 8 1025 39 10000 6 10 15:18 26.02.2022
5123 Clouds 8 1025 36 10000 6 10 14:41 26.02.2022
5124 Clouds 8 1025 42 10000 7 20 13:51 26.02.2022
5125 Clouds 8 1025 36 10000 5 360 12:53 26.02.2022
5126 Clouds 8 1025 39 10000 6 360 11:52 26.02.2022
5127 Clouds 6 1024 64 10000 6 360 11:25 26.02.2022
5128 Clouds 5 1021 73 10000 5 10 09:44 26.02.2022
5129 Clouds 4 1020 84 10000 3.13 360 08:28 26.02.2022
5130 Clouds 2 1017 87 10000 4.02 340 06:31 26.02.2022
5131 Clouds 2 1012 80 9000 1 240 23:52 25.02.2022
5132 Clouds 2 1010 80 7000 1 240 22:34 25.02.2022
5133 Clouds 2 1010 81 10000 0 0 21:32 25.02.2022
5134 Clouds 2 1010 80 10000 0 0 20:51 25.02.2022
5135 Clouds 2 999 93 10000 0 0 20:25 25.02.2022
5136 Clouds 2 1009 73 9000 1 210 17:57 25.02.2022
5137 Clouds 5 1010 62 10000 2 230 16:55 25.02.2022
5138 Clouds 6 1010 64 10000 3.13 230 15:55 25.02.2022
5139 Clouds 7 1010 56 10000 2 220 15:23 25.02.2022
5140 Clouds 7 1010 56 10000 2 200 14:55 25.02.2022
5141 Clouds 7 1015 57 10000 3.13 200 14:27 25.02.2022
5142 Clouds 7 1015 55 10000 3.13 170 13:30 25.02.2022
5143 Clouds 7 1016 56 10000 4.02 210 12:21 25.02.2022
5144 Clouds 5 1012 63 10000 3.13 180 11:22 25.02.2022
5145 Clouds 5 1013 73 10000 2 200 10:23 25.02.2022
5146 Clouds 4 1013 76 10000 2 160 09:46 25.02.2022
5147 Clouds 3 1013 80 10000 2 160 08:41 25.02.2022
5148 Clouds 2 1014 90 8000 2 150 07:31 25.02.2022
5149 Clouds 2 1014 87 6000 2 150 05:42 25.02.2022
5150 Clouds 2 1015 90 6000 2 170 02:46 25.02.2022
5151 Clouds 3 1017 91 7000 1 0 22:47 24.02.2022
5152 Clouds 3 1018 91 7000 1 0 21:51 24.02.2022
5153 Clouds 3 1018 91 8000 1 0 21:30 24.02.2022
5154 Clouds 3 1018 84 9000 1 150 20:47 24.02.2022
5155 Clouds 3 1018 83 10000 1 160 19:32 24.02.2022
5156 Clouds 3 1018 80 10000 2 160 18:21 24.02.2022
5157 Clouds 4 1017 75 10000 1 0 17:58 24.02.2022
5158 Clouds 4 1017 75 10000 1 200 17:33 24.02.2022
5159 Clouds 4 1017 74 10000 0 0 16:28 24.02.2022
5160 Clouds 5 1017 76 10000 1 150 15:44 24.02.2022
5161 Clouds 5 1017 72 10000 0 0 14:51 24.02.2022
5162 Clouds 5 1023 75 10000 1 0 14:19 24.02.2022
5163 Clouds 5 1017 75 10000 2 360 13:39 24.02.2022
5164 Clouds 5 1017 75 10000 2 360 13:39 24.02.2022
5165 Clouds 4 1016 88 10000 3.13 320 12:27 24.02.2022
5166 Clouds 3 1013 95 10000 2 320 10:39 24.02.2022
5167 Clouds 3 1003 33 4706 2.42 319 08:46 24.02.2022
5168 Clouds 3 1002 33 5000 2.75 314 08:22 24.02.2022
5169 Rain 2 1014 86 6000 1 280 05:50 24.02.2022
5170 Clouds 2 1012 82 10000 2 220 00:32 24.02.2022
5171 Rain 2 1011 81 7000 2 230 22:29 23.02.2022
5172 Rain 3 1011 74 10000 2 240 20:52 23.02.2022
5173 Rain 3 1011 70 10000 3.13 240 20:30 23.02.2022
5174 Rain 4 1010 67 10000 2 180 19:44 23.02.2022
5175 Rain 4 1010 64 10000 2 190 18:31 23.02.2022
5176 Rain 4 1009 62 10000 2 210 17:21 23.02.2022
5177 Clear 6 1009 54 10000 5 250 14:34 23.02.2022
5178 Clear 6 1008 49 10000 4.02 270 12:37 23.02.2022
5179 Clouds 6 1008 53 10000 5 270 11:23 23.02.2022
5180 Clouds 4 1005 55 10000 5 280 10:25 23.02.2022
5181 Clouds 3 1008 60 10000 5 290 08:56 23.02.2022
5182 Clear 2 1007 69 10000 5 280 07:57 23.02.2022
5183 Clouds 2 1004 79 10000 3.13 260 03:47 23.02.2022
5184 Clear 4 1003 66 10000 5 290 00:19 23.02.2022
5185 Clear 4 1001 79 10000 5 280 23:34 22.02.2022
5186 Clear 4 1003 64 10000 5 270 22:28 22.02.2022
5187 Clear 4 1002 61 10000 4.02 260 21:48 22.02.2022
5188 Clouds 4 1002 62 10000 5 260 21:24 22.02.2022
5189 Clouds 4 1002 62 10000 4.02 270 20:47 22.02.2022
5190 Clouds 4 1001 64 10000 4.02 270 20:28 22.02.2022
5191 Clear 4 1001 61 10000 5 270 19:34 22.02.2022
5192 Clouds 5 1001 58 10000 6 270 18:58 22.02.2022
5193 Clouds 7 1001 57 10000 6 280 17:36 22.02.2022
5194 Clouds 7 1001 57 10000 6 280 17:18 22.02.2022
5195 Clear 8 1000 58 10000 6 260 16:36 22.02.2022
5196 Clear 9 999 51 10000 6 250 15:37 22.02.2022
5197 Clear 10 1005 48 10000 7.15 250 14:42 22.02.2022
5198 Clear 10 998 45 10000 5 240 11:41 22.02.2022
5199 Clear 8 995 45 10000 4.02 250 10:24 22.02.2022
5200 Clear 4 998 80 10000 2 250 07:43 22.02.2022
5201 Clear 4 998 83 10000 2 260 07:25 22.02.2022
5202 Clouds 5 996 84 10000 3.13 220 02:51 22.02.2022
5203 Rain 5 994 81 10000 5 260 00:44 22.02.2022
5204 Rain 7 995 63 10000 4.02 230 22:38 21.02.2022
5205 Rain 8 995 57 10000 6 220 21:24 21.02.2022
5206 Clear 8 995 55 10000 5 210 19:36 21.02.2022
5207 Clear 8 995 54 10000 0.89 137 18:39 21.02.2022
5208 Clear 8 995 60 10000 5 210 16:40 21.02.2022
5209 Clear 8 996 48 10000 6 220 14:24 21.02.2022
5210 Clear 8 996 48 10000 6 220 13:55 21.02.2022
5211 Clear 7 997 56 10000 6 210 12:57 21.02.2022
5212 Clear 7 997 54 10000 6 210 12:21 21.02.2022
5213 Clear 6 996 53 10000 7.15 220 10:32 21.02.2022
5214 Clouds 3 997 69 10000 5 210 07:52 21.02.2022
5215 Clouds 4 1000 62 10000 5 250 00:36 21.02.2022
5216 Clear 4 1002 60 10000 4.02 230 22:39 20.02.2022
5217 Clear 4 1002 59 10000 5 230 21:51 20.02.2022
5218 Clear 4 1002 56 10000 4.02 230 21:25 20.02.2022
5219 Clear 4 1003 56 10000 4.02 230 20:45 20.02.2022
5220 Clear 3 1003 56 10000 4.02 220 19:59 20.02.2022
5221 Clear 3 1004 57 10000 3.13 210 18:57 20.02.2022
5222 Clear 4 1004 54 10000 3.13 220 18:37 20.02.2022
5223 Clear 4 1004 52 10000 3.13 220 17:56 20.02.2022
5224 Clear 5 1010 51 10000 5 240 17:24 20.02.2022
5225 Clear 6 1005 56 10000 6 250 15:29 20.02.2022
5226 Clear 7 1005 56 10000 7.15 240 14:20 20.02.2022
5227 Clouds 7 1012 52 10000 6 250 12:49 20.02.2022
5228 Clouds 7 1006 55 10000 7.15 260 11:56 20.02.2022
5229 Clear 6 1003 60 10000 7.15 270 10:21 20.02.2022
5230 Clear 6 1006 63 10000 7.15 270 09:51 20.02.2022
5231 Clear 2 1006 71 10000 5 260 06:30 20.02.2022
5232 Clear 4 1003 59 10000 8.05 260 00:33 20.02.2022
5233 Clear 5 1002 58 10000 7.15 260 23:39 19.02.2022
5234 Clear 6 1002 54 10000 10 270 22:25 19.02.2022
5235 Clear 6 1002 53 10000 9 260 21:52 19.02.2022
5236 Clear 6 1001 55 10000 8 250 20:45 19.02.2022
5237 Clear 6 1000 58 10000 8.05 250 19:36 19.02.2022
5238 Clear 6 1000 62 10000 5 240 18:41 19.02.2022
5239 Clear 6 999 68 10000 5 240 17:59 19.02.2022
5240 Clear 6 999 70 10000 4.02 230 17:32 19.02.2022
5241 Clear 8 998 63 10000 7.15 230 15:59 19.02.2022
5242 Rain 8 1004 62 10000 7.15 230 14:55 19.02.2022
5243 Rain 7 1004 66 10000 6 230 13:58 19.02.2022
5244 Rain 5 998 67 10000 6 230 11:58 19.02.2022
5245 Clear 5 998 60 10000 6 220 11:24 19.02.2022
5246 Rain 4 998 60 10000 7.15 200 09:00 19.02.2022
5247 Rain 3 999 70 10000 7 210 06:48 19.02.2022
5248 Clear 0 1003 85 10000 3.13 220 00:50 19.02.2022
5249 Clear 1 1003 82 10000 2 220 22:33 18.02.2022
5250 Clear 2 1003 82 10000 4.02 250 21:26 18.02.2022
5251 Clear 2 1003 82 10000 4.02 250 20:24 18.02.2022
5252 Clear 2 1002 82 10000 4.02 250 19:50 18.02.2022
5253 Clear 3 1001 82 10000 3.13 250 18:37 18.02.2022
5254 Clear 3 1001 82 10000 3.13 250 18:18 18.02.2022
5255 Clouds 4 1000 80 10000 4.02 280 17:18 18.02.2022
5256 Clouds 6 998 74 10000 5 290 14:19 18.02.2022
5257 Clouds 6 997 76 10000 6 270 13:45 18.02.2022
5258 Clouds 6 997 71 10000 0.89 242 12:48 18.02.2022
5259 Clouds 6 995 80 10000 6 290 11:57 18.02.2022
5260 Clouds 5 995 73 10000 6 270 10:42 18.02.2022
5261 Clouds 2 991 81 10000 4.02 280 07:21 18.02.2022
5262 Clear 2 989 85 10000 5 290 05:52 18.02.2022
5263 Clear 2 989 85 10000 6 290 05:34 18.02.2022
5264 Clouds 5 984 80 10000 5 240 21:59 17.02.2022
5265 Clouds 5 984 78 10000 6 240 21:38 17.02.2022
5266 Clear 6 984 81 10000 6 240 20:43 17.02.2022
5267 Clear 6 983 80 10000 6 240 19:55 17.02.2022
5268 Clouds 6 983 79 10000 0.45 249 19:22 17.02.2022
5269 Rain 6 982 80 10000 6 230 18:29 17.02.2022
5270 Rain 6 984 83 10000 5 220 17:30 17.02.2022
5271 Rain 5 985 87 9000 7.15 210 15:51 17.02.2022
5272 Rain 5 986 86 9000 6 200 14:29 17.02.2022
5273 Rain 6 987 78 10000 0.89 157 13:30 17.02.2022
5274 Rain 7 989 74 10000 5 200 11:48 17.02.2022
5275 Clouds 5 991 89 7000 5 190 09:58 17.02.2022
5276 Mist 3 995 90 3300 0.45 231 06:44 17.02.2022
5277 Mist 1 1003 91 2900 3.13 190 23:23 16.02.2022
5278 Mist 1 1003 91 3600 3.13 200 22:28 16.02.2022
5279 Mist 1 1006 90 4400 4.02 210 20:22 16.02.2022
5280 Mist 1 1006 90 4800 3.13 180 18:56 16.02.2022
5281 Mist 1 1007 87 5000 3.13 210 17:56 16.02.2022
5282 Mist 1 1007 86 5000 2 170 16:44 16.02.2022
5283 Clouds 2 1008 82 9000 2 200 15:21 16.02.2022
5284 Clouds 2 1009 81 9000 3.13 200 13:40 16.02.2022
5285 Clouds 1 1007 82 10000 4.02 210 12:24 16.02.2022
5286 Clouds 1 1010 84 10000 2 210 11:45 16.02.2022
5287 Clouds 1 1011 82 10000 2 180 10:34 16.02.2022
5288 Clouds 1 1011 83 10000 2 180 09:34 16.02.2022
5289 Clouds 0 1011 84 10000 2 170 06:43 16.02.2022
5290 Clouds -1 1014 80 10000 2 160 00:37 16.02.2022
5291 Clouds 1 1015 73 10000 2 170 22:34 15.02.2022
5292 Clouds 1 1015 73 10000 3.13 180 21:50 15.02.2022
5293 Clouds 1 1013 70 10000 4.02 190 21:29 15.02.2022
5294 Clouds 2 1015 70 10000 3.13 180 20:57 15.02.2022
5295 Clouds 2 1015 73 10000 3.13 180 20:19 15.02.2022
5296 Clouds 1 1015 73 10000 3.13 170 19:33 15.02.2022
5297 Clear 2 1015 67 10000 2 140 18:24 15.02.2022
5298 Clear 2 1015 66 10000 2 140 17:52 15.02.2022
5299 Clear 3 1014 66 10000 2 140 17:26 15.02.2022
5300 Clear 4 1021 58 10000 3.13 170 15:36 15.02.2022
5301 Clear 5 1021 59 10000 4.02 170 13:49 15.02.2022
5302 Clear 5 1022 57 10000 4.02 170 13:25 15.02.2022
5303 Clear 5 1014 53 10000 4.02 170 11:41 15.02.2022
5304 Clear 5 1014 53 10000 4.02 170 11:41 15.02.2022
5305 Clear 3 1016 65 10000 3.13 170 09:54 15.02.2022
5306 Clear -3 1015 84 10000 3.13 140 07:00 15.02.2022
5307 Clear -3 1015 84 10000 3.13 150 06:36 15.02.2022
5308 Clear -1 1017 69 10000 2 180 23:34 14.02.2022
5309 Clear -1 1018 68 10000 2 170 21:55 14.02.2022
5310 Clear -1 1018 68 10000 2 190 20:51 14.02.2022
5311 Clear 0 1016 66 10000 3.13 170 19:46 14.02.2022
5312 Clear 0 1016 65 10000 3.13 170 19:26 14.02.2022
5313 Clear 1 1018 64 10000 4.02 190 18:23 14.02.2022
5314 Clear 1 1017 57 10000 3.13 190 17:27 14.02.2022
5315 Clear 2 1016 56 10000 4.02 200 16:26 14.02.2022
5316 Clear 4 1024 50 10000 5.81 210 14:42 14.02.2022
5317 Clear 5 1024 56 10000 6 230 13:34 14.02.2022
5318 Clear 5 1024 58 10000 6 210 12:56 14.02.2022
5319 Clear 3 1015 59 10000 6 220 11:55 14.02.2022
5320 Clear 3 1018 65 10000 5 230 11:18 14.02.2022
5321 Clear 1 1015 74 10000 5 220 09:19 14.02.2022
5322 Clear -2 1018 90 10000 3.13 220 07:33 14.02.2022
5323 Clear -2 1018 91 10000 3.13 220 07:33 14.02.2022
5324 Clear -2 1019 79 10000 3.13 220 06:32 14.02.2022
5325 Clear -1 1021 82 10000 4.02 200 22:43 13.02.2022
5326 Clear -1 1021 82 10000 4.02 200 22:25 13.02.2022
5327 Clear -1 1021 81 10000 4.02 190 21:48 13.02.2022
5328 Clear -1 1021 80 10000 4.02 200 20:42 13.02.2022
5329 Clear -1 1022 80 10000 4.02 190 19:51 13.02.2022
5330 Clear 0 1022 77 10000 4.02 190 18:56 13.02.2022
5331 Clear 0 1023 77 10000 3.13 190 18:38 13.02.2022
5332 Clear 1 1023 68 10000 3.13 220 16:39 13.02.2022
5333 Clouds 2 1030 64 10000 5 220 15:42 13.02.2022
5334 Clouds 3 1024 61 10000 6 220 14:37 13.02.2022
5335 Clouds 5 1025 63 10000 5 230 12:52 13.02.2022
5336 Clouds 3 1032 65 10000 5 220 12:33 13.02.2022
5337 Clear 1 1023 74 10000 4.02 240 10:38 13.02.2022
5338 Clear 1 1026 74 10000 5 240 09:49 13.02.2022
5339 Clear -2 1027 94 10000 3.13 230 07:54 13.02.2022
5340 Clear -2 1028 82 10000 3.13 240 00:49 13.02.2022
5341 Clear -2 1026 81 10000 3.13 270 00:20 13.02.2022
5342 Clear -2 1025 84 10000 3.13 270 22:34 12.02.2022
5343 Clear -2 1024 84 10000 4.02 280 21:40 12.02.2022
5344 Clear -2 1024 84 10000 4.02 260 20:55 12.02.2022
5345 Clear -2 1023 84 10000 3.13 290 19:56 12.02.2022
5346 Clear 0 1025 80 10000 4.02 300 18:54 12.02.2022
5347 Clear 0 1025 80 10000 4.02 300 18:54 12.02.2022
5348 Clear 0 1022 77 10000 3.13 310 18:35 12.02.2022
5349 Clouds 1 1024 79 10000 5 300 17:38 12.02.2022
5350 Clouds 1 1021 79 10000 5 300 16:44 12.02.2022
5351 Clouds 2 1022 77 10000 7.15 310 15:52 12.02.2022
5352 Clouds 2 1028 77 10000 7.15 300 15:20 12.02.2022
5353 Clouds 2 1021 83 8000 4.02 290 14:25 12.02.2022
5354 Clouds 2 1019 82 10000 7.15 310 11:26 12.02.2022
5355 Rain 1 1018 85 10000 7.15 320 10:29 12.02.2022
5356 Clouds 1 1014 85 10000 5 310 09:36 12.02.2022
5357 Clouds 0 1014 89 7000 4.92 320 08:46 12.02.2022
5358 Mist 0 1011 90 5000 3.13 330 06:52 12.02.2022
5359 Mist 0 1010 92 5000 6 10 04:44 12.02.2022
5360 Clouds 0 1015 93 2000 2 80 02:19 12.02.2022
5361 Rain 2 1011 79 10000 2 140 23:20 11.02.2022
5362 Clear 2 1011 81 10000 2 140 22:20 11.02.2022
5363 Snow 2 1011 84 6000 1 0 21:18 11.02.2022
5364 Snow 2 1011 84 7000 1 130 20:26 11.02.2022
5365 Clear 2 1010 82 10000 0 0 19:28 11.02.2022
5366 Clouds 3 1011 80 10000 1 310 18:29 11.02.2022
5367 Clear 3 1011 75 10000 1 0 17:26 11.02.2022
5368 Clouds 5 1010 73 10000 4.02 330 16:37 11.02.2022
5369 Clouds 7 1015 68 10000 5 300 15:18 11.02.2022
5370 Clouds 7 1015 70 10000 5 300 14:37 11.02.2022
5371 Clouds 7 1015 70 10000 5 300 14:19 11.02.2022
5372 Clouds 6 1009 76 10000 7 310 13:40 11.02.2022
5373 Clouds 6 1007 77 10000 5 290 12:45 11.02.2022
5374 Clouds 6 1008 78 10000 4.02 270 10:49 11.02.2022
5375 Rain 5 1006 75 10000 7.15 260 09:31 11.02.2022
5376 Rain 5 1005 73 10000 5 240 08:31 11.02.2022
5377 Rain 4 1006 80 10000 4.02 240 07:40 11.02.2022
5378 Clouds 3 1015 87 9000 4.02 230 02:40 11.02.2022
5379 Clouds 3 1016 89 9000 3.13 230 02:20 11.02.2022
5380 Clouds 3 1009 89 7000 1 250 23:41 10.02.2022
5381 Mist 2 1011 88 5000 3.13 240 21:55 10.02.2022
5382 Clouds 2 1011 91 6000 3.13 240 21:35 10.02.2022
5383 Clouds 3 1011 87 7000 3.13 240 20:48 10.02.2022
5384 Clouds 3 1012 87 9000 5 250 19:49 10.02.2022
5385 Clear 3 1012 87 10000 4.02 240 19:20 10.02.2022
5386 Clear 4 1012 85 10000 4.02 250 17:43 10.02.2022
5387 Clouds 4 1010 85 10000 4.02 260 17:20 10.02.2022
5388 Clouds 4 1012 86 10000 4.02 250 16:30 10.02.2022
5389 Clouds 5 1017 80 10000 4.02 270 15:37 10.02.2022
5390 Clouds 6 1010 76 10000 4.02 260 15:18 10.02.2022
5391 Clouds 5 1009 82 10000 4.02 260 14:33 10.02.2022
5392 Clouds 6 1011 82 10000 0.89 253 13:33 10.02.2022
5393 Clouds 6 1009 78 10000 5 270 12:53 10.02.2022
5394 Clouds 6 1009 79 10000 6 270 11:48 10.02.2022
5395 Clouds 6 1009 79 10000 6 270 11:28 10.02.2022
5396 Clouds 5 1010 82 10000 6 270 10:21 10.02.2022
5397 Clouds 5 1007 80 10000 6 270 09:27 10.02.2022
5398 Clouds 4 1009 85 10000 6 260 07:57 10.02.2022
5399 Clouds 4 1010 90 4700 5 260 05:53 10.02.2022
5400 Clouds 2 1011 86 8000 4.02 240 01:58 10.02.2022
5401 Rain 2 1011 82 10000 4.02 250 00:51 10.02.2022
5402 Rain 2 1011 82 10000 4.02 250 00:29 10.02.2022
5403 Rain 2 1012 78 10000 3.13 240 23:28 09.02.2022
5404 Clouds 2 1012 75 10000 4.02 260 22:38 09.02.2022
5405 Clouds 2 1012 74 10000 3.13 250 21:56 09.02.2022
5406 Clouds 2 1013 77 10000 2 250 21:32 09.02.2022
5407 Clear 2 1012 73 10000 4 270 20:53 09.02.2022
5408 Clear 2 1012 72 10000 4.02 270 20:31 09.02.2022
5409 Clouds 3 1012 72 10000 4.02 290 19:59 09.02.2022
5410 Clouds 3 1012 72 10000 5 290 19:38 09.02.2022
5411 Clear 3 1010 72 10000 5 300 17:39 09.02.2022
5412 Clear 3 1009 71 10000 6 300 16:53 09.02.2022
5413 Clouds 4 1016 65 10000 7 300 15:54 09.02.2022
5414 Clouds 5 1015 65 10000 9 310 14:42 09.02.2022
5415 Clouds 4 1015 75 10000 7.15 310 12:30 09.02.2022
5416 Clouds 3 1004 80 10000 7.15 310 11:19 09.02.2022
5417 Clouds 3 1004 91 10000 7.15 300 10:30 09.02.2022
5418 Clouds 3 1005 79 10000 6 300 09:40 09.02.2022
5419 Clouds 3 1007 78 10000 6 300 09:19 09.02.2022
5420 Clouds 2 1006 86 10000 5 290 07:55 09.02.2022
5421 Clouds 1 1005 86 6000 4.02 270 05:30 09.02.2022
5422 Clouds 1 1005 86 6000 4.02 270 05:30 09.02.2022
5423 Snow 0 1003 87 10000 3.13 250 03:50 09.02.2022
5424 Snow 0 1001 90 10000 3.13 250 00:53 09.02.2022
5425 Clouds 0 1006 81 10000 4.02 260 23:34 08.02.2022
5426 Clear 0 1004 79 10000 4.02 260 22:50 08.02.2022
5427 Clouds 1 1006 78 10000 4.02 260 22:22 08.02.2022
5428 Snow 1 1005 75 10000 4.02 260 21:49 08.02.2022
5429 Clouds 1 1005 75 10000 4.02 260 21:21 08.02.2022
5430 Clouds 1 1005 71 10000 3.13 260 20:45 08.02.2022
5431 Clouds 1 1006 68 10000 4.02 270 19:46 08.02.2022
5432 Clouds 1 1006 67 10000 3.13 280 18:48 08.02.2022
5433 Clouds 1 1006 67 10000 4 290 17:43 08.02.2022
5434 Clouds 1 1008 68 10000 6 310 16:30 08.02.2022
5435 Clouds 2 1005 61 10000 6 300 15:30 08.02.2022
5436 Clouds 2 1003 72 10000 6 320 14:38 08.02.2022
5437 Clouds 2 1003 72 10000 6 320 13:24 08.02.2022
5438 Clouds 2 1007 66 10000 6 340 11:38 08.02.2022
5439 Clouds 2 1006 70 10000 5 320 10:23 08.02.2022
5440 Clouds 1 1006 74 10000 5 320 09:45 08.02.2022
5441 Snow 1 1002 80 10000 4.02 340 07:53 08.02.2022
5442 Snow 1 1000 80 10000 5 340 05:41 08.02.2022
5443 Snow 1 999 84 10000 4.02 330 04:39 08.02.2022
5444 Snow 1 999 84 10000 4.02 330 04:21 08.02.2022
5445 Snow 1 998 84 10000 4.02 330 03:36 08.02.2022
5446 Snow 1 998 84 10000 4.02 330 03:18 08.02.2022
5447 Snow 1 998 84 10000 3.13 340 02:59 08.02.2022
5448 Rain 1 998 84 9000 4.02 350 02:36 08.02.2022
5449 Rain 1 997 84 9000 4.02 350 02:18 08.02.2022
5450 Clouds 1 999 87 9000 4.92 350 01:44 08.02.2022
5451 Rain 2 999 87 8000 0.89 47 01:24 08.02.2022
5452 Rain 2 998 87 8000 4.02 350 00:54 08.02.2022
5453 Rain 1 996 88 4800 2 290 23:55 07.02.2022
5454 Mist 1 995 88 4800 1 270 23:37 07.02.2022
5455 Mist 2 997 86 5000 0 0 23:18 07.02.2022
5456 Mist 1 996 90 5000 0.89 270 22:19 07.02.2022
5457 Mist 1 1002 90 5000 0 0 21:55 07.02.2022
5458 Mist 1 1002 90 5000 1 230 21:29 07.02.2022
5459 Snow 1 1002 89 6000 0 0 20:56 07.02.2022
5460 Snow 1 1002 86 6000 0 0 20:38 07.02.2022
5461 Snow 1 996 86 7000 1 290 19:49 07.02.2022
5462 Snow 1 1001 86 7000 1 290 19:31 07.02.2022
5463 Clouds 2 995 83 10000 2 210 17:52 07.02.2022
5464 Clear 2 994 83 10000 2 220 16:52 07.02.2022
5465 Clear 3 994 78 10000 2 220 15:49 07.02.2022
5466 Clear 4 999 73 10000 4.02 210 14:48 07.02.2022
5467 Rain 3 998 72 10000 3.13 200 13:28 07.02.2022
5468 Rain 3 991 63 10000 4.02 220 12:42 07.02.2022
5469 Rain 3 991 71 10000 4.02 220 11:57 07.02.2022
5470 Rain 3 991 72 10000 4.02 200 11:34 07.02.2022
5471 Rain 2 993 82 10000 0.45 121 10:49 07.02.2022
5472 Rain 2 991 80 10000 4.02 190 10:29 07.02.2022
5473 Rain 1 991 81 10000 4.02 190 09:53 07.02.2022
5474 Snow 2 994 84 9000 4.02 210 09:18 07.02.2022
5475 Snow 2 994 84 10000 0.45 233 08:24 07.02.2022
5476 Snow 1 992 80 10000 3.13 200 06:52 07.02.2022
5477 Snow 1 992 72 10000 4.92 200 06:33 07.02.2022
5478 Clouds 1 1002 83 10000 4 200 02:56 07.02.2022
5479 Clouds 2 1005 75 10000 5 220 00:42 07.02.2022
5480 Clouds 1 1005 83 10000 4 220 23:42 06.02.2022
5481 Clouds 1 1006 68 10000 4 220 22:47 06.02.2022
5482 Clouds 1 1006 68 10000 4 220 21:51 06.02.2022
5483 Clouds 2 1000 68 10000 4.02 210 21:26 06.02.2022
5484 Clouds 2 1000 68 10000 4.02 220 20:52 06.02.2022
5485 Clouds 2 1008 68 10000 4.92 220 20:28 06.02.2022
5486 Clouds 2 1001 58 10000 4.02 220 19:32 06.02.2022
5487 Clouds 2 1001 68 10000 4.02 220 18:38 06.02.2022
5488 Clouds 2 1002 68 10000 4.02 240 17:54 06.02.2022
5489 Clear 2 1002 69 10000 5.81 250 16:53 06.02.2022
5490 Clear 2 1002 68 10000 4.92 250 16:32 06.02.2022
5491 Clear 3 999 66 10000 6 240 15:47 06.02.2022
5492 Clear 3 1010 64 10000 5.81 240 15:26 06.02.2022
5493 Clouds 3 1004 72 10000 0.45 257 14:27 06.02.2022
5494 Snow 3 1005 76 8000 1.34 284 13:24 06.02.2022
5495 Rain 3 1001 79 10000 5.81 250 12:45 06.02.2022
5496 Rain 2 1003 71 10000 5.81 260 11:19 06.02.2022
5497 Clear 2 1006 77 10000 0.45 231 09:48 06.02.2022
5498 Clear 1 1005 90 10000 0.89 221 08:47 06.02.2022
5499 Clear 1 1006 80 10000 0.89 213 07:36 06.02.2022
5500 Clear 1 1005 80 10000 0.45 237 05:29 06.02.2022
5501 Clear 1 1005 79 10000 0.89 256 02:26 06.02.2022
5502 Clear 1 1005 79 10000 0.45 264 01:20 06.02.2022
5503 Clear 0 1003 80 10000 4.92 260 00:24 06.02.2022
5504 Clear 0 1003 82 10000 4.92 270 22:18 05.02.2022
5505 Clouds 1 1002 81 10000 4.92 270 20:48 05.02.2022
5506 Clouds 1 1004 84 10000 5.81 270 20:23 05.02.2022
5507 Clear 1 1002 84 10000 4.92 260 19:44 05.02.2022
5508 Clouds 1 1003 88 8000 0.45 250 18:48 05.02.2022
5509 Snow 0 1001 78 4500 4.02 240 17:37 05.02.2022
5510 Snow 0 1001 73 8000 4.92 220 16:33 05.02.2022
5511 Snow 0 1003 74 10000 0.89 151 15:31 05.02.2022
5512 Snow 0 1003 74 10000 0.89 243 13:58 05.02.2022
5513 Snow -1 1002 73 6000 4.02 200 12:46 05.02.2022
5514 Snow -1 1002 73 6000 4.02 200 12:46 05.02.2022
5515 Snow -1 1005 74 10000 0.45 267 11:47 05.02.2022
5516 Snow -2 1005 77 10000 0.45 194 10:46 05.02.2022
5517 Snow -3 1006 78 10000 3.13 170 09:51 05.02.2022
5518 Snow -3 1006 78 5000 0.45 118 09:23 05.02.2022
5519 Clouds -4 1007 75 10000 0.45 106 07:32 05.02.2022
5520 Clouds -4 1007 72 10000 0.45 358 06:55 05.02.2022
5521 Clear -6 1015 86 10000 1 0 02:43 05.02.2022
5522 Clouds -9 1015 90 8000 0 0 01:18 05.02.2022
5523 Mist -10 1015 94 5000 0 0 00:36 05.02.2022
5524 Mist -11 1015 92 4200 0.89 130 23:33 04.02.2022
5525 Mist -11 1016 92 4600 0.89 0 22:50 04.02.2022
5526 Mist -10 1016 85 4500 0.89 250 21:36 04.02.2022
5527 Mist -10 1016 92 4300 0.89 220 21:18 04.02.2022
5528 Mist -9 1016 85 4600 0.89 220 20:40 04.02.2022
5529 Smoke -9 1016 85 5000 0 0 19:29 04.02.2022
5530 Clear -5 1016 63 10000 2 330 16:50 04.02.2022
5531 Clear -2 1015 54 10000 3 320 15:33 04.02.2022
5532 Clear -2 1015 54 10000 4 330 14:51 04.02.2022
5533 Clear -3 1016 58 10000 3.13 330 12:43 04.02.2022
5534 Clear -3 1016 58 10000 4.02 310 11:46 04.02.2022
5535 Clear -4 1006 68 10000 3.13 320 10:59 04.02.2022
5536 Clear -5 1016 73 10000 3.13 310 10:22 04.02.2022
5537 Clear -8 1006 85 10000 3.13 300 08:31 04.02.2022
5538 Clear -8 1006 85 10000 3.13 290 04:45 04.02.2022
5539 Clouds -6 1015 85 10000 4.02 300 02:38 04.02.2022
5540 Clouds -4 1009 71 10000 0.89 227 23:56 03.02.2022
5541 Clouds -4 1009 70 10000 4.92 310 22:52 03.02.2022
5542 Snow -3 1009 68 10000 0.45 126 21:58 03.02.2022
5543 Snow -3 1009 69 10000 0.45 71 21:37 03.02.2022
5544 Clouds -3 1009 71 10000 0.45 125 20:22 03.02.2022
5545 Clouds -3 1009 72 10000 0.45 41 19:46 03.02.2022
5546 Clouds -3 1009 73 10000 0.89 235 19:20 03.02.2022
5547 Clouds -3 1008 77 10000 1.34 220 17:59 03.02.2022
5548 Clouds -2 1006 86 10000 0.89 113 17:19 03.02.2022
5549 Clouds -1 1006 78 10000 1.34 230 15:34 03.02.2022
5550 Snow -1 1003 82 9000 4.92 310 13:50 03.02.2022
5551 Snow 0 1004 81 9000 0.45 115 12:22 03.02.2022
5552 Snow 1 1008 84 10000 4.02 270 08:56 03.02.2022
5553 Clouds 1 1001 87 9000 0.45 262 07:43 03.02.2022
5554 Clouds 0 997 75 10000 1.79 180 00:49 03.02.2022
5555 Clouds 0 1004 86 10000 3 200 00:22 03.02.2022
5556 Clouds 0 1003 89 10000 3 190 22:39 02.02.2022
5557 Clouds 0 1003 89 10000 4 200 21:46 02.02.2022
5558 Clouds 0 1003 89 10000 4 200 21:28 02.02.2022
5559 Snow 0 997 83 10000 4.02 190 20:27 02.02.2022
5560 Snow 0 997 83 10000 4.02 180 19:46 02.02.2022
5561 Clear 0 997 80 10000 4.02 170 18:56 02.02.2022
5562 Clear 0 997 80 10000 3.13 170 18:24 02.02.2022
5563 Clear 0 995 77 10000 4.02 170 17:20 02.02.2022
5564 Snow 0 995 77 10000 4.02 170 16:56 02.02.2022
5565 Snow 1 996 74 10000 3.13 170 15:23 02.02.2022
5566 Clouds 1 1002 63 10000 4.02 170 12:30 02.02.2022
5567 Clouds 1 997 65 10000 0.45 228 11:48 02.02.2022
5568 Clouds 0 1003 63 10000 3.13 170 11:30 02.02.2022
5569 Clouds 0 1003 52 10000 3.13 170 11:30 02.02.2022
5570 Clear -3 1004 71 10000 3.13 180 08:30 02.02.2022
5571 Clear -4 1005 71 10000 3.13 220 01:46 02.02.2022
5572 Clear -3 1006 63 10000 3 220 22:29 01.02.2022
5573 Clear -2 1006 59 10000 2 240 20:51 01.02.2022
5574 Snow -1 1006 55 10000 3 240 19:23 01.02.2022
5575 Snow -1 1007 59 10000 3 240 16:57 01.02.2022
5576 Snow -1 1006 59 10000 4 250 16:19 01.02.2022
5577 Clear -1 1005 73 10000 5.81 260 12:57 01.02.2022
5578 Clouds -1 995 81 10000 4.92 250 11:57 01.02.2022
5579 Clear -2 995 86 10000 4.02 260 08:51 01.02.2022
5580 Clouds -1 1001 74 10000 6 260 02:20 01.02.2022
5581 Clear -1 1000 80 10000 6 250 23:37 31.01.2022
5582 Snow -1 990 90 10000 8.05 260 22:33 31.01.2022
5583 Clear -1 989 74 10000 7 260 21:34 31.01.2022
5584 Clouds 0 993 74 10000 0.89 243 20:34 31.01.2022
5585 Clouds 0 993 74 10000 0.89 231 19:52 31.01.2022
5586 Snow 0 992 70 10000 0.45 221 18:31 31.01.2022
5587 Clouds 0 992 70 10000 0.89 254 17:55 31.01.2022
5588 Clouds 0 990 75 10000 0.89 256 16:58 31.01.2022
5589 Snow 0 991 75 10000 0.45 159 16:21 31.01.2022
5590 Snow -1 988 78 9000 5.81 280 14:50 31.01.2022
5591 Clouds 0 988 75 9000 1.34 274 13:29 31.01.2022
5592 Snow 0 986 74 10000 8.94 280 12:37 31.01.2022
5593 Clouds 0 987 77 10000 0.89 241 10:59 31.01.2022
5594 Snow 0 986 67 10000 8.05 280 10:38 31.01.2022
5595 Clouds 0 985 73 5000 8.05 270 09:36 31.01.2022
5596 Snow 0 984 72 9000 8.94 280 08:54 31.01.2022
5597 Clouds -1 984 83 7000 7.15 270 08:20 31.01.2022
5598 Snow 0 985 85 8000 0.89 328 07:29 31.01.2022
5599 Snow 0 983 84 9000 8.05 270 05:24 31.01.2022
5600 Clouds 1 984 87 10000 0.89 234 00:23 31.01.2022
5601 Snow 0 983 88 8000 4.92 230 22:33 30.01.2022
5602 Snow 0 983 85 4300 4.02 220 21:45 30.01.2022
5603 Snow 1 983 84 9000 4.02 230 21:24 30.01.2022
5604 Clouds 1 985 85 10000 4.92 240 20:51 30.01.2022
5605 Clouds 1 985 86 10000 4.92 240 20:30 30.01.2022
5606 Clouds 1 985 86 10000 5.81 250 19:55 30.01.2022
5607 Snow 1 986 86 6000 0.45 230 18:51 30.01.2022
5608 Clouds 2 992 78 10000 0.45 229 18:22 30.01.2022
5609 Clouds 2 984 73 10000 4.02 220 17:30 30.01.2022
5610 Clear 2 986 77 10000 0.45 185 16:42 30.01.2022
5611 Clear 2 986 77 10000 4.92 240 16:22 30.01.2022
5612 Clear 3 986 76 10000 0.45 139 15:54 30.01.2022
5613 Clear 3 986 76 10000 0.45 139 15:54 30.01.2022
5614 Clouds 3 987 79 10000 0.45 142 15:32 30.01.2022
5615 Clouds 3 987 78 10000 5.81 250 14:47 30.01.2022
5616 Clouds 4 987 75 10000 0.45 212 13:37 30.01.2022
5617 Clouds 4 987 78 10000 0.45 212 12:41 30.01.2022
5618 Clouds 1 988 86 10000 0.45 221 10:38 30.01.2022
5619 Snow 1 988 84 10000 0.45 140 09:57 30.01.2022
5620 Clouds 0 988 81 10000 0.45 269 09:21 30.01.2022
5621 Snow -2 989 85 900 0.89 58 07:57 30.01.2022
5622 Snow -2 997 73 10000 0.89 241 02:44 30.01.2022
5623 Snow -2 999 74 10000 0.89 228 01:52 30.01.2022
5624 Clear -3 1002 73 10000 0.89 197 23:45 29.01.2022
5625 Clouds -3 1004 73 10000 0.89 210 22:48 29.01.2022
5626 Clouds -2 1006 71 10000 3.13 240 21:28 29.01.2022
5627 Clouds -2 1006 71 10000 3.13 240 20:50 29.01.2022
5628 Clouds -1 1003 78 10000 4.92 270 19:47 29.01.2022
5629 Clouds -1 1003 78 10000 4.92 270 19:29 29.01.2022
5630 Clouds -1 1008 73 10000 1.34 257 18:39 29.01.2022
5631 Clouds -1 1006 68 10000 4.92 280 17:42 29.01.2022
5632 Clouds 0 1008 68 10000 0.45 252 16:43 29.01.2022
5633 Snow 0 1007 74 10000 0.45 31 15:20 29.01.2022
5634 Clouds 0 1005 74 10000 7.15 300 13:47 29.01.2022
5635 Clouds 0 1005 75 10000 7.15 300 13:26 29.01.2022
5636 Clouds 0 1005 75 10000 8.05 300 12:42 29.01.2022
5637 Snow 0 1006 81 9000 0.89 288 11:38 29.01.2022
5638 Snow 0 1006 78 9000 0.89 242 10:25 29.01.2022
5639 Clouds 0 1004 86 2500 0.89 316 07:24 29.01.2022
5640 Clouds 1 999 86 9000 1.34 206 01:37 29.01.2022
5641 Clouds 0 996 84 10000 5.81 290 00:31 29.01.2022
5642 Clouds 0 996 84 10000 5.81 290 00:31 29.01.2022
5643 Snow 0 996 88 8000 7.15 280 23:22 28.01.2022
5644 Snow 1 997 90 7000 0.45 189 22:42 28.01.2022
5645 Snow 0 995 88 7000 4.92 270 22:18 28.01.2022
5646 Snow 1 996 89 9000 0.45 248 20:40 28.01.2022
5647 Snow 1 996 89 9000 0.45 210 19:51 28.01.2022
5648 Rain 1 994 84 6000 3.13 230 18:49 28.01.2022
5649 Clouds 1 994 84 10000 4.02 230 17:46 28.01.2022
5650 Snow 1 996 86 10000 0.45 84 15:45 28.01.2022
5651 Clouds 3 995 71 10000 5.81 250 14:18 28.01.2022
5652 Clouds 3 995 78 10000 4.92 230 12:35 28.01.2022
5653 Snow 2 996 79 10000 4.02 230 11:38 28.01.2022
5654 Snow 1 997 83 9000 4.92 240 10:22 28.01.2022
5655 Clouds 1 997 84 10000 4.02 230 09:45 28.01.2022
5656 Clouds 1 999 87 10000 0.45 183 07:40 28.01.2022
5657 Clouds 0 997 88 7000 4.92 230 05:24 28.01.2022
5658 Clouds 0 1000 90 5000 0.45 254 03:47 28.01.2022
5659 Snow 0 1001 86 6000 0.45 300 02:23 28.01.2022
5660 Clouds 0 1002 87 8000 0.89 177 01:34 28.01.2022
5661 Snow 1 1003 84 9000 4.92 230 23:33 27.01.2022
5662 Clouds 1 1004 84 10000 0.45 188 21:50 27.01.2022
5663 Clouds 1 1004 84 10000 0.45 221 21:30 27.01.2022
5664 Clouds 1 1004 84 10000 0.45 221 21:30 27.01.2022
5665 Clouds 0 1004 87 10000 0.45 89 20:53 27.01.2022
5666 Clouds 1 1005 87 10000 4.02 240 19:30 27.01.2022
5667 Clouds 0 1006 90 6000 3.13 250 17:56 27.01.2022
5668 Snow -1 1007 89 3300 1.79 230 15:30 27.01.2022
5669 Snow -1 1007 82 3500 3.13 220 13:37 27.01.2022
5670 Clouds -1 1008 81 9000 0.45 210 12:46 27.01.2022
5671 Clouds -2 1009 76 9000 3.13 190 10:46 27.01.2022
5672 Snow -4 1007 72 10000 1.79 200 09:19 27.01.2022
5673 Snow -4 1007 68 10000 1.79 200 08:37 27.01.2022
5674 Clear -7 1016 86 10000 0.89 0 05:59 27.01.2022
5675 Clouds -5 1017 93 8000 0 0 02:57 27.01.2022
5676 Snow -4 1018 74 9000 0 0 23:33 26.01.2022
5677 Snow -3 1018 68 10000 1 0 22:25 26.01.2022
5678 Snow -5 1012 83 10000 1 20 21:36 26.01.2022
5679 Snow -3 1019 68 10000 2 360 20:41 26.01.2022
5680 Snow -3 1019 68 10000 2 360 20:22 26.01.2022
5681 Clouds -2 1013 69 10000 1.79 320 19:20 26.01.2022
5682 Clouds -2 1012 75 10000 1.79 290 18:45 26.01.2022
5683 Clouds -2 1013 67 10000 0.45 19 17:51 26.01.2022
5684 Clouds -2 1013 67 10000 0.45 63 17:23 26.01.2022
5685 Clouds -2 1018 66 10000 0.89 343 16:31 26.01.2022
5686 Clouds -2 1012 68 10000 0.89 23 15:49 26.01.2022
5687 Clouds -2 1011 79 10000 0.45 31 13:58 26.01.2022
5688 Clouds -1 1012 81 10000 0.45 61 11:48 26.01.2022
5689 Clouds -2 1017 90 10000 4.02 20 10:28 26.01.2022
5690 Clouds -2 1017 82 9000 0.45 352 09:46 26.01.2022
5691 Mist -3 1010 86 4400 1.34 15 07:44 26.01.2022
5692 Snow -4 1009 86 3700 0.45 256 03:31 26.01.2022
5693 Clouds -5 1011 85 2300 1.79 260 23:57 25.01.2022
5694 Clouds -5 1012 85 4800 3.13 260 22:57 25.01.2022
5695 Clouds -6 1012 84 6000 3.13 270 22:21 25.01.2022
5696 Clouds -6 1012 81 7000 3.13 260 21:58 25.01.2022
5697 Clouds -6 1013 82 9000 4.02 250 20:46 25.01.2022
5698 Clouds -7 1013 84 9000 3.13 250 20:23 25.01.2022
5699 Snow -7 1013 83 8000 4.02 250 19:50 25.01.2022
5700 Snow -7 1012 77 5000 3.13 250 18:32 25.01.2022
5701 Snow -7 1012 75 6000 4.02 260 17:43 25.01.2022
5702 Clouds -7 1015 74 10000 3.13 250 16:35 25.01.2022
5703 Snow -7 1015 71 10000 3.13 240 15:49 25.01.2022
5704 Clear -7 1015 71 10000 3.13 240 15:31 25.01.2022
5705 Clear -6 1015 71 10000 0.45 226 14:57 25.01.2022
5706 Clear -6 1016 71 10000 3.13 250 13:40 25.01.2022
5707 Clouds -8 1016 71 10000 3.13 260 10:42 25.01.2022
5708 Clouds -8 1016 85 9000 3.13 270 08:37 25.01.2022
5709 Clouds -8 1026 79 10000 3 300 07:29 25.01.2022
5710 Clouds -8 1026 79 9000 3 320 06:47 25.01.2022
5711 Clouds -7 1027 73 7000 4 340 04:22 25.01.2022
5712 Clouds -7 1029 86 10000 5 350 23:37 24.01.2022
5713 Clouds -6 1029 73 10000 5 350 23:18 24.01.2022
5714 Clouds -6 1030 73 10000 4 350 22:59 24.01.2022
5715 Clouds -6 1030 73 10000 6 360 22:41 24.01.2022
5716 Clouds -6 1030 79 9000 4 350 21:52 24.01.2022
5717 Clouds -6 1030 73 10000 4 350 21:28 24.01.2022
5718 Clouds -5 1031 68 10000 6 350 20:29 24.01.2022
5719 Clouds -5 1031 74 10000 4 350 19:39 24.01.2022
5720 Clouds -5 1031 74 10000 6 350 19:20 24.01.2022
5721 Clouds -5 1021 81 10000 5.81 350 17:45 24.01.2022
5722 Clouds -5 1031 81 10000 5.81 350 17:23 24.01.2022
5723 Clouds -5 1021 81 10000 5.81 350 17:23 24.01.2022
5724 Clouds -5 1024 81 10000 0.45 58 16:40 24.01.2022
5725 Clouds -5 1021 81 10000 5.81 360 16:18 24.01.2022
5726 Clouds -4 1030 82 10000 1.34 39 14:28 24.01.2022
5727 Clouds -5 1031 86 10000 1.34 40 12:40 24.01.2022
5728 Clouds -4 1024 86 10000 1.34 28 12:22 24.01.2022
5729 Clouds -6 1025 90 10000 0.89 354 10:25 24.01.2022
5730 Clouds -6 1025 94 10000 0.45 326 09:47 24.01.2022
5731 Clouds -8 1026 87 6000 0.45 61 08:24 24.01.2022
5732 Clouds -8 1026 84 7000 0.89 2 04:50 24.01.2022
5733 Clouds -6 1030 89 10000 3 350 01:29 24.01.2022
5734 Clouds -5 1030 80 10000 5 20 00:35 24.01.2022
5735 Clouds -5 1030 80 10000 4 40 23:49 23.01.2022
5736 Clouds -5 1030 86 10000 6 20 22:27 23.01.2022
5737 Clouds -5 1029 86 10000 5 30 21:44 23.01.2022
5738 Clouds -5 1029 86 10000 6 20 21:24 23.01.2022
5739 Clouds -4 1029 80 10000 5 30 20:30 23.01.2022
5740 Clouds -4 1028 80 10000 5 50 19:21 23.01.2022
5741 Clouds -4 1028 80 10000 6 60 18:44 23.01.2022
5742 Clouds -4 1027 80 10000 6 10 17:28 23.01.2022
5743 Clouds -4 1026 79 10000 4.92 10 16:38 23.01.2022
5744 Clouds -4 1024 73 10000 5.81 10 14:56 23.01.2022
5745 Clouds -3 1024 76 10000 0.89 307 14:19 23.01.2022
5746 Clouds -3 1016 76 10000 0.45 62 12:51 23.01.2022
5747 Clouds -3 1021 79 10000 0.45 39 12:22 23.01.2022
5748 Clouds -3 1021 79 10000 0.45 332 11:51 23.01.2022
5749 Clouds -3 1021 79 9000 0.45 114 11:18 23.01.2022
5750 Clouds -4 1021 82 10000 0.45 257 10:27 23.01.2022
5751 Clouds -5 1020 80 7000 0.45 35 09:40 23.01.2022
5752 Snow -5 1013 83 9000 0.45 36 08:51 23.01.2022
5753 Clouds -5 1016 94 10000 0.89 37 05:55 23.01.2022
5754 Snow -5 1005 86 7000 1.79 230 01:46 23.01.2022
5755 Snow -5 1007 87 7000 1.79 210 01:25 23.01.2022
5756 Snow -5 1007 84 8000 1.79 240 00:23 23.01.2022
5757 Clouds -5 1007 84 10000 3.13 250 23:35 22.01.2022
5758 Clouds -5 1007 80 10000 0.89 272 22:34 22.01.2022
5759 Clouds -4 1007 77 10000 3.13 280 21:19 22.01.2022
5760 Clouds -4 1006 78 10000 0.45 306 19:49 22.01.2022
5761 Snow -3 1006 80 10000 4.02 310 18:45 22.01.2022
5762 Clouds -3 1005 78 10000 0.45 262 17:56 22.01.2022
5763 Clouds -4 1005 78 10000 1.79 300 17:35 22.01.2022
5764 Clear -4 1004 77 10000 3.13 320 16:55 22.01.2022
5765 Clouds -3 1003 86 4900 1.79 280 15:49 22.01.2022
5766 Snow -2 1002 87 1400 0.45 57 14:57 22.01.2022
5767 Snow -2 1002 84 450 0.89 47 13:39 22.01.2022
5768 Snow -1 1001 78 7000 0.45 246 12:48 22.01.2022
5769 Snow -1 1001 80 9000 4.92 260 12:28 22.01.2022
5770 Clouds -1 1000 73 10000 0.45 195 10:56 22.01.2022
5771 Snow -2 999 86 10000 0.89 274 10:28 22.01.2022
5772 Clouds -2 999 85 10000 0.45 213 09:57 22.01.2022
5773 Clouds -2 998 74 10000 4.92 270 08:51 22.01.2022
5774 Clouds -3 997 78 10000 4.92 260 07:29 22.01.2022
5775 Clouds -2 998 78 10000 0.45 248 04:52 22.01.2022
5776 Clouds -2 998 78 10000 0.45 248 04:52 22.01.2022
5777 Snow -2 997 84 4400 0.45 338 01:34 22.01.2022
5778 Clouds -2 995 73 10000 8.05 260 23:35 21.01.2022
5779 Clouds -1 997 73 10000 0.89 225 22:20 21.01.2022
5780 Clouds -1 997 73 10000 0.45 301 20:20 21.01.2022
5781 Clouds -1 994 70 10000 8.94 260 18:36 21.01.2022
5782 Snow -1 996 76 9000 1.34 249 17:28 21.01.2022
5783 Snow -2 994 73 8000 8.05 250 15:30 21.01.2022
5784 Snow -2 996 75 7000 0.89 196 13:29 21.01.2022
5785 Snow -2 987 92 10000 8.05 250 12:38 21.01.2022
5786 Snow -2 996 80 1300 1.34 186 11:27 21.01.2022
5787 Snow -2 996 75 4100 0.89 242 10:19 21.01.2022
5788 Snow -3 996 79 10000 0.89 229 08:24 21.01.2022
5789 Clouds -3 992 68 10000 5 240 04:49 21.01.2022
5790 Clouds -3 992 68 10000 5 240 04:49 21.01.2022
5791 Clouds 0 995 78 10000 4.02 240 23:35 20.01.2022
5792 Clear 0 995 79 10000 4.92 230 22:24 20.01.2022
5793 Clouds 0 995 79 10000 4.02 220 21:43 20.01.2022
5794 Clouds 0 996 82 10000 4.02 230 20:43 20.01.2022
5795 Snow 0 996 82 10000 4.92 230 19:20 20.01.2022
5796 Snow 0 996 86 9000 4.92 230 18:44 20.01.2022
5797 Snow 0 999 84 5000 0.45 234 17:29 20.01.2022
5798 Snow 1 999 68 10000 0.89 106 15:43 20.01.2022
5799 Snow 2 1000 66 10000 0.45 242 15:19 20.01.2022
5800 Clouds 2 999 62 10000 4.92 230 13:41 20.01.2022
5801 Clouds 2 1007 52 10000 0.89 260 12:35 20.01.2022
5802 Clouds 2 1000 66 10000 0.89 224 11:50 20.01.2022
5803 Clear 1 1002 69 10000 4.92 230 10:40 20.01.2022
5804 Clear -1 1000 80 10000 4.92 230 09:37 20.01.2022
5805 Clear -2 1003 89 10000 0.45 190 08:32 20.01.2022
5806 Clouds -2 1006 83 10000 0.89 222 05:32 20.01.2022
5807 Clouds -2 1009 74 10000 3.13 220 23:28 19.01.2022
5808 Clouds -3 1011 80 10000 1.79 230 22:24 19.01.2022
5809 Clouds -2 1012 77 10000 4.92 260 21:23 19.01.2022
5810 Clouds -2 1010 78 10000 5.81 270 20:49 19.01.2022
5811 Clouds -2 1011 78 10000 4.92 260 19:45 19.01.2022
5812 Clouds -1 1011 67 10000 3.13 250 18:29 19.01.2022
5813 Clouds -1 1014 73 10000 1.79 240 17:45 19.01.2022
5814 Clouds -1 1014 72 10000 0.89 279 16:48 19.01.2022
5815 Snow -1 1013 72 10000 5.81 300 14:42 19.01.2022
5816 Clouds -1 1021 66 10000 0.45 163 12:43 19.01.2022
5817 Clear -1 1016 61 10000 0.45 263 11:41 19.01.2022
5818 Clear -4 1016 80 10000 0.45 285 10:23 19.01.2022
5819 Clear -5 1017 76 10000 3.13 280 09:34 19.01.2022
5820 Clear -8 1015 78 10000 4.02 310 06:45 19.01.2022
5821 Clear -6 1015 68 10000 4.92 330 02:41 19.01.2022
5822 Clouds -5 1014 64 10000 8.05 340 23:20 18.01.2022
5823 Clouds -4 1013 63 10000 8.05 340 22:19 18.01.2022
5824 Snow -4 1012 63 10000 7.15 350 20:58 18.01.2022
5825 Snow -3 1013 62 10000 2.68 46 19:54 18.01.2022
5826 Clouds -3 1012 62 10000 1.34 13 19:36 18.01.2022
5827 Snow -3 1010 59 10000 8.05 340 18:51 18.01.2022
5828 Clouds -3 1010 60 10000 1.79 31 17:58 18.01.2022
5829 Snow -2 1010 63 10000 1.34 42 16:50 18.01.2022
5830 Clouds -3 1008 62 10000 1.79 138 15:41 18.01.2022
5831 Clouds -3 1008 62 10000 0.89 71 15:21 18.01.2022
5832 Snow -2 1005 55 10000 0.89 11 12:33 18.01.2022
5833 Clouds -3 1000 65 10000 8.94 330 10:47 18.01.2022
5834 Snow -4 998 78 10000 8.05 320 08:59 18.01.2022
5835 Clouds -4 1001 69 10000 0.89 98 07:51 18.01.2022
5836 Snow -2 994 89 1300 1.79 44 02:34 18.01.2022
5837 Snow 0 991 79 10000 0.45 354 23:38 17.01.2022
5838 Snow 0 991 74 9000 0.45 132 22:26 17.01.2022
5839 Clouds 0 990 76 10000 0.89 248 21:34 17.01.2022
5840 Snow 0 990 82 10000 0.89 124 20:24 17.01.2022
5841 Rain 1 987 85 10000 0.45 231 18:30 17.01.2022
5842 Snow 1 986 87 9000 0.89 279 17:25 17.01.2022
5843 Snow 1 987 87 5000 0.45 302 16:35 17.01.2022
5844 Snow 0 986 84 6000 5.81 240 15:19 17.01.2022
5845 Snow 1 986 84 5000 7.15 240 14:55 17.01.2022
5846 Snow 2 991 73 10000 0.89 257 13:22 17.01.2022
5847 Rain 2 991 74 10000 0.89 122 12:55 17.01.2022
5848 Clouds 1 993 81 10000 0.89 184 11:49 17.01.2022
5849 Snow 1 995 82 10000 1.34 222 10:21 17.01.2022
5850 Clouds 1 994 78 10000 0.89 229 10:21 17.01.2022
5851 Snow 1 995 75 10000 0.89 149 09:34 17.01.2022
5852 Clouds 0 998 83 10000 0.45 225 07:24 17.01.2022
5853 Snow -1 1003 74 10000 0.89 127 02:59 17.01.2022
5854 Clear -3 1003 80 10000 3.13 230 00:55 17.01.2022
5855 Clear -3 1008 82 10000 0.89 248 22:22 16.01.2022
5856 Clouds -3 1007 79 10000 3.13 230 20:35 16.01.2022
5857 Clear -2 1010 77 10000 1.79 230 18:51 16.01.2022
5858 Clear -2 1011 74 10000 1.79 220 17:59 16.01.2022
5859 Clear -1 1011 70 10000 3.13 260 16:59 16.01.2022
5860 Clouds -1 1009 65 10000 4.02 270 16:31 16.01.2022
5861 Clouds 0 1012 62 10000 5.81 290 14:31 16.01.2022
5862 Clouds 1 1012 59 10000 0.89 236 13:45 16.01.2022
5863 Clouds 1 1012 61 10000 0.45 262 12:46 16.01.2022
5864 Clouds 1 1010 59 10000 5.81 290 11:41 16.01.2022
5865 Clouds 1 1011 60 10000 7.15 300 10:53 16.01.2022
5866 Clouds 1 1013 63 10000 0.89 270 09:59 16.01.2022
5867 Clouds 1 1013 63 10000 0.89 306 09:40 16.01.2022
5868 Clouds 1 1011 63 10000 4.92 300 09:22 16.01.2022
5869 Clouds 1 1010 63 10000 7.15 300 07:25 16.01.2022
5870 Clouds 2 1010 65 10000 0.45 94 00:38 16.01.2022
5871 Clouds 1 1010 70 10000 0.89 356 23:34 15.01.2022
5872 Clouds 2 1008 66 10000 0.89 286 21:23 15.01.2022
5873 Clear 2 1008 66 10000 0.89 34 20:56 15.01.2022
5874 Clear 2 1008 68 10000 0.89 214 20:36 15.01.2022
5875 Clear 2 1007 61 10000 1.34 175 19:28 15.01.2022
5876 Clear 2 1006 68 10000 1.34 290 18:28 15.01.2022
5877 Clear 2 1005 71 10000 0.89 251 16:52 15.01.2022
5878 Snow 2 1004 71 9000 0.45 257 15:38 15.01.2022
5879 Clouds 2 1002 70 10000 1.79 256 13:35 15.01.2022
5880 Clouds 3 1001 67 10000 0.89 222 11:46 15.01.2022
5881 Clouds 2 1000 66 10000 1.34 226 09:49 15.01.2022
5882 Clouds 1 998 67 10000 1.34 281 05:26 15.01.2022
5883 Clouds 2 994 58 10000 2.24 316 23:40 14.01.2022
5884 Clouds 1 993 71 10000 1.34 86 21:19 14.01.2022
5885 Clouds 1 991 70 10000 11.18 310 20:37 14.01.2022
5886 Clouds 1 992 78 9000 1.34 43 19:56 14.01.2022
5887 Clouds 2 990 74 10000 1.34 180 18:43 14.01.2022
5888 Clouds 4 989 76 10000 1.34 250 17:52 14.01.2022
5889 Rain 4 989 78 9000 1.34 263 16:43 14.01.2022
5890 Clouds 4 989 78 9000 1.34 252 16:43 14.01.2022
5891 Clouds 4 988 86 10000 1.34 238 15:33 14.01.2022
5892 Clouds 3 990 87 8000 2.68 281 14:28 14.01.2022
5893 Clouds 4 991 80 10000 1.79 255 12:59 14.01.2022
5894 Clouds 4 994 76 10000 1.34 211 11:53 14.01.2022
5895 Clouds 4 995 76 10000 0.89 330 10:40 14.01.2022
5896 Clouds 3 998 79 10000 1.34 303 08:53 14.01.2022
5897 Clouds 2 997 87 10000 8.05 280 07:32 14.01.2022
5898 Clouds 2 1002 81 10000 8.94 290 02:27 14.01.2022
5899 Clouds 1 1003 88 10000 8.05 280 00:22 14.01.2022
5900 Clouds 1 1008 86 9000 0.89 111 21:47 13.01.2022
5901 Clouds 1 1008 85 9000 0.89 246 21:29 13.01.2022
5902 Mist -1 1009 87 4700 0.89 240 19:47 13.01.2022
5903 Mist -1 1009 92 4700 0.45 284 19:29 13.01.2022
5904 Mist -1 1010 86 3600 0.45 290 18:40 13.01.2022
5905 Clouds -3 1011 85 6000 0.45 230 16:53 13.01.2022
5906 Clouds -3 1012 80 5000 0.45 224 15:39 13.01.2022
5907 Clouds -3 1012 80 5000 0.89 214 15:21 13.01.2022
5908 Snow -4 1014 83 3200 0.89 161 13:29 13.01.2022
5909 Clouds -8 1017 84 9000 0.45 233 10:49 13.01.2022
5910 Clouds -10 1018 81 8000 0.45 225 09:23 13.01.2022
5911 Clouds -12 1019 85 8000 0.45 210 08:29 13.01.2022
5912 Mist -13 1026 90 4700 0.45 209 07:58 13.01.2022
5913 Mist -14 1026 90 4500 4.02 260 07:19 13.01.2022
5914 Clear -15 1027 96 10000 3 250 05:21 13.01.2022
5915 Clear -15 1027 89 10000 3.13 260 03:48 13.01.2022
5916 Clouds -15 1029 92 6000 0.45 265 01:38 13.01.2022
5917 Clear -15 1029 93 7000 0.45 82 23:53 12.01.2022
5918 Clear -15 1029 89 10000 0.45 91 23:34 12.01.2022
5919 Clear -14 1029 89 10000 0.89 247 22:22 12.01.2022
5920 Clear -15 1029 89 10000 4.02 320 21:43 12.01.2022
5921 Clear -15 1029 89 10000 4.02 320 21:18 12.01.2022
5922 Clear -14 1029 89 10000 1.34 48 20:44 12.01.2022
5923 Clouds -14 1028 89 10000 0.45 41 18:48 12.01.2022
5924 Clouds -14 1028 89 10000 0.89 62 17:54 12.01.2022
5925 Clouds -14 1028 88 10000 0.89 19 16:43 12.01.2022
5926 Clear -12 1028 73 10000 0.45 126 14:49 12.01.2022
5927 Clouds -12 1028 72 5000 0.45 126 13:40 12.01.2022
5928 Clouds -12 1028 71 8000 0.89 357 12:57 12.01.2022
5929 Clouds -14 1029 86 10000 0.89 48 09:26 12.01.2022
5930 Clouds -14 1029 85 10000 0.89 71 07:57 12.01.2022
5931 Clouds -14 1029 88 9000 1.34 40 07:33 12.01.2022
5932 Clouds -12 1022 89 3600 0.89 12 02:20 12.01.2022
5933 Clouds -11 1022 89 10000 0.45 57 23:26 11.01.2022
5934 Clouds -10 1022 82 9000 0.89 84 22:25 11.01.2022
5935 Clouds -10 1022 82 9000 0.89 3 21:58 11.01.2022
5936 Clouds -9 1021 85 8000 0.89 54 20:39 11.01.2022
5937 Snow -8 1021 86 4800 1.34 38 19:31 11.01.2022
5938 Clouds -8 1020 90 10000 0.89 11 17:53 11.01.2022
5939 Snow -6 1020 85 9000 0.89 34 16:39 11.01.2022
5940 Clouds -6 1020 85 9000 0.89 357 16:18 11.01.2022
5941 Clouds -4 1019 90 4700 0.89 7 14:50 11.01.2022
5942 Snow -4 1019 87 1800 0.45 57 14:32 11.01.2022
5943 Clouds -4 1026 85 9000 1.34 50 13:48 11.01.2022
5944 Clouds -4 1026 85 9000 1.34 29 13:25 11.01.2022
5945 Snow -3 1025 89 9000 1.34 63 12:25 11.01.2022
5946 Snow -4 1026 90 9000 0.89 45 10:31 11.01.2022
5947 Clouds -5 1018 94 3100 0.89 51 07:50 11.01.2022
5948 Clouds -5 1016 83 10000 0.89 27 03:51 11.01.2022
5949 Snow -5 1015 83 10000 0.45 68 00:27 11.01.2022
5950 Clouds -5 1014 86 10000 0.89 4 23:39 10.01.2022
5951 Clouds -5 1014 90 10000 0.89 5 22:20 10.01.2022
5952 Clouds -5 1011 90 10000 5.81 350 21:57 10.01.2022
5953 Clouds -5 1013 90 10000 1.34 67 21:33 10.01.2022
5954 Clouds -5 1010 90 9000 4.92 10 20:58 10.01.2022
5955 Clouds -5 1010 90 9000 4.92 10 20:36 10.01.2022
5956 Clouds -5 1013 90 9000 0.89 326 20:18 10.01.2022
5957 Clouds -5 1012 90 10000 0.89 4 19:37 10.01.2022
5958 Clouds -5 1012 90 10000 0.45 24 19:18 10.01.2022
5959 Clouds -4 1012 88 10000 1.34 13 18:46 10.01.2022
5960 Clouds -4 1007 90 10000 4.92 340 16:48 10.01.2022
5961 Clouds -4 1009 90 10000 3.13 330 16:20 10.01.2022
5962 Clouds -3 1008 90 10000 0.89 41 14:42 10.01.2022
5963 Clouds -3 1007 94 9000 0.89 96 12:50 10.01.2022
5964 Clouds -3 1003 95 10000 4.02 330 11:55 10.01.2022
5965 Clouds -2 1006 92 10000 4.92 320 10:48 10.01.2022
5966 Clouds -2 1002 95 9000 3.13 320 09:33 10.01.2022
5967 Clouds -2 1003 99 9000 4.02 310 05:51 10.01.2022
5968 Clouds -1 1001 99 6000 4.92 300 02:30 10.01.2022
5969 Snow -1 997 100 6000 1.79 280 01:20 10.01.2022
5970 Snow -1 1000 99 5000 1.79 260 00:19 10.01.2022
5971 Clouds -1 1000 99 6000 1.79 230 22:44 09.01.2022
5972 Snow -1 999 99 4700 0.89 0 21:57 09.01.2022
5973 Clouds -1 999 99 1900 0.89 0 21:37 09.01.2022
5974 Snow -1 999 99 1900 0.89 0 21:37 09.01.2022
5975 Snow -1 999 99 1300 0.89 0 21:18 09.01.2022
5976 Snow -1 999 99 3600 0.89 0 20:45 09.01.2022
5977 Clouds -1 999 99 1700 0.89 0 20:26 09.01.2022
5978 Snow -1 999 94 2400 1.79 130 19:38 09.01.2022
5979 Snow -1 999 94 2400 1.79 130 19:20 09.01.2022
5980 Snow -1 999 94 4500 1.79 130 18:37 09.01.2022
5981 Snow -1 999 95 2200 0.45 207 17:48 09.01.2022
5982 Mist -1 999 95 2200 1.79 140 17:29 09.01.2022
5983 Mist -1 999 95 2600 3.13 130 16:43 09.01.2022
5984 Mist -1 999 97 1700 3.13 130 15:42 09.01.2022
5985 Snow -2 999 99 1700 3.13 130 15:42 09.01.2022
5986 Snow -1 1000 99 2000 3.13 130 14:58 09.01.2022
5987 Snow -2 999 98 3000 0.45 58 14:24 09.01.2022
5988 Snow -1 1000 96 1600 3.13 120 13:48 09.01.2022
5989 Snow -2 1001 95 4900 0.45 198 11:56 09.01.2022
5990 Snow -2 1001 94 3200 0.45 46 11:26 09.01.2022
5991 Clouds -2 1002 93 9000 3.13 130 09:55 09.01.2022
5992 Snow -3 1003 93 10000 0.45 79 08:59 09.01.2022
5993 Snow -3 1004 93 5000 0.45 153 06:56 09.01.2022
5994 Snow -2 1008 72 10000 3.13 140 01:29 09.01.2022
5995 Snow -2 1008 73 10000 0.45 193 00:37 09.01.2022
5996 Snow -2 1009 79 10000 3.13 140 23:34 08.01.2022
5997 Clouds -2 1009 78 10000 0.45 283 22:48 08.01.2022
5998 Clouds -2 1010 73 10000 0.89 181 21:28 08.01.2022
5999 Clouds -1 1011 69 10000 0.89 189 20:43 08.01.2022
6000 Clouds -1 1011 72 10000 0.45 156 20:22 08.01.2022
6001 Clouds -1 1012 69 10000 0.45 108 19:22 08.01.2022
6002 Clouds -1 1013 73 10000 0.45 144 17:31 08.01.2022
6003 Clouds -1 1013 71 10000 0.45 57 16:45 08.01.2022
6004 Clouds -1 1014 75 10000 0.45 156 15:33 08.01.2022
6005 Clear -1 1021 74 10000 4.02 170 13:58 08.01.2022
6006 Clouds 0 1015 69 10000 0.45 152 11:40 08.01.2022
6007 Clear -1 1016 73 10000 0.45 164 10:33 08.01.2022
6008 Clear -2 1017 74 10000 3.13 180 09:57 08.01.2022
6009 Clear -2 1017 77 10000 3.13 180 09:33 08.01.2022
6010 Clear -6 1008 93 10000 0 0 05:51 08.01.2022
6011 Clear -5 1015 94 10000 2 230 01:41 08.01.2022
6012 Clear -4 1014 88 10000 3 220 23:31 07.01.2022
6013 Clear -4 1014 87 10000 3 230 21:49 07.01.2022
6014 Clear -4 1012 81 10000 3.13 260 20:32 07.01.2022
6015 Clear -3 1015 79 10000 0.45 212 19:27 07.01.2022
6016 Clear -3 1015 79 10000 0.45 212 19:27 07.01.2022
6017 Clear -2 1014 77 10000 0.45 252 18:49 07.01.2022
6018 Clear -2 1014 76 10000 0.45 238 18:21 07.01.2022
6019 Clear -3 1011 78 10000 3.13 260 17:23 07.01.2022
6020 Clear -1 1020 74 10000 0.45 207 14:55 07.01.2022
6021 Clouds 0 1012 67 10000 0.89 114 13:52 07.01.2022
6022 Clouds -1 1012 65 10000 0.89 254 12:51 07.01.2022
6023 Clear -1 1011 58 10000 1.34 257 11:22 07.01.2022
6024 Clouds 0 1011 90 1400 0.45 217 04:25 07.01.2022
6025 Clouds 1 1002 85 10000 0.89 251 02:46 07.01.2022
6026 Clouds 2 1002 83 10000 0.89 319 01:48 07.01.2022
6027 Clouds 1 1002 86 10000 7.15 270 01:48 07.01.2022
6028 Clouds 1 1002 86 10000 0.45 348 01:25 07.01.2022
6029 Clouds 1 1001 90 10000 0.45 262 00:30 07.01.2022
6030 Clear 2 1000 87 10000 5.81 270 22:33 06.01.2022
6031 Rain 2 996 91 10000 4.92 250 20:43 06.01.2022
6032 Clouds 2 996 91 10000 4.92 240 19:58 06.01.2022
6033 Rain 2 996 91 10000 4.02 240 19:36 06.01.2022
6034 Rain 2 999 90 10000 3.13 240 17:51 06.01.2022
6035 Rain 2 998 86 10000 0.45 207 17:21 06.01.2022
6036 Rain 2 998 85 10000 3.13 230 16:31 06.01.2022
6037 Rain 3 998 80 10000 0.45 195 15:43 06.01.2022
6038 Clear 3 998 80 10000 0.45 162 15:20 06.01.2022
6039 Clear 3 997 80 10000 0.45 134 14:19 06.01.2022
6040 Rain 3 997 81 10000 0.89 210 13:33 06.01.2022
6041 Clear 4 997 78 10000 4.92 280 12:20 06.01.2022
6042 Clouds 3 997 82 10000 0.89 247 11:29 06.01.2022
6043 Clouds 3 996 86 10000 0.45 227 09:56 06.01.2022
6044 Clouds 4 991 95 10000 4.92 280 06:37 06.01.2022
6045 Rain 5 991 99 7000 0.45 16 00:27 06.01.2022
6046 Clouds 5 991 96 8000 0 0 23:22 05.01.2022
6047 Clouds 5 998 99 10000 0.89 0 22:42 05.01.2022
6048 Clouds 5 991 95 10000 3.13 70 22:18 05.01.2022
6049 Clouds 5 991 95 10000 0.45 327 21:23 05.01.2022
6050 Clouds 5 999 98 10000 0.45 62 20:30 05.01.2022
6051 Rain 5 999 98 10000 0.45 9 20:30 05.01.2022
6052 Rain 6 992 94 10000 1.79 90 19:28 05.01.2022
6053 Clouds 6 992 94 8000 1.79 120 17:56 05.01.2022
6054 Rain 7 992 87 10000 0 0 16:56 05.01.2022
6055 Clouds 8 993 82 10000 1.79 290 15:46 05.01.2022
6056 Clear 8 992 83 10000 1.79 260 14:54 05.01.2022
6057 Clear 9 991 82 10000 0.45 224 13:33 05.01.2022
6058 Clouds 10 991 80 10000 0.45 218 11:59 05.01.2022
6059 Clouds 9 989 80 10000 0.45 223 08:21 05.01.2022
6060 Clouds 6 988 95 10000 0.45 137 06:37 05.01.2022
6061 Clouds 6 988 95 10000 0.45 137 06:37 05.01.2022
6062 Rain 4 990 99 10000 4.02 170 01:20 05.01.2022
6063 Rain 4 992 94 10000 0.89 163 23:41 04.01.2022
6064 Rain 4 992 94 10000 3.13 160 23:19 04.01.2022
6065 Rain 4 994 91 10000 4.02 190 21:32 04.01.2022
6066 Rain 4 995 92 10000 0.45 118 20:27 04.01.2022
6067 Clear 3 994 98 10000 3 200 18:35 04.01.2022
6068 Clouds 4 998 99 10000 1.79 190 17:19 04.01.2022
6069 Clouds 4 998 95 9000 1.79 180 16:31 04.01.2022
6070 Clouds 5 995 89 10000 3 250 14:58 04.01.2022
6071 Clouds 6 995 88 10000 3 250 14:37 04.01.2022
6072 Clouds 6 995 87 10000 4.92 270 13:55 04.01.2022
6073 Clouds 6 997 87 10000 0.89 107 11:44 04.01.2022
6074 Clouds 6 994 86 10000 5.81 280 10:21 04.01.2022
6075 Clouds 5 994 97 10000 0.45 279 08:49 04.01.2022
6076 Clouds 5 993 100 7000 4.02 270 06:28 04.01.2022
6077 Clouds 6 990 95 10000 4.92 300 00:42 04.01.2022
6078 Clouds 6 990 95 10000 4.92 300 23:49 03.01.2022
6079 Clouds 6 989 91 10000 5.81 300 22:21 03.01.2022
6080 Clouds 6 989 91 10000 5.81 290 21:38 03.01.2022
6081 Clouds 7 989 87 10000 7.15 300 20:40 03.01.2022
6082 Clouds 7 990 84 10000 0.89 217 18:55 03.01.2022
6083 Clouds 7 990 84 10000 1.34 257 18:30 03.01.2022
6084 Clouds 7 987 91 10000 7.15 280 17:20 03.01.2022
6085 Clouds 7 989 91 10000 1.79 275 16:31 03.01.2022
6086 Clouds 8 986 75 10000 8.05 260 14:31 03.01.2022
6087 Clouds 8 986 81 10000 8.05 260 12:52 03.01.2022
6088 Clear 8 987 81 10000 8.94 260 11:50 03.01.2022
6089 Clouds 7 991 91 10000 0.89 308 10:38 03.01.2022
6090 Clouds 6 992 91 10000 0.89 272 09:27 03.01.2022
6091 Clouds 5 992 95 10000 0.45 118 07:52 03.01.2022
6092 Rain 1 997 95 9000 0.89 192 02:56 03.01.2022
6093 Snow 0 1003 88 10000 0.89 225 23:23 02.01.2022
6094 Snow -1 1004 88 10000 0.45 205 22:56 02.01.2022
6095 Snow -2 1006 91 10000 0.89 120 21:52 02.01.2022
6096 Snow -2 1005 95 10000 1.79 170 20:50 02.01.2022
6097 Snow -2 1005 95 9000 1.79 200 20:29 02.01.2022
6098 Snow -2 1009 89 2000 4.02 220 19:31 02.01.2022
6099 Snow -1 1007 78 10000 3.13 200 18:55 02.01.2022
6100 Snow -1 1008 74 10000 3.13 210 17:56 02.01.2022
6101 Snow -1 1008 71 10000 1.79 210 17:38 02.01.2022
6102 Snow -1 1008 68 10000 1.79 210 17:19 02.01.2022
6103 Clear -1 1009 61 10000 1.79 240 16:27 02.01.2022
6104 Snow -1 1009 49 10000 1.79 270 14:41 02.01.2022
6105 Clear 0 1020 46 10000 0.45 194 13:25 02.01.2022
6106 Clear -1 1020 47 10000 0.45 94 12:31 02.01.2022
6107 Clear -1 1011 50 10000 4.02 310 11:36 02.01.2022
6108 Clear -1 1014 58 10000 0.45 34 10:53 02.01.2022
6109 Clear -2 1011 58 10000 4.92 320 09:55 02.01.2022
6110 Clouds -3 1010 81 10000 5.81 340 07:29 02.01.2022
6111 Clouds 1 1009 82 10000 0.89 23 02:20 02.01.2022
6112 Clouds 3 1006 90 10000 1.34 2 23:40 01.01.2022
6113 Clouds 3 1003 91 10000 7.15 340 23:22 01.01.2022
6114 Clouds 4 1004 91 10000 1.34 35 22:23 01.01.2022
6115 Clouds 4 1001 93 10000 8.05 320 21:44 01.01.2022
6116 Clouds 5 1003 91 10000 0.89 247 20:56 01.01.2022
6117 Clouds 4 1002 94 7000 0.45 92 19:59 01.01.2022
6118 Clouds 5 1002 91 10000 0.45 218 19:30 01.01.2022
6119 Clouds 5 1001 94 8000 0.89 116 18:20 01.01.2022
6120 Clouds 6 1001 91 10000 0.89 269 16:43 01.01.2022
6121 Clouds 6 998 91 10000 4.92 290 16:20 01.01.2022
6122 Clouds 6 998 95 10000 7.15 290 15:27 01.01.2022
6123 Clouds 6 992 93 10000 5 290 13:59 01.01.2022
6124 Drizzle 6 997 95 9000 7.15 300 12:50 01.01.2022
6125 Drizzle 6 997 95 9000 7.15 300 11:58 01.01.2022
6126 Clouds 6 997 95 10000 7.15 300 11:23 01.01.2022
6127 Clouds 6 997 100 9000 5.81 300 10:40 01.01.2022
6128 Clouds 6 997 100 5000 5.81 300 09:46 01.01.2022
6129 Clouds 6 999 95 10000 0.89 217 08:26 01.01.2022
6130 Clouds 6 998 95 10000 0.89 232 07:54 01.01.2022
6131 Clouds 6 995 100 10000 7.15 310 07:34 01.01.2022
6132 Clouds 7 997 98 7000 0.45 240 06:41 01.01.2022
6133 Mist 5 996 97 4000 0.89 191 04:38 01.01.2022
6134 Mist 4 997 98 4500 0.45 252 02:44 01.01.2022
6135 Rain 3 999 98 4100 0.45 199 23:39 31.12.2021
6136 Rain 3 1001 98 4700 0.45 222 21:53 31.12.2021
6137 Rain 2 999 100 1800 1.79 220 20:39 31.12.2021
6138 Mist 2 1002 98 1900 1.79 220 19:31 31.12.2021
6139 Mist 2 1002 98 1900 1.79 220 19:31 31.12.2021
6140 Rain 2 1010 100 550 2 220 18:41 31.12.2021
6141 Fog 2 1004 99 700 0.45 235 17:43 31.12.2021
6142 Fog 2 1004 99 750 0.45 235 17:19 31.12.2021
6143 Fog 2 1004 99 800 0.45 229 16:40 31.12.2021
6144 Fog 2 1004 99 700 0.45 229 15:57 31.12.2021
6145 Fog 2 1004 99 550 0.89 0 15:29 31.12.2021
6146 Fog 2 1004 99 550 0.89 0 15:29 31.12.2021
6147 Fog 2 1004 99 750 3.13 240 14:57 31.12.2021
6148 Fog 2 1004 99 1200 0.45 246 14:30 31.12.2021
6149 Mist 2 1004 99 1400 3.13 250 13:37 31.12.2021
6150 Fog 2 1005 99 800 1.79 250 12:49 31.12.2021
6151 Fog 1 1005 99 550 3.13 230 11:52 31.12.2021
6152 Fog 1 1005 99 350 1.79 230 11:33 31.12.2021
6153 Fog 0 1006 99 450 1.79 230 10:38 31.12.2021
6154 Fog 0 1006 99 450 1.79 230 10:38 31.12.2021
6155 Fog 0 1006 99 450 1.79 230 10:38 31.12.2021
6156 Fog 0 1006 99 450 1.79 230 10:38 31.12.2021
6157 Fog 0 1006 99 400 1.79 230 10:20 31.12.2021
6158 Fog 0 1006 99 550 0.45 198 09:33 31.12.2021
6159 Fog -1 1006 99 900 1.79 220 08:47 31.12.2021
6160 Mist -1 1006 94 2400 1.79 220 07:32 31.12.2021
6161 Mist -4 1006 90 5000 3.13 220 23:36 30.12.2021
6162 Clouds -4 1007 90 6000 3.13 220 22:38 30.12.2021
6163 Clouds -4 1007 90 6000 3.13 220 22:20 30.12.2021
6164 Clouds -4 1007 90 7000 3.13 210 21:37 30.12.2021
6165 Snow -4 1007 90 7000 3.13 220 20:48 30.12.2021
6166 Snow -4 1007 90 7000 3.13 220 20:28 30.12.2021
6167 Snow -4 1007 90 7000 3.13 220 19:48 30.12.2021
6168 Snow -4 1008 90 6000 3.13 210 18:51 30.12.2021
6169 Clouds -4 1008 90 8000 3.13 220 18:20 30.12.2021
6170 Snow -4 1011 91 4200 0.45 249 16:34 30.12.2021
6171 Snow -4 1008 90 8000 3.13 230 15:52 30.12.2021
6172 Snow -4 1008 90 5000 3.13 200 14:41 30.12.2021
6173 Clouds -4 1008 90 10000 3.13 220 14:19 30.12.2021
6174 Snow -4 1008 90 9000 3.13 210 13:23 30.12.2021
6175 Clouds -4 1008 90 10000 1.79 230 11:34 30.12.2021
6176 Clouds -4 1009 90 9000 1.79 230 10:27 30.12.2021
6177 Mist -5 1009 100 4200 3.13 240 09:27 30.12.2021
6178 Mist -5 1018 96 5000 2 250 06:55 30.12.2021
6179 Mist -5 1016 96 5000 0 0 04:25 30.12.2021
6180 Mist -5 1016 96 5000 0 0 03:40 30.12.2021
6181 Mist -5 1001 96 5000 1 0 00:42 30.12.2021
6182 Mist -5 1006 95 5000 0.89 0 23:35 29.12.2021
6183 Mist -5 1008 94 5000 0.89 0 22:30 29.12.2021
6184 Mist -6 1015 98 4700 0.89 0 21:53 29.12.2021
6185 Clouds -6 1008 98 6000 0.89 220 20:56 29.12.2021
6186 Clouds -6 1014 98 6000 0.89 0 20:18 29.12.2021
6187 Mist -6 1014 94 5000 0.89 100 19:30 29.12.2021
6188 Clouds -5 1007 90 9000 0.89 90 18:26 29.12.2021
6189 Clouds -5 1014 90 10000 1.79 60 17:29 29.12.2021
6190 Clouds -5 1007 90 10000 0.89 70 16:58 29.12.2021
6191 Clouds -5 1007 90 10000 0.89 60 16:19 29.12.2021
6192 Clouds -5 1013 87 10000 1.79 30 14:46 29.12.2021
6193 Clouds -5 1012 86 10000 0.45 35 12:49 29.12.2021
6194 Clouds -5 1012 86 10000 0.89 0 12:27 29.12.2021
6195 Snow -5 1005 90 10000 0.45 84 10:38 29.12.2021
6196 Clouds -6 1005 87 10000 0.45 76 08:37 29.12.2021
6197 Clouds -6 1005 94 10000 0.45 0 06:48 29.12.2021
6198 Clouds -7 1005 90 10000 0.45 334 06:27 29.12.2021
6199 Clouds -7 1005 90 10000 0.45 358 05:50 29.12.2021
6200 Clouds -7 1005 90 10000 0.45 8 03:46 29.12.2021
6201 Clouds -7 1007 90 10000 0.45 68 00:28 29.12.2021
6202 Clouds -7 1006 90 10000 0.89 8 23:56 28.12.2021
6203 Snow -7 1007 90 10000 1.34 327 22:50 28.12.2021
6204 Snow -7 1007 83 10000 0.45 346 22:24 28.12.2021
6205 Snow -7 1008 83 9000 0.89 349 21:54 28.12.2021
6206 Snow -7 1008 87 6000 0.45 291 20:54 28.12.2021
6207 Snow -7 1009 86 6000 0.45 84 19:50 28.12.2021
6208 Snow -7 1009 85 6000 0.89 67 18:50 28.12.2021
6209 Snow -7 1009 82 8000 0.45 310 18:23 28.12.2021
6210 Snow -7 1010 81 10000 0.45 233 16:35 28.12.2021
6211 Snow -6 1011 72 10000 0.45 9 15:52 28.12.2021
6212 Snow -6 1011 72 10000 0.45 61 15:27 28.12.2021
6213 Snow -6 1011 72 10000 0.45 37 14:53 28.12.2021
6214 Snow -6 1018 78 10000 0.89 318 14:21 28.12.2021
6215 Clear -6 1011 78 10000 0.89 17 13:54 28.12.2021
6216 Snow -6 1018 78 10000 1.34 1 13:33 28.12.2021
6217 Snow -6 1019 79 10000 0.89 327 12:55 28.12.2021
6218 Snow -6 1012 79 10000 0.89 342 12:18 28.12.2021
6219 Clouds -7 1013 86 10000 0.45 15 09:30 28.12.2021
6220 Clouds -7 1013 94 10000 0.89 76 07:33 28.12.2021
6221 Clouds -7 1014 99 10000 0.45 327 03:31 28.12.2021
6222 Mist -7 1015 97 4800 0.45 81 23:37 27.12.2021
6223 Mist -7 1015 99 5000 4.92 80 22:20 27.12.2021
6224 Mist -6 1015 95 3400 0.45 163 21:30 27.12.2021
6225 Mist -6 1015 95 2400 0.45 50 20:32 27.12.2021
6226 Mist -6 1015 95 2100 4.02 90 19:47 27.12.2021
6227 Fog -6 1015 99 1300 0.45 123 18:57 27.12.2021
6228 Fog -6 1015 98 1000 0.45 126 17:51 27.12.2021
6229 Fog -6 1015 99 1100 3.13 90 17:28 27.12.2021
6230 Mist -6 1014 95 5000 0.45 198 15:54 27.12.2021
6231 Mist -6 1021 95 5000 0.89 0 14:56 27.12.2021
6232 Snow -6 1014 99 4700 0.89 0 14:21 27.12.2021
6233 Mist -7 1012 100 2300 1.79 200 12:49 27.12.2021
6234 Snow -6 1021 98 4600 0.45 92 10:37 27.12.2021
6235 Mist -6 1022 98 4400 0.45 217 10:18 27.12.2021
6236 Clouds -7 1011 100 6000 1.79 150 08:42 27.12.2021
6237 Clouds -7 1011 100 6000 1.79 150 08:42 27.12.2021
6238 Clouds -6 1014 91 8000 0.89 0 07:34 27.12.2021
6239 Clouds -6 1012 90 10000 0.45 255 02:29 27.12.2021
6240 Clouds -7 1008 90 10000 3.13 280 00:57 27.12.2021
6241 Clouds -7 1008 90 10000 1.79 260 23:43 26.12.2021
6242 Clouds -7 1011 89 10000 0.45 250 23:18 26.12.2021
6243 Clear -6 1010 89 10000 0.45 261 21:33 26.12.2021
6244 Clear -6 1006 85 10000 4.02 250 19:54 26.12.2021
6245 Clear -5 1008 85 10000 0.89 225 18:29 26.12.2021
6246 Clear -5 1005 85 10000 3.13 230 17:51 26.12.2021
6247 Clear -4 1007 78 10000 0.45 240 15:35 26.12.2021
6248 Clear -3 1013 71 10000 1.34 243 13:43 26.12.2021
6249 Clear -3 1013 71 10000 0.45 272 13:21 26.12.2021
6250 Clear -3 1013 71 10000 0.89 302 12:35 26.12.2021
6251 Clear -4 1006 76 10000 0.89 214 11:18 26.12.2021
6252 Clear -7 1004 85 10000 4.92 260 09:30 26.12.2021
6253 Clear -8 1006 88 10000 0.89 211 08:45 26.12.2021
6254 Clear -8 1006 90 10000 4.02 250 08:23 26.12.2021
6255 Clear -7 1005 89 10000 0.45 253 01:45 26.12.2021
6256 Clear -6 1004 85 10000 3.13 260 00:39 26.12.2021
6257 Clear -7 1001 79 10000 3.13 260 23:35 25.12.2021
6258 Clear -6 1000 79 10000 3.13 270 22:29 25.12.2021
6259 Clear -5 1003 80 10000 1.79 220 21:30 25.12.2021
6260 Clear -5 1003 72 10000 0.45 256 20:18 25.12.2021
6261 Clear -5 1000 67 10000 3.13 290 19:18 25.12.2021
6262 Clear -5 1002 68 10000 0.89 83 18:37 25.12.2021
6263 Clear -4 1001 62 10000 3.13 250 16:50 25.12.2021
6264 Clear -3 1000 64 10000 3.13 270 15:34 25.12.2021
6265 Clear -2 996 58 10000 4.02 310 14:23 25.12.2021
6266 Clear 0 997 62 10000 0.45 240 12:21 25.12.2021
6267 Snow 0 996 81 10000 0.45 78 10:46 25.12.2021
6268 Clouds 1 995 82 10000 0.89 259 09:49 25.12.2021
6269 Rain 1 992 93 10000 0.89 191 07:27 25.12.2021
6270 Clouds 1 987 94 9000 0.45 250 01:40 25.12.2021
6271 Snow 0 987 94 5000 0.45 190 00:21 25.12.2021
6272 Snow -2 996 93 5000 4.02 230 21:59 24.12.2021
6273 Clouds -4 990 92 10000 0.45 147 19:27 24.12.2021
6274 Clouds -4 990 92 10000 0.45 72 18:56 24.12.2021
6275 Snow -5 992 85 5000 0.45 90 16:49 24.12.2021
6276 Snow -5 993 85 10000 0.45 119 15:50 24.12.2021
6277 Snow -5 993 85 9000 0.89 119 15:25 24.12.2021
6278 Snow -5 993 79 10000 0.45 87 14:35 24.12.2021
6279 Snow -6 994 85 10000 0.45 69 13:57 24.12.2021
6280 Snow -6 994 85 10000 0.89 95 13:32 24.12.2021
6281 Snow -6 995 79 10000 0.45 140 12:45 24.12.2021
6282 Snow -6 997 79 5000 0.45 80 11:45 24.12.2021
6283 Snow -6 997 79 5000 0.89 141 11:24 24.12.2021
6284 Snow -7 998 79 10000 0.89 174 10:36 24.12.2021
6285 Snow -8 1000 85 10000 0.89 99 09:22 24.12.2021
6286 Snow -9 1001 85 10000 0.45 193 08:19 24.12.2021
6287 Snow -10 1002 81 10000 0.89 163 07:42 24.12.2021
6288 Clear -11 1006 78 10000 3.13 190 00:47 24.12.2021
6289 Clear -11 1007 81 10000 4.02 190 23:50 23.12.2021
6290 Clouds -12 1007 85 10000 4.02 210 22:54 23.12.2021
6291 Clouds -12 1007 85 10000 3.13 200 22:26 23.12.2021
6292 Clouds -12 1018 85 10000 4.02 200 21:50 23.12.2021
6293 Clouds -13 1004 85 9000 3 210 20:53 23.12.2021
6294 Clear -12 1010 85 10000 4.02 220 19:30 23.12.2021
6295 Clouds -12 1010 85 9000 4.02 210 18:28 23.12.2021
6296 Clouds -12 1014 92 9000 3.13 220 17:46 23.12.2021
6297 Clouds -11 1015 85 9000 0.45 245 16:27 23.12.2021
6298 Clouds -11 1015 78 9000 0.45 237 15:54 23.12.2021
6299 Clear -10 1015 78 10000 0.45 266 15:30 23.12.2021
6300 Clouds -10 1023 78 10000 0.89 311 14:42 23.12.2021
6301 Clear -9 1023 78 10000 0.45 245 13:49 23.12.2021
6302 Clear -9 1016 72 10000 0.45 214 11:59 23.12.2021
6303 Snow -11 1017 85 9000 0.45 261 10:36 23.12.2021
6304 Snow -12 1015 85 8000 4.02 280 09:34 23.12.2021
6305 Snow -12 1018 85 9000 0.45 237 08:58 23.12.2021
6306 Snow -13 1017 84 10000 3.13 270 06:20 23.12.2021
6307 Snow -11 1017 85 3900 0.45 280 03:28 23.12.2021
6308 Snow -10 1013 72 5000 4.92 330 22:54 22.12.2021
6309 Snow -10 1013 72 7000 5.81 320 22:22 22.12.2021
6310 Snow -10 1016 78 8000 0.45 91 21:48 22.12.2021
6311 Snow -10 1013 78 8000 5.81 310 21:26 22.12.2021
6312 Snow -10 1016 85 10000 0.45 265 20:41 22.12.2021
6313 Snow -10 1016 78 9000 0.45 229 19:59 22.12.2021
6314 Snow -10 1016 72 8000 0.89 227 18:57 22.12.2021
6315 Snow -9 1015 67 10000 0.89 31 17:39 22.12.2021
6316 Snow -9 1012 72 10000 5.81 300 16:34 22.12.2021
6317 Clouds -9 1011 72 10000 4.92 290 15:24 22.12.2021
6318 Clouds -9 1014 72 10000 0.89 12 12:59 22.12.2021
6319 Clouds -9 1021 72 10000 0.89 43 11:58 22.12.2021
6320 Clouds -10 1014 66 10000 0.89 174 09:53 22.12.2021
6321 Snow -11 1014 78 10000 0.89 52 08:58 22.12.2021
6322 Clouds -12 1013 85 10000 0.45 152 07:22 22.12.2021
6323 Clouds -11 1012 85 10000 0.45 100 05:40 22.12.2021
6324 Clouds -12 1012 85 10000 0.89 229 05:21 22.12.2021
6325 Clear -12 1012 85 10000 0.45 244 04:43 22.12.2021
6326 Clear -12 1009 85 10000 0.45 14 03:56 22.12.2021
6327 Clear -12 1009 92 10000 0.89 121 03:31 22.12.2021
6328 Clouds -11 1008 85 10000 2 280 23:57 21.12.2021
6329 Clouds -11 1018 85 10000 0.45 103 22:49 21.12.2021
6330 Snow -11 1008 85 10000 0.45 253 22:27 21.12.2021
6331 Snow -10 1008 79 9000 0.45 243 21:43 21.12.2021
6332 Clouds -11 1010 78 10000 0.89 255 20:53 21.12.2021
6333 Snow -11 1001 85 10000 4 290 20:20 21.12.2021
6334 Snow -10 1010 72 10000 0.45 235 20:20 21.12.2021
6335 Snow -10 1010 72 10000 0.45 262 19:41 21.12.2021
6336 Snow -10 1010 66 10000 0.45 190 18:36 21.12.2021
6337 Clouds -10 1010 66 10000 0.45 241 17:59 21.12.2021
6338 Clear -10 1010 69 10000 0.89 232 17:40 21.12.2021
6339 Clear -10 1009 66 10000 0.45 263 15:46 21.12.2021
6340 Clouds -10 1015 61 10000 0.89 218 14:29 21.12.2021
6341 Clouds -10 1008 61 10000 0.89 245 13:42 21.12.2021
6342 Clouds -9 1014 61 10000 0.89 110 12:39 21.12.2021
6343 Clouds -9 1014 61 10000 0.89 45 10:52 21.12.2021
6344 Snow -9 1013 66 9000 0.45 53 09:57 21.12.2021
6345 Clouds -9 1006 61 10000 1.34 47 09:18 21.12.2021
6346 Snow -7 1005 78 2100 0.45 182 07:45 21.12.2021
6347 Snow -7 1004 79 9000 0.89 48 07:24 21.12.2021
6348 Snow -6 999 85 10000 4.92 320 04:37 21.12.2021
6349 Snow -5 1001 85 7000 0.45 107 02:31 21.12.2021
6350 Snow -4 999 79 8000 0.45 50 23:55 20.12.2021
6351 Snow -3 999 86 9000 0.45 39 22:44 20.12.2021
6352 Snow -3 999 86 9000 0.45 219 22:25 20.12.2021
6353 Snow -3 998 86 9000 0.45 17 21:27 20.12.2021
6354 Snow -3 995 86 2400 3.13 350 20:55 20.12.2021
6355 Snow -2 997 89 4600 0.45 31 20:24 20.12.2021
6356 Snow -3 997 92 4200 0.45 91 19:38 20.12.2021
6357 Snow -3 997 92 4200 0.45 91 19:38 20.12.2021
6358 Snow -3 997 92 4200 0.45 42 19:19 20.12.2021
6359 Snow -2 996 86 2500 0.89 334 18:33 20.12.2021
6360 Snow -2 996 92 1100 0.45 57 17:51 20.12.2021
6361 Snow -1 995 92 1400 3.13 10 16:47 20.12.2021
6362 Snow 0 995 80 10000 0.45 346 16:18 20.12.2021
6363 Snow 0 994 86 10000 4.02 290 15:40 20.12.2021
6364 Clouds 0 994 86 10000 0.45 242 14:26 20.12.2021
6365 Rain 1 993 80 10000 0.45 215 12:40 20.12.2021
6366 Snow 0 990 83 10000 4.92 300 10:50 20.12.2021
6367 Snow 0 990 86 10000 4.92 300 09:40 20.12.2021
6368 Snow 0 990 95 10000 4.92 290 08:50 20.12.2021
6369 Snow 0 992 92 10000 0.45 168 08:32 20.12.2021
6370 Snow 0 992 86 10000 0.45 254 07:35 20.12.2021
6371 Snow 0 992 95 5000 0.45 120 06:39 20.12.2021
6372 Clouds 0 987 95 10000 4.02 300 00:26 20.12.2021
6373 Snow 1 990 93 8000 0.45 281 22:58 19.12.2021
6374 Snow 1 990 95 10000 0.45 169 22:40 19.12.2021
6375 Clouds 1 989 93 10000 0.45 216 21:32 19.12.2021
6376 Snow 1 989 90 10000 4.02 290 20:42 19.12.2021
6377 Snow 1 989 90 10000 0.45 298 20:23 19.12.2021
6378 Rain 2 989 91 10000 0.45 153 19:41 19.12.2021
6379 Clouds 2 989 91 10000 1.34 245 18:42 19.12.2021
6380 Clouds 3 989 91 9000 0.45 172 17:53 19.12.2021
6381 Rain 3 989 93 9000 0.89 44 17:34 19.12.2021
6382 Clouds 3 986 95 10000 5.81 280 16:41 19.12.2021
6383 Clouds 3 986 95 10000 7.15 280 15:56 19.12.2021
6384 Clouds 3 989 95 8000 1.34 235 15:24 19.12.2021
6385 Rain 3 989 95 10000 0.89 305 14:45 19.12.2021
6386 Clouds 3 989 91 10000 1.34 273 13:32 19.12.2021
6387 Clouds 3 989 95 10000 0.89 280 12:59 19.12.2021
6388 Clouds 3 990 95 9000 0.45 273 12:29 19.12.2021
6389 Rain 2 992 100 8000 0.45 145 11:37 19.12.2021
6390 Snow 1 992 95 5000 0.45 149 10:50 19.12.2021
6391 Rain 2 1000 100 7000 0.89 225 10:22 19.12.2021
6392 Rain 2 994 95 2300 0.45 235 08:50 19.12.2021
6393 Drizzle 1 996 100 3400 1.79 259 06:45 19.12.2021
6394 Snow 1 1003 93 10000 0.45 265 01:52 19.12.2021
6395 Drizzle 0 1001 100 6000 4.92 240 00:54 19.12.2021
6396 Snow 0 1004 95 9000 4.02 240 23:18 18.12.2021
6397 Snow 0 1008 92 9000 0.45 180 22:24 18.12.2021
6398 Clouds 0 1008 95 10000 4.02 250 21:44 18.12.2021
6399 Clouds 0 1008 95 10000 4.02 250 21:25 18.12.2021
6400 Clouds -1 1009 95 10000 0.45 99 20:26 18.12.2021
6401 Clouds -1 1010 95 10000 0.45 209 19:35 18.12.2021
6402 Snow -1 1011 90 7000 0.45 213 18:24 18.12.2021
6403 Clouds 0 1011 86 10000 0.45 116 17:49 18.12.2021
6404 Clouds 0 1012 80 10000 0.45 134 16:48 18.12.2021
6405 Snow 0 1012 74 10000 0.45 241 16:20 18.12.2021
6406 Clouds 0 1010 90 10000 4.92 300 14:54 18.12.2021
6407 Clouds 0 1010 86 10000 4.02 320 13:45 18.12.2021
6408 Clouds 0 1013 86 10000 0.45 29 11:57 18.12.2021
6409 Snow 0 1014 90 9000 0.45 22 09:54 18.12.2021
6410 Snow 0 1014 90 1100 0.45 80 09:31 18.12.2021
6411 Snow 0 1014 90 7000 0.89 48 08:36 18.12.2021
6412 Clouds 0 1013 86 10000 0.89 330 06:28 18.12.2021
6413 Snow 1 1008 86 10000 4.92 340 01:45 18.12.2021
6414 Clouds 1 1007 90 10000 4.02 350 23:49 17.12.2021
6415 Rain 1 1006 90 10000 4.02 340 22:39 17.12.2021
6416 Clouds 1 1006 90 10000 4.92 350 21:31 17.12.2021
6417 Clouds 2 1009 86 10000 0.89 44 20:43 17.12.2021
6418 Rain 2 1009 91 10000 0.89 2 19:56 17.12.2021
6419 Clouds 2 1008 86 10000 0.89 344 18:40 17.12.2021
6420 Clouds 2 1008 91 10000 0.45 46 17:50 17.12.2021
6421 Clouds 2 1007 86 8000 4.92 320 16:53 17.12.2021
6422 Clouds 2 1007 88 10000 3.13 320 16:27 17.12.2021
6423 Clouds 3 1007 86 10000 0.89 301 15:49 17.12.2021
6424 Clouds 2 1008 87 10000 0.45 273 14:43 17.12.2021
6425 Clouds 2 1008 89 7000 0.45 60 13:51 17.12.2021
6426 Clouds 4 1008 85 10000 0.89 20 12:36 17.12.2021
6427 Clouds 3 1008 93 10000 0.45 10 10:42 17.12.2021
6428 Clouds 3 1008 93 9000 0.45 13 09:47 17.12.2021
6429 Clouds 3 1006 93 10000 5.81 310 08:32 17.12.2021
6430 Clouds 3 1006 93 10000 5.81 310 07:38 17.12.2021
6431 Clouds 3 1009 94 10000 0.45 69 04:41 17.12.2021
6432 Clouds 4 1008 94 9000 4.02 290 00:28 17.12.2021
6433 Clouds 4 1009 98 6000 4.02 290 22:25 16.12.2021
6434 Clouds 4 1009 98 6000 4.02 290 21:55 16.12.2021
6435 Clouds 4 1009 98 6000 4.02 290 21:36 16.12.2021
6436 Mist 4 1009 94 5000 4.02 290 20:40 16.12.2021
6437 Mist 4 1012 92 3700 0.45 163 19:52 16.12.2021
6438 Mist 3 1012 96 3200 0.89 242 18:45 16.12.2021
6439 Mist 3 1012 98 4700 0.45 251 18:26 16.12.2021
6440 Mist 3 1011 98 4900 4.02 280 17:35 16.12.2021
6441 Rain 3 1011 98 5000 4.02 260 16:23 16.12.2021
6442 Rain 3 1013 94 3200 0.45 245 15:22 16.12.2021
6443 Mist 2 1014 96 4700 4.92 260 13:44 16.12.2021
6444 Rain 2 1015 94 5000 0.45 74 11:48 16.12.2021
6445 Rain 1 1013 97 5000 0.89 241 11:18 16.12.2021
6446 Clouds 1 1016 94 6000 0.45 359 10:39 16.12.2021
6447 Clouds 1 1016 94 7000 0.89 73 09:39 16.12.2021
6448 Mist 0 1016 99 5000 3.13 250 06:23 16.12.2021
6449 Mist 0 1017 98 5000 3.13 290 03:19 16.12.2021
6450 Clouds 0 1020 93 7000 1.79 310 23:36 15.12.2021
6451 Clouds 0 1020 93 6000 1.79 320 22:49 15.12.2021
6452 Mist 0 1020 93 4500 1.79 330 22:19 15.12.2021
6453 Mist 0 1020 95 5000 0.89 86 21:31 15.12.2021
6454 Mist 0 1020 95 5000 3.13 320 20:32 15.12.2021
6455 Mist -1 1020 75 4200 0.45 338 19:53 15.12.2021
6456 Clouds -1 1018 99 6000 1.79 340 18:41 15.12.2021
6457 Mist -1 1016 100 4500 3.13 320 18:18 15.12.2021
6458 Clouds -1 1015 100 6000 3.13 330 17:40 15.12.2021
6459 Mist -1 1017 99 5000 3.13 340 16:57 15.12.2021
6460 Clouds -1 1024 95 8000 3.13 340 15:47 15.12.2021
6461 Clouds -1 1015 95 9000 3.13 330 15:29 15.12.2021
6462 Clouds -1 1017 91 10000 3.13 350 14:44 15.12.2021
6463 Clouds -1 1024 87 10000 3 320 13:27 15.12.2021
6464 Clouds 0 1017 88 10000 3.13 330 10:58 15.12.2021
6465 Clouds 0 1017 88 10000 4.02 330 09:31 15.12.2021
6466 Clouds 0 1016 96 6000 3.13 350 07:47 15.12.2021
6467 Mist 0 1015 96 3800 4.02 330 02:40 15.12.2021
6468 Mist 1 1015 96 4800 3.13 330 23:44 14.12.2021
6469 Mist 1 1016 96 4300 1.79 330 22:52 14.12.2021
6470 Mist 1 1015 96 5000 1.79 20 22:34 14.12.2021
6471 Clouds 1 1017 73 7000 0.45 325 21:24 14.12.2021
6472 Clouds 1 1023 96 10000 0.45 219 19:44 14.12.2021
6473 Clouds 1 1017 96 10000 0.45 79 19:21 14.12.2021
6474 Snow 1 1017 96 7000 0.45 112 18:34 14.12.2021
6475 Snow 1 1023 95 9000 0.45 26 17:50 14.12.2021
6476 Rain 1 1017 96 7000 0.45 313 16:43 14.12.2021
6477 Clouds 1 1017 96 6000 0.45 335 15:52 14.12.2021
6478 Mist 1 1016 96 4700 0.45 332 13:33 14.12.2021
6479 Snow 1 1016 96 9000 0.45 345 12:41 14.12.2021
6480 Clouds 1 1023 96 8000 0.45 288 11:24 14.12.2021
6481 Snow 1 1023 96 7000 4.02 10 10:27 14.12.2021
6482 Snow 1 1023 96 6000 0.45 346 09:53 14.12.2021
6483 Snow 0 1023 100 2700 0.45 21 08:29 14.12.2021
6484 Snow 0 1023 100 3800 0.45 320 07:59 14.12.2021
6485 Snow 0 1022 100 4800 0.45 42 06:27 14.12.2021
6486 Rain 1 1021 96 6000 0.45 355 23:39 13.12.2021
6487 Mist 1 1021 96 4400 0.45 16 21:57 13.12.2021
6488 Mist 1 1021 96 4800 0.89 40 21:34 13.12.2021
6489 Mist 1 1021 96 4800 0.89 40 21:34 13.12.2021
6490 Mist 1 1021 96 5000 0.89 70 20:50 13.12.2021
6491 Clouds 1 1021 96 6000 1.79 80 19:59 13.12.2021
6492 Mist 1 1021 96 5000 0.45 14 19:27 13.12.2021
6493 Mist 1 1015 96 4900 0.45 36 17:27 13.12.2021
6494 Mist 1 1021 96 4900 1.79 60 17:27 13.12.2021
6495 Rain 1 1020 96 4800 3.13 50 16:23 13.12.2021
6496 Rain 1 1020 96 3900 0.45 334 15:43 13.12.2021
6497 Rain 1 1020 96 3900 0.45 334 15:43 13.12.2021
6498 Rain 1 1019 96 4500 1.79 100 13:52 13.12.2021
6499 Rain 1 1019 96 2700 0.45 238 13:18 13.12.2021
6500 Rain 1 1019 96 4000 0.45 11 12:36 13.12.2021
6501 Mist 1 1020 96 4300 0.45 283 11:40 13.12.2021
6502 Rain 1 1020 96 5000 0.45 310 11:19 13.12.2021
6503 Rain 1 1020 96 6000 0.45 136 10:21 13.12.2021
6504 Mist 1 1014 96 5000 0.45 70 08:28 13.12.2021
6505 Snow 1 1012 93 3300 0.45 319 05:37 13.12.2021
6506 Mist 1 1013 93 4000 0.45 143 03:32 13.12.2021
6507 Mist 1 1014 93 1800 0.45 78 23:39 12.12.2021
6508 Rain 1 1022 100 1700 0.45 95 21:52 12.12.2021
6509 Mist 0 1022 100 1400 4 110 20:45 12.12.2021
6510 Mist 1 1022 100 3300 0.89 122 19:33 12.12.2021
6511 Fog 2 1022 46 500 0.89 125 17:46 12.12.2021
6512 Fog 2 1022 42 750 0.45 92 16:28 12.12.2021
6513 Fog 2 1022 46 1300 0.45 304 15:51 12.12.2021
6514 Fog 2 1022 46 750 0.89 127 15:26 12.12.2021
6515 Fog 3 1022 46 650 0.45 335 14:37 12.12.2021
6516 Fog 3 1013 46 300 0.45 124 13:34 12.12.2021
6517 Fog 3 1013 46 300 0.45 11 12:37 12.12.2021
6518 Fog 4 1016 58 450 0.45 338 11:44 12.12.2021
6519 Fog 4 1016 63 350 0.45 289 11:25 12.12.2021
6520 Fog 4 1016 63 350 0.89 212 10:39 12.12.2021
6521 Fog 4 1017 71 750 0.45 88 09:44 12.12.2021
6522 Fog 5 1016 76 500 0.89 184 08:38 12.12.2021
6523 Fog 6 1015 76 900 0.89 41 06:34 12.12.2021
6524 Mist 6 1013 100 1700 1.79 120 05:27 12.12.2021
6525 Clouds 6 1015 73 9000 0.45 87 03:58 12.12.2021
6526 Clouds 6 1013 73 10000 0.45 181 00:36 12.12.2021
6527 Clouds 7 1012 71 9000 0.45 82 22:24 11.12.2021
6528 Clouds 7 1011 73 9000 0.89 117 21:52 11.12.2021
6529 Clouds 7 1011 73 6000 0.45 179 21:22 11.12.2021
6530 Mist 7 1010 71 5000 0.89 17 19:40 11.12.2021
6531 Mist 7 1009 68 4300 0.89 137 18:53 11.12.2021
6532 Mist 6 1009 73 3300 0.89 241 18:30 11.12.2021
6533 Rain 6 1008 68 4500 0.89 120 17:37 11.12.2021
6534 Rain 5 1008 68 7000 0.45 345 15:55 11.12.2021
6535 Rain 6 1007 59 7000 0.89 82 15:35 11.12.2021
6536 Rain 6 1007 68 9000 0.89 103 13:46 11.12.2021
6537 Clouds 6 1007 97 8000 0.89 37 11:55 11.12.2021
6538 Rain 7 1007 97 4500 1.79 116 09:57 11.12.2021
6539 Clouds 7 1007 96 8000 1.34 68 09:34 11.12.2021
6540 Rain 7 1007 96 10000 0.45 116 02:41 11.12.2021
6541 Clouds 7 1007 95 10000 0.89 133 00:42 11.12.2021
6542 Clouds 7 1006 95 10000 0.89 252 23:24 10.12.2021
6543 Rain 8 1006 91 10000 0.45 120 21:57 10.12.2021
6544 Rain 8 1006 93 10000 0.45 59 21:37 10.12.2021
6545 Clouds 7 1006 95 10000 0.89 129 19:23 10.12.2021
6546 Clouds 7 1006 96 10000 0.89 105 18:57 10.12.2021
6547 Rain 7 1012 97 9000 0.89 145 17:21 10.12.2021
6548 Clouds 7 1012 96 7000 0.45 28 16:30 10.12.2021
6549 Mist 7 1006 95 5000 0.89 286 15:42 10.12.2021
6550 Clouds 6 1013 96 6000 0.89 132 15:22 10.12.2021
6551 Clouds 6 1013 96 6000 0.89 199 13:52 10.12.2021
6552 Mist 6 1012 96 5000 0.89 175 13:27 10.12.2021
6553 Mist 5 1013 96 5000 0.45 147 12:47 10.12.2021
6554 Clouds 5 1014 96 8000 0.89 182 11:34 10.12.2021
6555 Clouds 5 1015 96 9000 0.45 127 10:38 10.12.2021
6556 Clouds 5 1015 97 8000 0.89 32 09:19 10.12.2021
6557 Mist 4 1009 99 4600 0.45 231 07:21 10.12.2021
6558 Fog 3 1009 99 750 3.13 100 02:51 10.12.2021
6559 Fog 2 1010 99 750 3.13 80 00:57 10.12.2021
6560 Drizzle 2 1010 99 1100 0.45 321 23:37 09.12.2021
6561 Drizzle 2 1010 98 1300 0.45 79 22:40 09.12.2021
6562 Drizzle 2 1010 98 1600 0.45 31 22:19 09.12.2021
6563 Drizzle 2 1010 98 1400 0.45 343 21:20 09.12.2021
6564 Drizzle 2 1010 97 2800 0.45 61 20:34 09.12.2021
6565 Mist 1 1009 98 1200 0.45 338 19:22 09.12.2021
6566 Mist 1 1009 98 1200 4.02 50 18:50 09.12.2021
6567 Mist 1 1009 98 2400 3.13 60 17:57 09.12.2021
6568 Mist 1 1015 98 2300 0.89 344 17:27 09.12.2021
6569 Mist 1 1009 98 2500 0.45 343 16:57 09.12.2021
6570 Mist 1 1009 98 3300 0.45 351 15:59 09.12.2021
6571 Drizzle 1 1009 95 1100 0.45 356 14:51 09.12.2021
6572 Drizzle 1 1008 95 1400 0.45 1 13:39 09.12.2021
6573 Drizzle 1 1008 95 1400 0.45 346 12:47 09.12.2021
6574 Drizzle 0 1014 98 1000 3.13 30 11:25 09.12.2021
6575 Fog 0 1014 98 900 3.13 30 09:45 09.12.2021
6576 Rain 0 1005 97 5000 4 20 06:51 09.12.2021
6577 Rain 0 1005 98 6000 4.02 20 03:46 09.12.2021
6578 Rain 0 1004 98 7000 4.02 20 23:46 08.12.2021
6579 Rain 0 1004 98 7000 4.02 30 23:26 08.12.2021
6580 Rain 0 1004 98 2400 4.92 30 22:50 08.12.2021
6581 Rain 0 1004 98 2500 4.92 30 21:46 08.12.2021
6582 Rain 0 1004 98 2600 4.92 30 21:28 08.12.2021
6583 Rain 0 1004 98 2500 4.02 20 20:18 08.12.2021
6584 Mist 0 1004 98 1300 4.02 20 19:37 08.12.2021
6585 Mist 0 1004 98 1100 4.02 20 18:53 08.12.2021
6586 Mist 0 1010 98 1300 4.92 30 17:47 08.12.2021
6587 Mist 0 1009 95 1400 5.81 30 15:58 08.12.2021
6588 Mist 0 1009 95 1600 5.81 40 15:29 08.12.2021
6589 Mist 0 1009 95 1400 5.81 40 14:50 08.12.2021
6590 Rain 0 1009 95 9000 5.81 20 12:32 08.12.2021
6591 Rain 0 1003 95 9000 0.89 183 10:32 08.12.2021
6592 Rain 0 1004 95 6000 0.89 183 09:30 08.12.2021
6593 Mist 0 1004 94 5000 0.45 42 07:29 08.12.2021
6594 Mist -1 1004 97 2600 0.89 323 04:57 08.12.2021
6595 Mist 0 1004 95 3400 0.89 11 23:34 07.12.2021
6596 Mist 0 1004 95 4400 0.89 18 21:55 07.12.2021
6597 Snow 0 1004 98 7000 1.34 3 21:23 07.12.2021
6598 Rain 0 1003 98 6000 0.89 24 20:24 07.12.2021
6599 Rain 0 1009 98 4900 1.34 27 18:47 07.12.2021
6600 Rain 0 1009 99 4200 0.89 18 17:53 07.12.2021
6601 Snow 0 1009 99 9000 4.92 10 17:20 07.12.2021
6602 Rain 0 1009 99 6000 0.45 55 16:31 07.12.2021
6603 Drizzle 0 1009 99 9000 0.89 37 15:34 07.12.2021
6604 Rain 1 1009 97 9000 0.89 24 14:30 07.12.2021
6605 Rain 1 1008 97 9000 0.89 49 12:56 07.12.2021
6606 Rain 1 1008 97 9000 0.89 49 12:56 07.12.2021
6607 Rain 1 1008 99 7000 1.34 12 11:52 07.12.2021
6608 Snow 1 1009 97 10000 0.89 22 10:36 07.12.2021
6609 Clouds 2 1003 97 10000 1.79 360 08:39 07.12.2021
6610 Clouds 2 1002 97 8000 0.45 53 06:20 07.12.2021
6611 Mist 2 1002 97 5000 1.79 250 05:37 07.12.2021
6612 Fog 1 1007 99 750 0.89 100 23:49 06.12.2021
6613 Rain 1 1001 100 1500 1.79 90 22:58 06.12.2021
6614 Rain 1 1001 100 1400 1.79 90 22:37 06.12.2021
6615 Rain 1 1002 99 2800 3.13 90 21:52 06.12.2021
6616 Mist 1 1002 99 3300 4.02 90 20:34 06.12.2021
6617 Rain 1 1002 99 4100 0.45 348 19:56 06.12.2021
6618 Rain 1 1002 99 3800 4.02 90 19:21 06.12.2021
6619 Rain 1 1003 99 3100 4.02 80 18:28 06.12.2021
6620 Rain 1 1010 99 3300 0.45 56 17:40 06.12.2021
6621 Mist 1 1010 99 3300 0.45 56 17:40 06.12.2021
6622 Rain 1 1010 99 3600 0.45 65 16:48 06.12.2021
6623 Mist 1 1010 96 3400 4.02 90 15:39 06.12.2021
6624 Fog 0 1010 98 400 3.13 100 13:46 06.12.2021
6625 Fog 0 1010 98 450 4.02 110 12:39 06.12.2021
6626 Fog 0 1011 98 500 3.13 110 11:36 06.12.2021
6627 Fog 0 1006 98 1000 0.45 117 08:46 06.12.2021
6628 Mist -1 1005 98 4700 1.79 110 06:40 06.12.2021
6629 Snow -2 1005 93 3800 0.45 110 22:54 05.12.2021
6630 Snow -2 1005 93 5000 0.45 141 21:51 05.12.2021
6631 Snow -2 1005 89 6000 3.13 120 21:19 05.12.2021
6632 Snow -3 1007 84 6000 0.45 134 20:19 05.12.2021
6633 Snow -3 1006 93 6000 3.13 150 19:33 05.12.2021
6634 Snow -3 1005 89 6000 3.13 140 18:47 05.12.2021
6635 Snow -3 1005 89 6000 0.89 194 18:19 05.12.2021
6636 Snow -3 1005 89 6000 0.45 228 17:48 05.12.2021
6637 Snow -2 1005 77 7000 0.45 196 16:47 05.12.2021
6638 Snow -2 1006 79 7000 0.45 212 16:26 05.12.2021
6639 Snow -1 1006 75 8000 0.45 125 15:34 05.12.2021
6640 Clear -1 1005 72 10000 0.45 156 14:37 05.12.2021
6641 Clear 0 1005 69 10000 3.13 120 14:19 05.12.2021
6642 Clear 1 1011 67 10000 0.45 115 13:22 05.12.2021
6643 Clear 1 1011 57 10000 0.45 153 12:40 05.12.2021
6644 Clear 1 1011 65 10000 0.45 252 12:18 05.12.2021
6645 Clear 0 1011 81 10000 0.45 67 11:29 05.12.2021
6646 Clear -1 1004 85 10000 0.45 135 09:59 05.12.2021
6647 Clear -4 1004 92 10000 1.79 150 07:55 05.12.2021
6648 Clear -3 1005 86 10000 0.89 0 03:27 05.12.2021
6649 Clouds -3 1003 82 7000 0 0 23:45 04.12.2021
6650 Clouds -2 1005 84 9000 0.89 0 21:55 04.12.2021
6651 Clear -1 1005 81 10000 0.89 0 20:57 04.12.2021
6652 Clouds -2 1005 83 9000 1.79 180 19:55 04.12.2021
6653 Clouds -2 1006 83 8000 1.79 180 19:32 04.12.2021
6654 Mist -2 1006 86 5000 1.79 170 18:20 04.12.2021
6655 Clouds -3 1006 85 8000 0 0 17:38 04.12.2021
6656 Clear -2 1006 82 7000 0 0 16:49 04.12.2021
6657 Clear -1 1006 81 7000 0 0 16:30 04.12.2021
6658 Clear 0 1006 74 9000 0 0 15:22 04.12.2021
6659 Clear 1 1013 66 10000 0.45 103 11:50 04.12.2021